<?xml version="1.0" encoding="UTF-8" standalone="no" ?>
<gpx xmlns="http://www.topografix.com/GPX/1/1" xmlns:xsi="http://www.w3.org/2001/XMLSchema-instance" xsi:schemaLocation="http://www.topografix.com/GPX/1/1 http://www.topografix.com/GPX/1/1/gpx.xsd" version="1.1" creator="VisuGPX - https://www.visugpx.com">
  <metadata>
    <name>Rallye de l\'Ain à Cheval - Etape 4</name>
    <desc><![CDATA[Virignin - St Pierre d\'Alvey ]]></desc>
  </metadata>
  <trk>
    <name><![CDATA[Rallye de l\'Ain à Cheval - Etape 4_1]]></name>
    <trkseg>
      <trkpt lat="45.73754" lon="5.71624">
        <ele>266.6</ele>
        <time>2015-05-17T10:17:20Z</time>
      </trkpt>
      <trkpt lat="45.73752" lon="5.71626">
        <ele>266.6</ele>
        <time>2015-05-17T10:17:25Z</time>
      </trkpt>
      <trkpt lat="45.73751" lon="5.71627">
        <ele>266.6</ele>
        <time>2015-05-17T10:17:30Z</time>
      </trkpt>
      <trkpt lat="45.73751" lon="5.71628">
        <ele>266.6</ele>
        <time>2015-05-17T10:17:35Z</time>
      </trkpt>
      <trkpt lat="45.7375" lon="5.71626">
        <ele>266.6</ele>
        <time>2015-05-17T10:17:40Z</time>
      </trkpt>
      <trkpt lat="45.73752" lon="5.71628">
        <ele>266.6</ele>
        <time>2015-05-17T10:17:45Z</time>
      </trkpt>
      <trkpt lat="45.73752" lon="5.71626">
        <ele>266.6</ele>
        <time>2015-05-17T10:17:50Z</time>
      </trkpt>
      <trkpt lat="45.73753" lon="5.71625">
        <ele>271.45113917972</ele>
        <time>2015-05-17T10:17:55Z</time>
      </trkpt>
      <trkpt lat="45.73753" lon="5.71624">
        <ele>271.45113917972</ele>
        <time>2015-05-17T10:18:00Z</time>
      </trkpt>
      <trkpt lat="45.73753" lon="5.71624">
        <ele>271.45113917972</ele>
        <time>2015-05-17T10:18:05Z</time>
      </trkpt>
      <trkpt lat="45.73752" lon="5.71625">
        <ele>271.45113917972</ele>
        <time>2015-05-17T10:18:10Z</time>
      </trkpt>
      <trkpt lat="45.73751" lon="5.71625">
        <ele>271.45113917972</ele>
        <time>2015-05-17T10:18:15Z</time>
      </trkpt>
      <trkpt lat="45.73751" lon="5.71624">
        <ele>271.45113917972</ele>
        <time>2015-05-17T10:18:20Z</time>
      </trkpt>
      <trkpt lat="45.73751" lon="5.71623">
        <ele>271.45113917972</ele>
        <time>2015-05-17T10:18:25Z</time>
      </trkpt>
      <trkpt lat="45.73751" lon="5.71623">
        <ele>271.45113917972</ele>
        <time>2015-05-17T10:18:30Z</time>
      </trkpt>
      <trkpt lat="45.73751" lon="5.71623">
        <ele>271.45113917972</ele>
        <time>2015-05-17T10:18:35Z</time>
      </trkpt>
      <trkpt lat="45.73751" lon="5.71623">
        <ele>271.45113917972</ele>
        <time>2015-05-17T10:18:40Z</time>
      </trkpt>
      <trkpt lat="45.73751" lon="5.71623">
        <ele>271.45113917972</ele>
        <time>2015-05-17T10:18:45Z</time>
      </trkpt>
      <trkpt lat="45.73752" lon="5.71622">
        <ele>271.45113917972</ele>
        <time>2015-05-17T10:18:50Z</time>
      </trkpt>
      <trkpt lat="45.73752" lon="5.71621">
        <ele>271.45113917972</ele>
        <time>2015-05-17T10:18:55Z</time>
      </trkpt>
      <trkpt lat="45.73751" lon="5.71621">
        <ele>271.45113917972</ele>
        <time>2015-05-17T10:19:00Z</time>
      </trkpt>
      <trkpt lat="45.73751" lon="5.71621">
        <ele>271.45113917972</ele>
        <time>2015-05-17T10:19:05Z</time>
      </trkpt>
      <trkpt lat="45.73751" lon="5.71621">
        <ele>271.45113917972</ele>
        <time>2015-05-17T10:19:10Z</time>
      </trkpt>
      <trkpt lat="45.73751" lon="5.71621">
        <ele>271.45113917972</ele>
        <time>2015-05-17T10:19:15Z</time>
      </trkpt>
      <trkpt lat="45.73751" lon="5.71621">
        <ele>271.45113917972</ele>
        <time>2015-05-17T10:19:20Z</time>
      </trkpt>
      <trkpt lat="45.73751" lon="5.71621">
        <ele>271.45113917972</ele>
        <time>2015-05-17T10:19:25Z</time>
      </trkpt>
      <trkpt lat="45.73751" lon="5.71621">
        <ele>271.45113917972</ele>
        <time>2015-05-17T10:19:30Z</time>
      </trkpt>
      <trkpt lat="45.73751" lon="5.71621">
        <ele>271.45113917972</ele>
        <time>2015-05-17T10:19:35Z</time>
      </trkpt>
      <trkpt lat="45.73751" lon="5.71621">
        <ele>271.45113917972</ele>
        <time>2015-05-17T10:19:40Z</time>
      </trkpt>
      <trkpt lat="45.73752" lon="5.71621">
        <ele>271.45113917972</ele>
        <time>2015-05-17T10:19:45Z</time>
      </trkpt>
      <trkpt lat="45.73752" lon="5.71623">
        <ele>271.45113917972</ele>
        <time>2015-05-17T10:19:50Z</time>
      </trkpt>
      <trkpt lat="45.73752" lon="5.71623">
        <ele>271.45113917972</ele>
        <time>2015-05-17T10:19:55Z</time>
      </trkpt>
      <trkpt lat="45.73752" lon="5.71623">
        <ele>271.45113917972</ele>
        <time>2015-05-17T10:20:00Z</time>
      </trkpt>
      <trkpt lat="45.73752" lon="5.71623">
        <ele>271.45113917972</ele>
        <time>2015-05-17T10:20:05Z</time>
      </trkpt>
      <trkpt lat="45.73752" lon="5.71623">
        <ele>271.45113917972</ele>
        <time>2015-05-17T10:20:10Z</time>
      </trkpt>
      <trkpt lat="45.73752" lon="5.71623">
        <ele>271.45113917972</ele>
        <time>2015-05-17T10:20:15Z</time>
      </trkpt>
      <trkpt lat="45.73752" lon="5.71623">
        <ele>271.45113917972</ele>
        <time>2015-05-17T10:20:20Z</time>
      </trkpt>
      <trkpt lat="45.73751" lon="5.71623">
        <ele>274.77323234791</ele>
        <time>2015-05-17T10:20:25Z</time>
      </trkpt>
      <trkpt lat="45.73752" lon="5.71622">
        <ele>274.77323234791</ele>
        <time>2015-05-17T10:20:30Z</time>
      </trkpt>
      <trkpt lat="45.73752" lon="5.71622">
        <ele>274.77323234791</ele>
        <time>2015-05-17T10:20:35Z</time>
      </trkpt>
      <trkpt lat="45.73752" lon="5.71623">
        <ele>274.77323234791</ele>
        <time>2015-05-17T10:20:40Z</time>
      </trkpt>
      <trkpt lat="45.73751" lon="5.71623">
        <ele>274.77323234791</ele>
        <time>2015-05-17T10:20:45Z</time>
      </trkpt>
      <trkpt lat="45.7375" lon="5.71623">
        <ele>274.77323234791</ele>
        <time>2015-05-17T10:20:50Z</time>
      </trkpt>
      <trkpt lat="45.7375" lon="5.71623">
        <ele>274.77323234791</ele>
        <time>2015-05-17T10:20:55Z</time>
      </trkpt>
      <trkpt lat="45.7375" lon="5.71623">
        <ele>274.77323234791</ele>
        <time>2015-05-17T10:21:00Z</time>
      </trkpt>
      <trkpt lat="45.7375" lon="5.71623">
        <ele>274.77323234791</ele>
        <time>2015-05-17T10:21:05Z</time>
      </trkpt>
      <trkpt lat="45.7375" lon="5.71623">
        <ele>274.77323234791</ele>
        <time>2015-05-17T10:21:10Z</time>
      </trkpt>
      <trkpt lat="45.7375" lon="5.71623">
        <ele>274.77323234791</ele>
        <time>2015-05-17T10:21:15Z</time>
      </trkpt>
      <trkpt lat="45.7375" lon="5.71623">
        <ele>274.77323234791</ele>
        <time>2015-05-17T10:21:20Z</time>
      </trkpt>
      <trkpt lat="45.7375" lon="5.71623">
        <ele>274.77323234791</ele>
        <time>2015-05-17T10:21:25Z</time>
      </trkpt>
      <trkpt lat="45.7375" lon="5.71623">
        <ele>274.77323234791</ele>
        <time>2015-05-17T10:21:30Z</time>
      </trkpt>
      <trkpt lat="45.73751" lon="5.71623">
        <ele>274.77323234791</ele>
        <time>2015-05-17T10:21:35Z</time>
      </trkpt>
      <trkpt lat="45.73751" lon="5.71622">
        <ele>274.77323234791</ele>
        <time>2015-05-17T10:21:40Z</time>
      </trkpt>
      <trkpt lat="45.73753" lon="5.71623">
        <ele>274.77323234791</ele>
        <time>2015-05-17T10:21:45Z</time>
      </trkpt>
      <trkpt lat="45.73753" lon="5.71623">
        <ele>274.77323234791</ele>
        <time>2015-05-17T10:21:50Z</time>
      </trkpt>
      <trkpt lat="45.73753" lon="5.71623">
        <ele>274.77323234791</ele>
        <time>2015-05-17T10:21:55Z</time>
      </trkpt>
      <trkpt lat="45.73752" lon="5.71623">
        <ele>274.77323234791</ele>
        <time>2015-05-17T10:22:00Z</time>
      </trkpt>
      <trkpt lat="45.73752" lon="5.71623">
        <ele>274.77323234791</ele>
        <time>2015-05-17T10:22:05Z</time>
      </trkpt>
      <trkpt lat="45.73753" lon="5.71621">
        <ele>277.57302508603</ele>
        <time>2015-05-17T10:22:10Z</time>
      </trkpt>
      <trkpt lat="45.73756" lon="5.71617">
        <ele>277.57302508603</ele>
        <time>2015-05-17T10:22:15Z</time>
      </trkpt>
      <trkpt lat="45.73758" lon="5.7161">
        <ele>277.57302508603</ele>
        <time>2015-05-17T10:22:20Z</time>
      </trkpt>
      <trkpt lat="45.73761" lon="5.71603">
        <ele>279.57701322059</ele>
        <time>2015-05-17T10:22:25Z</time>
      </trkpt>
      <trkpt lat="45.73764" lon="5.71596">
        <ele>279.57701322059</ele>
        <time>2015-05-17T10:22:30Z</time>
      </trkpt>
      <trkpt lat="45.73764" lon="5.71594">
        <ele>279.57701322059</ele>
        <time>2015-05-17T10:22:35Z</time>
      </trkpt>
      <trkpt lat="45.73763" lon="5.71592">
        <ele>281.53665608811</ele>
        <time>2015-05-17T10:22:40Z</time>
      </trkpt>
      <trkpt lat="45.73761" lon="5.71592">
        <ele>281.53665608811</ele>
        <time>2015-05-17T10:22:45Z</time>
      </trkpt>
      <trkpt lat="45.73755" lon="5.7159">
        <ele>281.53665608811</ele>
        <time>2015-05-17T10:22:50Z</time>
      </trkpt>
      <trkpt lat="45.73749" lon="5.71588">
        <ele>283.11002857669</ele>
        <time>2015-05-17T10:22:55Z</time>
      </trkpt>
      <trkpt lat="45.73741" lon="5.71587">
        <ele>283.11002857669</ele>
        <time>2015-05-17T10:23:00Z</time>
      </trkpt>
      <trkpt lat="45.73735" lon="5.71586">
        <ele>284.33197524444</ele>
        <time>2015-05-17T10:23:05Z</time>
      </trkpt>
      <trkpt lat="45.73729" lon="5.71582">
        <ele>284.33197524444</ele>
        <time>2015-05-17T10:23:10Z</time>
      </trkpt>
      <trkpt lat="45.73724" lon="5.71579">
        <ele>285.46462932529</ele>
        <time>2015-05-17T10:23:15Z</time>
      </trkpt>
      <trkpt lat="45.73719" lon="5.71577">
        <ele>285.46462932529</ele>
        <time>2015-05-17T10:23:20Z</time>
      </trkpt>
      <trkpt lat="45.73714" lon="5.71577">
        <ele>286.37824263056</ele>
        <time>2015-05-17T10:23:25Z</time>
      </trkpt>
      <trkpt lat="45.73708" lon="5.71577">
        <ele>286.37824263056</ele>
        <time>2015-05-17T10:23:30Z</time>
      </trkpt>
      <trkpt lat="45.73702" lon="5.71578">
        <ele>286.37366887322</ele>
        <time>2015-05-17T10:23:35Z</time>
      </trkpt>
      <trkpt lat="45.73697" lon="5.7158">
        <ele>286.37366887322</ele>
        <time>2015-05-17T10:23:40Z</time>
      </trkpt>
      <trkpt lat="45.73694" lon="5.71585">
        <ele>285.92634554967</ele>
        <time>2015-05-17T10:23:45Z</time>
      </trkpt>
      <trkpt lat="45.73693" lon="5.71589">
        <ele>285.92634554967</ele>
        <time>2015-05-17T10:23:50Z</time>
      </trkpt>
      <trkpt lat="45.7369" lon="5.7159">
        <ele>285.92634554967</ele>
        <time>2015-05-17T10:23:55Z</time>
      </trkpt>
      <trkpt lat="45.73689" lon="5.71592">
        <ele>285.92634554967</ele>
        <time>2015-05-17T10:24:00Z</time>
      </trkpt>
      <trkpt lat="45.73688" lon="5.71593">
        <ele>285.92634554967</ele>
        <time>2015-05-17T10:24:05Z</time>
      </trkpt>
      <trkpt lat="45.73688" lon="5.71593">
        <ele>286.68075868969</ele>
        <time>2015-05-17T10:24:10Z</time>
      </trkpt>
      <trkpt lat="45.73683" lon="5.71596">
        <ele>286.68075868969</ele>
        <time>2015-05-17T10:24:15Z</time>
      </trkpt>
      <trkpt lat="45.73678" lon="5.71602">
        <ele>286.21233937771</ele>
        <time>2015-05-17T10:24:20Z</time>
      </trkpt>
      <trkpt lat="45.73673" lon="5.71609">
        <ele>286.21233937771</ele>
        <time>2015-05-17T10:24:25Z</time>
      </trkpt>
      <trkpt lat="45.73669" lon="5.71613">
        <ele>285.16174472127</ele>
        <time>2015-05-17T10:24:30Z</time>
      </trkpt>
      <trkpt lat="45.73667" lon="5.71614">
        <ele>285.16174472127</ele>
        <time>2015-05-17T10:24:35Z</time>
      </trkpt>
      <trkpt lat="45.73666" lon="5.71615">
        <ele>285.16174472127</ele>
        <time>2015-05-17T10:24:40Z</time>
      </trkpt>
      <trkpt lat="45.73665" lon="5.71618">
        <ele>285.16174472127</ele>
        <time>2015-05-17T10:24:45Z</time>
      </trkpt>
      <trkpt lat="45.73663" lon="5.71621">
        <ele>285.16174472127</ele>
        <time>2015-05-17T10:24:50Z</time>
      </trkpt>
      <trkpt lat="45.7366" lon="5.71628">
        <ele>283.27704752715</ele>
        <time>2015-05-17T10:24:55Z</time>
      </trkpt>
      <trkpt lat="45.73658" lon="5.71633">
        <ele>283.27704752715</ele>
        <time>2015-05-17T10:25:00Z</time>
      </trkpt>
      <trkpt lat="45.73655" lon="5.7164">
        <ele>281.52897016396</ele>
        <time>2015-05-17T10:25:05Z</time>
      </trkpt>
      <trkpt lat="45.73651" lon="5.71646">
        <ele>281.52897016396</ele>
        <time>2015-05-17T10:25:10Z</time>
      </trkpt>
      <trkpt lat="45.7365" lon="5.7165">
        <ele>280.1758855184</ele>
        <time>2015-05-17T10:25:15Z</time>
      </trkpt>
      <trkpt lat="45.7365" lon="5.71652">
        <ele>280.1758855184</ele>
        <time>2015-05-17T10:25:20Z</time>
      </trkpt>
      <trkpt lat="45.73648" lon="5.71654">
        <ele>280.1758855184</ele>
        <time>2015-05-17T10:25:25Z</time>
      </trkpt>
      <trkpt lat="45.73648" lon="5.71656">
        <ele>280.1758855184</ele>
        <time>2015-05-17T10:25:30Z</time>
      </trkpt>
      <trkpt lat="45.73647" lon="5.71662">
        <ele>280.1758855184</ele>
        <time>2015-05-17T10:25:35Z</time>
      </trkpt>
      <trkpt lat="45.73646" lon="5.71665">
        <ele>277.50003688525</ele>
        <time>2015-05-17T10:25:40Z</time>
      </trkpt>
      <trkpt lat="45.73646" lon="5.71669">
        <ele>277.50003688525</ele>
        <time>2015-05-17T10:25:45Z</time>
      </trkpt>
      <trkpt lat="45.73645" lon="5.71676">
        <ele>277.50003688525</ele>
        <time>2015-05-17T10:25:50Z</time>
      </trkpt>
      <trkpt lat="45.73643" lon="5.71689">
        <ele>274.03800767704</ele>
        <time>2015-05-17T10:25:55Z</time>
      </trkpt>
      <trkpt lat="45.7364" lon="5.71702">
        <ele>270.68641448892</ele>
        <time>2015-05-17T10:26:00Z</time>
      </trkpt>
      <trkpt lat="45.73638" lon="5.71715">
        <ele>267.8357740247</ele>
        <time>2015-05-17T10:26:05Z</time>
      </trkpt>
      <trkpt lat="45.73639" lon="5.71723">
        <ele>267.8357740247</ele>
        <time>2015-05-17T10:26:10Z</time>
      </trkpt>
      <trkpt lat="45.73636" lon="5.71725">
        <ele>267.8357740247</ele>
        <time>2015-05-17T10:26:15Z</time>
      </trkpt>
      <trkpt lat="45.73637" lon="5.71725">
        <ele>265.1805713159</ele>
        <time>2015-05-17T10:26:20Z</time>
      </trkpt>
      <trkpt lat="45.73638" lon="5.71726">
        <ele>265.1805713159</ele>
        <time>2015-05-17T10:26:25Z</time>
      </trkpt>
      <trkpt lat="45.73639" lon="5.71727">
        <ele>265.1805713159</ele>
        <time>2015-05-17T10:26:30Z</time>
      </trkpt>
      <trkpt lat="45.73639" lon="5.71727">
        <ele>265.1805713159</ele>
        <time>2015-05-17T10:26:35Z</time>
      </trkpt>
      <trkpt lat="45.73639" lon="5.71727">
        <ele>265.1805713159</ele>
        <time>2015-05-17T10:26:40Z</time>
      </trkpt>
      <trkpt lat="45.73639" lon="5.71727">
        <ele>265.1805713159</ele>
        <time>2015-05-17T10:26:45Z</time>
      </trkpt>
      <trkpt lat="45.73639" lon="5.71727">
        <ele>265.1805713159</ele>
        <time>2015-05-17T10:26:50Z</time>
      </trkpt>
      <trkpt lat="45.73639" lon="5.71727">
        <ele>265.1805713159</ele>
        <time>2015-05-17T10:26:55Z</time>
      </trkpt>
      <trkpt lat="45.73639" lon="5.71727">
        <ele>265.1805713159</ele>
        <time>2015-05-17T10:27:00Z</time>
      </trkpt>
      <trkpt lat="45.73639" lon="5.71727">
        <ele>265.1805713159</ele>
        <time>2015-05-17T10:27:05Z</time>
      </trkpt>
      <trkpt lat="45.73639" lon="5.71727">
        <ele>265.1805713159</ele>
        <time>2015-05-17T10:27:10Z</time>
      </trkpt>
      <trkpt lat="45.73639" lon="5.71727">
        <ele>265.1805713159</ele>
        <time>2015-05-17T10:27:15Z</time>
      </trkpt>
      <trkpt lat="45.73641" lon="5.71726">
        <ele>265.1805713159</ele>
        <time>2015-05-17T10:27:20Z</time>
      </trkpt>
      <trkpt lat="45.73641" lon="5.71725">
        <ele>265.1805713159</ele>
        <time>2015-05-17T10:27:25Z</time>
      </trkpt>
      <trkpt lat="45.73641" lon="5.71725">
        <ele>265.1805713159</ele>
        <time>2015-05-17T10:27:30Z</time>
      </trkpt>
      <trkpt lat="45.73641" lon="5.71724">
        <ele>265.1805713159</ele>
        <time>2015-05-17T10:27:35Z</time>
      </trkpt>
      <trkpt lat="45.73641" lon="5.71724">
        <ele>265.1805713159</ele>
        <time>2015-05-17T10:27:40Z</time>
      </trkpt>
      <trkpt lat="45.73641" lon="5.71725">
        <ele>265.1805713159</ele>
        <time>2015-05-17T10:27:45Z</time>
      </trkpt>
      <trkpt lat="45.73638" lon="5.71726">
        <ele>265.1805713159</ele>
        <time>2015-05-17T10:27:50Z</time>
      </trkpt>
      <trkpt lat="45.73637" lon="5.71731">
        <ele>261.61163171603</ele>
        <time>2015-05-17T10:27:55Z</time>
      </trkpt>
      <trkpt lat="45.73636" lon="5.71734">
        <ele>261.61163171603</ele>
        <time>2015-05-17T10:28:00Z</time>
      </trkpt>
      <trkpt lat="45.73635" lon="5.71737">
        <ele>261.61163171603</ele>
        <time>2015-05-17T10:28:05Z</time>
      </trkpt>
      <trkpt lat="45.73634" lon="5.71739">
        <ele>261.61163171603</ele>
        <time>2015-05-17T10:28:10Z</time>
      </trkpt>
      <trkpt lat="45.73633" lon="5.71742">
        <ele>258.87690931261</ele>
        <time>2015-05-17T10:28:15Z</time>
      </trkpt>
      <trkpt lat="45.73632" lon="5.71751">
        <ele>258.87690931261</ele>
        <time>2015-05-17T10:28:20Z</time>
      </trkpt>
      <trkpt lat="45.73629" lon="5.71762">
        <ele>255.86878089262</ele>
        <time>2015-05-17T10:28:25Z</time>
      </trkpt>
      <trkpt lat="45.73625" lon="5.71774">
        <ele>253.91374425685</ele>
        <time>2015-05-17T10:28:30Z</time>
      </trkpt>
      <trkpt lat="45.73619" lon="5.71784">
        <ele>252.07985418937</ele>
        <time>2015-05-17T10:28:35Z</time>
      </trkpt>
      <trkpt lat="45.73614" lon="5.71787">
        <ele>252.07985418937</ele>
        <time>2015-05-17T10:28:40Z</time>
      </trkpt>
      <trkpt lat="45.73607" lon="5.71789">
        <ele>250.77932953098</ele>
        <time>2015-05-17T10:28:45Z</time>
      </trkpt>
      <trkpt lat="45.73598" lon="5.71792">
        <ele>249.10853926107</ele>
        <time>2015-05-17T10:28:50Z</time>
      </trkpt>
      <trkpt lat="45.73591" lon="5.71793">
        <ele>249.10853926107</ele>
        <time>2015-05-17T10:28:55Z</time>
      </trkpt>
      <trkpt lat="45.73588" lon="5.71797">
        <ele>246.40297777144</ele>
        <time>2015-05-17T10:29:00Z</time>
      </trkpt>
      <trkpt lat="45.73583" lon="5.71802">
        <ele>246.40297777144</ele>
        <time>2015-05-17T10:29:05Z</time>
      </trkpt>
      <trkpt lat="45.73579" lon="5.71806">
        <ele>243.40120791502</ele>
        <time>2015-05-17T10:29:10Z</time>
      </trkpt>
      <trkpt lat="45.73574" lon="5.71814">
        <ele>243.40120791502</ele>
        <time>2015-05-17T10:29:15Z</time>
      </trkpt>
      <trkpt lat="45.7357" lon="5.7182">
        <ele>240.3212077972</ele>
        <time>2015-05-17T10:29:20Z</time>
      </trkpt>
      <trkpt lat="45.73564" lon="5.71825">
        <ele>240.3212077972</ele>
        <time>2015-05-17T10:29:25Z</time>
      </trkpt>
      <trkpt lat="45.73548" lon="5.71826">
        <ele>237.73926677896</ele>
        <time>2015-05-17T10:29:30Z</time>
      </trkpt>
      <trkpt lat="45.73529" lon="5.71822">
        <ele>235.98475939132</ele>
        <time>2015-05-17T10:29:35Z</time>
      </trkpt>
      <trkpt lat="45.73517" lon="5.7182">
        <ele>234.43366347379</ele>
        <time>2015-05-17T10:29:40Z</time>
      </trkpt>
      <trkpt lat="45.73508" lon="5.71818">
        <ele>233.13119929229</ele>
        <time>2015-05-17T10:29:45Z</time>
      </trkpt>
      <trkpt lat="45.73498" lon="5.71816">
        <ele>232.12017828644</ele>
        <time>2015-05-17T10:29:50Z</time>
      </trkpt>
      <trkpt lat="45.7349" lon="5.71815">
        <ele>232.12017828644</ele>
        <time>2015-05-17T10:29:55Z</time>
      </trkpt>
      <trkpt lat="45.73481" lon="5.71811">
        <ele>231.12886424863</ele>
        <time>2015-05-17T10:30:00Z</time>
      </trkpt>
      <trkpt lat="45.73475" lon="5.71808">
        <ele>231.12886424863</ele>
        <time>2015-05-17T10:30:05Z</time>
      </trkpt>
      <trkpt lat="45.73467" lon="5.71807">
        <ele>230.39871349159</ele>
        <time>2015-05-17T10:30:10Z</time>
      </trkpt>
      <trkpt lat="45.73459" lon="5.71805">
        <ele>230.39871349159</ele>
        <time>2015-05-17T10:30:15Z</time>
      </trkpt>
      <trkpt lat="45.73455" lon="5.71803">
        <ele>229.51130479016</ele>
        <time>2015-05-17T10:30:20Z</time>
      </trkpt>
      <trkpt lat="45.73448" lon="5.71802">
        <ele>229.51130479016</ele>
        <time>2015-05-17T10:30:25Z</time>
      </trkpt>
      <trkpt lat="45.7344" lon="5.718">
        <ele>228.51777272859</ele>
        <time>2015-05-17T10:30:30Z</time>
      </trkpt>
      <trkpt lat="45.73433" lon="5.71798">
        <ele>228.51777272859</ele>
        <time>2015-05-17T10:30:35Z</time>
      </trkpt>
      <trkpt lat="45.73425" lon="5.71797">
        <ele>228.04971004754</ele>
        <time>2015-05-17T10:30:40Z</time>
      </trkpt>
      <trkpt lat="45.73417" lon="5.71794">
        <ele>228.04971004754</ele>
        <time>2015-05-17T10:30:45Z</time>
      </trkpt>
      <trkpt lat="45.7341" lon="5.71793">
        <ele>227.8973202639</ele>
        <time>2015-05-17T10:30:50Z</time>
      </trkpt>
      <trkpt lat="45.73403" lon="5.71791">
        <ele>227.8973202639</ele>
        <time>2015-05-17T10:30:55Z</time>
      </trkpt>
      <trkpt lat="45.73396" lon="5.7179">
        <ele>227.71235483044</ele>
        <time>2015-05-17T10:31:00Z</time>
      </trkpt>
      <trkpt lat="45.73389" lon="5.7179">
        <ele>227.71235483044</ele>
        <time>2015-05-17T10:31:05Z</time>
      </trkpt>
      <trkpt lat="45.73382" lon="5.71787">
        <ele>227.7587749411</ele>
        <time>2015-05-17T10:31:10Z</time>
      </trkpt>
      <trkpt lat="45.73374" lon="5.71785">
        <ele>227.7587749411</ele>
        <time>2015-05-17T10:31:15Z</time>
      </trkpt>
      <trkpt lat="45.73367" lon="5.71783">
        <ele>227.80742226783</ele>
        <time>2015-05-17T10:31:20Z</time>
      </trkpt>
      <trkpt lat="45.73358" lon="5.71781">
        <ele>227.80742226783</ele>
        <time>2015-05-17T10:31:25Z</time>
      </trkpt>
      <trkpt lat="45.73351" lon="5.71779">
        <ele>227.23899406776</ele>
        <time>2015-05-17T10:31:30Z</time>
      </trkpt>
      <trkpt lat="45.73343" lon="5.71777">
        <ele>227.23899406776</ele>
        <time>2015-05-17T10:31:35Z</time>
      </trkpt>
      <trkpt lat="45.73337" lon="5.71775">
        <ele>226.64724523052</ele>
        <time>2015-05-17T10:31:40Z</time>
      </trkpt>
      <trkpt lat="45.7333" lon="5.71775">
        <ele>226.64724523052</ele>
        <time>2015-05-17T10:31:45Z</time>
      </trkpt>
      <trkpt lat="45.73324" lon="5.71774">
        <ele>226.52767253639</ele>
        <time>2015-05-17T10:31:50Z</time>
      </trkpt>
      <trkpt lat="45.73316" lon="5.71771">
        <ele>226.52767253639</ele>
        <time>2015-05-17T10:31:55Z</time>
      </trkpt>
      <trkpt lat="45.73308" lon="5.71768">
        <ele>226.45036309614</ele>
        <time>2015-05-17T10:32:00Z</time>
      </trkpt>
      <trkpt lat="45.733" lon="5.71765">
        <ele>226.45036309614</ele>
        <time>2015-05-17T10:32:05Z</time>
      </trkpt>
      <trkpt lat="45.73293" lon="5.71764">
        <ele>226.30214338915</ele>
        <time>2015-05-17T10:32:10Z</time>
      </trkpt>
      <trkpt lat="45.73285" lon="5.71762">
        <ele>226.30214338915</ele>
        <time>2015-05-17T10:32:15Z</time>
      </trkpt>
      <trkpt lat="45.73278" lon="5.71763">
        <ele>226.08439362648</ele>
        <time>2015-05-17T10:32:20Z</time>
      </trkpt>
      <trkpt lat="45.73271" lon="5.71761">
        <ele>226.08439362648</ele>
        <time>2015-05-17T10:32:25Z</time>
      </trkpt>
      <trkpt lat="45.73263" lon="5.71759">
        <ele>225.72354715705</ele>
        <time>2015-05-17T10:32:30Z</time>
      </trkpt>
      <trkpt lat="45.73256" lon="5.71757">
        <ele>225.72354715705</ele>
        <time>2015-05-17T10:32:35Z</time>
      </trkpt>
      <trkpt lat="45.73249" lon="5.71757">
        <ele>225.48458725726</ele>
        <time>2015-05-17T10:32:40Z</time>
      </trkpt>
      <trkpt lat="45.73241" lon="5.71757">
        <ele>225.48458725726</ele>
        <time>2015-05-17T10:32:45Z</time>
      </trkpt>
      <trkpt lat="45.73228" lon="5.71756">
        <ele>225.12896192426</ele>
        <time>2015-05-17T10:32:50Z</time>
      </trkpt>
      <trkpt lat="45.73219" lon="5.71756">
        <ele>224.84430430605</ele>
        <time>2015-05-17T10:32:55Z</time>
      </trkpt>
      <trkpt lat="45.73212" lon="5.71757">
        <ele>224.84430430605</ele>
        <time>2015-05-17T10:33:00Z</time>
      </trkpt>
      <trkpt lat="45.73207" lon="5.71758">
        <ele>225.73453428629</ele>
        <time>2015-05-17T10:33:05Z</time>
      </trkpt>
      <trkpt lat="45.73203" lon="5.71759">
        <ele>225.73453428629</ele>
        <time>2015-05-17T10:33:10Z</time>
      </trkpt>
      <trkpt lat="45.732" lon="5.7176">
        <ele>225.73453428629</ele>
        <time>2015-05-17T10:33:15Z</time>
      </trkpt>
      <trkpt lat="45.73194" lon="5.71765">
        <ele>225.58376966057</ele>
        <time>2015-05-17T10:33:20Z</time>
      </trkpt>
      <trkpt lat="45.73186" lon="5.7177">
        <ele>225.58376966057</ele>
        <time>2015-05-17T10:33:25Z</time>
      </trkpt>
      <trkpt lat="45.73181" lon="5.71773">
        <ele>224.8184414931</ele>
        <time>2015-05-17T10:33:30Z</time>
      </trkpt>
      <trkpt lat="45.73174" lon="5.71775">
        <ele>224.8184414931</ele>
        <time>2015-05-17T10:33:35Z</time>
      </trkpt>
      <trkpt lat="45.73166" lon="5.71777">
        <ele>224.74242698596</ele>
        <time>2015-05-17T10:33:40Z</time>
      </trkpt>
      <trkpt lat="45.7316" lon="5.71776">
        <ele>224.74242698596</ele>
        <time>2015-05-17T10:33:45Z</time>
      </trkpt>
      <trkpt lat="45.73157" lon="5.71777">
        <ele>223.95638779954</ele>
        <time>2015-05-17T10:33:50Z</time>
      </trkpt>
      <trkpt lat="45.7315" lon="5.71778">
        <ele>223.95638779954</ele>
        <time>2015-05-17T10:33:55Z</time>
      </trkpt>
      <trkpt lat="45.73142" lon="5.7178">
        <ele>222.25073311948</ele>
        <time>2015-05-17T10:34:00Z</time>
      </trkpt>
      <trkpt lat="45.73135" lon="5.71781">
        <ele>222.25073311948</ele>
        <time>2015-05-17T10:34:05Z</time>
      </trkpt>
      <trkpt lat="45.73127" lon="5.71784">
        <ele>220.48841759729</ele>
        <time>2015-05-17T10:34:10Z</time>
      </trkpt>
      <trkpt lat="45.73119" lon="5.71791">
        <ele>218.6912252176</ele>
        <time>2015-05-17T10:34:15Z</time>
      </trkpt>
      <trkpt lat="45.73114" lon="5.71801">
        <ele>218.6912252176</ele>
        <time>2015-05-17T10:34:20Z</time>
      </trkpt>
      <trkpt lat="45.7311" lon="5.71811">
        <ele>216.76118685535</ele>
        <time>2015-05-17T10:34:25Z</time>
      </trkpt>
      <trkpt lat="45.73105" lon="5.71828">
        <ele>215.52094690575</ele>
        <time>2015-05-17T10:34:30Z</time>
      </trkpt>
      <trkpt lat="45.73103" lon="5.71838">
        <ele>215.52094690575</ele>
        <time>2015-05-17T10:34:35Z</time>
      </trkpt>
      <trkpt lat="45.731" lon="5.71848">
        <ele>214.97448822587</ele>
        <time>2015-05-17T10:34:40Z</time>
      </trkpt>
      <trkpt lat="45.73098" lon="5.71859">
        <ele>214.97448822587</ele>
        <time>2015-05-17T10:34:45Z</time>
      </trkpt>
      <trkpt lat="45.73096" lon="5.71869">
        <ele>214.7577155253</ele>
        <time>2015-05-17T10:34:50Z</time>
      </trkpt>
      <trkpt lat="45.73093" lon="5.71879">
        <ele>214.7577155253</ele>
        <time>2015-05-17T10:34:55Z</time>
      </trkpt>
      <trkpt lat="45.73092" lon="5.7189">
        <ele>215.00348986565</ele>
        <time>2015-05-17T10:35:00Z</time>
      </trkpt>
      <trkpt lat="45.73092" lon="5.719">
        <ele>215.00348986565</ele>
        <time>2015-05-17T10:35:05Z</time>
      </trkpt>
      <trkpt lat="45.73091" lon="5.7191">
        <ele>215.45351883133</ele>
        <time>2015-05-17T10:35:10Z</time>
      </trkpt>
      <trkpt lat="45.7309" lon="5.71921">
        <ele>215.45351883133</ele>
        <time>2015-05-17T10:35:15Z</time>
      </trkpt>
      <trkpt lat="45.7309" lon="5.71927">
        <ele>217.28282766758</ele>
        <time>2015-05-17T10:35:20Z</time>
      </trkpt>
      <trkpt lat="45.7309" lon="5.71937">
        <ele>217.28282766758</ele>
        <time>2015-05-17T10:35:25Z</time>
      </trkpt>
      <trkpt lat="45.73089" lon="5.71945">
        <ele>219.40241350485</ele>
        <time>2015-05-17T10:35:30Z</time>
      </trkpt>
      <trkpt lat="45.73087" lon="5.71953">
        <ele>219.40241350485</ele>
        <time>2015-05-17T10:35:35Z</time>
      </trkpt>
      <trkpt lat="45.73083" lon="5.71957">
        <ele>221.47741212544</ele>
        <time>2015-05-17T10:35:40Z</time>
      </trkpt>
      <trkpt lat="45.73076" lon="5.71961">
        <ele>221.47741212544</ele>
        <time>2015-05-17T10:35:45Z</time>
      </trkpt>
      <trkpt lat="45.73071" lon="5.71962">
        <ele>224.18576105083</ele>
        <time>2015-05-17T10:35:50Z</time>
      </trkpt>
      <trkpt lat="45.73064" lon="5.71964">
        <ele>224.18576105083</ele>
        <time>2015-05-17T10:35:55Z</time>
      </trkpt>
      <trkpt lat="45.73057" lon="5.71964">
        <ele>226.73114590736</ele>
        <time>2015-05-17T10:36:00Z</time>
      </trkpt>
      <trkpt lat="45.73047" lon="5.71961">
        <ele>228.91508846217</ele>
        <time>2015-05-17T10:36:05Z</time>
      </trkpt>
      <trkpt lat="45.73039" lon="5.71959">
        <ele>228.91508846217</ele>
        <time>2015-05-17T10:36:10Z</time>
      </trkpt>
      <trkpt lat="45.73033" lon="5.71959">
        <ele>231.37956071981</ele>
        <time>2015-05-17T10:36:15Z</time>
      </trkpt>
      <trkpt lat="45.73029" lon="5.71958">
        <ele>231.37956071981</ele>
        <time>2015-05-17T10:36:20Z</time>
      </trkpt>
      <trkpt lat="45.73025" lon="5.71957">
        <ele>231.37956071981</ele>
        <time>2015-05-17T10:36:25Z</time>
      </trkpt>
      <trkpt lat="45.73021" lon="5.71958">
        <ele>233.64734160035</ele>
        <time>2015-05-17T10:36:30Z</time>
      </trkpt>
      <trkpt lat="45.73015" lon="5.71956">
        <ele>233.64734160035</ele>
        <time>2015-05-17T10:36:35Z</time>
      </trkpt>
      <trkpt lat="45.73009" lon="5.71955">
        <ele>236.52016976689</ele>
        <time>2015-05-17T10:36:40Z</time>
      </trkpt>
      <trkpt lat="45.73005" lon="5.71953">
        <ele>236.52016976689</ele>
        <time>2015-05-17T10:36:45Z</time>
      </trkpt>
      <trkpt lat="45.73002" lon="5.71952">
        <ele>236.52016976689</ele>
        <time>2015-05-17T10:36:50Z</time>
      </trkpt>
      <trkpt lat="45.72996" lon="5.71952">
        <ele>238.1248800403</ele>
        <time>2015-05-17T10:36:55Z</time>
      </trkpt>
      <trkpt lat="45.72986" lon="5.7195">
        <ele>239.08464778557</ele>
        <time>2015-05-17T10:37:00Z</time>
      </trkpt>
      <trkpt lat="45.72979" lon="5.71953">
        <ele>239.08464778557</ele>
        <time>2015-05-17T10:37:05Z</time>
      </trkpt>
      <trkpt lat="45.7297" lon="5.71952">
        <ele>239.58812983931</ele>
        <time>2015-05-17T10:37:10Z</time>
      </trkpt>
      <trkpt lat="45.7296" lon="5.71951">
        <ele>239.86888774298</ele>
        <time>2015-05-17T10:37:15Z</time>
      </trkpt>
      <trkpt lat="45.72954" lon="5.71952">
        <ele>239.86888774298</ele>
        <time>2015-05-17T10:37:20Z</time>
      </trkpt>
      <trkpt lat="45.72952" lon="5.71955">
        <ele>239.86888774298</ele>
        <time>2015-05-17T10:37:25Z</time>
      </trkpt>
      <trkpt lat="45.72951" lon="5.71956">
        <ele>240.08617844835</ele>
        <time>2015-05-17T10:37:30Z</time>
      </trkpt>
      <trkpt lat="45.72952" lon="5.71956">
        <ele>240.08617844835</ele>
        <time>2015-05-17T10:37:35Z</time>
      </trkpt>
      <trkpt lat="45.72952" lon="5.71956">
        <ele>240.08617844835</ele>
        <time>2015-05-17T10:37:40Z</time>
      </trkpt>
      <trkpt lat="45.72952" lon="5.71956">
        <ele>240.08617844835</ele>
        <time>2015-05-17T10:37:45Z</time>
      </trkpt>
      <trkpt lat="45.72947" lon="5.71953">
        <ele>240.08617844835</ele>
        <time>2015-05-17T10:37:50Z</time>
      </trkpt>
      <trkpt lat="45.72937" lon="5.7195">
        <ele>239.92640249152</ele>
        <time>2015-05-17T10:37:55Z</time>
      </trkpt>
      <trkpt lat="45.72929" lon="5.71947">
        <ele>239.92640249152</ele>
        <time>2015-05-17T10:38:00Z</time>
      </trkpt>
      <trkpt lat="45.72921" lon="5.71941">
        <ele>239.77793764885</ele>
        <time>2015-05-17T10:38:05Z</time>
      </trkpt>
      <trkpt lat="45.72913" lon="5.71938">
        <ele>239.77793764885</ele>
        <time>2015-05-17T10:38:10Z</time>
      </trkpt>
      <trkpt lat="45.72906" lon="5.71933">
        <ele>240.23134410497</ele>
        <time>2015-05-17T10:38:15Z</time>
      </trkpt>
      <trkpt lat="45.72899" lon="5.71931">
        <ele>240.23134410497</ele>
        <time>2015-05-17T10:38:20Z</time>
      </trkpt>
      <trkpt lat="45.72894" lon="5.71926">
        <ele>240.96720209382</ele>
        <time>2015-05-17T10:38:25Z</time>
      </trkpt>
      <trkpt lat="45.72886" lon="5.71924">
        <ele>240.96720209382</ele>
        <time>2015-05-17T10:38:30Z</time>
      </trkpt>
      <trkpt lat="45.72878" lon="5.71923">
        <ele>242.19357732319</ele>
        <time>2015-05-17T10:38:35Z</time>
      </trkpt>
      <trkpt lat="45.7287" lon="5.71921">
        <ele>242.19357732319</ele>
        <time>2015-05-17T10:38:40Z</time>
      </trkpt>
      <trkpt lat="45.72862" lon="5.71919">
        <ele>243.30901952912</ele>
        <time>2015-05-17T10:38:45Z</time>
      </trkpt>
      <trkpt lat="45.72854" lon="5.71917">
        <ele>243.30901952912</ele>
        <time>2015-05-17T10:38:50Z</time>
      </trkpt>
      <trkpt lat="45.7284" lon="5.71919">
        <ele>244.59296259875</ele>
        <time>2015-05-17T10:38:55Z</time>
      </trkpt>
      <trkpt lat="45.7283" lon="5.7192">
        <ele>245.10712192004</ele>
        <time>2015-05-17T10:39:00Z</time>
      </trkpt>
      <trkpt lat="45.72821" lon="5.71919">
        <ele>245.22449719902</ele>
        <time>2015-05-17T10:39:05Z</time>
      </trkpt>
      <trkpt lat="45.72812" lon="5.71917">
        <ele>245.22449719902</ele>
        <time>2015-05-17T10:39:10Z</time>
      </trkpt>
      <trkpt lat="45.72805" lon="5.71916">
        <ele>246.02749597055</ele>
        <time>2015-05-17T10:39:15Z</time>
      </trkpt>
      <trkpt lat="45.72797" lon="5.71916">
        <ele>246.02749597055</ele>
        <time>2015-05-17T10:39:20Z</time>
      </trkpt>
      <trkpt lat="45.7279" lon="5.71914">
        <ele>245.45973680918</ele>
        <time>2015-05-17T10:39:25Z</time>
      </trkpt>
      <trkpt lat="45.72784" lon="5.71914">
        <ele>245.45973680918</ele>
        <time>2015-05-17T10:39:30Z</time>
      </trkpt>
      <trkpt lat="45.7278" lon="5.71911">
        <ele>244.69179836114</ele>
        <time>2015-05-17T10:39:35Z</time>
      </trkpt>
      <trkpt lat="45.72776" lon="5.71912">
        <ele>244.69179836114</ele>
        <time>2015-05-17T10:39:40Z</time>
      </trkpt>
      <trkpt lat="45.72772" lon="5.71913">
        <ele>244.69179836114</ele>
        <time>2015-05-17T10:39:45Z</time>
      </trkpt>
      <trkpt lat="45.72766" lon="5.71914">
        <ele>244.00130405852</ele>
        <time>2015-05-17T10:39:50Z</time>
      </trkpt>
      <trkpt lat="45.7276" lon="5.71914">
        <ele>244.00130405852</ele>
        <time>2015-05-17T10:39:55Z</time>
      </trkpt>
      <trkpt lat="45.72754" lon="5.71915">
        <ele>243.9482562386</ele>
        <time>2015-05-17T10:40:00Z</time>
      </trkpt>
      <trkpt lat="45.72745" lon="5.71912">
        <ele>244.32855828191</ele>
        <time>2015-05-17T10:40:05Z</time>
      </trkpt>
      <trkpt lat="45.72735" lon="5.71908">
        <ele>244.92307029891</ele>
        <time>2015-05-17T10:40:10Z</time>
      </trkpt>
      <trkpt lat="45.72728" lon="5.71908">
        <ele>244.92307029891</ele>
        <time>2015-05-17T10:40:15Z</time>
      </trkpt>
      <trkpt lat="45.72723" lon="5.71905">
        <ele>245.58588841928</ele>
        <time>2015-05-17T10:40:20Z</time>
      </trkpt>
      <trkpt lat="45.7272" lon="5.71904">
        <ele>245.58588841928</ele>
        <time>2015-05-17T10:40:25Z</time>
      </trkpt>
      <trkpt lat="45.72712" lon="5.719">
        <ele>245.67683663385</ele>
        <time>2015-05-17T10:40:30Z</time>
      </trkpt>
      <trkpt lat="45.72704" lon="5.71899">
        <ele>245.67683663385</ele>
        <time>2015-05-17T10:40:35Z</time>
      </trkpt>
      <trkpt lat="45.72695" lon="5.71894">
        <ele>246.19111825466</ele>
        <time>2015-05-17T10:40:40Z</time>
      </trkpt>
      <trkpt lat="45.72686" lon="5.71891">
        <ele>246.69372582877</ele>
        <time>2015-05-17T10:40:45Z</time>
      </trkpt>
      <trkpt lat="45.72677" lon="5.7189">
        <ele>246.69372582877</ele>
        <time>2015-05-17T10:40:50Z</time>
      </trkpt>
      <trkpt lat="45.72668" lon="5.71892">
        <ele>247.32980826644</ele>
        <time>2015-05-17T10:40:55Z</time>
      </trkpt>
      <trkpt lat="45.72658" lon="5.7189">
        <ele>247.49793513697</ele>
        <time>2015-05-17T10:41:00Z</time>
      </trkpt>
      <trkpt lat="45.72648" lon="5.71885">
        <ele>246.77211128566</ele>
        <time>2015-05-17T10:41:05Z</time>
      </trkpt>
      <trkpt lat="45.72639" lon="5.71889">
        <ele>245.6687811139</ele>
        <time>2015-05-17T10:41:10Z</time>
      </trkpt>
      <trkpt lat="45.7263" lon="5.71883">
        <ele>244.66740751503</ele>
        <time>2015-05-17T10:41:15Z</time>
      </trkpt>
      <trkpt lat="45.72622" lon="5.71877">
        <ele>243.77924577993</ele>
        <time>2015-05-17T10:41:20Z</time>
      </trkpt>
      <trkpt lat="45.72615" lon="5.71868">
        <ele>243.14415309199</ele>
        <time>2015-05-17T10:41:25Z</time>
      </trkpt>
      <trkpt lat="45.72607" lon="5.71861">
        <ele>242.40072865447</ele>
        <time>2015-05-17T10:41:30Z</time>
      </trkpt>
      <trkpt lat="45.72601" lon="5.71852">
        <ele>242.40072865447</ele>
        <time>2015-05-17T10:41:35Z</time>
      </trkpt>
      <trkpt lat="45.72595" lon="5.71844">
        <ele>241.60372984393</ele>
        <time>2015-05-17T10:41:40Z</time>
      </trkpt>
      <trkpt lat="45.72589" lon="5.71834">
        <ele>241.60372984393</ele>
        <time>2015-05-17T10:41:45Z</time>
      </trkpt>
      <trkpt lat="45.72582" lon="5.71828">
        <ele>241.0923177897</ele>
        <time>2015-05-17T10:41:50Z</time>
      </trkpt>
      <trkpt lat="45.72576" lon="5.71824">
        <ele>241.0923177897</ele>
        <time>2015-05-17T10:41:55Z</time>
      </trkpt>
      <trkpt lat="45.7257" lon="5.71818">
        <ele>240.44460740738</ele>
        <time>2015-05-17T10:42:00Z</time>
      </trkpt>
      <trkpt lat="45.72563" lon="5.71816">
        <ele>240.44460740738</ele>
        <time>2015-05-17T10:42:05Z</time>
      </trkpt>
      <trkpt lat="45.72557" lon="5.71815">
        <ele>239.51516730297</ele>
        <time>2015-05-17T10:42:10Z</time>
      </trkpt>
      <trkpt lat="45.72553" lon="5.71814">
        <ele>239.51516730297</ele>
        <time>2015-05-17T10:42:15Z</time>
      </trkpt>
      <trkpt lat="45.72547" lon="5.71813">
        <ele>238.5591968006</ele>
        <time>2015-05-17T10:42:20Z</time>
      </trkpt>
      <trkpt lat="45.72539" lon="5.71811">
        <ele>238.5591968006</ele>
        <time>2015-05-17T10:42:25Z</time>
      </trkpt>
      <trkpt lat="45.72532" lon="5.71809">
        <ele>238.56265537059</ele>
        <time>2015-05-17T10:42:30Z</time>
      </trkpt>
      <trkpt lat="45.72526" lon="5.71808">
        <ele>238.56265537059</ele>
        <time>2015-05-17T10:42:35Z</time>
      </trkpt>
      <trkpt lat="45.7252" lon="5.71803">
        <ele>237.66873985142</ele>
        <time>2015-05-17T10:42:40Z</time>
      </trkpt>
      <trkpt lat="45.72515" lon="5.71795">
        <ele>237.66873985142</ele>
        <time>2015-05-17T10:42:45Z</time>
      </trkpt>
      <trkpt lat="45.72509" lon="5.71789">
        <ele>236.33613169848</ele>
        <time>2015-05-17T10:42:50Z</time>
      </trkpt>
      <trkpt lat="45.72503" lon="5.71784">
        <ele>236.33613169848</ele>
        <time>2015-05-17T10:42:55Z</time>
      </trkpt>
      <trkpt lat="45.72497" lon="5.71778">
        <ele>234.06847731769</ele>
        <time>2015-05-17T10:43:00Z</time>
      </trkpt>
      <trkpt lat="45.72491" lon="5.71775">
        <ele>234.06847731769</ele>
        <time>2015-05-17T10:43:05Z</time>
      </trkpt>
      <trkpt lat="45.72484" lon="5.71767">
        <ele>231.37409931079</ele>
        <time>2015-05-17T10:43:10Z</time>
      </trkpt>
      <trkpt lat="45.72477" lon="5.7176">
        <ele>228.73943364047</ele>
        <time>2015-05-17T10:43:15Z</time>
      </trkpt>
      <trkpt lat="45.72469" lon="5.71752">
        <ele>226.71574734801</ele>
        <time>2015-05-17T10:43:20Z</time>
      </trkpt>
      <trkpt lat="45.7246" lon="5.71744">
        <ele>225.29311530978</ele>
        <time>2015-05-17T10:43:25Z</time>
      </trkpt>
      <trkpt lat="45.72448" lon="5.71736">
        <ele>224.08582330734</ele>
        <time>2015-05-17T10:43:30Z</time>
      </trkpt>
      <trkpt lat="45.72438" lon="5.71729">
        <ele>223.47075531684</ele>
        <time>2015-05-17T10:43:35Z</time>
      </trkpt>
      <trkpt lat="45.7243" lon="5.71724">
        <ele>223.47075531684</ele>
        <time>2015-05-17T10:43:40Z</time>
      </trkpt>
      <trkpt lat="45.72423" lon="5.71721">
        <ele>222.45503510126</ele>
        <time>2015-05-17T10:43:45Z</time>
      </trkpt>
      <trkpt lat="45.72416" lon="5.71721">
        <ele>222.45503510126</ele>
        <time>2015-05-17T10:43:50Z</time>
      </trkpt>
      <trkpt lat="45.72409" lon="5.71717">
        <ele>221.80586091902</ele>
        <time>2015-05-17T10:43:55Z</time>
      </trkpt>
      <trkpt lat="45.72402" lon="5.71713">
        <ele>221.80586091902</ele>
        <time>2015-05-17T10:44:00Z</time>
      </trkpt>
      <trkpt lat="45.72397" lon="5.71708">
        <ele>221.45468558048</ele>
        <time>2015-05-17T10:44:05Z</time>
      </trkpt>
      <trkpt lat="45.7239" lon="5.71703">
        <ele>221.45468558048</ele>
        <time>2015-05-17T10:44:10Z</time>
      </trkpt>
      <trkpt lat="45.72383" lon="5.71696">
        <ele>221.61084973637</ele>
        <time>2015-05-17T10:44:15Z</time>
      </trkpt>
      <trkpt lat="45.72377" lon="5.71693">
        <ele>221.61084973637</ele>
        <time>2015-05-17T10:44:20Z</time>
      </trkpt>
      <trkpt lat="45.72372" lon="5.71691">
        <ele>221.09770191185</ele>
        <time>2015-05-17T10:44:25Z</time>
      </trkpt>
      <trkpt lat="45.72366" lon="5.71685">
        <ele>221.09770191185</ele>
        <time>2015-05-17T10:44:30Z</time>
      </trkpt>
      <trkpt lat="45.72361" lon="5.71685">
        <ele>220.28232976306</ele>
        <time>2015-05-17T10:44:35Z</time>
      </trkpt>
      <trkpt lat="45.72359" lon="5.71685">
        <ele>220.28232976306</ele>
        <time>2015-05-17T10:44:40Z</time>
      </trkpt>
      <trkpt lat="45.72358" lon="5.71684">
        <ele>220.28232976306</ele>
        <time>2015-05-17T10:44:45Z</time>
      </trkpt>
      <trkpt lat="45.72357" lon="5.71682">
        <ele>220.28232976306</ele>
        <time>2015-05-17T10:44:50Z</time>
      </trkpt>
      <trkpt lat="45.72352" lon="5.7168">
        <ele>219.59206056791</ele>
        <time>2015-05-17T10:44:55Z</time>
      </trkpt>
      <trkpt lat="45.72345" lon="5.71681">
        <ele>219.59206056791</ele>
        <time>2015-05-17T10:45:00Z</time>
      </trkpt>
      <trkpt lat="45.72342" lon="5.71676">
        <ele>219.14856402925</ele>
        <time>2015-05-17T10:45:05Z</time>
      </trkpt>
      <trkpt lat="45.72341" lon="5.71674">
        <ele>219.14856402925</ele>
        <time>2015-05-17T10:45:10Z</time>
      </trkpt>
      <trkpt lat="45.72339" lon="5.7167">
        <ele>219.14856402925</ele>
        <time>2015-05-17T10:45:15Z</time>
      </trkpt>
      <trkpt lat="45.72334" lon="5.71664">
        <ele>220.02934288993</ele>
        <time>2015-05-17T10:45:20Z</time>
      </trkpt>
      <trkpt lat="45.72332" lon="5.71662">
        <ele>220.02934288993</ele>
        <time>2015-05-17T10:45:25Z</time>
      </trkpt>
      <trkpt lat="45.7233" lon="5.71657">
        <ele>220.02934288993</ele>
        <time>2015-05-17T10:45:30Z</time>
      </trkpt>
      <trkpt lat="45.72329" lon="5.71652">
        <ele>220.98078633442</ele>
        <time>2015-05-17T10:45:35Z</time>
      </trkpt>
      <trkpt lat="45.72329" lon="5.71652">
        <ele>220.98078633442</ele>
        <time>2015-05-17T10:45:40Z</time>
      </trkpt>
      <trkpt lat="45.7233" lon="5.71652">
        <ele>220.98078633442</ele>
        <time>2015-05-17T10:45:45Z</time>
      </trkpt>
      <trkpt lat="45.7233" lon="5.71652">
        <ele>220.98078633442</ele>
        <time>2015-05-17T10:45:50Z</time>
      </trkpt>
      <trkpt lat="45.7233" lon="5.71652">
        <ele>220.98078633442</ele>
        <time>2015-05-17T10:45:55Z</time>
      </trkpt>
      <trkpt lat="45.7233" lon="5.71652">
        <ele>220.98078633442</ele>
        <time>2015-05-17T10:46:00Z</time>
      </trkpt>
      <trkpt lat="45.72328" lon="5.7165">
        <ele>220.98078633442</ele>
        <time>2015-05-17T10:46:05Z</time>
      </trkpt>
      <trkpt lat="45.72327" lon="5.7165">
        <ele>220.98078633442</ele>
        <time>2015-05-17T10:46:14Z</time>
      </trkpt>
      <trkpt lat="45.72313" lon="5.71629">
        <ele>221.5472513626</ele>
        <time>2015-05-17T10:46:20Z</time>
      </trkpt>
      <trkpt lat="45.72309" lon="5.71614">
        <ele>222.25873473654</ele>
        <time>2015-05-17T10:46:25Z</time>
      </trkpt>
      <trkpt lat="45.72306" lon="5.71603">
        <ele>222.25873473654</ele>
        <time>2015-05-17T10:46:30Z</time>
      </trkpt>
      <trkpt lat="45.72304" lon="5.716">
        <ele>222.55381749067</ele>
        <time>2015-05-17T10:46:35Z</time>
      </trkpt>
      <trkpt lat="45.72304" lon="5.71599">
        <ele>222.55381749067</ele>
        <time>2015-05-17T10:46:40Z</time>
      </trkpt>
      <trkpt lat="45.72304" lon="5.71599">
        <ele>222.55381749067</ele>
        <time>2015-05-17T10:46:45Z</time>
      </trkpt>
      <trkpt lat="45.72304" lon="5.71598">
        <ele>222.55381749067</ele>
        <time>2015-05-17T10:46:50Z</time>
      </trkpt>
      <trkpt lat="45.72304" lon="5.71598">
        <ele>222.55381749067</ele>
        <time>2015-05-17T10:46:55Z</time>
      </trkpt>
      <trkpt lat="45.723" lon="5.71591">
        <ele>222.55381749067</ele>
        <time>2015-05-17T10:47:00Z</time>
      </trkpt>
      <trkpt lat="45.72297" lon="5.71582">
        <ele>223.45547677657</ele>
        <time>2015-05-17T10:47:05Z</time>
      </trkpt>
      <trkpt lat="45.72295" lon="5.71576">
        <ele>223.45547677657</ele>
        <time>2015-05-17T10:47:10Z</time>
      </trkpt>
      <trkpt lat="45.7229" lon="5.71569">
        <ele>224.41103297478</ele>
        <time>2015-05-17T10:47:15Z</time>
      </trkpt>
      <trkpt lat="45.72284" lon="5.71564">
        <ele>224.41103297478</ele>
        <time>2015-05-17T10:47:20Z</time>
      </trkpt>
      <trkpt lat="45.72277" lon="5.7156">
        <ele>225.55675896409</ele>
        <time>2015-05-17T10:47:25Z</time>
      </trkpt>
      <trkpt lat="45.72271" lon="5.71558">
        <ele>225.55675896409</ele>
        <time>2015-05-17T10:47:30Z</time>
      </trkpt>
      <trkpt lat="45.72265" lon="5.71555">
        <ele>226.29781206445</ele>
        <time>2015-05-17T10:47:35Z</time>
      </trkpt>
      <trkpt lat="45.72259" lon="5.7155">
        <ele>226.29781206445</ele>
        <time>2015-05-17T10:47:40Z</time>
      </trkpt>
      <trkpt lat="45.72253" lon="5.71546">
        <ele>227.51093170759</ele>
        <time>2015-05-17T10:47:45Z</time>
      </trkpt>
      <trkpt lat="45.72247" lon="5.71543">
        <ele>227.51093170759</ele>
        <time>2015-05-17T10:47:50Z</time>
      </trkpt>
      <trkpt lat="45.72243" lon="5.71536">
        <ele>228.98393853368</ele>
        <time>2015-05-17T10:47:55Z</time>
      </trkpt>
      <trkpt lat="45.72243" lon="5.71534">
        <ele>228.98393853368</ele>
        <time>2015-05-17T10:48:00Z</time>
      </trkpt>
      <trkpt lat="45.72243" lon="5.71534">
        <ele>228.98393853368</ele>
        <time>2015-05-17T10:48:05Z</time>
      </trkpt>
      <trkpt lat="45.72243" lon="5.71534">
        <ele>228.98393853368</ele>
        <time>2015-05-17T10:48:10Z</time>
      </trkpt>
      <trkpt lat="45.72243" lon="5.71534">
        <ele>228.98393853368</ele>
        <time>2015-05-17T10:48:15Z</time>
      </trkpt>
      <trkpt lat="45.72243" lon="5.71534">
        <ele>228.98393853368</ele>
        <time>2015-05-17T10:48:20Z</time>
      </trkpt>
      <trkpt lat="45.72243" lon="5.71534">
        <ele>228.98393853368</ele>
        <time>2015-05-17T10:48:25Z</time>
      </trkpt>
      <trkpt lat="45.72243" lon="5.71534">
        <ele>228.98393853368</ele>
        <time>2015-05-17T10:48:30Z</time>
      </trkpt>
      <trkpt lat="45.72243" lon="5.71534">
        <ele>228.98393853368</ele>
        <time>2015-05-17T10:48:35Z</time>
      </trkpt>
      <trkpt lat="45.72243" lon="5.71534">
        <ele>228.98393853368</ele>
        <time>2015-05-17T10:48:40Z</time>
      </trkpt>
      <trkpt lat="45.72243" lon="5.71534">
        <ele>228.98393853368</ele>
        <time>2015-05-17T10:48:45Z</time>
      </trkpt>
      <trkpt lat="45.72242" lon="5.71534">
        <ele>228.98393853368</ele>
        <time>2015-05-17T10:48:50Z</time>
      </trkpt>
      <trkpt lat="45.72242" lon="5.71534">
        <ele>228.98393853368</ele>
        <time>2015-05-17T10:48:55Z</time>
      </trkpt>
      <trkpt lat="45.72242" lon="5.71534">
        <ele>228.98393853368</ele>
        <time>2015-05-17T10:49:00Z</time>
      </trkpt>
      <trkpt lat="45.7224" lon="5.71532">
        <ele>228.98393853368</ele>
        <time>2015-05-17T10:49:05Z</time>
      </trkpt>
      <trkpt lat="45.72237" lon="5.71531">
        <ele>228.98393853368</ele>
        <time>2015-05-17T10:49:10Z</time>
      </trkpt>
      <trkpt lat="45.72236" lon="5.71528">
        <ele>231.13924292718</ele>
        <time>2015-05-17T10:49:15Z</time>
      </trkpt>
      <trkpt lat="45.72235" lon="5.71527">
        <ele>231.13924292718</ele>
        <time>2015-05-17T10:49:20Z</time>
      </trkpt>
      <trkpt lat="45.72235" lon="5.71527">
        <ele>231.13924292718</ele>
        <time>2015-05-17T10:49:25Z</time>
      </trkpt>
      <trkpt lat="45.72235" lon="5.71525">
        <ele>231.13924292718</ele>
        <time>2015-05-17T10:49:30Z</time>
      </trkpt>
      <trkpt lat="45.72235" lon="5.71524">
        <ele>231.13924292718</ele>
        <time>2015-05-17T10:49:35Z</time>
      </trkpt>
      <trkpt lat="45.72234" lon="5.71523">
        <ele>231.13924292718</ele>
        <time>2015-05-17T10:49:40Z</time>
      </trkpt>
      <trkpt lat="45.72234" lon="5.71523">
        <ele>231.13924292718</ele>
        <time>2015-05-17T10:49:45Z</time>
      </trkpt>
      <trkpt lat="45.72234" lon="5.71519">
        <ele>231.13924292718</ele>
        <time>2015-05-17T10:49:50Z</time>
      </trkpt>
      <trkpt lat="45.72233" lon="5.7152">
        <ele>231.13924292718</ele>
        <time>2015-05-17T10:49:55Z</time>
      </trkpt>
      <trkpt lat="45.72234" lon="5.71521">
        <ele>231.13924292718</ele>
        <time>2015-05-17T10:50:00Z</time>
      </trkpt>
      <trkpt lat="45.72234" lon="5.71521">
        <ele>231.13924292718</ele>
        <time>2015-05-17T10:50:05Z</time>
      </trkpt>
      <trkpt lat="45.72234" lon="5.71521">
        <ele>231.13924292718</ele>
        <time>2015-05-17T10:50:10Z</time>
      </trkpt>
      <trkpt lat="45.72234" lon="5.71521">
        <ele>231.13924292718</ele>
        <time>2015-05-17T10:50:15Z</time>
      </trkpt>
      <trkpt lat="45.72234" lon="5.71521">
        <ele>231.13924292718</ele>
        <time>2015-05-17T10:50:20Z</time>
      </trkpt>
      <trkpt lat="45.72234" lon="5.71521">
        <ele>231.13924292718</ele>
        <time>2015-05-17T10:50:25Z</time>
      </trkpt>
      <trkpt lat="45.72234" lon="5.7152">
        <ele>231.13924292718</ele>
        <time>2015-05-17T10:50:30Z</time>
      </trkpt>
      <trkpt lat="45.72235" lon="5.7152">
        <ele>231.13924292718</ele>
        <time>2015-05-17T10:50:35Z</time>
      </trkpt>
      <trkpt lat="45.72235" lon="5.7152">
        <ele>231.78670428859</ele>
        <time>2015-05-17T10:50:40Z</time>
      </trkpt>
      <trkpt lat="45.72236" lon="5.71525">
        <ele>231.78670428859</ele>
        <time>2015-05-17T10:50:45Z</time>
      </trkpt>
      <trkpt lat="45.72236" lon="5.71522">
        <ele>231.78670428859</ele>
        <time>2015-05-17T10:50:50Z</time>
      </trkpt>
      <trkpt lat="45.72236" lon="5.71522">
        <ele>231.78670428859</ele>
        <time>2015-05-17T10:50:55Z</time>
      </trkpt>
      <trkpt lat="45.72236" lon="5.71522">
        <ele>231.78670428859</ele>
        <time>2015-05-17T10:51:00Z</time>
      </trkpt>
      <trkpt lat="45.72235" lon="5.71521">
        <ele>231.78670428859</ele>
        <time>2015-05-17T10:51:05Z</time>
      </trkpt>
      <trkpt lat="45.72235" lon="5.71521">
        <ele>231.78670428859</ele>
        <time>2015-05-17T10:51:10Z</time>
      </trkpt>
      <trkpt lat="45.72235" lon="5.71521">
        <ele>231.78670428859</ele>
        <time>2015-05-17T10:51:15Z</time>
      </trkpt>
      <trkpt lat="45.72234" lon="5.71522">
        <ele>231.78670428859</ele>
        <time>2015-05-17T10:51:20Z</time>
      </trkpt>
      <trkpt lat="45.72234" lon="5.71525">
        <ele>232.56188019222</ele>
        <time>2015-05-17T10:51:25Z</time>
      </trkpt>
      <trkpt lat="45.72234" lon="5.71523">
        <ele>232.56188019222</ele>
        <time>2015-05-17T10:51:30Z</time>
      </trkpt>
      <trkpt lat="45.72234" lon="5.71521">
        <ele>232.56188019222</ele>
        <time>2015-05-17T10:51:35Z</time>
      </trkpt>
      <trkpt lat="45.72234" lon="5.71521">
        <ele>232.56188019222</ele>
        <time>2015-05-17T10:51:40Z</time>
      </trkpt>
      <trkpt lat="45.72234" lon="5.7152">
        <ele>232.56188019222</ele>
        <time>2015-05-17T10:51:45Z</time>
      </trkpt>
      <trkpt lat="45.72234" lon="5.7152">
        <ele>232.56188019222</ele>
        <time>2015-05-17T10:51:50Z</time>
      </trkpt>
      <trkpt lat="45.72233" lon="5.71519">
        <ele>232.56188019222</ele>
        <time>2015-05-17T10:51:55Z</time>
      </trkpt>
      <trkpt lat="45.72233" lon="5.71518">
        <ele>232.56188019222</ele>
        <time>2015-05-17T10:52:00Z</time>
      </trkpt>
      <trkpt lat="45.72233" lon="5.71518">
        <ele>232.56188019222</ele>
        <time>2015-05-17T10:52:05Z</time>
      </trkpt>
      <trkpt lat="45.72233" lon="5.71518">
        <ele>232.56188019222</ele>
        <time>2015-05-17T10:52:10Z</time>
      </trkpt>
      <trkpt lat="45.72233" lon="5.71518">
        <ele>232.56188019222</ele>
        <time>2015-05-17T10:52:15Z</time>
      </trkpt>
      <trkpt lat="45.72233" lon="5.71518">
        <ele>232.56188019222</ele>
        <time>2015-05-17T10:52:20Z</time>
      </trkpt>
      <trkpt lat="45.72233" lon="5.71518">
        <ele>232.56188019222</ele>
        <time>2015-05-17T10:52:25Z</time>
      </trkpt>
      <trkpt lat="45.72233" lon="5.71518">
        <ele>232.56188019222</ele>
        <time>2015-05-17T10:52:30Z</time>
      </trkpt>
      <trkpt lat="45.72233" lon="5.71518">
        <ele>232.56188019222</ele>
        <time>2015-05-17T10:52:35Z</time>
      </trkpt>
      <trkpt lat="45.72233" lon="5.71518">
        <ele>232.56188019222</ele>
        <time>2015-05-17T10:52:40Z</time>
      </trkpt>
      <trkpt lat="45.72233" lon="5.71518">
        <ele>232.56188019222</ele>
        <time>2015-05-17T10:52:45Z</time>
      </trkpt>
      <trkpt lat="45.72233" lon="5.71518">
        <ele>232.56188019222</ele>
        <time>2015-05-17T10:52:50Z</time>
      </trkpt>
      <trkpt lat="45.72233" lon="5.71518">
        <ele>232.56188019222</ele>
        <time>2015-05-17T10:52:55Z</time>
      </trkpt>
      <trkpt lat="45.72233" lon="5.71518">
        <ele>232.56188019222</ele>
        <time>2015-05-17T10:53:00Z</time>
      </trkpt>
      <trkpt lat="45.72233" lon="5.71518">
        <ele>232.56188019222</ele>
        <time>2015-05-17T10:53:05Z</time>
      </trkpt>
      <trkpt lat="45.72233" lon="5.71518">
        <ele>232.56188019222</ele>
        <time>2015-05-17T10:53:10Z</time>
      </trkpt>
      <trkpt lat="45.72233" lon="5.71518">
        <ele>232.56188019222</ele>
        <time>2015-05-17T10:53:15Z</time>
      </trkpt>
      <trkpt lat="45.72233" lon="5.71518">
        <ele>232.56188019222</ele>
        <time>2015-05-17T10:53:20Z</time>
      </trkpt>
      <trkpt lat="45.72233" lon="5.71518">
        <ele>232.56188019222</ele>
        <time>2015-05-17T10:53:25Z</time>
      </trkpt>
      <trkpt lat="45.72233" lon="5.71518">
        <ele>232.56188019222</ele>
        <time>2015-05-17T10:53:30Z</time>
      </trkpt>
      <trkpt lat="45.72233" lon="5.71518">
        <ele>232.56188019222</ele>
        <time>2015-05-17T10:53:35Z</time>
      </trkpt>
      <trkpt lat="45.72233" lon="5.71519">
        <ele>232.56188019222</ele>
        <time>2015-05-17T10:53:40Z</time>
      </trkpt>
      <trkpt lat="45.72234" lon="5.71521">
        <ele>232.56188019222</ele>
        <time>2015-05-17T10:53:45Z</time>
      </trkpt>
      <trkpt lat="45.72234" lon="5.71523">
        <ele>232.56188019222</ele>
        <time>2015-05-17T10:53:50Z</time>
      </trkpt>
      <trkpt lat="45.72235" lon="5.71525">
        <ele>233.2216873931</ele>
        <time>2015-05-17T10:53:55Z</time>
      </trkpt>
      <trkpt lat="45.72235" lon="5.71525">
        <ele>233.2216873931</ele>
        <time>2015-05-17T10:54:00Z</time>
      </trkpt>
      <trkpt lat="45.72237" lon="5.71524">
        <ele>233.2216873931</ele>
        <time>2015-05-17T10:54:05Z</time>
      </trkpt>
      <trkpt lat="45.72237" lon="5.71524">
        <ele>233.2216873931</ele>
        <time>2015-05-17T10:54:10Z</time>
      </trkpt>
      <trkpt lat="45.72237" lon="5.71523">
        <ele>233.2216873931</ele>
        <time>2015-05-17T10:54:15Z</time>
      </trkpt>
      <trkpt lat="45.72237" lon="5.71523">
        <ele>233.2216873931</ele>
        <time>2015-05-17T10:54:20Z</time>
      </trkpt>
      <trkpt lat="45.72237" lon="5.71524">
        <ele>233.2216873931</ele>
        <time>2015-05-17T10:54:25Z</time>
      </trkpt>
      <trkpt lat="45.72237" lon="5.71523">
        <ele>233.2216873931</ele>
        <time>2015-05-17T10:54:30Z</time>
      </trkpt>
      <trkpt lat="45.72236" lon="5.71523">
        <ele>233.2216873931</ele>
        <time>2015-05-17T10:54:35Z</time>
      </trkpt>
      <trkpt lat="45.72237" lon="5.71524">
        <ele>233.2216873931</ele>
        <time>2015-05-17T10:54:40Z</time>
      </trkpt>
      <trkpt lat="45.72237" lon="5.71523">
        <ele>233.2216873931</ele>
        <time>2015-05-17T10:54:45Z</time>
      </trkpt>
      <trkpt lat="45.72237" lon="5.71523">
        <ele>233.2216873931</ele>
        <time>2015-05-17T10:54:50Z</time>
      </trkpt>
      <trkpt lat="45.72237" lon="5.71522">
        <ele>233.2216873931</ele>
        <time>2015-05-17T10:54:55Z</time>
      </trkpt>
      <trkpt lat="45.72236" lon="5.71522">
        <ele>233.2216873931</ele>
        <time>2015-05-17T10:55:00Z</time>
      </trkpt>
      <trkpt lat="45.72236" lon="5.71521">
        <ele>233.2216873931</ele>
        <time>2015-05-17T10:55:05Z</time>
      </trkpt>
      <trkpt lat="45.72237" lon="5.71522">
        <ele>233.2216873931</ele>
        <time>2015-05-17T10:55:10Z</time>
      </trkpt>
      <trkpt lat="45.72237" lon="5.71522">
        <ele>233.2216873931</ele>
        <time>2015-05-17T10:55:15Z</time>
      </trkpt>
      <trkpt lat="45.72237" lon="5.71522">
        <ele>233.2216873931</ele>
        <time>2015-05-17T10:55:20Z</time>
      </trkpt>
      <trkpt lat="45.72237" lon="5.71522">
        <ele>233.2216873931</ele>
        <time>2015-05-17T10:55:25Z</time>
      </trkpt>
      <trkpt lat="45.72237" lon="5.71521">
        <ele>233.2216873931</ele>
        <time>2015-05-17T10:55:30Z</time>
      </trkpt>
      <trkpt lat="45.72237" lon="5.71521">
        <ele>233.2216873931</ele>
        <time>2015-05-17T10:55:35Z</time>
      </trkpt>
      <trkpt lat="45.72237" lon="5.7152">
        <ele>233.18101060558</ele>
        <time>2015-05-17T10:55:40Z</time>
      </trkpt>
      <trkpt lat="45.72236" lon="5.7152">
        <ele>233.18101060558</ele>
        <time>2015-05-17T10:55:45Z</time>
      </trkpt>
      <trkpt lat="45.72236" lon="5.71521">
        <ele>233.18101060558</ele>
        <time>2015-05-17T10:55:50Z</time>
      </trkpt>
      <trkpt lat="45.72236" lon="5.71522">
        <ele>233.18101060558</ele>
        <time>2015-05-17T10:55:55Z</time>
      </trkpt>
      <trkpt lat="45.72236" lon="5.71521">
        <ele>233.18101060558</ele>
        <time>2015-05-17T10:56:00Z</time>
      </trkpt>
      <trkpt lat="45.72236" lon="5.71522">
        <ele>233.18101060558</ele>
        <time>2015-05-17T10:56:05Z</time>
      </trkpt>
      <trkpt lat="45.72236" lon="5.71522">
        <ele>233.18101060558</ele>
        <time>2015-05-17T10:56:10Z</time>
      </trkpt>
      <trkpt lat="45.72236" lon="5.71522">
        <ele>233.18101060558</ele>
        <time>2015-05-17T10:56:15Z</time>
      </trkpt>
      <trkpt lat="45.72236" lon="5.71522">
        <ele>233.18101060558</ele>
        <time>2015-05-17T10:56:20Z</time>
      </trkpt>
      <trkpt lat="45.72236" lon="5.71522">
        <ele>233.18101060558</ele>
        <time>2015-05-17T10:56:25Z</time>
      </trkpt>
      <trkpt lat="45.72236" lon="5.71522">
        <ele>233.18101060558</ele>
        <time>2015-05-17T10:56:30Z</time>
      </trkpt>
      <trkpt lat="45.72236" lon="5.71522">
        <ele>233.18101060558</ele>
        <time>2015-05-17T10:56:35Z</time>
      </trkpt>
      <trkpt lat="45.72236" lon="5.71522">
        <ele>233.18101060558</ele>
        <time>2015-05-17T10:56:40Z</time>
      </trkpt>
      <trkpt lat="45.72236" lon="5.71522">
        <ele>233.18101060558</ele>
        <time>2015-05-17T10:56:45Z</time>
      </trkpt>
      <trkpt lat="45.72236" lon="5.71522">
        <ele>233.18101060558</ele>
        <time>2015-05-17T10:56:50Z</time>
      </trkpt>
      <trkpt lat="45.72236" lon="5.71522">
        <ele>233.18101060558</ele>
        <time>2015-05-17T10:56:55Z</time>
      </trkpt>
      <trkpt lat="45.72236" lon="5.71522">
        <ele>233.18101060558</ele>
        <time>2015-05-17T10:57:00Z</time>
      </trkpt>
      <trkpt lat="45.72236" lon="5.71522">
        <ele>233.18101060558</ele>
        <time>2015-05-17T10:57:05Z</time>
      </trkpt>
      <trkpt lat="45.72236" lon="5.71522">
        <ele>233.18101060558</ele>
        <time>2015-05-17T10:57:10Z</time>
      </trkpt>
      <trkpt lat="45.72236" lon="5.71523">
        <ele>233.18101060558</ele>
        <time>2015-05-17T10:57:15Z</time>
      </trkpt>
      <trkpt lat="45.72236" lon="5.71522">
        <ele>233.18101060558</ele>
        <time>2015-05-17T10:57:20Z</time>
      </trkpt>
      <trkpt lat="45.72236" lon="5.71522">
        <ele>233.18101060558</ele>
        <time>2015-05-17T10:57:25Z</time>
      </trkpt>
      <trkpt lat="45.72236" lon="5.71522">
        <ele>233.18101060558</ele>
        <time>2015-05-17T10:57:30Z</time>
      </trkpt>
      <trkpt lat="45.72236" lon="5.71522">
        <ele>233.18101060558</ele>
        <time>2015-05-17T10:57:35Z</time>
      </trkpt>
      <trkpt lat="45.72236" lon="5.71522">
        <ele>233.18101060558</ele>
        <time>2015-05-17T10:57:40Z</time>
      </trkpt>
      <trkpt lat="45.72236" lon="5.71521">
        <ele>233.18101060558</ele>
        <time>2015-05-17T10:57:45Z</time>
      </trkpt>
      <trkpt lat="45.72237" lon="5.7152">
        <ele>233.18101060558</ele>
        <time>2015-05-17T10:57:50Z</time>
      </trkpt>
      <trkpt lat="45.72237" lon="5.7152">
        <ele>233.18101060558</ele>
        <time>2015-05-17T10:57:55Z</time>
      </trkpt>
      <trkpt lat="45.72237" lon="5.7152">
        <ele>233.18101060558</ele>
        <time>2015-05-17T10:58:00Z</time>
      </trkpt>
      <trkpt lat="45.72237" lon="5.7152">
        <ele>233.18101060558</ele>
        <time>2015-05-17T10:58:05Z</time>
      </trkpt>
      <trkpt lat="45.72237" lon="5.7152">
        <ele>233.18101060558</ele>
        <time>2015-05-17T10:58:10Z</time>
      </trkpt>
      <trkpt lat="45.72237" lon="5.7152">
        <ele>233.18101060558</ele>
        <time>2015-05-17T10:58:15Z</time>
      </trkpt>
      <trkpt lat="45.72237" lon="5.71521">
        <ele>233.18101060558</ele>
        <time>2015-05-17T10:58:20Z</time>
      </trkpt>
      <trkpt lat="45.72237" lon="5.71521">
        <ele>233.18101060558</ele>
        <time>2015-05-17T10:58:25Z</time>
      </trkpt>
      <trkpt lat="45.72238" lon="5.71522">
        <ele>233.18101060558</ele>
        <time>2015-05-17T10:58:30Z</time>
      </trkpt>
      <trkpt lat="45.72239" lon="5.71522">
        <ele>233.18101060558</ele>
        <time>2015-05-17T10:58:35Z</time>
      </trkpt>
      <trkpt lat="45.72239" lon="5.71522">
        <ele>234.6379341144</ele>
        <time>2015-05-17T10:58:40Z</time>
      </trkpt>
      <trkpt lat="45.72239" lon="5.71522">
        <ele>234.6379341144</ele>
        <time>2015-05-17T10:58:45Z</time>
      </trkpt>
      <trkpt lat="45.72239" lon="5.71522">
        <ele>234.6379341144</ele>
        <time>2015-05-17T10:58:50Z</time>
      </trkpt>
      <trkpt lat="45.72239" lon="5.71522">
        <ele>234.6379341144</ele>
        <time>2015-05-17T10:58:55Z</time>
      </trkpt>
      <trkpt lat="45.72238" lon="5.71521">
        <ele>234.6379341144</ele>
        <time>2015-05-17T10:59:00Z</time>
      </trkpt>
      <trkpt lat="45.72239" lon="5.71521">
        <ele>234.6379341144</ele>
        <time>2015-05-17T10:59:05Z</time>
      </trkpt>
      <trkpt lat="45.72239" lon="5.71521">
        <ele>234.6379341144</ele>
        <time>2015-05-17T10:59:10Z</time>
      </trkpt>
      <trkpt lat="45.72239" lon="5.71521">
        <ele>234.6379341144</ele>
        <time>2015-05-17T10:59:15Z</time>
      </trkpt>
      <trkpt lat="45.72239" lon="5.71523">
        <ele>234.6379341144</ele>
        <time>2015-05-17T10:59:20Z</time>
      </trkpt>
      <trkpt lat="45.72238" lon="5.71524">
        <ele>234.6379341144</ele>
        <time>2015-05-17T10:59:25Z</time>
      </trkpt>
      <trkpt lat="45.72237" lon="5.71523">
        <ele>234.6379341144</ele>
        <time>2015-05-17T10:59:30Z</time>
      </trkpt>
      <trkpt lat="45.72237" lon="5.71523">
        <ele>234.6379341144</ele>
        <time>2015-05-17T10:59:35Z</time>
      </trkpt>
      <trkpt lat="45.72237" lon="5.71523">
        <ele>234.6379341144</ele>
        <time>2015-05-17T10:59:40Z</time>
      </trkpt>
      <trkpt lat="45.72236" lon="5.71523">
        <ele>234.6379341144</ele>
        <time>2015-05-17T10:59:45Z</time>
      </trkpt>
      <trkpt lat="45.72236" lon="5.71523">
        <ele>234.6379341144</ele>
        <time>2015-05-17T10:59:50Z</time>
      </trkpt>
      <trkpt lat="45.72235" lon="5.71523">
        <ele>234.6379341144</ele>
        <time>2015-05-17T10:59:55Z</time>
      </trkpt>
      <trkpt lat="45.72234" lon="5.71522">
        <ele>234.6379341144</ele>
        <time>2015-05-17T11:00:00Z</time>
      </trkpt>
      <trkpt lat="45.72234" lon="5.71522">
        <ele>235.11416231298</ele>
        <time>2015-05-17T11:00:05Z</time>
      </trkpt>
      <trkpt lat="45.72234" lon="5.71524">
        <ele>235.11416231298</ele>
        <time>2015-05-17T11:00:10Z</time>
      </trkpt>
      <trkpt lat="45.72234" lon="5.71523">
        <ele>235.11416231298</ele>
        <time>2015-05-17T11:00:15Z</time>
      </trkpt>
      <trkpt lat="45.72233" lon="5.71522">
        <ele>235.11416231298</ele>
        <time>2015-05-17T11:00:20Z</time>
      </trkpt>
      <trkpt lat="45.72233" lon="5.71521">
        <ele>235.11416231298</ele>
        <time>2015-05-17T11:00:25Z</time>
      </trkpt>
      <trkpt lat="45.72232" lon="5.7152">
        <ele>235.11416231298</ele>
        <time>2015-05-17T11:00:30Z</time>
      </trkpt>
      <trkpt lat="45.72231" lon="5.7152">
        <ele>235.11416231298</ele>
        <time>2015-05-17T11:00:35Z</time>
      </trkpt>
      <trkpt lat="45.72231" lon="5.7152">
        <ele>235.11416231298</ele>
        <time>2015-05-17T11:00:40Z</time>
      </trkpt>
      <trkpt lat="45.72231" lon="5.7152">
        <ele>235.11416231298</ele>
        <time>2015-05-17T11:00:45Z</time>
      </trkpt>
      <trkpt lat="45.72231" lon="5.7152">
        <ele>235.11416231298</ele>
        <time>2015-05-17T11:00:50Z</time>
      </trkpt>
      <trkpt lat="45.72231" lon="5.7152">
        <ele>235.11416231298</ele>
        <time>2015-05-17T11:00:55Z</time>
      </trkpt>
      <trkpt lat="45.72231" lon="5.7152">
        <ele>235.11416231298</ele>
        <time>2015-05-17T11:01:00Z</time>
      </trkpt>
      <trkpt lat="45.72233" lon="5.71521">
        <ele>235.11416231298</ele>
        <time>2015-05-17T11:01:05Z</time>
      </trkpt>
      <trkpt lat="45.72234" lon="5.71521">
        <ele>235.87591482888</ele>
        <time>2015-05-17T11:01:10Z</time>
      </trkpt>
      <trkpt lat="45.72234" lon="5.71521">
        <ele>235.87591482888</ele>
        <time>2015-05-17T11:01:15Z</time>
      </trkpt>
      <trkpt lat="45.72234" lon="5.71521">
        <ele>235.87591482888</ele>
        <time>2015-05-17T11:01:20Z</time>
      </trkpt>
      <trkpt lat="45.72234" lon="5.71521">
        <ele>235.87591482888</ele>
        <time>2015-05-17T11:01:25Z</time>
      </trkpt>
      <trkpt lat="45.72233" lon="5.71523">
        <ele>235.87591482888</ele>
        <time>2015-05-17T11:01:30Z</time>
      </trkpt>
      <trkpt lat="45.72233" lon="5.71523">
        <ele>235.87591482888</ele>
        <time>2015-05-17T11:01:35Z</time>
      </trkpt>
      <trkpt lat="45.72233" lon="5.71523">
        <ele>235.87591482888</ele>
        <time>2015-05-17T11:01:40Z</time>
      </trkpt>
      <trkpt lat="45.72233" lon="5.71523">
        <ele>235.87591482888</ele>
        <time>2015-05-17T11:01:45Z</time>
      </trkpt>
      <trkpt lat="45.72233" lon="5.71523">
        <ele>235.87591482888</ele>
        <time>2015-05-17T11:01:50Z</time>
      </trkpt>
      <trkpt lat="45.72232" lon="5.71523">
        <ele>235.87591482888</ele>
        <time>2015-05-17T11:01:55Z</time>
      </trkpt>
      <trkpt lat="45.72232" lon="5.71523">
        <ele>235.87591482888</ele>
        <time>2015-05-17T11:02:00Z</time>
      </trkpt>
      <trkpt lat="45.72232" lon="5.71524">
        <ele>235.87591482888</ele>
        <time>2015-05-17T11:02:05Z</time>
      </trkpt>
      <trkpt lat="45.72232" lon="5.71525">
        <ele>235.87591482888</ele>
        <time>2015-05-17T11:02:10Z</time>
      </trkpt>
      <trkpt lat="45.72231" lon="5.71524">
        <ele>235.87591482888</ele>
        <time>2015-05-17T11:02:15Z</time>
      </trkpt>
      <trkpt lat="45.72232" lon="5.71525">
        <ele>235.87591482888</ele>
        <time>2015-05-17T11:02:20Z</time>
      </trkpt>
      <trkpt lat="45.72232" lon="5.71522">
        <ele>235.87591482888</ele>
        <time>2015-05-17T11:02:25Z</time>
      </trkpt>
      <trkpt lat="45.72231" lon="5.7152">
        <ele>235.87591482888</ele>
        <time>2015-05-17T11:02:30Z</time>
      </trkpt>
      <trkpt lat="45.72231" lon="5.71519">
        <ele>236.68335364522</ele>
        <time>2015-05-17T11:02:35Z</time>
      </trkpt>
      <trkpt lat="45.72231" lon="5.71519">
        <ele>236.68335364522</ele>
        <time>2015-05-17T11:02:40Z</time>
      </trkpt>
      <trkpt lat="45.72231" lon="5.71519">
        <ele>236.68335364522</ele>
        <time>2015-05-17T11:02:45Z</time>
      </trkpt>
      <trkpt lat="45.72231" lon="5.71519">
        <ele>236.68335364522</ele>
        <time>2015-05-17T11:02:50Z</time>
      </trkpt>
      <trkpt lat="45.72231" lon="5.71519">
        <ele>236.68335364522</ele>
        <time>2015-05-17T11:02:55Z</time>
      </trkpt>
      <trkpt lat="45.72231" lon="5.7152">
        <ele>236.68335364522</ele>
        <time>2015-05-17T11:03:00Z</time>
      </trkpt>
      <trkpt lat="45.72233" lon="5.71521">
        <ele>236.68335364522</ele>
        <time>2015-05-17T11:03:05Z</time>
      </trkpt>
      <trkpt lat="45.72232" lon="5.7152">
        <ele>236.68335364522</ele>
        <time>2015-05-17T11:03:10Z</time>
      </trkpt>
      <trkpt lat="45.72232" lon="5.7152">
        <ele>236.68335364522</ele>
        <time>2015-05-17T11:03:15Z</time>
      </trkpt>
      <trkpt lat="45.72232" lon="5.7152">
        <ele>236.68335364522</ele>
        <time>2015-05-17T11:03:20Z</time>
      </trkpt>
      <trkpt lat="45.72232" lon="5.7152">
        <ele>236.68335364522</ele>
        <time>2015-05-17T11:03:25Z</time>
      </trkpt>
      <trkpt lat="45.72232" lon="5.7152">
        <ele>236.68335364522</ele>
        <time>2015-05-17T11:03:30Z</time>
      </trkpt>
      <trkpt lat="45.72232" lon="5.7152">
        <ele>236.68335364522</ele>
        <time>2015-05-17T11:03:35Z</time>
      </trkpt>
      <trkpt lat="45.72232" lon="5.7152">
        <ele>236.68335364522</ele>
        <time>2015-05-17T11:03:40Z</time>
      </trkpt>
      <trkpt lat="45.72232" lon="5.7152">
        <ele>236.68335364522</ele>
        <time>2015-05-17T11:03:45Z</time>
      </trkpt>
      <trkpt lat="45.72232" lon="5.7152">
        <ele>236.68335364522</ele>
        <time>2015-05-17T11:03:50Z</time>
      </trkpt>
      <trkpt lat="45.72232" lon="5.7152">
        <ele>236.68335364522</ele>
        <time>2015-05-17T11:03:55Z</time>
      </trkpt>
      <trkpt lat="45.72232" lon="5.7152">
        <ele>236.68335364522</ele>
        <time>2015-05-17T11:04:00Z</time>
      </trkpt>
      <trkpt lat="45.72232" lon="5.7152">
        <ele>236.68335364522</ele>
        <time>2015-05-17T11:04:05Z</time>
      </trkpt>
      <trkpt lat="45.72232" lon="5.7152">
        <ele>236.68335364522</ele>
        <time>2015-05-17T11:04:10Z</time>
      </trkpt>
      <trkpt lat="45.72232" lon="5.7152">
        <ele>236.68335364522</ele>
        <time>2015-05-17T11:04:15Z</time>
      </trkpt>
      <trkpt lat="45.72232" lon="5.7152">
        <ele>236.68335364522</ele>
        <time>2015-05-17T11:04:20Z</time>
      </trkpt>
      <trkpt lat="45.72233" lon="5.71518">
        <ele>236.68335364522</ele>
        <time>2015-05-17T11:04:25Z</time>
      </trkpt>
      <trkpt lat="45.72235" lon="5.71516">
        <ele>236.68335364522</ele>
        <time>2015-05-17T11:04:30Z</time>
      </trkpt>
      <trkpt lat="45.72235" lon="5.71517">
        <ele>236.68335364522</ele>
        <time>2015-05-17T11:04:35Z</time>
      </trkpt>
      <trkpt lat="45.72235" lon="5.71517">
        <ele>236.68335364522</ele>
        <time>2015-05-17T11:04:40Z</time>
      </trkpt>
      <trkpt lat="45.72234" lon="5.71517">
        <ele>236.68335364522</ele>
        <time>2015-05-17T11:04:45Z</time>
      </trkpt>
      <trkpt lat="45.72234" lon="5.71518">
        <ele>236.68335364522</ele>
        <time>2015-05-17T11:04:50Z</time>
      </trkpt>
      <trkpt lat="45.72234" lon="5.71519">
        <ele>236.68335364522</ele>
        <time>2015-05-17T11:04:55Z</time>
      </trkpt>
      <trkpt lat="45.72234" lon="5.71518">
        <ele>236.21895095646</ele>
        <time>2015-05-17T11:05:00Z</time>
      </trkpt>
      <trkpt lat="45.72234" lon="5.71518">
        <ele>236.21895095646</ele>
        <time>2015-05-17T11:05:05Z</time>
      </trkpt>
      <trkpt lat="45.72234" lon="5.71518">
        <ele>236.21895095646</ele>
        <time>2015-05-17T11:05:10Z</time>
      </trkpt>
      <trkpt lat="45.72233" lon="5.71518">
        <ele>236.21895095646</ele>
        <time>2015-05-17T11:05:15Z</time>
      </trkpt>
      <trkpt lat="45.72232" lon="5.71518">
        <ele>236.21895095646</ele>
        <time>2015-05-17T11:05:20Z</time>
      </trkpt>
      <trkpt lat="45.72233" lon="5.71518">
        <ele>236.21895095646</ele>
        <time>2015-05-17T11:05:25Z</time>
      </trkpt>
      <trkpt lat="45.72233" lon="5.71518">
        <ele>236.21895095646</ele>
        <time>2015-05-17T11:05:30Z</time>
      </trkpt>
      <trkpt lat="45.72233" lon="5.71518">
        <ele>236.21895095646</ele>
        <time>2015-05-17T11:05:35Z</time>
      </trkpt>
      <trkpt lat="45.72233" lon="5.71518">
        <ele>236.21895095646</ele>
        <time>2015-05-17T11:05:40Z</time>
      </trkpt>
      <trkpt lat="45.72233" lon="5.71518">
        <ele>236.21895095646</ele>
        <time>2015-05-17T11:05:45Z</time>
      </trkpt>
      <trkpt lat="45.72232" lon="5.71519">
        <ele>236.21895095646</ele>
        <time>2015-05-17T11:05:50Z</time>
      </trkpt>
      <trkpt lat="45.72231" lon="5.71519">
        <ele>236.21895095646</ele>
        <time>2015-05-17T11:05:55Z</time>
      </trkpt>
      <trkpt lat="45.72231" lon="5.71519">
        <ele>236.21895095646</ele>
        <time>2015-05-17T11:06:00Z</time>
      </trkpt>
      <trkpt lat="45.72231" lon="5.71519">
        <ele>236.21895095646</ele>
        <time>2015-05-17T11:06:05Z</time>
      </trkpt>
      <trkpt lat="45.72231" lon="5.71519">
        <ele>236.21895095646</ele>
        <time>2015-05-17T11:06:10Z</time>
      </trkpt>
      <trkpt lat="45.72231" lon="5.71519">
        <ele>236.21895095646</ele>
        <time>2015-05-17T11:06:15Z</time>
      </trkpt>
      <trkpt lat="45.72231" lon="5.71519">
        <ele>236.21895095646</ele>
        <time>2015-05-17T11:06:20Z</time>
      </trkpt>
      <trkpt lat="45.72231" lon="5.71519">
        <ele>236.21895095646</ele>
        <time>2015-05-17T11:06:25Z</time>
      </trkpt>
      <trkpt lat="45.72231" lon="5.71519">
        <ele>236.21895095646</ele>
        <time>2015-05-17T11:06:30Z</time>
      </trkpt>
      <trkpt lat="45.72231" lon="5.71519">
        <ele>236.21895095646</ele>
        <time>2015-05-17T11:06:35Z</time>
      </trkpt>
      <trkpt lat="45.72231" lon="5.71519">
        <ele>236.21895095646</ele>
        <time>2015-05-17T11:06:40Z</time>
      </trkpt>
      <trkpt lat="45.72231" lon="5.71519">
        <ele>236.21895095646</ele>
        <time>2015-05-17T11:06:45Z</time>
      </trkpt>
      <trkpt lat="45.72231" lon="5.71519">
        <ele>236.21895095646</ele>
        <time>2015-05-17T11:06:50Z</time>
      </trkpt>
      <trkpt lat="45.72231" lon="5.71519">
        <ele>236.21895095646</ele>
        <time>2015-05-17T11:06:55Z</time>
      </trkpt>
      <trkpt lat="45.72231" lon="5.71519">
        <ele>236.21895095646</ele>
        <time>2015-05-17T11:07:00Z</time>
      </trkpt>
      <trkpt lat="45.72231" lon="5.71519">
        <ele>236.21895095646</ele>
        <time>2015-05-17T11:07:05Z</time>
      </trkpt>
      <trkpt lat="45.72232" lon="5.71519">
        <ele>236.21895095646</ele>
        <time>2015-05-17T11:07:10Z</time>
      </trkpt>
      <trkpt lat="45.72232" lon="5.7152">
        <ele>236.21895095646</ele>
        <time>2015-05-17T11:07:15Z</time>
      </trkpt>
      <trkpt lat="45.72233" lon="5.7152">
        <ele>236.21895095646</ele>
        <time>2015-05-17T11:07:20Z</time>
      </trkpt>
      <trkpt lat="45.72233" lon="5.71521">
        <ele>236.21895095646</ele>
        <time>2015-05-17T11:07:25Z</time>
      </trkpt>
      <trkpt lat="45.72234" lon="5.71521">
        <ele>234.93733351965</ele>
        <time>2015-05-17T11:07:30Z</time>
      </trkpt>
      <trkpt lat="45.72234" lon="5.71521">
        <ele>234.93733351965</ele>
        <time>2015-05-17T11:07:35Z</time>
      </trkpt>
      <trkpt lat="45.72234" lon="5.71521">
        <ele>234.93733351965</ele>
        <time>2015-05-17T11:07:40Z</time>
      </trkpt>
      <trkpt lat="45.72234" lon="5.7152">
        <ele>234.93733351965</ele>
        <time>2015-05-17T11:07:45Z</time>
      </trkpt>
      <trkpt lat="45.72234" lon="5.71518">
        <ele>234.93733351965</ele>
        <time>2015-05-17T11:07:50Z</time>
      </trkpt>
      <trkpt lat="45.72234" lon="5.71518">
        <ele>234.93733351965</ele>
        <time>2015-05-17T11:07:55Z</time>
      </trkpt>
      <trkpt lat="45.72234" lon="5.71518">
        <ele>234.93733351965</ele>
        <time>2015-05-17T11:08:00Z</time>
      </trkpt>
      <trkpt lat="45.72234" lon="5.71518">
        <ele>234.93733351965</ele>
        <time>2015-05-17T11:08:05Z</time>
      </trkpt>
      <trkpt lat="45.72234" lon="5.71518">
        <ele>234.93733351965</ele>
        <time>2015-05-17T11:08:10Z</time>
      </trkpt>
      <trkpt lat="45.72234" lon="5.71518">
        <ele>234.93733351965</ele>
        <time>2015-05-17T11:08:15Z</time>
      </trkpt>
      <trkpt lat="45.72234" lon="5.71518">
        <ele>234.93733351965</ele>
        <time>2015-05-17T11:08:20Z</time>
      </trkpt>
      <trkpt lat="45.72234" lon="5.71518">
        <ele>234.93733351965</ele>
        <time>2015-05-17T11:08:25Z</time>
      </trkpt>
      <trkpt lat="45.72234" lon="5.71518">
        <ele>234.93733351965</ele>
        <time>2015-05-17T11:08:30Z</time>
      </trkpt>
      <trkpt lat="45.72234" lon="5.71518">
        <ele>234.93733351965</ele>
        <time>2015-05-17T11:08:35Z</time>
      </trkpt>
      <trkpt lat="45.72234" lon="5.71518">
        <ele>234.93733351965</ele>
        <time>2015-05-17T11:08:40Z</time>
      </trkpt>
      <trkpt lat="45.72234" lon="5.71518">
        <ele>234.93733351965</ele>
        <time>2015-05-17T11:08:45Z</time>
      </trkpt>
      <trkpt lat="45.72234" lon="5.71518">
        <ele>234.93733351965</ele>
        <time>2015-05-17T11:08:50Z</time>
      </trkpt>
      <trkpt lat="45.72234" lon="5.71519">
        <ele>234.93733351965</ele>
        <time>2015-05-17T11:08:55Z</time>
      </trkpt>
      <trkpt lat="45.72234" lon="5.71519">
        <ele>234.93733351965</ele>
        <time>2015-05-17T11:09:00Z</time>
      </trkpt>
      <trkpt lat="45.72234" lon="5.71519">
        <ele>234.93733351965</ele>
        <time>2015-05-17T11:09:05Z</time>
      </trkpt>
      <trkpt lat="45.72234" lon="5.71519">
        <ele>234.93733351965</ele>
        <time>2015-05-17T11:09:10Z</time>
      </trkpt>
      <trkpt lat="45.72234" lon="5.71519">
        <ele>234.93733351965</ele>
        <time>2015-05-17T11:09:15Z</time>
      </trkpt>
      <trkpt lat="45.72234" lon="5.71519">
        <ele>234.93733351965</ele>
        <time>2015-05-17T11:09:20Z</time>
      </trkpt>
      <trkpt lat="45.72234" lon="5.71519">
        <ele>234.93733351965</ele>
        <time>2015-05-17T11:09:25Z</time>
      </trkpt>
      <trkpt lat="45.72234" lon="5.71519">
        <ele>234.93733351965</ele>
        <time>2015-05-17T11:09:30Z</time>
      </trkpt>
      <trkpt lat="45.72234" lon="5.71519">
        <ele>234.93733351965</ele>
        <time>2015-05-17T11:09:35Z</time>
      </trkpt>
      <trkpt lat="45.72234" lon="5.71518">
        <ele>234.93733351965</ele>
        <time>2015-05-17T11:09:40Z</time>
      </trkpt>
      <trkpt lat="45.72233" lon="5.71518">
        <ele>234.93733351965</ele>
        <time>2015-05-17T11:09:45Z</time>
      </trkpt>
      <trkpt lat="45.72232" lon="5.71518">
        <ele>234.93733351965</ele>
        <time>2015-05-17T11:09:50Z</time>
      </trkpt>
      <trkpt lat="45.72232" lon="5.71518">
        <ele>234.93733351965</ele>
        <time>2015-05-17T11:09:55Z</time>
      </trkpt>
      <trkpt lat="45.72232" lon="5.71517">
        <ele>234.93733351965</ele>
        <time>2015-05-17T11:10:00Z</time>
      </trkpt>
      <trkpt lat="45.72231" lon="5.71517">
        <ele>234.93733351965</ele>
        <time>2015-05-17T11:10:05Z</time>
      </trkpt>
      <trkpt lat="45.72231" lon="5.71517">
        <ele>234.93733351965</ele>
        <time>2015-05-17T11:10:10Z</time>
      </trkpt>
      <trkpt lat="45.72231" lon="5.71517">
        <ele>234.93733351965</ele>
        <time>2015-05-17T11:10:15Z</time>
      </trkpt>
      <trkpt lat="45.72231" lon="5.71517">
        <ele>234.93733351965</ele>
        <time>2015-05-17T11:10:20Z</time>
      </trkpt>
      <trkpt lat="45.72231" lon="5.71517">
        <ele>234.93733351965</ele>
        <time>2015-05-17T11:10:25Z</time>
      </trkpt>
      <trkpt lat="45.72231" lon="5.71517">
        <ele>234.93733351965</ele>
        <time>2015-05-17T11:10:30Z</time>
      </trkpt>
      <trkpt lat="45.72231" lon="5.71517">
        <ele>234.93733351965</ele>
        <time>2015-05-17T11:10:35Z</time>
      </trkpt>
      <trkpt lat="45.72231" lon="5.71517">
        <ele>234.93733351965</ele>
        <time>2015-05-17T11:10:40Z</time>
      </trkpt>
      <trkpt lat="45.72231" lon="5.71517">
        <ele>234.93733351965</ele>
        <time>2015-05-17T11:10:45Z</time>
      </trkpt>
      <trkpt lat="45.72231" lon="5.71517">
        <ele>234.93733351965</ele>
        <time>2015-05-17T11:10:50Z</time>
      </trkpt>
      <trkpt lat="45.72231" lon="5.71517">
        <ele>234.93733351965</ele>
        <time>2015-05-17T11:10:55Z</time>
      </trkpt>
      <trkpt lat="45.72231" lon="5.71517">
        <ele>234.93733351965</ele>
        <time>2015-05-17T11:11:00Z</time>
      </trkpt>
      <trkpt lat="45.72231" lon="5.71517">
        <ele>234.93733351965</ele>
        <time>2015-05-17T11:11:05Z</time>
      </trkpt>
      <trkpt lat="45.72231" lon="5.71517">
        <ele>234.93733351965</ele>
        <time>2015-05-17T11:11:10Z</time>
      </trkpt>
      <trkpt lat="45.72231" lon="5.71517">
        <ele>234.93733351965</ele>
        <time>2015-05-17T11:11:15Z</time>
      </trkpt>
      <trkpt lat="45.7223" lon="5.71516">
        <ele>234.93733351965</ele>
        <time>2015-05-17T11:11:20Z</time>
      </trkpt>
      <trkpt lat="45.72231" lon="5.71517">
        <ele>234.93733351965</ele>
        <time>2015-05-17T11:11:25Z</time>
      </trkpt>
      <trkpt lat="45.72231" lon="5.71516">
        <ele>234.94821915561</ele>
        <time>2015-05-17T11:11:30Z</time>
      </trkpt>
      <trkpt lat="45.72231" lon="5.71515">
        <ele>234.94821915561</ele>
        <time>2015-05-17T11:11:35Z</time>
      </trkpt>
      <trkpt lat="45.72231" lon="5.71515">
        <ele>234.94821915561</ele>
        <time>2015-05-17T11:11:40Z</time>
      </trkpt>
      <trkpt lat="45.72231" lon="5.71515">
        <ele>234.94821915561</ele>
        <time>2015-05-17T11:11:45Z</time>
      </trkpt>
      <trkpt lat="45.72231" lon="5.71517">
        <ele>234.94821915561</ele>
        <time>2015-05-17T11:11:50Z</time>
      </trkpt>
      <trkpt lat="45.7223" lon="5.71515">
        <ele>234.94821915561</ele>
        <time>2015-05-17T11:11:55Z</time>
      </trkpt>
      <trkpt lat="45.72226" lon="5.71508">
        <ele>234.94821915561</ele>
        <time>2015-05-17T11:12:00Z</time>
      </trkpt>
      <trkpt lat="45.7222" lon="5.71507">
        <ele>235.33492700093</ele>
        <time>2015-05-17T11:12:05Z</time>
      </trkpt>
      <trkpt lat="45.72217" lon="5.71504">
        <ele>235.33492700093</ele>
        <time>2015-05-17T11:12:10Z</time>
      </trkpt>
      <trkpt lat="45.72212" lon="5.71499">
        <ele>235.29035986593</ele>
        <time>2015-05-17T11:12:15Z</time>
      </trkpt>
      <trkpt lat="45.72212" lon="5.71499">
        <ele>235.29035986593</ele>
        <time>2015-05-17T11:12:20Z</time>
      </trkpt>
      <trkpt lat="45.72211" lon="5.71499">
        <ele>235.29035986593</ele>
        <time>2015-05-17T11:12:25Z</time>
      </trkpt>
      <trkpt lat="45.7221" lon="5.71495">
        <ele>235.29035986593</ele>
        <time>2015-05-17T11:12:30Z</time>
      </trkpt>
      <trkpt lat="45.7221" lon="5.7149">
        <ele>235.29035986593</ele>
        <time>2015-05-17T11:12:35Z</time>
      </trkpt>
      <trkpt lat="45.7221" lon="5.71483">
        <ele>234.42825869476</ele>
        <time>2015-05-17T11:12:40Z</time>
      </trkpt>
      <trkpt lat="45.72208" lon="5.71477">
        <ele>234.42825869476</ele>
        <time>2015-05-17T11:12:45Z</time>
      </trkpt>
      <trkpt lat="45.72204" lon="5.71475">
        <ele>234.42825869476</ele>
        <time>2015-05-17T11:12:50Z</time>
      </trkpt>
      <trkpt lat="45.72203" lon="5.71473">
        <ele>234.22331100598</ele>
        <time>2015-05-17T11:12:55Z</time>
      </trkpt>
      <trkpt lat="45.72204" lon="5.7147">
        <ele>234.22331100598</ele>
        <time>2015-05-17T11:13:00Z</time>
      </trkpt>
      <trkpt lat="45.72204" lon="5.7147">
        <ele>234.22331100598</ele>
        <time>2015-05-17T11:13:05Z</time>
      </trkpt>
      <trkpt lat="45.72203" lon="5.7147">
        <ele>234.22331100598</ele>
        <time>2015-05-17T11:13:10Z</time>
      </trkpt>
      <trkpt lat="45.72201" lon="5.71468">
        <ele>234.22331100598</ele>
        <time>2015-05-17T11:13:15Z</time>
      </trkpt>
      <trkpt lat="45.72197" lon="5.71466">
        <ele>233.64780322384</ele>
        <time>2015-05-17T11:13:20Z</time>
      </trkpt>
      <trkpt lat="45.72196" lon="5.71467">
        <ele>233.64780322384</ele>
        <time>2015-05-17T11:13:25Z</time>
      </trkpt>
      <trkpt lat="45.72196" lon="5.71467">
        <ele>233.64780322384</ele>
        <time>2015-05-17T11:13:30Z</time>
      </trkpt>
      <trkpt lat="45.72197" lon="5.71463">
        <ele>233.64780322384</ele>
        <time>2015-05-17T11:13:35Z</time>
      </trkpt>
      <trkpt lat="45.72197" lon="5.71461">
        <ele>233.64780322384</ele>
        <time>2015-05-17T11:13:40Z</time>
      </trkpt>
      <trkpt lat="45.72196" lon="5.7146">
        <ele>233.64780322384</ele>
        <time>2015-05-17T11:13:45Z</time>
      </trkpt>
      <trkpt lat="45.72196" lon="5.7146">
        <ele>233.64780322384</ele>
        <time>2015-05-17T11:13:50Z</time>
      </trkpt>
      <trkpt lat="45.72196" lon="5.7146">
        <ele>233.64780322384</ele>
        <time>2015-05-17T11:13:55Z</time>
      </trkpt>
      <trkpt lat="45.72196" lon="5.7146">
        <ele>233.64780322384</ele>
        <time>2015-05-17T11:14:00Z</time>
      </trkpt>
      <trkpt lat="45.72196" lon="5.7146">
        <ele>233.64780322384</ele>
        <time>2015-05-17T11:14:05Z</time>
      </trkpt>
      <trkpt lat="45.72196" lon="5.7146">
        <ele>233.64780322384</ele>
        <time>2015-05-17T11:14:10Z</time>
      </trkpt>
      <trkpt lat="45.72196" lon="5.7146">
        <ele>233.64780322384</ele>
        <time>2015-05-17T11:14:15Z</time>
      </trkpt>
      <trkpt lat="45.72196" lon="5.71461">
        <ele>233.23495208655</ele>
        <time>2015-05-17T11:14:20Z</time>
      </trkpt>
      <trkpt lat="45.72196" lon="5.71461">
        <ele>233.23495208655</ele>
        <time>2015-05-17T11:14:25Z</time>
      </trkpt>
      <trkpt lat="45.72196" lon="5.71461">
        <ele>233.23495208655</ele>
        <time>2015-05-17T11:14:30Z</time>
      </trkpt>
      <trkpt lat="45.72195" lon="5.71461">
        <ele>233.23495208655</ele>
        <time>2015-05-17T11:14:35Z</time>
      </trkpt>
      <trkpt lat="45.72195" lon="5.71463">
        <ele>233.23495208655</ele>
        <time>2015-05-17T11:14:40Z</time>
      </trkpt>
      <trkpt lat="45.72195" lon="5.71462">
        <ele>233.23495208655</ele>
        <time>2015-05-17T11:14:45Z</time>
      </trkpt>
      <trkpt lat="45.72195" lon="5.71463">
        <ele>233.23495208655</ele>
        <time>2015-05-17T11:14:50Z</time>
      </trkpt>
      <trkpt lat="45.72195" lon="5.71464">
        <ele>233.23495208655</ele>
        <time>2015-05-17T11:14:55Z</time>
      </trkpt>
      <trkpt lat="45.72196" lon="5.71463">
        <ele>233.23495208655</ele>
        <time>2015-05-17T11:15:00Z</time>
      </trkpt>
      <trkpt lat="45.72195" lon="5.71465">
        <ele>233.23495208655</ele>
        <time>2015-05-17T11:15:05Z</time>
      </trkpt>
      <trkpt lat="45.72195" lon="5.71466">
        <ele>233.23495208655</ele>
        <time>2015-05-17T11:15:10Z</time>
      </trkpt>
      <trkpt lat="45.72194" lon="5.71467">
        <ele>233.23495208655</ele>
        <time>2015-05-17T11:15:15Z</time>
      </trkpt>
      <trkpt lat="45.72193" lon="5.71466">
        <ele>233.23495208655</ele>
        <time>2015-05-17T11:15:20Z</time>
      </trkpt>
      <trkpt lat="45.72194" lon="5.71466">
        <ele>233.23495208655</ele>
        <time>2015-05-17T11:15:25Z</time>
      </trkpt>
      <trkpt lat="45.72194" lon="5.71466">
        <ele>233.23495208655</ele>
        <time>2015-05-17T11:15:30Z</time>
      </trkpt>
      <trkpt lat="45.72194" lon="5.71466">
        <ele>233.23495208655</ele>
        <time>2015-05-17T11:15:35Z</time>
      </trkpt>
      <trkpt lat="45.72194" lon="5.71466">
        <ele>233.23495208655</ele>
        <time>2015-05-17T11:15:40Z</time>
      </trkpt>
      <trkpt lat="45.72194" lon="5.71466">
        <ele>233.23495208655</ele>
        <time>2015-05-17T11:15:45Z</time>
      </trkpt>
      <trkpt lat="45.72194" lon="5.71466">
        <ele>233.23495208655</ele>
        <time>2015-05-17T11:15:50Z</time>
      </trkpt>
      <trkpt lat="45.72193" lon="5.71466">
        <ele>233.23495208655</ele>
        <time>2015-05-17T11:15:55Z</time>
      </trkpt>
      <trkpt lat="45.7219" lon="5.71461">
        <ele>233.08927353888</ele>
        <time>2015-05-17T11:16:00Z</time>
      </trkpt>
      <trkpt lat="45.72184" lon="5.71462">
        <ele>233.08927353888</ele>
        <time>2015-05-17T11:16:05Z</time>
      </trkpt>
      <trkpt lat="45.72176" lon="5.71458">
        <ele>232.97542364503</ele>
        <time>2015-05-17T11:16:10Z</time>
      </trkpt>
      <trkpt lat="45.7217" lon="5.71454">
        <ele>232.97542364503</ele>
        <time>2015-05-17T11:16:15Z</time>
      </trkpt>
      <trkpt lat="45.72164" lon="5.71451">
        <ele>232.93468005844</ele>
        <time>2015-05-17T11:16:20Z</time>
      </trkpt>
      <trkpt lat="45.72158" lon="5.71447">
        <ele>232.93468005844</ele>
        <time>2015-05-17T11:16:25Z</time>
      </trkpt>
      <trkpt lat="45.72153" lon="5.71444">
        <ele>233.00510092494</ele>
        <time>2015-05-17T11:16:30Z</time>
      </trkpt>
      <trkpt lat="45.72146" lon="5.71438">
        <ele>233.00510092494</ele>
        <time>2015-05-17T11:16:35Z</time>
      </trkpt>
      <trkpt lat="45.72139" lon="5.71433">
        <ele>233.36576480863</ele>
        <time>2015-05-17T11:16:40Z</time>
      </trkpt>
      <trkpt lat="45.72136" lon="5.71434">
        <ele>233.36576480863</ele>
        <time>2015-05-17T11:16:45Z</time>
      </trkpt>
      <trkpt lat="45.72132" lon="5.71431">
        <ele>233.36576480863</ele>
        <time>2015-05-17T11:16:50Z</time>
      </trkpt>
      <trkpt lat="45.72127" lon="5.71426">
        <ele>233.66299531117</ele>
        <time>2015-05-17T11:16:55Z</time>
      </trkpt>
      <trkpt lat="45.72122" lon="5.71423">
        <ele>233.66299531117</ele>
        <time>2015-05-17T11:17:00Z</time>
      </trkpt>
      <trkpt lat="45.72117" lon="5.7142">
        <ele>233.87192539</ele>
        <time>2015-05-17T11:17:05Z</time>
      </trkpt>
      <trkpt lat="45.72115" lon="5.71416">
        <ele>233.87192539</ele>
        <time>2015-05-17T11:17:10Z</time>
      </trkpt>
      <trkpt lat="45.72112" lon="5.71415">
        <ele>233.87192539</ele>
        <time>2015-05-17T11:17:15Z</time>
      </trkpt>
      <trkpt lat="45.72106" lon="5.71417">
        <ele>233.53744380254</ele>
        <time>2015-05-17T11:17:20Z</time>
      </trkpt>
      <trkpt lat="45.721" lon="5.71412">
        <ele>233.53744380254</ele>
        <time>2015-05-17T11:17:25Z</time>
      </trkpt>
      <trkpt lat="45.72093" lon="5.71408">
        <ele>233.69493578464</ele>
        <time>2015-05-17T11:17:30Z</time>
      </trkpt>
      <trkpt lat="45.72086" lon="5.71405">
        <ele>233.69493578464</ele>
        <time>2015-05-17T11:17:35Z</time>
      </trkpt>
      <trkpt lat="45.72081" lon="5.71405">
        <ele>234.07741526856</ele>
        <time>2015-05-17T11:17:40Z</time>
      </trkpt>
      <trkpt lat="45.72074" lon="5.71403">
        <ele>234.07741526856</ele>
        <time>2015-05-17T11:17:45Z</time>
      </trkpt>
      <trkpt lat="45.72069" lon="5.71401">
        <ele>234.55218113621</ele>
        <time>2015-05-17T11:17:50Z</time>
      </trkpt>
      <trkpt lat="45.72064" lon="5.71398">
        <ele>234.55218113621</ele>
        <time>2015-05-17T11:17:55Z</time>
      </trkpt>
      <trkpt lat="45.72058" lon="5.71394">
        <ele>234.90956931481</ele>
        <time>2015-05-17T11:18:00Z</time>
      </trkpt>
      <trkpt lat="45.72053" lon="5.7139">
        <ele>234.90956931481</ele>
        <time>2015-05-17T11:18:05Z</time>
      </trkpt>
      <trkpt lat="45.72048" lon="5.71388">
        <ele>235.28711848302</ele>
        <time>2015-05-17T11:18:10Z</time>
      </trkpt>
      <trkpt lat="45.72042" lon="5.71385">
        <ele>235.28711848302</ele>
        <time>2015-05-17T11:18:15Z</time>
      </trkpt>
      <trkpt lat="45.72038" lon="5.71384">
        <ele>235.12048974337</ele>
        <time>2015-05-17T11:18:20Z</time>
      </trkpt>
      <trkpt lat="45.72032" lon="5.71379">
        <ele>235.12048974337</ele>
        <time>2015-05-17T11:18:25Z</time>
      </trkpt>
      <trkpt lat="45.72024" lon="5.71374">
        <ele>234.99799920548</ele>
        <time>2015-05-17T11:18:30Z</time>
      </trkpt>
      <trkpt lat="45.72018" lon="5.71369">
        <ele>234.99799920548</ele>
        <time>2015-05-17T11:18:35Z</time>
      </trkpt>
      <trkpt lat="45.72012" lon="5.71365">
        <ele>234.75849124249</ele>
        <time>2015-05-17T11:18:40Z</time>
      </trkpt>
      <trkpt lat="45.72006" lon="5.71364">
        <ele>234.75849124249</ele>
        <time>2015-05-17T11:18:45Z</time>
      </trkpt>
      <trkpt lat="45.72" lon="5.71365">
        <ele>234.20975469762</ele>
        <time>2015-05-17T11:18:50Z</time>
      </trkpt>
      <trkpt lat="45.71995" lon="5.71364">
        <ele>234.20975469762</ele>
        <time>2015-05-17T11:18:55Z</time>
      </trkpt>
      <trkpt lat="45.71992" lon="5.7136">
        <ele>233.89512887815</ele>
        <time>2015-05-17T11:19:00Z</time>
      </trkpt>
      <trkpt lat="45.71985" lon="5.71358">
        <ele>233.89512887815</ele>
        <time>2015-05-17T11:19:05Z</time>
      </trkpt>
      <trkpt lat="45.7198" lon="5.71359">
        <ele>233.29419594513</ele>
        <time>2015-05-17T11:19:10Z</time>
      </trkpt>
      <trkpt lat="45.71975" lon="5.71362">
        <ele>233.29419594513</ele>
        <time>2015-05-17T11:19:15Z</time>
      </trkpt>
      <trkpt lat="45.71968" lon="5.7136">
        <ele>232.80464702436</ele>
        <time>2015-05-17T11:19:20Z</time>
      </trkpt>
      <trkpt lat="45.71962" lon="5.71358">
        <ele>232.80464702436</ele>
        <time>2015-05-17T11:19:25Z</time>
      </trkpt>
      <trkpt lat="45.71956" lon="5.71357">
        <ele>232.50641752714</ele>
        <time>2015-05-17T11:19:30Z</time>
      </trkpt>
      <trkpt lat="45.7195" lon="5.71354">
        <ele>232.50641752714</ele>
        <time>2015-05-17T11:19:35Z</time>
      </trkpt>
      <trkpt lat="45.71943" lon="5.71351">
        <ele>232.57390209649</ele>
        <time>2015-05-17T11:19:40Z</time>
      </trkpt>
      <trkpt lat="45.71937" lon="5.71351">
        <ele>232.57390209649</ele>
        <time>2015-05-17T11:19:45Z</time>
      </trkpt>
      <trkpt lat="45.7193" lon="5.71349">
        <ele>232.50473439008</ele>
        <time>2015-05-17T11:19:50Z</time>
      </trkpt>
      <trkpt lat="45.71925" lon="5.71347">
        <ele>232.50473439008</ele>
        <time>2015-05-17T11:19:55Z</time>
      </trkpt>
      <trkpt lat="45.71925" lon="5.71348">
        <ele>232.50473439008</ele>
        <time>2015-05-17T11:20:00Z</time>
      </trkpt>
      <trkpt lat="45.71926" lon="5.71348">
        <ele>232.50473439008</ele>
        <time>2015-05-17T11:20:05Z</time>
      </trkpt>
      <trkpt lat="45.71925" lon="5.71347">
        <ele>232.50473439008</ele>
        <time>2015-05-17T11:20:10Z</time>
      </trkpt>
      <trkpt lat="45.71925" lon="5.71347">
        <ele>232.50473439008</ele>
        <time>2015-05-17T11:20:15Z</time>
      </trkpt>
      <trkpt lat="45.71924" lon="5.71347">
        <ele>232.50473439008</ele>
        <time>2015-05-17T11:20:20Z</time>
      </trkpt>
      <trkpt lat="45.71924" lon="5.71347">
        <ele>232.50473439008</ele>
        <time>2015-05-17T11:20:25Z</time>
      </trkpt>
      <trkpt lat="45.71924" lon="5.71347">
        <ele>232.50473439008</ele>
        <time>2015-05-17T11:20:30Z</time>
      </trkpt>
      <trkpt lat="45.71924" lon="5.71346">
        <ele>232.50473439008</ele>
        <time>2015-05-17T11:20:35Z</time>
      </trkpt>
      <trkpt lat="45.71924" lon="5.71346">
        <ele>232.50473439008</ele>
        <time>2015-05-17T11:20:40Z</time>
      </trkpt>
      <trkpt lat="45.71924" lon="5.71348">
        <ele>232.7993673234</ele>
        <time>2015-05-17T11:20:45Z</time>
      </trkpt>
      <trkpt lat="45.71924" lon="5.71349">
        <ele>232.7993673234</ele>
        <time>2015-05-17T11:20:50Z</time>
      </trkpt>
      <trkpt lat="45.71924" lon="5.71349">
        <ele>232.7993673234</ele>
        <time>2015-05-17T11:20:55Z</time>
      </trkpt>
      <trkpt lat="45.71924" lon="5.71349">
        <ele>232.7993673234</ele>
        <time>2015-05-17T11:21:00Z</time>
      </trkpt>
      <trkpt lat="45.71924" lon="5.71349">
        <ele>232.7993673234</ele>
        <time>2015-05-17T11:21:05Z</time>
      </trkpt>
      <trkpt lat="45.71924" lon="5.71349">
        <ele>232.7993673234</ele>
        <time>2015-05-17T11:21:10Z</time>
      </trkpt>
      <trkpt lat="45.71924" lon="5.71349">
        <ele>232.7993673234</ele>
        <time>2015-05-17T11:21:15Z</time>
      </trkpt>
      <trkpt lat="45.71924" lon="5.71349">
        <ele>232.7993673234</ele>
        <time>2015-05-17T11:21:20Z</time>
      </trkpt>
      <trkpt lat="45.71924" lon="5.71349">
        <ele>232.7993673234</ele>
        <time>2015-05-17T11:21:25Z</time>
      </trkpt>
      <trkpt lat="45.71924" lon="5.71349">
        <ele>232.7993673234</ele>
        <time>2015-05-17T11:21:30Z</time>
      </trkpt>
      <trkpt lat="45.71924" lon="5.71349">
        <ele>232.7993673234</ele>
        <time>2015-05-17T11:21:35Z</time>
      </trkpt>
      <trkpt lat="45.71924" lon="5.71349">
        <ele>232.7993673234</ele>
        <time>2015-05-17T11:21:40Z</time>
      </trkpt>
      <trkpt lat="45.71924" lon="5.71349">
        <ele>232.7993673234</ele>
        <time>2015-05-17T11:21:45Z</time>
      </trkpt>
      <trkpt lat="45.71924" lon="5.71349">
        <ele>232.7993673234</ele>
        <time>2015-05-17T11:21:50Z</time>
      </trkpt>
      <trkpt lat="45.71922" lon="5.71349">
        <ele>232.7993673234</ele>
        <time>2015-05-17T11:21:55Z</time>
      </trkpt>
      <trkpt lat="45.71918" lon="5.71349">
        <ele>232.7993673234</ele>
        <time>2015-05-17T11:22:00Z</time>
      </trkpt>
      <trkpt lat="45.7191" lon="5.71349">
        <ele>232.69551175525</ele>
        <time>2015-05-17T11:22:05Z</time>
      </trkpt>
      <trkpt lat="45.71903" lon="5.7135">
        <ele>232.69551175525</ele>
        <time>2015-05-17T11:22:10Z</time>
      </trkpt>
      <trkpt lat="45.71895" lon="5.71351">
        <ele>232.71292723494</ele>
        <time>2015-05-17T11:22:15Z</time>
      </trkpt>
      <trkpt lat="45.71888" lon="5.71354">
        <ele>232.71292723494</ele>
        <time>2015-05-17T11:22:20Z</time>
      </trkpt>
      <trkpt lat="45.71883" lon="5.71356">
        <ele>232.87168456653</ele>
        <time>2015-05-17T11:22:25Z</time>
      </trkpt>
      <trkpt lat="45.71876" lon="5.71356">
        <ele>232.87168456653</ele>
        <time>2015-05-17T11:22:30Z</time>
      </trkpt>
      <trkpt lat="45.71868" lon="5.71355">
        <ele>232.58470523028</ele>
        <time>2015-05-17T11:22:35Z</time>
      </trkpt>
      <trkpt lat="45.71861" lon="5.71355">
        <ele>232.58470523028</ele>
        <time>2015-05-17T11:22:40Z</time>
      </trkpt>
      <trkpt lat="45.71854" lon="5.71356">
        <ele>232.95214560934</ele>
        <time>2015-05-17T11:22:45Z</time>
      </trkpt>
      <trkpt lat="45.7185" lon="5.71361">
        <ele>232.95214560934</ele>
        <time>2015-05-17T11:22:50Z</time>
      </trkpt>
      <trkpt lat="45.71842" lon="5.71361">
        <ele>233.44950978916</ele>
        <time>2015-05-17T11:22:55Z</time>
      </trkpt>
      <trkpt lat="45.71834" lon="5.71361">
        <ele>233.44950978916</ele>
        <time>2015-05-17T11:23:00Z</time>
      </trkpt>
      <trkpt lat="45.71825" lon="5.71363">
        <ele>233.95073777241</ele>
        <time>2015-05-17T11:23:05Z</time>
      </trkpt>
      <trkpt lat="45.71817" lon="5.71361">
        <ele>233.95073777241</ele>
        <time>2015-05-17T11:23:10Z</time>
      </trkpt>
      <trkpt lat="45.71808" lon="5.71362">
        <ele>234.82899394899</ele>
        <time>2015-05-17T11:23:15Z</time>
      </trkpt>
      <trkpt lat="45.71802" lon="5.71364">
        <ele>234.82899394899</ele>
        <time>2015-05-17T11:23:20Z</time>
      </trkpt>
      <trkpt lat="45.71796" lon="5.71366">
        <ele>234.93021574645</ele>
        <time>2015-05-17T11:23:25Z</time>
      </trkpt>
      <trkpt lat="45.71789" lon="5.71366">
        <ele>234.93021574645</ele>
        <time>2015-05-17T11:23:30Z</time>
      </trkpt>
      <trkpt lat="45.71786" lon="5.71361">
        <ele>234.8013464951</ele>
        <time>2015-05-17T11:23:35Z</time>
      </trkpt>
      <trkpt lat="45.71781" lon="5.7136">
        <ele>234.8013464951</ele>
        <time>2015-05-17T11:23:40Z</time>
      </trkpt>
      <trkpt lat="45.71776" lon="5.71362">
        <ele>234.57511201682</ele>
        <time>2015-05-17T11:23:45Z</time>
      </trkpt>
      <trkpt lat="45.7177" lon="5.71362">
        <ele>234.57511201682</ele>
        <time>2015-05-17T11:23:50Z</time>
      </trkpt>
      <trkpt lat="45.71764" lon="5.71361">
        <ele>234.40358767363</ele>
        <time>2015-05-17T11:23:55Z</time>
      </trkpt>
      <trkpt lat="45.71758" lon="5.71364">
        <ele>234.40358767363</ele>
        <time>2015-05-17T11:24:00Z</time>
      </trkpt>
      <trkpt lat="45.71752" lon="5.71363">
        <ele>233.92313624879</ele>
        <time>2015-05-17T11:24:05Z</time>
      </trkpt>
      <trkpt lat="45.71748" lon="5.71358">
        <ele>233.92313624879</ele>
        <time>2015-05-17T11:24:10Z</time>
      </trkpt>
      <trkpt lat="45.71744" lon="5.71356">
        <ele>234.36851236661</ele>
        <time>2015-05-17T11:24:15Z</time>
      </trkpt>
      <trkpt lat="45.71736" lon="5.71355">
        <ele>234.36851236661</ele>
        <time>2015-05-17T11:24:20Z</time>
      </trkpt>
      <trkpt lat="45.71728" lon="5.71352">
        <ele>234.83478876133</ele>
        <time>2015-05-17T11:24:25Z</time>
      </trkpt>
      <trkpt lat="45.71722" lon="5.71349">
        <ele>234.83478876133</ele>
        <time>2015-05-17T11:24:30Z</time>
      </trkpt>
      <trkpt lat="45.71715" lon="5.71344">
        <ele>235.14636647671</ele>
        <time>2015-05-17T11:24:35Z</time>
      </trkpt>
      <trkpt lat="45.71709" lon="5.7134">
        <ele>235.14636647671</ele>
        <time>2015-05-17T11:24:40Z</time>
      </trkpt>
      <trkpt lat="45.71701" lon="5.71336">
        <ele>235.47243716057</ele>
        <time>2015-05-17T11:24:45Z</time>
      </trkpt>
      <trkpt lat="45.71694" lon="5.71332">
        <ele>235.47243716057</ele>
        <time>2015-05-17T11:24:50Z</time>
      </trkpt>
      <trkpt lat="45.71687" lon="5.71328">
        <ele>235.378870287</ele>
        <time>2015-05-17T11:24:55Z</time>
      </trkpt>
      <trkpt lat="45.71681" lon="5.71325">
        <ele>235.378870287</ele>
        <time>2015-05-17T11:25:00Z</time>
      </trkpt>
      <trkpt lat="45.71675" lon="5.71322">
        <ele>235.14193004564</ele>
        <time>2015-05-17T11:25:05Z</time>
      </trkpt>
      <trkpt lat="45.71668" lon="5.7132">
        <ele>235.14193004564</ele>
        <time>2015-05-17T11:25:10Z</time>
      </trkpt>
      <trkpt lat="45.71662" lon="5.71315">
        <ele>235.42150394342</ele>
        <time>2015-05-17T11:25:15Z</time>
      </trkpt>
      <trkpt lat="45.71661" lon="5.71314">
        <ele>235.42150394342</ele>
        <time>2015-05-17T11:25:20Z</time>
      </trkpt>
      <trkpt lat="45.71656" lon="5.71312">
        <ele>235.42150394342</ele>
        <time>2015-05-17T11:25:25Z</time>
      </trkpt>
      <trkpt lat="45.71648" lon="5.7131">
        <ele>236.17905965598</ele>
        <time>2015-05-17T11:25:30Z</time>
      </trkpt>
      <trkpt lat="45.71641" lon="5.71307">
        <ele>236.17905965598</ele>
        <time>2015-05-17T11:25:35Z</time>
      </trkpt>
      <trkpt lat="45.71633" lon="5.71303">
        <ele>236.05173596678</ele>
        <time>2015-05-17T11:25:40Z</time>
      </trkpt>
      <trkpt lat="45.7163" lon="5.71299">
        <ele>236.05173596678</ele>
        <time>2015-05-17T11:25:45Z</time>
      </trkpt>
      <trkpt lat="45.71625" lon="5.71297">
        <ele>236.20034248656</ele>
        <time>2015-05-17T11:25:50Z</time>
      </trkpt>
      <trkpt lat="45.71617" lon="5.71292">
        <ele>236.20034248656</ele>
        <time>2015-05-17T11:25:55Z</time>
      </trkpt>
      <trkpt lat="45.7161" lon="5.71289">
        <ele>236.43147035131</ele>
        <time>2015-05-17T11:26:00Z</time>
      </trkpt>
      <trkpt lat="45.71604" lon="5.71289">
        <ele>236.43147035131</ele>
        <time>2015-05-17T11:26:05Z</time>
      </trkpt>
      <trkpt lat="45.71596" lon="5.71288">
        <ele>237.38712913026</ele>
        <time>2015-05-17T11:26:10Z</time>
      </trkpt>
      <trkpt lat="45.71588" lon="5.71288">
        <ele>237.38712913026</ele>
        <time>2015-05-17T11:26:15Z</time>
      </trkpt>
      <trkpt lat="45.7158" lon="5.71288">
        <ele>238.49284456985</ele>
        <time>2015-05-17T11:26:20Z</time>
      </trkpt>
      <trkpt lat="45.71572" lon="5.71286">
        <ele>238.49284456985</ele>
        <time>2015-05-17T11:26:25Z</time>
      </trkpt>
      <trkpt lat="45.71565" lon="5.71283">
        <ele>239.08623655782</ele>
        <time>2015-05-17T11:26:30Z</time>
      </trkpt>
      <trkpt lat="45.71557" lon="5.71281">
        <ele>239.08623655782</ele>
        <time>2015-05-17T11:26:35Z</time>
      </trkpt>
      <trkpt lat="45.71551" lon="5.71281">
        <ele>238.91531594012</ele>
        <time>2015-05-17T11:26:40Z</time>
      </trkpt>
      <trkpt lat="45.71545" lon="5.71281">
        <ele>238.91531594012</ele>
        <time>2015-05-17T11:26:45Z</time>
      </trkpt>
      <trkpt lat="45.7154" lon="5.71279">
        <ele>238.69990209511</ele>
        <time>2015-05-17T11:26:50Z</time>
      </trkpt>
      <trkpt lat="45.71534" lon="5.71276">
        <ele>238.69990209511</ele>
        <time>2015-05-17T11:26:55Z</time>
      </trkpt>
      <trkpt lat="45.71528" lon="5.71272">
        <ele>238.50181377388</ele>
        <time>2015-05-17T11:27:00Z</time>
      </trkpt>
      <trkpt lat="45.71524" lon="5.71268">
        <ele>238.50181377388</ele>
        <time>2015-05-17T11:27:05Z</time>
      </trkpt>
      <trkpt lat="45.71524" lon="5.71266">
        <ele>238.50181377388</ele>
        <time>2015-05-17T11:27:10Z</time>
      </trkpt>
      <trkpt lat="45.71523" lon="5.71265">
        <ele>238.50181377388</ele>
        <time>2015-05-17T11:27:15Z</time>
      </trkpt>
      <trkpt lat="45.71522" lon="5.71265">
        <ele>238.50181377388</ele>
        <time>2015-05-17T11:27:20Z</time>
      </trkpt>
      <trkpt lat="45.71516" lon="5.71269">
        <ele>238.59446328855</ele>
        <time>2015-05-17T11:27:25Z</time>
      </trkpt>
      <trkpt lat="45.71509" lon="5.71287">
        <ele>238.38011976349</ele>
        <time>2015-05-17T11:27:30Z</time>
      </trkpt>
      <trkpt lat="45.71496" lon="5.71311">
        <ele>238.37225539449</ele>
        <time>2015-05-17T11:27:35Z</time>
      </trkpt>
      <trkpt lat="45.71487" lon="5.71332">
        <ele>238.26785116626</ele>
        <time>2015-05-17T11:27:40Z</time>
      </trkpt>
      <trkpt lat="45.71483" lon="5.71344">
        <ele>238.04582381339</ele>
        <time>2015-05-17T11:27:45Z</time>
      </trkpt>
      <trkpt lat="45.71482" lon="5.71356">
        <ele>238.04582381339</ele>
        <time>2015-05-17T11:27:50Z</time>
      </trkpt>
      <trkpt lat="45.71478" lon="5.71363">
        <ele>238.46517276831</ele>
        <time>2015-05-17T11:27:55Z</time>
      </trkpt>
      <trkpt lat="45.71476" lon="5.71367">
        <ele>238.46517276831</ele>
        <time>2015-05-17T11:28:00Z</time>
      </trkpt>
      <trkpt lat="45.71472" lon="5.71376">
        <ele>238.64212220723</ele>
        <time>2015-05-17T11:28:05Z</time>
      </trkpt>
      <trkpt lat="45.71469" lon="5.71387">
        <ele>238.64212220723</ele>
        <time>2015-05-17T11:28:10Z</time>
      </trkpt>
      <trkpt lat="45.71467" lon="5.71395">
        <ele>238.82492264963</ele>
        <time>2015-05-17T11:28:15Z</time>
      </trkpt>
      <trkpt lat="45.71459" lon="5.71406">
        <ele>239.60385307233</ele>
        <time>2015-05-17T11:28:20Z</time>
      </trkpt>
      <trkpt lat="45.71455" lon="5.71415">
        <ele>239.60385307233</ele>
        <time>2015-05-17T11:28:25Z</time>
      </trkpt>
      <trkpt lat="45.71452" lon="5.71419">
        <ele>240.47215284767</ele>
        <time>2015-05-17T11:28:30Z</time>
      </trkpt>
      <trkpt lat="45.7145" lon="5.71423">
        <ele>240.47215284767</ele>
        <time>2015-05-17T11:28:35Z</time>
      </trkpt>
      <trkpt lat="45.7145" lon="5.71423">
        <ele>240.47215284767</ele>
        <time>2015-05-17T11:28:40Z</time>
      </trkpt>
      <trkpt lat="45.71449" lon="5.71424">
        <ele>240.47215284767</ele>
        <time>2015-05-17T11:28:45Z</time>
      </trkpt>
      <trkpt lat="45.71449" lon="5.71424">
        <ele>240.47215284767</ele>
        <time>2015-05-17T11:28:50Z</time>
      </trkpt>
      <trkpt lat="45.71449" lon="5.71424">
        <ele>240.47215284767</ele>
        <time>2015-05-17T11:28:55Z</time>
      </trkpt>
      <trkpt lat="45.71449" lon="5.71424">
        <ele>240.47215284767</ele>
        <time>2015-05-17T11:29:00Z</time>
      </trkpt>
      <trkpt lat="45.71448" lon="5.71425">
        <ele>240.47215284767</ele>
        <time>2015-05-17T11:29:05Z</time>
      </trkpt>
      <trkpt lat="45.71443" lon="5.71427">
        <ele>241.6661913678</ele>
        <time>2015-05-17T11:29:10Z</time>
      </trkpt>
      <trkpt lat="45.71439" lon="5.71432">
        <ele>241.6661913678</ele>
        <time>2015-05-17T11:29:15Z</time>
      </trkpt>
      <trkpt lat="45.71439" lon="5.71436">
        <ele>241.6661913678</ele>
        <time>2015-05-17T11:29:20Z</time>
      </trkpt>
      <trkpt lat="45.71435" lon="5.71443">
        <ele>243.02938697549</ele>
        <time>2015-05-17T11:29:25Z</time>
      </trkpt>
      <trkpt lat="45.71432" lon="5.71448">
        <ele>243.02938697549</ele>
        <time>2015-05-17T11:29:30Z</time>
      </trkpt>
      <trkpt lat="45.71428" lon="5.71456">
        <ele>244.43061946807</ele>
        <time>2015-05-17T11:29:35Z</time>
      </trkpt>
      <trkpt lat="45.71424" lon="5.71464">
        <ele>244.43061946807</ele>
        <time>2015-05-17T11:29:40Z</time>
      </trkpt>
      <trkpt lat="45.71419" lon="5.71474">
        <ele>246.42564764954</ele>
        <time>2015-05-17T11:29:45Z</time>
      </trkpt>
      <trkpt lat="45.71414" lon="5.71482">
        <ele>246.42564764954</ele>
        <time>2015-05-17T11:29:50Z</time>
      </trkpt>
      <trkpt lat="45.71407" lon="5.71487">
        <ele>248.50459052114</ele>
        <time>2015-05-17T11:29:55Z</time>
      </trkpt>
      <trkpt lat="45.71404" lon="5.71493">
        <ele>248.50459052114</ele>
        <time>2015-05-17T11:30:00Z</time>
      </trkpt>
      <trkpt lat="45.71401" lon="5.71498">
        <ele>250.43982749249</ele>
        <time>2015-05-17T11:30:05Z</time>
      </trkpt>
      <trkpt lat="45.71396" lon="5.71504">
        <ele>250.43982749249</ele>
        <time>2015-05-17T11:30:10Z</time>
      </trkpt>
      <trkpt lat="45.71397" lon="5.71504">
        <ele>250.43982749249</ele>
        <time>2015-05-17T11:30:15Z</time>
      </trkpt>
      <trkpt lat="45.71396" lon="5.71504">
        <ele>250.43982749249</ele>
        <time>2015-05-17T11:30:20Z</time>
      </trkpt>
      <trkpt lat="45.71395" lon="5.71506">
        <ele>250.43982749249</ele>
        <time>2015-05-17T11:30:25Z</time>
      </trkpt>
      <trkpt lat="45.71393" lon="5.71514">
        <ele>252.3379683291</ele>
        <time>2015-05-17T11:30:30Z</time>
      </trkpt>
      <trkpt lat="45.7139" lon="5.71525">
        <ele>252.3379683291</ele>
        <time>2015-05-17T11:30:35Z</time>
      </trkpt>
      <trkpt lat="45.71385" lon="5.71536">
        <ele>254.57177909235</ele>
        <time>2015-05-17T11:30:40Z</time>
      </trkpt>
      <trkpt lat="45.71377" lon="5.71544">
        <ele>257.22638403325</ele>
        <time>2015-05-17T11:30:45Z</time>
      </trkpt>
      <trkpt lat="45.7137" lon="5.71552">
        <ele>257.22638403325</ele>
        <time>2015-05-17T11:30:50Z</time>
      </trkpt>
      <trkpt lat="45.71365" lon="5.71561">
        <ele>259.19785466857</ele>
        <time>2015-05-17T11:30:55Z</time>
      </trkpt>
      <trkpt lat="45.71357" lon="5.71569">
        <ele>261.00736348895</ele>
        <time>2015-05-17T11:31:00Z</time>
      </trkpt>
      <trkpt lat="45.71347" lon="5.71578">
        <ele>262.4322154054</ele>
        <time>2015-05-17T11:31:05Z</time>
      </trkpt>
      <trkpt lat="45.7134" lon="5.71586">
        <ele>262.4322154054</ele>
        <time>2015-05-17T11:31:10Z</time>
      </trkpt>
      <trkpt lat="45.71335" lon="5.71588">
        <ele>264.21839983701</ele>
        <time>2015-05-17T11:31:15Z</time>
      </trkpt>
      <trkpt lat="45.71329" lon="5.7159">
        <ele>264.21839983701</ele>
        <time>2015-05-17T11:31:20Z</time>
      </trkpt>
      <trkpt lat="45.71324" lon="5.71596">
        <ele>266.30683029879</ele>
        <time>2015-05-17T11:31:25Z</time>
      </trkpt>
      <trkpt lat="45.71318" lon="5.71608">
        <ele>268.00794149807</ele>
        <time>2015-05-17T11:31:30Z</time>
      </trkpt>
      <trkpt lat="45.71316" lon="5.71615">
        <ele>268.00794149807</ele>
        <time>2015-05-17T11:31:35Z</time>
      </trkpt>
      <trkpt lat="45.71312" lon="5.71623">
        <ele>269.60634061204</ele>
        <time>2015-05-17T11:31:40Z</time>
      </trkpt>
      <trkpt lat="45.71304" lon="5.71634">
        <ele>272.00022707417</ele>
        <time>2015-05-17T11:31:45Z</time>
      </trkpt>
      <trkpt lat="45.71298" lon="5.71642">
        <ele>272.00022707417</ele>
        <time>2015-05-17T11:31:50Z</time>
      </trkpt>
      <trkpt lat="45.71292" lon="5.71647">
        <ele>274.44890053745</ele>
        <time>2015-05-17T11:31:55Z</time>
      </trkpt>
      <trkpt lat="45.71286" lon="5.71655">
        <ele>274.44890053745</ele>
        <time>2015-05-17T11:32:00Z</time>
      </trkpt>
      <trkpt lat="45.71277" lon="5.71663">
        <ele>277.26041389566</ele>
        <time>2015-05-17T11:32:05Z</time>
      </trkpt>
      <trkpt lat="45.71272" lon="5.7167">
        <ele>277.26041389566</ele>
        <time>2015-05-17T11:32:10Z</time>
      </trkpt>
      <trkpt lat="45.71269" lon="5.71675">
        <ele>279.17731527221</ele>
        <time>2015-05-17T11:32:15Z</time>
      </trkpt>
      <trkpt lat="45.71271" lon="5.71684">
        <ele>279.17731527221</ele>
        <time>2015-05-17T11:32:20Z</time>
      </trkpt>
      <trkpt lat="45.71271" lon="5.71697">
        <ele>281.81851652077</ele>
        <time>2015-05-17T11:32:25Z</time>
      </trkpt>
      <trkpt lat="45.71269" lon="5.71709">
        <ele>281.81851652077</ele>
        <time>2015-05-17T11:32:30Z</time>
      </trkpt>
      <trkpt lat="45.71266" lon="5.71721">
        <ele>284.37633532052</ele>
        <time>2015-05-17T11:32:35Z</time>
      </trkpt>
      <trkpt lat="45.71266" lon="5.71732">
        <ele>284.37633532052</ele>
        <time>2015-05-17T11:32:40Z</time>
      </trkpt>
      <trkpt lat="45.71266" lon="5.71742">
        <ele>287.55832295466</ele>
        <time>2015-05-17T11:32:45Z</time>
      </trkpt>
      <trkpt lat="45.71264" lon="5.71751">
        <ele>287.55832295466</ele>
        <time>2015-05-17T11:32:50Z</time>
      </trkpt>
      <trkpt lat="45.71264" lon="5.7176">
        <ele>290.56292978301</ele>
        <time>2015-05-17T11:32:55Z</time>
      </trkpt>
      <trkpt lat="45.71263" lon="5.7177">
        <ele>290.56292978301</ele>
        <time>2015-05-17T11:33:00Z</time>
      </trkpt>
      <trkpt lat="45.71264" lon="5.71781">
        <ele>293.48398414907</ele>
        <time>2015-05-17T11:33:05Z</time>
      </trkpt>
      <trkpt lat="45.71264" lon="5.71791">
        <ele>293.48398414907</ele>
        <time>2015-05-17T11:33:10Z</time>
      </trkpt>
      <trkpt lat="45.71262" lon="5.71801">
        <ele>296.14941478356</ele>
        <time>2015-05-17T11:33:15Z</time>
      </trkpt>
      <trkpt lat="45.7126" lon="5.71811">
        <ele>296.14941478356</ele>
        <time>2015-05-17T11:33:20Z</time>
      </trkpt>
      <trkpt lat="45.71256" lon="5.71821">
        <ele>298.29979133321</ele>
        <time>2015-05-17T11:33:25Z</time>
      </trkpt>
      <trkpt lat="45.71254" lon="5.7183">
        <ele>298.29979133321</ele>
        <time>2015-05-17T11:33:30Z</time>
      </trkpt>
      <trkpt lat="45.71251" lon="5.71841">
        <ele>300.15750291486</ele>
        <time>2015-05-17T11:33:35Z</time>
      </trkpt>
      <trkpt lat="45.71249" lon="5.71843">
        <ele>300.15750291486</ele>
        <time>2015-05-17T11:33:40Z</time>
      </trkpt>
      <trkpt lat="45.71248" lon="5.71849">
        <ele>300.15750291486</ele>
        <time>2015-05-17T11:33:45Z</time>
      </trkpt>
      <trkpt lat="45.71245" lon="5.71857">
        <ele>302.47720489686</ele>
        <time>2015-05-17T11:33:50Z</time>
      </trkpt>
      <trkpt lat="45.71243" lon="5.71867">
        <ele>302.47720489686</ele>
        <time>2015-05-17T11:33:55Z</time>
      </trkpt>
      <trkpt lat="45.71238" lon="5.71874">
        <ele>304.27087432521</ele>
        <time>2015-05-17T11:34:00Z</time>
      </trkpt>
      <trkpt lat="45.71232" lon="5.71881">
        <ele>304.27087432521</ele>
        <time>2015-05-17T11:34:05Z</time>
      </trkpt>
      <trkpt lat="45.7123" lon="5.71883">
        <ele>305.9793375762</ele>
        <time>2015-05-17T11:34:10Z</time>
      </trkpt>
      <trkpt lat="45.71227" lon="5.7189">
        <ele>305.9793375762</ele>
        <time>2015-05-17T11:34:15Z</time>
      </trkpt>
      <trkpt lat="45.71225" lon="5.71897">
        <ele>306.9017624703</ele>
        <time>2015-05-17T11:34:20Z</time>
      </trkpt>
      <trkpt lat="45.71222" lon="5.71902">
        <ele>306.9017624703</ele>
        <time>2015-05-17T11:34:25Z</time>
      </trkpt>
      <trkpt lat="45.7122" lon="5.71907">
        <ele>306.9017624703</ele>
        <time>2015-05-17T11:34:30Z</time>
      </trkpt>
      <trkpt lat="45.71217" lon="5.71912">
        <ele>307.70254794733</ele>
        <time>2015-05-17T11:34:35Z</time>
      </trkpt>
      <trkpt lat="45.71215" lon="5.7192">
        <ele>307.70254794733</ele>
        <time>2015-05-17T11:34:40Z</time>
      </trkpt>
      <trkpt lat="45.71211" lon="5.71926">
        <ele>308.06102430717</ele>
        <time>2015-05-17T11:34:45Z</time>
      </trkpt>
      <trkpt lat="45.71208" lon="5.71934">
        <ele>308.06102430717</ele>
        <time>2015-05-17T11:34:50Z</time>
      </trkpt>
      <trkpt lat="45.71205" lon="5.71938">
        <ele>308.27227889368</ele>
        <time>2015-05-17T11:34:55Z</time>
      </trkpt>
      <trkpt lat="45.712" lon="5.71947">
        <ele>308.27227889368</ele>
        <time>2015-05-17T11:35:00Z</time>
      </trkpt>
      <trkpt lat="45.71197" lon="5.71958">
        <ele>308.40846716394</ele>
        <time>2015-05-17T11:35:05Z</time>
      </trkpt>
      <trkpt lat="45.71191" lon="5.71975">
        <ele>308.50790304388</ele>
        <time>2015-05-17T11:35:10Z</time>
      </trkpt>
      <trkpt lat="45.71184" lon="5.71985">
        <ele>308.96652111723</ele>
        <time>2015-05-17T11:35:15Z</time>
      </trkpt>
      <trkpt lat="45.71182" lon="5.7199">
        <ele>308.96652111723</ele>
        <time>2015-05-17T11:35:20Z</time>
      </trkpt>
      <trkpt lat="45.71179" lon="5.71997">
        <ele>309.44405739834</ele>
        <time>2015-05-17T11:35:25Z</time>
      </trkpt>
      <trkpt lat="45.71176" lon="5.72003">
        <ele>309.44405739834</ele>
        <time>2015-05-17T11:35:30Z</time>
      </trkpt>
      <trkpt lat="45.71172" lon="5.72011">
        <ele>310.23048309958</ele>
        <time>2015-05-17T11:35:35Z</time>
      </trkpt>
      <trkpt lat="45.71169" lon="5.72021">
        <ele>310.23048309958</ele>
        <time>2015-05-17T11:35:40Z</time>
      </trkpt>
      <trkpt lat="45.71168" lon="5.72032">
        <ele>310.26779247116</ele>
        <time>2015-05-17T11:35:45Z</time>
      </trkpt>
      <trkpt lat="45.71164" lon="5.72049">
        <ele>310.22067099176</ele>
        <time>2015-05-17T11:35:50Z</time>
      </trkpt>
      <trkpt lat="45.7116" lon="5.72065">
        <ele>309.94141435955</ele>
        <time>2015-05-17T11:35:55Z</time>
      </trkpt>
      <trkpt lat="45.71154" lon="5.72075">
        <ele>309.94141435955</ele>
        <time>2015-05-17T11:36:00Z</time>
      </trkpt>
      <trkpt lat="45.71146" lon="5.72083">
        <ele>310.47551006822</ele>
        <time>2015-05-17T11:36:05Z</time>
      </trkpt>
      <trkpt lat="45.71139" lon="5.72095">
        <ele>311.5067423988</ele>
        <time>2015-05-17T11:36:10Z</time>
      </trkpt>
      <trkpt lat="45.71134" lon="5.721">
        <ele>311.5067423988</ele>
        <time>2015-05-17T11:36:15Z</time>
      </trkpt>
      <trkpt lat="45.71133" lon="5.72101">
        <ele>311.5067423988</ele>
        <time>2015-05-17T11:36:20Z</time>
      </trkpt>
      <trkpt lat="45.7113" lon="5.72103">
        <ele>313.95122768154</ele>
        <time>2015-05-17T11:36:25Z</time>
      </trkpt>
      <trkpt lat="45.7112" lon="5.72107">
        <ele>316.50652773751</ele>
        <time>2015-05-17T11:36:30Z</time>
      </trkpt>
      <trkpt lat="45.71112" lon="5.72113">
        <ele>318.81579439704</ele>
        <time>2015-05-17T11:36:35Z</time>
      </trkpt>
      <trkpt lat="45.71114" lon="5.72126">
        <ele>318.81579439704</ele>
        <time>2015-05-17T11:36:40Z</time>
      </trkpt>
      <trkpt lat="45.71119" lon="5.72133">
        <ele>320.4914145657</ele>
        <time>2015-05-17T11:36:45Z</time>
      </trkpt>
      <trkpt lat="45.71125" lon="5.72138">
        <ele>320.4914145657</ele>
        <time>2015-05-17T11:36:50Z</time>
      </trkpt>
      <trkpt lat="45.71129" lon="5.7214">
        <ele>321.62275287745</ele>
        <time>2015-05-17T11:36:55Z</time>
      </trkpt>
      <trkpt lat="45.7113" lon="5.72142">
        <ele>321.62275287745</ele>
        <time>2015-05-17T11:37:00Z</time>
      </trkpt>
      <trkpt lat="45.71126" lon="5.72149">
        <ele>321.62275287745</ele>
        <time>2015-05-17T11:37:05Z</time>
      </trkpt>
      <trkpt lat="45.71117" lon="5.72154">
        <ele>323.49024527768</ele>
        <time>2015-05-17T11:37:10Z</time>
      </trkpt>
      <trkpt lat="45.71116" lon="5.72164">
        <ele>323.49024527768</ele>
        <time>2015-05-17T11:37:15Z</time>
      </trkpt>
      <trkpt lat="45.71126" lon="5.72167">
        <ele>324.6986005811</ele>
        <time>2015-05-17T11:37:20Z</time>
      </trkpt>
      <trkpt lat="45.71128" lon="5.72179">
        <ele>324.6986005811</ele>
        <time>2015-05-17T11:37:25Z</time>
      </trkpt>
      <trkpt lat="45.71123" lon="5.72186">
        <ele>325.71501792255</ele>
        <time>2015-05-17T11:37:30Z</time>
      </trkpt>
      <trkpt lat="45.71118" lon="5.72193">
        <ele>325.71501792255</ele>
        <time>2015-05-17T11:37:35Z</time>
      </trkpt>
      <trkpt lat="45.71116" lon="5.722">
        <ele>326.82879041167</ele>
        <time>2015-05-17T11:37:40Z</time>
      </trkpt>
      <trkpt lat="45.71121" lon="5.72214">
        <ele>327.77446066704</ele>
        <time>2015-05-17T11:37:45Z</time>
      </trkpt>
      <trkpt lat="45.71128" lon="5.72215">
        <ele>327.77446066704</ele>
        <time>2015-05-17T11:37:50Z</time>
      </trkpt>
      <trkpt lat="45.71131" lon="5.72208">
        <ele>329.50264973744</ele>
        <time>2015-05-17T11:37:55Z</time>
      </trkpt>
      <trkpt lat="45.71133" lon="5.72201">
        <ele>329.50264973744</ele>
        <time>2015-05-17T11:38:00Z</time>
      </trkpt>
      <trkpt lat="45.71134" lon="5.72198">
        <ele>329.50264973744</ele>
        <time>2015-05-17T11:38:05Z</time>
      </trkpt>
      <trkpt lat="45.71133" lon="5.72208">
        <ele>331.14818936576</ele>
        <time>2015-05-17T11:38:10Z</time>
      </trkpt>
      <trkpt lat="45.71132" lon="5.72217">
        <ele>331.14818936576</ele>
        <time>2015-05-17T11:38:15Z</time>
      </trkpt>
      <trkpt lat="45.71128" lon="5.72223">
        <ele>332.55818145815</ele>
        <time>2015-05-17T11:38:20Z</time>
      </trkpt>
      <trkpt lat="45.71123" lon="5.72228">
        <ele>332.55818145815</ele>
        <time>2015-05-17T11:38:25Z</time>
      </trkpt>
      <trkpt lat="45.71122" lon="5.72232">
        <ele>332.55818145815</ele>
        <time>2015-05-17T11:38:30Z</time>
      </trkpt>
      <trkpt lat="45.71119" lon="5.72237">
        <ele>335.23447442674</ele>
        <time>2015-05-17T11:38:35Z</time>
      </trkpt>
      <trkpt lat="45.71119" lon="5.72248">
        <ele>335.23447442674</ele>
        <time>2015-05-17T11:38:40Z</time>
      </trkpt>
      <trkpt lat="45.7112" lon="5.72247">
        <ele>335.23447442674</ele>
        <time>2015-05-17T11:38:45Z</time>
      </trkpt>
      <trkpt lat="45.71127" lon="5.72243">
        <ele>337.74045211256</ele>
        <time>2015-05-17T11:38:50Z</time>
      </trkpt>
      <trkpt lat="45.71132" lon="5.72235">
        <ele>337.74045211256</ele>
        <time>2015-05-17T11:38:55Z</time>
      </trkpt>
      <trkpt lat="45.71135" lon="5.72234">
        <ele>340.25867429877</ele>
        <time>2015-05-17T11:39:00Z</time>
      </trkpt>
      <trkpt lat="45.71134" lon="5.72239">
        <ele>340.25867429877</ele>
        <time>2015-05-17T11:39:05Z</time>
      </trkpt>
      <trkpt lat="45.71131" lon="5.72243">
        <ele>340.25867429877</ele>
        <time>2015-05-17T11:39:10Z</time>
      </trkpt>
      <trkpt lat="45.71126" lon="5.7225">
        <ele>343.49147394985</ele>
        <time>2015-05-17T11:39:15Z</time>
      </trkpt>
      <trkpt lat="45.71123" lon="5.72259">
        <ele>343.49147394985</ele>
        <time>2015-05-17T11:39:20Z</time>
      </trkpt>
      <trkpt lat="45.71117" lon="5.72267">
        <ele>346.51679200995</ele>
        <time>2015-05-17T11:39:25Z</time>
      </trkpt>
      <trkpt lat="45.71117" lon="5.72271">
        <ele>346.51679200995</ele>
        <time>2015-05-17T11:39:30Z</time>
      </trkpt>
      <trkpt lat="45.71117" lon="5.72276">
        <ele>346.51679200995</ele>
        <time>2015-05-17T11:39:35Z</time>
      </trkpt>
      <trkpt lat="45.71117" lon="5.72276">
        <ele>346.51679200995</ele>
        <time>2015-05-17T11:39:40Z</time>
      </trkpt>
      <trkpt lat="45.71117" lon="5.72277">
        <ele>346.51679200995</ele>
        <time>2015-05-17T11:39:45Z</time>
      </trkpt>
      <trkpt lat="45.7112" lon="5.72287">
        <ele>349.6626248846</ele>
        <time>2015-05-17T11:39:50Z</time>
      </trkpt>
      <trkpt lat="45.71117" lon="5.72302">
        <ele>352.69936385003</ele>
        <time>2015-05-17T11:39:55Z</time>
      </trkpt>
      <trkpt lat="45.71112" lon="5.72325">
        <ele>355.86136714777</ele>
        <time>2015-05-17T11:40:00Z</time>
      </trkpt>
      <trkpt lat="45.71108" lon="5.72341">
        <ele>358.76021746011</ele>
        <time>2015-05-17T11:40:05Z</time>
      </trkpt>
      <trkpt lat="45.71106" lon="5.72354">
        <ele>361.23859021353</ele>
        <time>2015-05-17T11:40:10Z</time>
      </trkpt>
      <trkpt lat="45.71101" lon="5.72372">
        <ele>363.67076911893</ele>
        <time>2015-05-17T11:40:15Z</time>
      </trkpt>
      <trkpt lat="45.71104" lon="5.72382">
        <ele>363.67076911893</ele>
        <time>2015-05-17T11:40:20Z</time>
      </trkpt>
      <trkpt lat="45.71108" lon="5.72391">
        <ele>365.10674577932</ele>
        <time>2015-05-17T11:40:25Z</time>
      </trkpt>
      <trkpt lat="45.71108" lon="5.72402">
        <ele>365.10674577932</ele>
        <time>2015-05-17T11:40:30Z</time>
      </trkpt>
      <trkpt lat="45.71107" lon="5.72411">
        <ele>366.211154787</ele>
        <time>2015-05-17T11:40:35Z</time>
      </trkpt>
      <trkpt lat="45.71107" lon="5.72422">
        <ele>366.211154787</ele>
        <time>2015-05-17T11:40:40Z</time>
      </trkpt>
      <trkpt lat="45.71107" lon="5.72435">
        <ele>367.41345976822</ele>
        <time>2015-05-17T11:40:45Z</time>
      </trkpt>
      <trkpt lat="45.71108" lon="5.72448">
        <ele>367.41345976822</ele>
        <time>2015-05-17T11:40:50Z</time>
      </trkpt>
      <trkpt lat="45.71109" lon="5.7246">
        <ele>369.38517402573</ele>
        <time>2015-05-17T11:40:55Z</time>
      </trkpt>
      <trkpt lat="45.71109" lon="5.72473">
        <ele>369.38517402573</ele>
        <time>2015-05-17T11:41:00Z</time>
      </trkpt>
      <trkpt lat="45.71115" lon="5.72479">
        <ele>371.04586603691</ele>
        <time>2015-05-17T11:41:05Z</time>
      </trkpt>
      <trkpt lat="45.71119" lon="5.72486">
        <ele>371.04586603691</ele>
        <time>2015-05-17T11:41:10Z</time>
      </trkpt>
      <trkpt lat="45.71123" lon="5.72491">
        <ele>371.74125847803</ele>
        <time>2015-05-17T11:41:15Z</time>
      </trkpt>
      <trkpt lat="45.71132" lon="5.72493">
        <ele>371.74125847803</ele>
        <time>2015-05-17T11:41:20Z</time>
      </trkpt>
      <trkpt lat="45.71139" lon="5.72501">
        <ele>372.46751867063</ele>
        <time>2015-05-17T11:41:25Z</time>
      </trkpt>
      <trkpt lat="45.71146" lon="5.72508">
        <ele>372.46751867063</ele>
        <time>2015-05-17T11:41:30Z</time>
      </trkpt>
      <trkpt lat="45.7115" lon="5.72518">
        <ele>374.55109481788</ele>
        <time>2015-05-17T11:41:35Z</time>
      </trkpt>
      <trkpt lat="45.71154" lon="5.72525">
        <ele>374.55109481788</ele>
        <time>2015-05-17T11:41:40Z</time>
      </trkpt>
      <trkpt lat="45.71154" lon="5.72538">
        <ele>376.32058046284</ele>
        <time>2015-05-17T11:41:45Z</time>
      </trkpt>
      <trkpt lat="45.71154" lon="5.72553">
        <ele>378.3610991246</ele>
        <time>2015-05-17T11:41:50Z</time>
      </trkpt>
      <trkpt lat="45.71153" lon="5.72566">
        <ele>380.24850737598</ele>
        <time>2015-05-17T11:41:55Z</time>
      </trkpt>
      <trkpt lat="45.71153" lon="5.72579">
        <ele>382.31082542882</ele>
        <time>2015-05-17T11:42:00Z</time>
      </trkpt>
      <trkpt lat="45.71153" lon="5.72589">
        <ele>382.31082542882</ele>
        <time>2015-05-17T11:42:05Z</time>
      </trkpt>
      <trkpt lat="45.71149" lon="5.72599">
        <ele>383.92919527947</ele>
        <time>2015-05-17T11:42:10Z</time>
      </trkpt>
      <trkpt lat="45.71147" lon="5.72604">
        <ele>383.92919527947</ele>
        <time>2015-05-17T11:42:15Z</time>
      </trkpt>
      <trkpt lat="45.71143" lon="5.72612">
        <ele>385.81407418451</ele>
        <time>2015-05-17T11:42:20Z</time>
      </trkpt>
      <trkpt lat="45.71142" lon="5.72617">
        <ele>385.81407418451</ele>
        <time>2015-05-17T11:42:25Z</time>
      </trkpt>
      <trkpt lat="45.7114" lon="5.72621">
        <ele>385.81407418451</ele>
        <time>2015-05-17T11:42:30Z</time>
      </trkpt>
      <trkpt lat="45.71135" lon="5.72627">
        <ele>387.31158823102</ele>
        <time>2015-05-17T11:42:35Z</time>
      </trkpt>
      <trkpt lat="45.71129" lon="5.72637">
        <ele>388.75372149492</ele>
        <time>2015-05-17T11:42:40Z</time>
      </trkpt>
      <trkpt lat="45.71124" lon="5.72648">
        <ele>388.75372149492</ele>
        <time>2015-05-17T11:42:45Z</time>
      </trkpt>
      <trkpt lat="45.7112" lon="5.72658">
        <ele>389.59798154722</ele>
        <time>2015-05-17T11:42:50Z</time>
      </trkpt>
      <trkpt lat="45.71117" lon="5.72669">
        <ele>389.59798154722</ele>
        <time>2015-05-17T11:42:55Z</time>
      </trkpt>
      <trkpt lat="45.71114" lon="5.72677">
        <ele>389.71809828149</ele>
        <time>2015-05-17T11:43:00Z</time>
      </trkpt>
      <trkpt lat="45.71115" lon="5.72685">
        <ele>389.71809828149</ele>
        <time>2015-05-17T11:43:05Z</time>
      </trkpt>
      <trkpt lat="45.71117" lon="5.72692">
        <ele>389.28732620506</ele>
        <time>2015-05-17T11:43:10Z</time>
      </trkpt>
      <trkpt lat="45.71119" lon="5.72699">
        <ele>389.28732620506</ele>
        <time>2015-05-17T11:43:15Z</time>
      </trkpt>
      <trkpt lat="45.71121" lon="5.72706">
        <ele>388.22273056735</ele>
        <time>2015-05-17T11:43:20Z</time>
      </trkpt>
      <trkpt lat="45.71124" lon="5.72712">
        <ele>388.22273056735</ele>
        <time>2015-05-17T11:43:25Z</time>
      </trkpt>
      <trkpt lat="45.71125" lon="5.72718">
        <ele>387.09771188796</ele>
        <time>2015-05-17T11:43:30Z</time>
      </trkpt>
      <trkpt lat="45.71126" lon="5.72726">
        <ele>387.09771188796</ele>
        <time>2015-05-17T11:43:35Z</time>
      </trkpt>
      <trkpt lat="45.71126" lon="5.72738">
        <ele>385.63664108374</ele>
        <time>2015-05-17T11:43:40Z</time>
      </trkpt>
      <trkpt lat="45.71129" lon="5.72746">
        <ele>385.63664108374</ele>
        <time>2015-05-17T11:43:45Z</time>
      </trkpt>
      <trkpt lat="45.71131" lon="5.72757">
        <ele>384.07498176702</ele>
        <time>2015-05-17T11:43:50Z</time>
      </trkpt>
      <trkpt lat="45.71133" lon="5.72765">
        <ele>384.07498176702</ele>
        <time>2015-05-17T11:43:55Z</time>
      </trkpt>
      <trkpt lat="45.71136" lon="5.72774">
        <ele>382.25639704362</ele>
        <time>2015-05-17T11:44:00Z</time>
      </trkpt>
      <trkpt lat="45.71139" lon="5.72783">
        <ele>382.25639704362</ele>
        <time>2015-05-17T11:44:05Z</time>
      </trkpt>
      <trkpt lat="45.71143" lon="5.7279">
        <ele>380.05104850395</ele>
        <time>2015-05-17T11:44:10Z</time>
      </trkpt>
      <trkpt lat="45.71146" lon="5.72798">
        <ele>380.05104850395</ele>
        <time>2015-05-17T11:44:15Z</time>
      </trkpt>
      <trkpt lat="45.7115" lon="5.72806">
        <ele>377.6854484007</ele>
        <time>2015-05-17T11:44:20Z</time>
      </trkpt>
      <trkpt lat="45.71153" lon="5.72815">
        <ele>377.6854484007</ele>
        <time>2015-05-17T11:44:25Z</time>
      </trkpt>
      <trkpt lat="45.71155" lon="5.72825">
        <ele>375.84532706718</ele>
        <time>2015-05-17T11:44:30Z</time>
      </trkpt>
      <trkpt lat="45.71159" lon="5.72837">
        <ele>375.84532706718</ele>
        <time>2015-05-17T11:44:35Z</time>
      </trkpt>
      <trkpt lat="45.71162" lon="5.7285">
        <ele>374.25648995461</ele>
        <time>2015-05-17T11:44:40Z</time>
      </trkpt>
      <trkpt lat="45.71163" lon="5.72865">
        <ele>373.03867667194</ele>
        <time>2015-05-17T11:44:45Z</time>
      </trkpt>
      <trkpt lat="45.71166" lon="5.72876">
        <ele>373.03867667194</ele>
        <time>2015-05-17T11:44:50Z</time>
      </trkpt>
      <trkpt lat="45.7117" lon="5.72884">
        <ele>371.53779671955</ele>
        <time>2015-05-17T11:44:55Z</time>
      </trkpt>
      <trkpt lat="45.71174" lon="5.72894">
        <ele>371.53779671955</ele>
        <time>2015-05-17T11:45:00Z</time>
      </trkpt>
      <trkpt lat="45.71179" lon="5.72903">
        <ele>369.85453424681</ele>
        <time>2015-05-17T11:45:05Z</time>
      </trkpt>
      <trkpt lat="45.71183" lon="5.72912">
        <ele>369.85453424681</ele>
        <time>2015-05-17T11:45:10Z</time>
      </trkpt>
      <trkpt lat="45.71187" lon="5.72918">
        <ele>368.16893471669</ele>
        <time>2015-05-17T11:45:15Z</time>
      </trkpt>
      <trkpt lat="45.7119" lon="5.72923">
        <ele>368.16893471669</ele>
        <time>2015-05-17T11:45:20Z</time>
      </trkpt>
      <trkpt lat="45.71192" lon="5.7293">
        <ele>365.88380630303</ele>
        <time>2015-05-17T11:45:25Z</time>
      </trkpt>
      <trkpt lat="45.71195" lon="5.72935">
        <ele>365.88380630303</ele>
        <time>2015-05-17T11:45:30Z</time>
      </trkpt>
      <trkpt lat="45.71198" lon="5.72942">
        <ele>362.82195937461</ele>
        <time>2015-05-17T11:45:35Z</time>
      </trkpt>
      <trkpt lat="45.712" lon="5.72954">
        <ele>362.82195937461</ele>
        <time>2015-05-17T11:45:40Z</time>
      </trkpt>
      <trkpt lat="45.71203" lon="5.72966">
        <ele>360.26226344159</ele>
        <time>2015-05-17T11:45:45Z</time>
      </trkpt>
      <trkpt lat="45.71207" lon="5.7298">
        <ele>358.71065562725</ele>
        <time>2015-05-17T11:45:50Z</time>
      </trkpt>
      <trkpt lat="45.7121" lon="5.72993">
        <ele>357.04759290371</ele>
        <time>2015-05-17T11:45:55Z</time>
      </trkpt>
      <trkpt lat="45.71214" lon="5.73006">
        <ele>355.64810822945</ele>
        <time>2015-05-17T11:46:00Z</time>
      </trkpt>
      <trkpt lat="45.71219" lon="5.73026">
        <ele>354.65692375003</ele>
        <time>2015-05-17T11:46:05Z</time>
      </trkpt>
      <trkpt lat="45.71224" lon="5.73037">
        <ele>354.10584587043</ele>
        <time>2015-05-17T11:46:10Z</time>
      </trkpt>
      <trkpt lat="45.71229" lon="5.73043">
        <ele>354.10584587043</ele>
        <time>2015-05-17T11:46:15Z</time>
      </trkpt>
      <trkpt lat="45.71232" lon="5.73047">
        <ele>353.23024356957</ele>
        <time>2015-05-17T11:46:20Z</time>
      </trkpt>
      <trkpt lat="45.71235" lon="5.73055">
        <ele>353.23024356957</ele>
        <time>2015-05-17T11:46:25Z</time>
      </trkpt>
      <trkpt lat="45.71235" lon="5.73058">
        <ele>353.23024356957</ele>
        <time>2015-05-17T11:46:30Z</time>
      </trkpt>
      <trkpt lat="45.71236" lon="5.73058">
        <ele>353.3110547579</ele>
        <time>2015-05-17T11:46:35Z</time>
      </trkpt>
      <trkpt lat="45.71236" lon="5.73059">
        <ele>353.3110547579</ele>
        <time>2015-05-17T11:46:40Z</time>
      </trkpt>
      <trkpt lat="45.71236" lon="5.73059">
        <ele>353.3110547579</ele>
        <time>2015-05-17T11:46:45Z</time>
      </trkpt>
      <trkpt lat="45.71236" lon="5.73059">
        <ele>353.3110547579</ele>
        <time>2015-05-17T11:46:50Z</time>
      </trkpt>
      <trkpt lat="45.71237" lon="5.73058">
        <ele>353.3110547579</ele>
        <time>2015-05-17T11:46:55Z</time>
      </trkpt>
      <trkpt lat="45.71238" lon="5.73059">
        <ele>353.3110547579</ele>
        <time>2015-05-17T11:47:00Z</time>
      </trkpt>
      <trkpt lat="45.71241" lon="5.73064">
        <ele>353.3110547579</ele>
        <time>2015-05-17T11:47:05Z</time>
      </trkpt>
      <trkpt lat="45.71241" lon="5.73067">
        <ele>353.3273035486</ele>
        <time>2015-05-17T11:47:10Z</time>
      </trkpt>
      <trkpt lat="45.71244" lon="5.73076">
        <ele>353.3273035486</ele>
        <time>2015-05-17T11:47:15Z</time>
      </trkpt>
      <trkpt lat="45.71244" lon="5.73084">
        <ele>352.9238310761</ele>
        <time>2015-05-17T11:47:20Z</time>
      </trkpt>
      <trkpt lat="45.71245" lon="5.73092">
        <ele>352.9238310761</ele>
        <time>2015-05-17T11:47:25Z</time>
      </trkpt>
      <trkpt lat="45.71248" lon="5.731">
        <ele>352.46427228744</ele>
        <time>2015-05-17T11:47:30Z</time>
      </trkpt>
      <trkpt lat="45.7125" lon="5.7311">
        <ele>352.46427228744</ele>
        <time>2015-05-17T11:47:35Z</time>
      </trkpt>
      <trkpt lat="45.7125" lon="5.73121">
        <ele>352.63138098794</ele>
        <time>2015-05-17T11:47:40Z</time>
      </trkpt>
      <trkpt lat="45.71249" lon="5.73132">
        <ele>352.63138098794</ele>
        <time>2015-05-17T11:47:45Z</time>
      </trkpt>
      <trkpt lat="45.71248" lon="5.73142">
        <ele>353.09027455113</ele>
        <time>2015-05-17T11:47:50Z</time>
      </trkpt>
      <trkpt lat="45.71248" lon="5.73155">
        <ele>353.39998725618</ele>
        <time>2015-05-17T11:47:55Z</time>
      </trkpt>
      <trkpt lat="45.71248" lon="5.73172">
        <ele>353.87277144013</ele>
        <time>2015-05-17T11:48:00Z</time>
      </trkpt>
      <trkpt lat="45.71247" lon="5.73182">
        <ele>353.87277144013</ele>
        <time>2015-05-17T11:48:05Z</time>
      </trkpt>
      <trkpt lat="45.71247" lon="5.73193">
        <ele>354.23531705801</ele>
        <time>2015-05-17T11:48:10Z</time>
      </trkpt>
      <trkpt lat="45.71247" lon="5.73202">
        <ele>354.23531705801</ele>
        <time>2015-05-17T11:48:15Z</time>
      </trkpt>
      <trkpt lat="45.71246" lon="5.73211">
        <ele>354.82543853327</ele>
        <time>2015-05-17T11:48:20Z</time>
      </trkpt>
      <trkpt lat="45.71247" lon="5.73221">
        <ele>354.82543853327</ele>
        <time>2015-05-17T11:48:25Z</time>
      </trkpt>
      <trkpt lat="45.71248" lon="5.73229">
        <ele>355.60952709167</ele>
        <time>2015-05-17T11:48:30Z</time>
      </trkpt>
      <trkpt lat="45.7125" lon="5.73237">
        <ele>355.60952709167</ele>
        <time>2015-05-17T11:48:35Z</time>
      </trkpt>
      <trkpt lat="45.71252" lon="5.73244">
        <ele>356.008188563</ele>
        <time>2015-05-17T11:48:40Z</time>
      </trkpt>
      <trkpt lat="45.71252" lon="5.73252">
        <ele>356.008188563</ele>
        <time>2015-05-17T11:48:45Z</time>
      </trkpt>
      <trkpt lat="45.71253" lon="5.73261">
        <ele>356.35026511932</ele>
        <time>2015-05-17T11:48:50Z</time>
      </trkpt>
      <trkpt lat="45.71254" lon="5.73269">
        <ele>356.35026511932</ele>
        <time>2015-05-17T11:48:55Z</time>
      </trkpt>
      <trkpt lat="45.71253" lon="5.73279">
        <ele>356.47938401969</ele>
        <time>2015-05-17T11:49:00Z</time>
      </trkpt>
      <trkpt lat="45.71252" lon="5.7329">
        <ele>356.47938401969</ele>
        <time>2015-05-17T11:49:05Z</time>
      </trkpt>
      <trkpt lat="45.71251" lon="5.73302">
        <ele>357.13028545043</ele>
        <time>2015-05-17T11:49:10Z</time>
      </trkpt>
      <trkpt lat="45.71251" lon="5.73313">
        <ele>357.13028545043</ele>
        <time>2015-05-17T11:49:15Z</time>
      </trkpt>
      <trkpt lat="45.71251" lon="5.73324">
        <ele>357.88698853319</ele>
        <time>2015-05-17T11:49:20Z</time>
      </trkpt>
      <trkpt lat="45.71253" lon="5.73335">
        <ele>357.88698853319</ele>
        <time>2015-05-17T11:49:25Z</time>
      </trkpt>
      <trkpt lat="45.71256" lon="5.73346">
        <ele>358.56550072295</ele>
        <time>2015-05-17T11:49:30Z</time>
      </trkpt>
      <trkpt lat="45.71258" lon="5.73356">
        <ele>358.56550072295</ele>
        <time>2015-05-17T11:49:35Z</time>
      </trkpt>
      <trkpt lat="45.71261" lon="5.73366">
        <ele>359.12524723868</ele>
        <time>2015-05-17T11:49:40Z</time>
      </trkpt>
      <trkpt lat="45.71262" lon="5.73375">
        <ele>359.12524723868</ele>
        <time>2015-05-17T11:49:45Z</time>
      </trkpt>
      <trkpt lat="45.71265" lon="5.73385">
        <ele>359.57219303957</ele>
        <time>2015-05-17T11:49:50Z</time>
      </trkpt>
      <trkpt lat="45.71268" lon="5.73394">
        <ele>359.57219303957</ele>
        <time>2015-05-17T11:49:55Z</time>
      </trkpt>
      <trkpt lat="45.71272" lon="5.73403">
        <ele>359.78248256879</ele>
        <time>2015-05-17T11:50:00Z</time>
      </trkpt>
      <trkpt lat="45.71277" lon="5.73411">
        <ele>359.78248256879</ele>
        <time>2015-05-17T11:50:05Z</time>
      </trkpt>
      <trkpt lat="45.71284" lon="5.73429">
        <ele>359.80055284487</ele>
        <time>2015-05-17T11:50:10Z</time>
      </trkpt>
      <trkpt lat="45.71288" lon="5.73438">
        <ele>359.80055284487</ele>
        <time>2015-05-17T11:50:15Z</time>
      </trkpt>
      <trkpt lat="45.71292" lon="5.73445">
        <ele>359.68253982265</ele>
        <time>2015-05-17T11:50:20Z</time>
      </trkpt>
      <trkpt lat="45.71295" lon="5.73455">
        <ele>359.68253982265</ele>
        <time>2015-05-17T11:50:25Z</time>
      </trkpt>
      <trkpt lat="45.71299" lon="5.73463">
        <ele>359.92759889681</ele>
        <time>2015-05-17T11:50:30Z</time>
      </trkpt>
      <trkpt lat="45.71303" lon="5.7347">
        <ele>359.92759889681</ele>
        <time>2015-05-17T11:50:35Z</time>
      </trkpt>
      <trkpt lat="45.71308" lon="5.73475">
        <ele>360.16137430917</ele>
        <time>2015-05-17T11:50:40Z</time>
      </trkpt>
      <trkpt lat="45.71314" lon="5.7348">
        <ele>360.16137430917</ele>
        <time>2015-05-17T11:50:45Z</time>
      </trkpt>
      <trkpt lat="45.7132" lon="5.73483">
        <ele>360.32528684488</ele>
        <time>2015-05-17T11:50:50Z</time>
      </trkpt>
      <trkpt lat="45.71327" lon="5.73488">
        <ele>360.32528684488</ele>
        <time>2015-05-17T11:50:55Z</time>
      </trkpt>
      <trkpt lat="45.71334" lon="5.73493">
        <ele>361.1434834519</ele>
        <time>2015-05-17T11:51:00Z</time>
      </trkpt>
      <trkpt lat="45.71341" lon="5.73499">
        <ele>361.1434834519</ele>
        <time>2015-05-17T11:51:05Z</time>
      </trkpt>
      <trkpt lat="45.71345" lon="5.73507">
        <ele>362.06016704157</ele>
        <time>2015-05-17T11:51:10Z</time>
      </trkpt>
      <trkpt lat="45.7135" lon="5.73513">
        <ele>362.06016704157</ele>
        <time>2015-05-17T11:51:15Z</time>
      </trkpt>
      <trkpt lat="45.71352" lon="5.73522">
        <ele>362.96364166457</ele>
        <time>2015-05-17T11:51:20Z</time>
      </trkpt>
      <trkpt lat="45.71354" lon="5.73531">
        <ele>362.96364166457</ele>
        <time>2015-05-17T11:51:25Z</time>
      </trkpt>
      <trkpt lat="45.71355" lon="5.7354">
        <ele>363.88019796351</ele>
        <time>2015-05-17T11:51:30Z</time>
      </trkpt>
      <trkpt lat="45.71358" lon="5.73548">
        <ele>363.88019796351</ele>
        <time>2015-05-17T11:51:35Z</time>
      </trkpt>
      <trkpt lat="45.7136" lon="5.73558">
        <ele>364.51716506868</ele>
        <time>2015-05-17T11:51:40Z</time>
      </trkpt>
      <trkpt lat="45.71359" lon="5.73568">
        <ele>364.51716506868</ele>
        <time>2015-05-17T11:51:45Z</time>
      </trkpt>
      <trkpt lat="45.71359" lon="5.73578">
        <ele>364.95007913689</ele>
        <time>2015-05-17T11:51:50Z</time>
      </trkpt>
      <trkpt lat="45.71359" lon="5.73589">
        <ele>364.95007913689</ele>
        <time>2015-05-17T11:51:55Z</time>
      </trkpt>
      <trkpt lat="45.7136" lon="5.73601">
        <ele>366.04217293548</ele>
        <time>2015-05-17T11:52:00Z</time>
      </trkpt>
      <trkpt lat="45.71362" lon="5.73609">
        <ele>366.04217293548</ele>
        <time>2015-05-17T11:52:05Z</time>
      </trkpt>
      <trkpt lat="45.71365" lon="5.73617">
        <ele>366.99184936539</ele>
        <time>2015-05-17T11:52:10Z</time>
      </trkpt>
      <trkpt lat="45.71367" lon="5.73627">
        <ele>366.99184936539</ele>
        <time>2015-05-17T11:52:15Z</time>
      </trkpt>
      <trkpt lat="45.7137" lon="5.73635">
        <ele>367.93594375072</ele>
        <time>2015-05-17T11:52:20Z</time>
      </trkpt>
      <trkpt lat="45.71374" lon="5.7364">
        <ele>367.93594375072</ele>
        <time>2015-05-17T11:52:25Z</time>
      </trkpt>
      <trkpt lat="45.71381" lon="5.73646">
        <ele>369.27514136778</ele>
        <time>2015-05-17T11:52:30Z</time>
      </trkpt>
      <trkpt lat="45.71386" lon="5.73654">
        <ele>369.27514136778</ele>
        <time>2015-05-17T11:52:35Z</time>
      </trkpt>
      <trkpt lat="45.71391" lon="5.73661">
        <ele>370.22677542923</ele>
        <time>2015-05-17T11:52:40Z</time>
      </trkpt>
      <trkpt lat="45.71396" lon="5.73668">
        <ele>370.22677542923</ele>
        <time>2015-05-17T11:52:45Z</time>
      </trkpt>
      <trkpt lat="45.71399" lon="5.73677">
        <ele>371.0900338165</ele>
        <time>2015-05-17T11:52:50Z</time>
      </trkpt>
      <trkpt lat="45.71403" lon="5.73684">
        <ele>371.0900338165</ele>
        <time>2015-05-17T11:52:55Z</time>
      </trkpt>
      <trkpt lat="45.71406" lon="5.73691">
        <ele>372.43068469525</ele>
        <time>2015-05-17T11:53:00Z</time>
      </trkpt>
      <trkpt lat="45.71409" lon="5.73699">
        <ele>372.43068469525</ele>
        <time>2015-05-17T11:53:05Z</time>
      </trkpt>
      <trkpt lat="45.71414" lon="5.73704">
        <ele>372.94147485949</ele>
        <time>2015-05-17T11:53:10Z</time>
      </trkpt>
      <trkpt lat="45.71418" lon="5.73708">
        <ele>372.94147485949</ele>
        <time>2015-05-17T11:53:15Z</time>
      </trkpt>
      <trkpt lat="45.71424" lon="5.73714">
        <ele>373.92113611138</ele>
        <time>2015-05-17T11:53:20Z</time>
      </trkpt>
      <trkpt lat="45.7143" lon="5.73712">
        <ele>373.92113611138</ele>
        <time>2015-05-17T11:53:25Z</time>
      </trkpt>
      <trkpt lat="45.71438" lon="5.73709">
        <ele>375.47653095638</ele>
        <time>2015-05-17T11:53:30Z</time>
      </trkpt>
      <trkpt lat="45.71443" lon="5.73707">
        <ele>375.47653095638</ele>
        <time>2015-05-17T11:53:35Z</time>
      </trkpt>
      <trkpt lat="45.71447" lon="5.73708">
        <ele>375.47653095638</ele>
        <time>2015-05-17T11:53:40Z</time>
      </trkpt>
      <trkpt lat="45.71452" lon="5.73714">
        <ele>377.44575490377</ele>
        <time>2015-05-17T11:53:45Z</time>
      </trkpt>
      <trkpt lat="45.71458" lon="5.73723">
        <ele>377.44575490377</ele>
        <time>2015-05-17T11:53:50Z</time>
      </trkpt>
      <trkpt lat="45.7146" lon="5.73731">
        <ele>379.51921641563</ele>
        <time>2015-05-17T11:53:55Z</time>
      </trkpt>
      <trkpt lat="45.71461" lon="5.73741">
        <ele>379.51921641563</ele>
        <time>2015-05-17T11:54:00Z</time>
      </trkpt>
      <trkpt lat="45.71469" lon="5.7375">
        <ele>381.53958324748</ele>
        <time>2015-05-17T11:54:05Z</time>
      </trkpt>
      <trkpt lat="45.71478" lon="5.73751">
        <ele>383.37575711149</ele>
        <time>2015-05-17T11:54:10Z</time>
      </trkpt>
      <trkpt lat="45.71484" lon="5.73756">
        <ele>383.37575711149</ele>
        <time>2015-05-17T11:54:15Z</time>
      </trkpt>
      <trkpt lat="45.71489" lon="5.73759">
        <ele>385.5409995335</ele>
        <time>2015-05-17T11:54:20Z</time>
      </trkpt>
      <trkpt lat="45.71491" lon="5.73767">
        <ele>385.5409995335</ele>
        <time>2015-05-17T11:54:25Z</time>
      </trkpt>
      <trkpt lat="45.71495" lon="5.73774">
        <ele>388.04891981807</ele>
        <time>2015-05-17T11:54:30Z</time>
      </trkpt>
      <trkpt lat="45.71504" lon="5.73775">
        <ele>388.04891981807</ele>
        <time>2015-05-17T11:54:35Z</time>
      </trkpt>
      <trkpt lat="45.71513" lon="5.73778">
        <ele>390.10428018657</ele>
        <time>2015-05-17T11:54:40Z</time>
      </trkpt>
      <trkpt lat="45.71521" lon="5.7378">
        <ele>390.10428018657</ele>
        <time>2015-05-17T11:54:45Z</time>
      </trkpt>
      <trkpt lat="45.71528" lon="5.7378">
        <ele>391.50488238878</ele>
        <time>2015-05-17T11:54:50Z</time>
      </trkpt>
      <trkpt lat="45.71532" lon="5.73783">
        <ele>391.50488238878</ele>
        <time>2015-05-17T11:54:55Z</time>
      </trkpt>
      <trkpt lat="45.71535" lon="5.73787">
        <ele>391.50488238878</ele>
        <time>2015-05-17T11:55:00Z</time>
      </trkpt>
      <trkpt lat="45.71538" lon="5.73795">
        <ele>392.51210621922</ele>
        <time>2015-05-17T11:55:05Z</time>
      </trkpt>
      <trkpt lat="45.71542" lon="5.73807">
        <ele>392.67764182349</ele>
        <time>2015-05-17T11:55:10Z</time>
      </trkpt>
      <trkpt lat="45.71546" lon="5.73816">
        <ele>392.67764182349</ele>
        <time>2015-05-17T11:55:15Z</time>
      </trkpt>
      <trkpt lat="45.71549" lon="5.73827">
        <ele>392.77031957329</ele>
        <time>2015-05-17T11:55:20Z</time>
      </trkpt>
      <trkpt lat="45.71552" lon="5.73836">
        <ele>392.77031957329</ele>
        <time>2015-05-17T11:55:25Z</time>
      </trkpt>
      <trkpt lat="45.71557" lon="5.7385">
        <ele>392.59492073932</ele>
        <time>2015-05-17T11:55:30Z</time>
      </trkpt>
      <trkpt lat="45.71567" lon="5.73869">
        <ele>392.54787632437</ele>
        <time>2015-05-17T11:55:35Z</time>
      </trkpt>
      <trkpt lat="45.71572" lon="5.73887">
        <ele>393.06829124198</ele>
        <time>2015-05-17T11:55:40Z</time>
      </trkpt>
      <trkpt lat="45.71571" lon="5.73893">
        <ele>393.06829124198</ele>
        <time>2015-05-17T11:55:45Z</time>
      </trkpt>
      <trkpt lat="45.71575" lon="5.73902">
        <ele>393.97065563855</ele>
        <time>2015-05-17T11:55:50Z</time>
      </trkpt>
      <trkpt lat="45.71581" lon="5.7391">
        <ele>393.97065563855</ele>
        <time>2015-05-17T11:55:55Z</time>
      </trkpt>
      <trkpt lat="45.71583" lon="5.73922">
        <ele>394.01567222056</ele>
        <time>2015-05-17T11:56:00Z</time>
      </trkpt>
      <trkpt lat="45.71583" lon="5.73929">
        <ele>394.01567222056</ele>
        <time>2015-05-17T11:56:05Z</time>
      </trkpt>
      <trkpt lat="45.71583" lon="5.73939">
        <ele>394.91096006469</ele>
        <time>2015-05-17T11:56:10Z</time>
      </trkpt>
      <trkpt lat="45.71587" lon="5.73945">
        <ele>394.91096006469</ele>
        <time>2015-05-17T11:56:15Z</time>
      </trkpt>
      <trkpt lat="45.7159" lon="5.73952">
        <ele>395.36856554121</ele>
        <time>2015-05-17T11:56:20Z</time>
      </trkpt>
      <trkpt lat="45.71594" lon="5.73957">
        <ele>395.36856554121</ele>
        <time>2015-05-17T11:56:25Z</time>
      </trkpt>
      <trkpt lat="45.71596" lon="5.73958">
        <ele>395.36856554121</ele>
        <time>2015-05-17T11:56:30Z</time>
      </trkpt>
      <trkpt lat="45.71599" lon="5.73963">
        <ele>396.08429099155</ele>
        <time>2015-05-17T11:56:35Z</time>
      </trkpt>
      <trkpt lat="45.71605" lon="5.73972">
        <ele>396.08429099155</ele>
        <time>2015-05-17T11:56:40Z</time>
      </trkpt>
      <trkpt lat="45.71612" lon="5.73981">
        <ele>396.9383663567</ele>
        <time>2015-05-17T11:56:45Z</time>
      </trkpt>
      <trkpt lat="45.7162" lon="5.73991">
        <ele>397.94918196143</ele>
        <time>2015-05-17T11:56:50Z</time>
      </trkpt>
      <trkpt lat="45.71624" lon="5.74009">
        <ele>398.4992944133</ele>
        <time>2015-05-17T11:56:55Z</time>
      </trkpt>
      <trkpt lat="45.71623" lon="5.74033">
        <ele>399.31495313752</ele>
        <time>2015-05-17T11:57:00Z</time>
      </trkpt>
      <trkpt lat="45.71617" lon="5.7405">
        <ele>400.90983156484</ele>
        <time>2015-05-17T11:57:05Z</time>
      </trkpt>
      <trkpt lat="45.71611" lon="5.74059">
        <ele>400.90983156484</ele>
        <time>2015-05-17T11:57:10Z</time>
      </trkpt>
      <trkpt lat="45.71607" lon="5.74075">
        <ele>402.57601177269</ele>
        <time>2015-05-17T11:57:15Z</time>
      </trkpt>
      <trkpt lat="45.71601" lon="5.74091">
        <ele>404.36356503976</ele>
        <time>2015-05-17T11:57:20Z</time>
      </trkpt>
      <trkpt lat="45.71595" lon="5.74102">
        <ele>406.49152221241</ele>
        <time>2015-05-17T11:57:25Z</time>
      </trkpt>
      <trkpt lat="45.71592" lon="5.74113">
        <ele>406.49152221241</ele>
        <time>2015-05-17T11:57:30Z</time>
      </trkpt>
      <trkpt lat="45.71586" lon="5.74122">
        <ele>408.8881085249</ele>
        <time>2015-05-17T11:57:35Z</time>
      </trkpt>
      <trkpt lat="45.71583" lon="5.74134">
        <ele>408.8881085249</ele>
        <time>2015-05-17T11:57:40Z</time>
      </trkpt>
      <trkpt lat="45.71581" lon="5.74144">
        <ele>410.57822337357</ele>
        <time>2015-05-17T11:57:45Z</time>
      </trkpt>
      <trkpt lat="45.71576" lon="5.74155">
        <ele>410.57822337357</ele>
        <time>2015-05-17T11:57:50Z</time>
      </trkpt>
      <trkpt lat="45.7157" lon="5.74161">
        <ele>412.4041842825</ele>
        <time>2015-05-17T11:57:55Z</time>
      </trkpt>
      <trkpt lat="45.71565" lon="5.74168">
        <ele>412.4041842825</ele>
        <time>2015-05-17T11:58:00Z</time>
      </trkpt>
      <trkpt lat="45.71561" lon="5.74175">
        <ele>414.82907325989</ele>
        <time>2015-05-17T11:58:05Z</time>
      </trkpt>
      <trkpt lat="45.71558" lon="5.74182">
        <ele>414.82907325989</ele>
        <time>2015-05-17T11:58:10Z</time>
      </trkpt>
      <trkpt lat="45.71555" lon="5.74188">
        <ele>417.54537913533</ele>
        <time>2015-05-17T11:58:15Z</time>
      </trkpt>
      <trkpt lat="45.71556" lon="5.74195">
        <ele>417.54537913533</ele>
        <time>2015-05-17T11:58:20Z</time>
      </trkpt>
      <trkpt lat="45.71557" lon="5.74201">
        <ele>419.87833936495</ele>
        <time>2015-05-17T11:58:25Z</time>
      </trkpt>
      <trkpt lat="45.7156" lon="5.74207">
        <ele>419.87833936495</ele>
        <time>2015-05-17T11:58:30Z</time>
      </trkpt>
      <trkpt lat="45.71562" lon="5.74213">
        <ele>421.60742724777</ele>
        <time>2015-05-17T11:58:35Z</time>
      </trkpt>
      <trkpt lat="45.71565" lon="5.74221">
        <ele>421.60742724777</ele>
        <time>2015-05-17T11:58:40Z</time>
      </trkpt>
      <trkpt lat="45.71571" lon="5.74228">
        <ele>423.07771739046</ele>
        <time>2015-05-17T11:58:45Z</time>
      </trkpt>
      <trkpt lat="45.71579" lon="5.74234">
        <ele>423.07771739046</ele>
        <time>2015-05-17T11:58:50Z</time>
      </trkpt>
      <trkpt lat="45.71591" lon="5.74239">
        <ele>424.46563625691</ele>
        <time>2015-05-17T11:58:55Z</time>
      </trkpt>
      <trkpt lat="45.716" lon="5.74245">
        <ele>425.76203186703</ele>
        <time>2015-05-17T11:59:00Z</time>
      </trkpt>
      <trkpt lat="45.71608" lon="5.7425">
        <ele>425.76203186703</ele>
        <time>2015-05-17T11:59:05Z</time>
      </trkpt>
      <trkpt lat="45.71613" lon="5.74253">
        <ele>427.67931859784</ele>
        <time>2015-05-17T11:59:10Z</time>
      </trkpt>
      <trkpt lat="45.71619" lon="5.74253">
        <ele>427.67931859784</ele>
        <time>2015-05-17T11:59:15Z</time>
      </trkpt>
      <trkpt lat="45.71625" lon="5.74252">
        <ele>429.88154791543</ele>
        <time>2015-05-17T11:59:20Z</time>
      </trkpt>
      <trkpt lat="45.71631" lon="5.74252">
        <ele>429.88154791543</ele>
        <time>2015-05-17T11:59:25Z</time>
      </trkpt>
      <trkpt lat="45.71638" lon="5.74255">
        <ele>431.9702623493</ele>
        <time>2015-05-17T11:59:30Z</time>
      </trkpt>
      <trkpt lat="45.71645" lon="5.74255">
        <ele>431.9702623493</ele>
        <time>2015-05-17T11:59:35Z</time>
      </trkpt>
      <trkpt lat="45.71655" lon="5.74256">
        <ele>433.66313831256</ele>
        <time>2015-05-17T11:59:40Z</time>
      </trkpt>
      <trkpt lat="45.71664" lon="5.74255">
        <ele>433.66313831256</ele>
        <time>2015-05-17T11:59:45Z</time>
      </trkpt>
      <trkpt lat="45.7167" lon="5.74253">
        <ele>435.04564672427</ele>
        <time>2015-05-17T11:59:50Z</time>
      </trkpt>
      <trkpt lat="45.71675" lon="5.7425">
        <ele>435.04564672427</ele>
        <time>2015-05-17T11:59:55Z</time>
      </trkpt>
      <trkpt lat="45.71681" lon="5.74248">
        <ele>436.8608389582</ele>
        <time>2015-05-17T12:00:00Z</time>
      </trkpt>
      <trkpt lat="45.71688" lon="5.74252">
        <ele>436.8608389582</ele>
        <time>2015-05-17T12:00:05Z</time>
      </trkpt>
      <trkpt lat="45.71694" lon="5.74257">
        <ele>438.06670842168</ele>
        <time>2015-05-17T12:00:10Z</time>
      </trkpt>
      <trkpt lat="45.717" lon="5.7426">
        <ele>438.06670842168</ele>
        <time>2015-05-17T12:00:15Z</time>
      </trkpt>
      <trkpt lat="45.71708" lon="5.7426">
        <ele>438.72276114884</ele>
        <time>2015-05-17T12:00:20Z</time>
      </trkpt>
      <trkpt lat="45.7172" lon="5.74262">
        <ele>439.41894800319</ele>
        <time>2015-05-17T12:00:25Z</time>
      </trkpt>
      <trkpt lat="45.71729" lon="5.74269">
        <ele>440.44242484737</ele>
        <time>2015-05-17T12:00:30Z</time>
      </trkpt>
      <trkpt lat="45.71736" lon="5.74277">
        <ele>442.17367211455</ele>
        <time>2015-05-17T12:00:35Z</time>
      </trkpt>
      <trkpt lat="45.71742" lon="5.74283">
        <ele>442.17367211455</ele>
        <time>2015-05-17T12:00:40Z</time>
      </trkpt>
      <trkpt lat="45.71747" lon="5.7428">
        <ele>443.69509861772</ele>
        <time>2015-05-17T12:00:45Z</time>
      </trkpt>
      <trkpt lat="45.71755" lon="5.74284">
        <ele>443.69509861772</ele>
        <time>2015-05-17T12:00:50Z</time>
      </trkpt>
      <trkpt lat="45.71762" lon="5.74283">
        <ele>444.57506692709</ele>
        <time>2015-05-17T12:00:55Z</time>
      </trkpt>
      <trkpt lat="45.71771" lon="5.74281">
        <ele>444.57506692709</ele>
        <time>2015-05-17T12:01:00Z</time>
      </trkpt>
      <trkpt lat="45.71778" lon="5.74286">
        <ele>445.15044626658</ele>
        <time>2015-05-17T12:01:05Z</time>
      </trkpt>
      <trkpt lat="45.71784" lon="5.7429">
        <ele>445.15044626658</ele>
        <time>2015-05-17T12:01:10Z</time>
      </trkpt>
      <trkpt lat="45.7179" lon="5.74296">
        <ele>446.382742301</ele>
        <time>2015-05-17T12:01:15Z</time>
      </trkpt>
      <trkpt lat="45.71797" lon="5.74299">
        <ele>446.382742301</ele>
        <time>2015-05-17T12:01:20Z</time>
      </trkpt>
      <trkpt lat="45.71803" lon="5.74301">
        <ele>447.33079634244</ele>
        <time>2015-05-17T12:01:25Z</time>
      </trkpt>
      <trkpt lat="45.71809" lon="5.74301">
        <ele>447.33079634244</ele>
        <time>2015-05-17T12:01:30Z</time>
      </trkpt>
      <trkpt lat="45.71816" lon="5.74301">
        <ele>447.78631039273</ele>
        <time>2015-05-17T12:01:35Z</time>
      </trkpt>
      <trkpt lat="45.71823" lon="5.743">
        <ele>447.78631039273</ele>
        <time>2015-05-17T12:01:40Z</time>
      </trkpt>
      <trkpt lat="45.71831" lon="5.74299">
        <ele>447.60091000061</ele>
        <time>2015-05-17T12:01:45Z</time>
      </trkpt>
      <trkpt lat="45.71836" lon="5.74299">
        <ele>447.60091000061</ele>
        <time>2015-05-17T12:01:50Z</time>
      </trkpt>
      <trkpt lat="45.7184" lon="5.74302">
        <ele>448.08002910656</ele>
        <time>2015-05-17T12:01:55Z</time>
      </trkpt>
      <trkpt lat="45.71846" lon="5.74305">
        <ele>448.08002910656</ele>
        <time>2015-05-17T12:02:00Z</time>
      </trkpt>
      <trkpt lat="45.71852" lon="5.74308">
        <ele>448.0823185402</ele>
        <time>2015-05-17T12:02:05Z</time>
      </trkpt>
      <trkpt lat="45.71859" lon="5.7431">
        <ele>448.0823185402</ele>
        <time>2015-05-17T12:02:10Z</time>
      </trkpt>
      <trkpt lat="45.71865" lon="5.74315">
        <ele>447.96387809889</ele>
        <time>2015-05-17T12:02:15Z</time>
      </trkpt>
      <trkpt lat="45.71873" lon="5.74321">
        <ele>448.1558345193</ele>
        <time>2015-05-17T12:02:20Z</time>
      </trkpt>
      <trkpt lat="45.71881" lon="5.74323">
        <ele>448.1558345193</ele>
        <time>2015-05-17T12:02:25Z</time>
      </trkpt>
      <trkpt lat="45.71888" lon="5.74326">
        <ele>447.70208792793</ele>
        <time>2015-05-17T12:02:30Z</time>
      </trkpt>
      <trkpt lat="45.71893" lon="5.74329">
        <ele>447.70208792793</ele>
        <time>2015-05-17T12:02:35Z</time>
      </trkpt>
      <trkpt lat="45.71899" lon="5.74334">
        <ele>446.94347805107</ele>
        <time>2015-05-17T12:02:40Z</time>
      </trkpt>
      <trkpt lat="45.71902" lon="5.74338">
        <ele>446.94347805107</ele>
        <time>2015-05-17T12:02:45Z</time>
      </trkpt>
      <trkpt lat="45.71902" lon="5.74346">
        <ele>446.23983319005</ele>
        <time>2015-05-17T12:02:50Z</time>
      </trkpt>
      <trkpt lat="45.719" lon="5.74356">
        <ele>446.23983319005</ele>
        <time>2015-05-17T12:02:55Z</time>
      </trkpt>
      <trkpt lat="45.719" lon="5.74367">
        <ele>445.3911097048</ele>
        <time>2015-05-17T12:03:00Z</time>
      </trkpt>
      <trkpt lat="45.71901" lon="5.74378">
        <ele>445.3911097048</ele>
        <time>2015-05-17T12:03:05Z</time>
      </trkpt>
      <trkpt lat="45.71905" lon="5.74385">
        <ele>444.64461405239</ele>
        <time>2015-05-17T12:03:10Z</time>
      </trkpt>
      <trkpt lat="45.71906" lon="5.74395">
        <ele>444.64461405239</ele>
        <time>2015-05-17T12:03:15Z</time>
      </trkpt>
      <trkpt lat="45.71909" lon="5.74404">
        <ele>443.68147950732</ele>
        <time>2015-05-17T12:03:20Z</time>
      </trkpt>
      <trkpt lat="45.71912" lon="5.74414">
        <ele>443.68147950732</ele>
        <time>2015-05-17T12:03:25Z</time>
      </trkpt>
      <trkpt lat="45.71916" lon="5.74424">
        <ele>442.92731942579</ele>
        <time>2015-05-17T12:03:30Z</time>
      </trkpt>
      <trkpt lat="45.71919" lon="5.74435">
        <ele>442.92731942579</ele>
        <time>2015-05-17T12:03:35Z</time>
      </trkpt>
      <trkpt lat="45.71922" lon="5.74445">
        <ele>441.98316731017</ele>
        <time>2015-05-17T12:03:40Z</time>
      </trkpt>
      <trkpt lat="45.71925" lon="5.74457">
        <ele>441.98316731017</ele>
        <time>2015-05-17T12:03:45Z</time>
      </trkpt>
      <trkpt lat="45.71928" lon="5.74467">
        <ele>441.31561716587</ele>
        <time>2015-05-17T12:03:50Z</time>
      </trkpt>
      <trkpt lat="45.71932" lon="5.74472">
        <ele>441.31561716587</ele>
        <time>2015-05-17T12:03:55Z</time>
      </trkpt>
      <trkpt lat="45.71935" lon="5.74476">
        <ele>439.92937734922</ele>
        <time>2015-05-17T12:04:00Z</time>
      </trkpt>
      <trkpt lat="45.71937" lon="5.74482">
        <ele>439.92937734922</ele>
        <time>2015-05-17T12:04:05Z</time>
      </trkpt>
      <trkpt lat="45.71939" lon="5.74491">
        <ele>438.31643371192</ele>
        <time>2015-05-17T12:04:10Z</time>
      </trkpt>
      <trkpt lat="45.7194" lon="5.74507">
        <ele>437.39427378737</ele>
        <time>2015-05-17T12:04:15Z</time>
      </trkpt>
      <trkpt lat="45.71942" lon="5.7452">
        <ele>436.80035990474</ele>
        <time>2015-05-17T12:04:20Z</time>
      </trkpt>
      <trkpt lat="45.71942" lon="5.74531">
        <ele>436.80035990474</ele>
        <time>2015-05-17T12:04:25Z</time>
      </trkpt>
      <trkpt lat="45.71941" lon="5.74537">
        <ele>436.28417171293</ele>
        <time>2015-05-17T12:04:30Z</time>
      </trkpt>
      <trkpt lat="45.7194" lon="5.74547">
        <ele>436.28417171293</ele>
        <time>2015-05-17T12:04:35Z</time>
      </trkpt>
      <trkpt lat="45.71939" lon="5.7456">
        <ele>435.77173363606</ele>
        <time>2015-05-17T12:04:40Z</time>
      </trkpt>
      <trkpt lat="45.71937" lon="5.74574">
        <ele>435.75636588314</ele>
        <time>2015-05-17T12:04:45Z</time>
      </trkpt>
      <trkpt lat="45.71937" lon="5.74587">
        <ele>435.75636588314</ele>
        <time>2015-05-17T12:04:50Z</time>
      </trkpt>
      <trkpt lat="45.71938" lon="5.74596">
        <ele>435.22366175314</ele>
        <time>2015-05-17T12:04:55Z</time>
      </trkpt>
      <trkpt lat="45.71937" lon="5.74606">
        <ele>435.22366175314</ele>
        <time>2015-05-17T12:05:00Z</time>
      </trkpt>
      <trkpt lat="45.71935" lon="5.74618">
        <ele>434.56084913955</ele>
        <time>2015-05-17T12:05:05Z</time>
      </trkpt>
      <trkpt lat="45.71934" lon="5.74629">
        <ele>434.56084913955</ele>
        <time>2015-05-17T12:05:10Z</time>
      </trkpt>
      <trkpt lat="45.71933" lon="5.74639">
        <ele>434.14133227513</ele>
        <time>2015-05-17T12:05:15Z</time>
      </trkpt>
      <trkpt lat="45.71932" lon="5.74649">
        <ele>434.14133227513</ele>
        <time>2015-05-17T12:05:20Z</time>
      </trkpt>
      <trkpt lat="45.71934" lon="5.74651">
        <ele>434.14133227513</ele>
        <time>2015-05-17T12:05:25Z</time>
      </trkpt>
      <trkpt lat="45.71934" lon="5.74649">
        <ele>433.61851765547</ele>
        <time>2015-05-17T12:05:30Z</time>
      </trkpt>
      <trkpt lat="45.71933" lon="5.7465">
        <ele>433.61851765547</ele>
        <time>2015-05-17T12:05:35Z</time>
      </trkpt>
      <trkpt lat="45.71933" lon="5.74649">
        <ele>433.61851765547</ele>
        <time>2015-05-17T12:05:40Z</time>
      </trkpt>
      <trkpt lat="45.71932" lon="5.74649">
        <ele>433.61851765547</ele>
        <time>2015-05-17T12:05:45Z</time>
      </trkpt>
      <trkpt lat="45.71926" lon="5.74655">
        <ele>433.75224776146</ele>
        <time>2015-05-17T12:05:50Z</time>
      </trkpt>
      <trkpt lat="45.71921" lon="5.74661">
        <ele>433.75224776146</ele>
        <time>2015-05-17T12:05:55Z</time>
      </trkpt>
      <trkpt lat="45.71917" lon="5.74669">
        <ele>433.84668383485</ele>
        <time>2015-05-17T12:06:00Z</time>
      </trkpt>
      <trkpt lat="45.71912" lon="5.74675">
        <ele>433.84668383485</ele>
        <time>2015-05-17T12:06:05Z</time>
      </trkpt>
      <trkpt lat="45.71905" lon="5.74677">
        <ele>434.23703222944</ele>
        <time>2015-05-17T12:06:10Z</time>
      </trkpt>
      <trkpt lat="45.71899" lon="5.74682">
        <ele>434.23703222944</ele>
        <time>2015-05-17T12:06:15Z</time>
      </trkpt>
      <trkpt lat="45.71893" lon="5.74685">
        <ele>434.19531498802</ele>
        <time>2015-05-17T12:06:20Z</time>
      </trkpt>
      <trkpt lat="45.71889" lon="5.7469">
        <ele>434.19531498802</ele>
        <time>2015-05-17T12:06:25Z</time>
      </trkpt>
      <trkpt lat="45.71883" lon="5.74698">
        <ele>434.10013266373</ele>
        <time>2015-05-17T12:06:30Z</time>
      </trkpt>
      <trkpt lat="45.7188" lon="5.74701">
        <ele>434.10013266373</ele>
        <time>2015-05-17T12:06:35Z</time>
      </trkpt>
      <trkpt lat="45.71877" lon="5.74707">
        <ele>433.99967582077</ele>
        <time>2015-05-17T12:06:40Z</time>
      </trkpt>
      <trkpt lat="45.71873" lon="5.74718">
        <ele>433.99967582077</ele>
        <time>2015-05-17T12:06:45Z</time>
      </trkpt>
      <trkpt lat="45.7187" lon="5.74729">
        <ele>433.56381178673</ele>
        <time>2015-05-17T12:06:50Z</time>
      </trkpt>
      <trkpt lat="45.71866" lon="5.7474">
        <ele>433.56381178673</ele>
        <time>2015-05-17T12:06:55Z</time>
      </trkpt>
      <trkpt lat="45.71862" lon="5.74753">
        <ele>433.19364057159</ele>
        <time>2015-05-17T12:07:00Z</time>
      </trkpt>
      <trkpt lat="45.71855" lon="5.74764">
        <ele>432.82817945782</ele>
        <time>2015-05-17T12:07:05Z</time>
      </trkpt>
      <trkpt lat="45.71848" lon="5.74769">
        <ele>432.82817945782</ele>
        <time>2015-05-17T12:07:10Z</time>
      </trkpt>
      <trkpt lat="45.71843" lon="5.74773">
        <ele>432.151414661</ele>
        <time>2015-05-17T12:07:15Z</time>
      </trkpt>
      <trkpt lat="45.71837" lon="5.74776">
        <ele>432.151414661</ele>
        <time>2015-05-17T12:07:20Z</time>
      </trkpt>
      <trkpt lat="45.71833" lon="5.74781">
        <ele>431.17395750556</ele>
        <time>2015-05-17T12:07:25Z</time>
      </trkpt>
      <trkpt lat="45.71828" lon="5.7479">
        <ele>431.17395750556</ele>
        <time>2015-05-17T12:07:30Z</time>
      </trkpt>
      <trkpt lat="45.71824" lon="5.74801">
        <ele>430.16578846384</ele>
        <time>2015-05-17T12:07:35Z</time>
      </trkpt>
      <trkpt lat="45.71818" lon="5.74809">
        <ele>430.16578846384</ele>
        <time>2015-05-17T12:07:40Z</time>
      </trkpt>
      <trkpt lat="45.71812" lon="5.74815">
        <ele>429.0744127763</ele>
        <time>2015-05-17T12:07:45Z</time>
      </trkpt>
      <trkpt lat="45.71808" lon="5.74823">
        <ele>429.0744127763</ele>
        <time>2015-05-17T12:07:50Z</time>
      </trkpt>
      <trkpt lat="45.71807" lon="5.74822">
        <ele>429.0744127763</ele>
        <time>2015-05-17T12:07:55Z</time>
      </trkpt>
      <trkpt lat="45.71807" lon="5.74823">
        <ele>429.0744127763</ele>
        <time>2015-05-17T12:08:00Z</time>
      </trkpt>
      <trkpt lat="45.71807" lon="5.74823">
        <ele>427.66398370209</ele>
        <time>2015-05-17T12:08:05Z</time>
      </trkpt>
      <trkpt lat="45.71804" lon="5.74827">
        <ele>427.66398370209</ele>
        <time>2015-05-17T12:08:10Z</time>
      </trkpt>
      <trkpt lat="45.71803" lon="5.74835">
        <ele>426.35086446011</ele>
        <time>2015-05-17T12:08:15Z</time>
      </trkpt>
      <trkpt lat="45.71801" lon="5.74844">
        <ele>426.35086446011</ele>
        <time>2015-05-17T12:08:20Z</time>
      </trkpt>
      <trkpt lat="45.71797" lon="5.74851">
        <ele>424.8287236347</ele>
        <time>2015-05-17T12:08:25Z</time>
      </trkpt>
      <trkpt lat="45.71793" lon="5.74858">
        <ele>424.8287236347</ele>
        <time>2015-05-17T12:08:30Z</time>
      </trkpt>
      <trkpt lat="45.7179" lon="5.74866">
        <ele>423.08802450352</ele>
        <time>2015-05-17T12:08:35Z</time>
      </trkpt>
      <trkpt lat="45.71786" lon="5.74875">
        <ele>423.08802450352</ele>
        <time>2015-05-17T12:08:40Z</time>
      </trkpt>
      <trkpt lat="45.71783" lon="5.74883">
        <ele>421.09161160135</ele>
        <time>2015-05-17T12:08:45Z</time>
      </trkpt>
      <trkpt lat="45.7178" lon="5.7489">
        <ele>421.09161160135</ele>
        <time>2015-05-17T12:08:50Z</time>
      </trkpt>
      <trkpt lat="45.71779" lon="5.74897">
        <ele>418.86330531916</ele>
        <time>2015-05-17T12:08:55Z</time>
      </trkpt>
      <trkpt lat="45.71776" lon="5.74904">
        <ele>418.86330531916</ele>
        <time>2015-05-17T12:09:00Z</time>
      </trkpt>
      <trkpt lat="45.71773" lon="5.74912">
        <ele>416.75716125784</ele>
        <time>2015-05-17T12:09:05Z</time>
      </trkpt>
      <trkpt lat="45.71771" lon="5.74922">
        <ele>416.75716125784</ele>
        <time>2015-05-17T12:09:10Z</time>
      </trkpt>
      <trkpt lat="45.71768" lon="5.7493">
        <ele>414.65401171878</ele>
        <time>2015-05-17T12:09:15Z</time>
      </trkpt>
      <trkpt lat="45.71768" lon="5.74933">
        <ele>414.65401171878</ele>
        <time>2015-05-17T12:09:20Z</time>
      </trkpt>
      <trkpt lat="45.71767" lon="5.74944">
        <ele>412.71711303172</ele>
        <time>2015-05-17T12:09:25Z</time>
      </trkpt>
      <trkpt lat="45.71765" lon="5.74954">
        <ele>412.71711303172</ele>
        <time>2015-05-17T12:09:30Z</time>
      </trkpt>
      <trkpt lat="45.71763" lon="5.74964">
        <ele>410.60714685507</ele>
        <time>2015-05-17T12:09:35Z</time>
      </trkpt>
      <trkpt lat="45.71761" lon="5.74973">
        <ele>410.60714685507</ele>
        <time>2015-05-17T12:09:40Z</time>
      </trkpt>
      <trkpt lat="45.71758" lon="5.74983">
        <ele>408.35593165882</ele>
        <time>2015-05-17T12:09:45Z</time>
      </trkpt>
      <trkpt lat="45.71755" lon="5.74992">
        <ele>408.35593165882</ele>
        <time>2015-05-17T12:09:50Z</time>
      </trkpt>
      <trkpt lat="45.71751" lon="5.75">
        <ele>405.96437720891</ele>
        <time>2015-05-17T12:09:55Z</time>
      </trkpt>
      <trkpt lat="45.71746" lon="5.75008">
        <ele>405.96437720891</ele>
        <time>2015-05-17T12:10:00Z</time>
      </trkpt>
      <trkpt lat="45.71742" lon="5.75014">
        <ele>403.62091577944</ele>
        <time>2015-05-17T12:10:05Z</time>
      </trkpt>
      <trkpt lat="45.71737" lon="5.75021">
        <ele>403.62091577944</ele>
        <time>2015-05-17T12:10:10Z</time>
      </trkpt>
      <trkpt lat="45.71733" lon="5.75028">
        <ele>401.51426172079</ele>
        <time>2015-05-17T12:10:15Z</time>
      </trkpt>
      <trkpt lat="45.71729" lon="5.75037">
        <ele>401.51426172079</ele>
        <time>2015-05-17T12:10:20Z</time>
      </trkpt>
      <trkpt lat="45.71727" lon="5.75045">
        <ele>399.58787018242</ele>
        <time>2015-05-17T12:10:25Z</time>
      </trkpt>
      <trkpt lat="45.71723" lon="5.75053">
        <ele>399.58787018242</ele>
        <time>2015-05-17T12:10:30Z</time>
      </trkpt>
      <trkpt lat="45.71719" lon="5.75062">
        <ele>397.91838979048</ele>
        <time>2015-05-17T12:10:35Z</time>
      </trkpt>
      <trkpt lat="45.71714" lon="5.75068">
        <ele>397.91838979048</ele>
        <time>2015-05-17T12:10:40Z</time>
      </trkpt>
      <trkpt lat="45.71713" lon="5.7507">
        <ele>397.91838979048</ele>
        <time>2015-05-17T12:10:45Z</time>
      </trkpt>
      <trkpt lat="45.71711" lon="5.75074">
        <ele>396.07157516593</ele>
        <time>2015-05-17T12:10:50Z</time>
      </trkpt>
      <trkpt lat="45.71708" lon="5.7508">
        <ele>396.07157516593</ele>
        <time>2015-05-17T12:10:55Z</time>
      </trkpt>
      <trkpt lat="45.71706" lon="5.75087">
        <ele>393.74630350029</ele>
        <time>2015-05-17T12:11:00Z</time>
      </trkpt>
      <trkpt lat="45.71705" lon="5.75094">
        <ele>393.74630350029</ele>
        <time>2015-05-17T12:11:05Z</time>
      </trkpt>
      <trkpt lat="45.71705" lon="5.75096">
        <ele>393.74630350029</ele>
        <time>2015-05-17T12:11:10Z</time>
      </trkpt>
      <trkpt lat="45.71705" lon="5.75096">
        <ele>393.74630350029</ele>
        <time>2015-05-17T12:11:15Z</time>
      </trkpt>
      <trkpt lat="45.71705" lon="5.75096">
        <ele>393.74630350029</ele>
        <time>2015-05-17T12:11:20Z</time>
      </trkpt>
      <trkpt lat="45.71705" lon="5.75096">
        <ele>393.74630350029</ele>
        <time>2015-05-17T12:11:25Z</time>
      </trkpt>
      <trkpt lat="45.71705" lon="5.75096">
        <ele>393.74630350029</ele>
        <time>2015-05-17T12:11:30Z</time>
      </trkpt>
      <trkpt lat="45.71705" lon="5.75096">
        <ele>393.74630350029</ele>
        <time>2015-05-17T12:11:35Z</time>
      </trkpt>
      <trkpt lat="45.71705" lon="5.75096">
        <ele>393.74630350029</ele>
        <time>2015-05-17T12:11:40Z</time>
      </trkpt>
      <trkpt lat="45.71705" lon="5.75096">
        <ele>393.74630350029</ele>
        <time>2015-05-17T12:11:45Z</time>
      </trkpt>
      <trkpt lat="45.71705" lon="5.75097">
        <ele>393.74630350029</ele>
        <time>2015-05-17T12:11:50Z</time>
      </trkpt>
      <trkpt lat="45.71705" lon="5.75097">
        <ele>393.74630350029</ele>
        <time>2015-05-17T12:11:55Z</time>
      </trkpt>
      <trkpt lat="45.71705" lon="5.75097">
        <ele>393.74630350029</ele>
        <time>2015-05-17T12:12:00Z</time>
      </trkpt>
      <trkpt lat="45.71705" lon="5.75097">
        <ele>393.74630350029</ele>
        <time>2015-05-17T12:12:05Z</time>
      </trkpt>
      <trkpt lat="45.71705" lon="5.75097">
        <ele>393.74630350029</ele>
        <time>2015-05-17T12:12:10Z</time>
      </trkpt>
      <trkpt lat="45.71705" lon="5.75097">
        <ele>393.74630350029</ele>
        <time>2015-05-17T12:12:15Z</time>
      </trkpt>
      <trkpt lat="45.71705" lon="5.75097">
        <ele>393.74630350029</ele>
        <time>2015-05-17T12:12:20Z</time>
      </trkpt>
      <trkpt lat="45.71705" lon="5.75097">
        <ele>393.74630350029</ele>
        <time>2015-05-17T12:12:25Z</time>
      </trkpt>
      <trkpt lat="45.71705" lon="5.75097">
        <ele>393.74630350029</ele>
        <time>2015-05-17T12:12:30Z</time>
      </trkpt>
      <trkpt lat="45.71705" lon="5.75097">
        <ele>393.74630350029</ele>
        <time>2015-05-17T12:12:35Z</time>
      </trkpt>
      <trkpt lat="45.71705" lon="5.75097">
        <ele>393.74630350029</ele>
        <time>2015-05-17T12:12:40Z</time>
      </trkpt>
      <trkpt lat="45.71705" lon="5.75097">
        <ele>393.74630350029</ele>
        <time>2015-05-17T12:12:45Z</time>
      </trkpt>
      <trkpt lat="45.71704" lon="5.75097">
        <ele>393.74630350029</ele>
        <time>2015-05-17T12:12:50Z</time>
      </trkpt>
      <trkpt lat="45.71703" lon="5.75098">
        <ele>393.74630350029</ele>
        <time>2015-05-17T12:12:55Z</time>
      </trkpt>
      <trkpt lat="45.71703" lon="5.75098">
        <ele>391.45737546232</ele>
        <time>2015-05-17T12:13:00Z</time>
      </trkpt>
      <trkpt lat="45.71703" lon="5.75097">
        <ele>391.45737546232</ele>
        <time>2015-05-17T12:13:05Z</time>
      </trkpt>
      <trkpt lat="45.71703" lon="5.75096">
        <ele>391.45737546232</ele>
        <time>2015-05-17T12:13:10Z</time>
      </trkpt>
      <trkpt lat="45.71703" lon="5.75097">
        <ele>391.45737546232</ele>
        <time>2015-05-17T12:13:15Z</time>
      </trkpt>
      <trkpt lat="45.71703" lon="5.75097">
        <ele>391.45737546232</ele>
        <time>2015-05-17T12:13:20Z</time>
      </trkpt>
      <trkpt lat="45.71703" lon="5.75096">
        <ele>391.45737546232</ele>
        <time>2015-05-17T12:13:25Z</time>
      </trkpt>
      <trkpt lat="45.71703" lon="5.75099">
        <ele>391.45737546232</ele>
        <time>2015-05-17T12:13:30Z</time>
      </trkpt>
      <trkpt lat="45.71704" lon="5.75106">
        <ele>391.45737546232</ele>
        <time>2015-05-17T12:13:35Z</time>
      </trkpt>
      <trkpt lat="45.71702" lon="5.75114">
        <ele>389.24919005871</ele>
        <time>2015-05-17T12:13:40Z</time>
      </trkpt>
      <trkpt lat="45.71702" lon="5.75124">
        <ele>389.24919005871</ele>
        <time>2015-05-17T12:13:45Z</time>
      </trkpt>
      <trkpt lat="45.717" lon="5.75132">
        <ele>387.01839835629</ele>
        <time>2015-05-17T12:13:50Z</time>
      </trkpt>
      <trkpt lat="45.71698" lon="5.75138">
        <ele>387.01839835629</ele>
        <time>2015-05-17T12:13:55Z</time>
      </trkpt>
      <trkpt lat="45.71695" lon="5.75143">
        <ele>384.91414773398</ele>
        <time>2015-05-17T12:14:00Z</time>
      </trkpt>
      <trkpt lat="45.7169" lon="5.7515">
        <ele>384.91414773398</ele>
        <time>2015-05-17T12:14:05Z</time>
      </trkpt>
      <trkpt lat="45.71685" lon="5.75158">
        <ele>382.69943847101</ele>
        <time>2015-05-17T12:14:10Z</time>
      </trkpt>
      <trkpt lat="45.7168" lon="5.75166">
        <ele>382.69943847101</ele>
        <time>2015-05-17T12:14:15Z</time>
      </trkpt>
      <trkpt lat="45.71675" lon="5.75175">
        <ele>380.38542323075</ele>
        <time>2015-05-17T12:14:20Z</time>
      </trkpt>
      <trkpt lat="45.71671" lon="5.75184">
        <ele>380.38542323075</ele>
        <time>2015-05-17T12:14:25Z</time>
      </trkpt>
      <trkpt lat="45.71667" lon="5.75191">
        <ele>377.93933697041</ele>
        <time>2015-05-17T12:14:30Z</time>
      </trkpt>
      <trkpt lat="45.71661" lon="5.75198">
        <ele>377.93933697041</ele>
        <time>2015-05-17T12:14:35Z</time>
      </trkpt>
      <trkpt lat="45.71656" lon="5.75205">
        <ele>375.27340495497</ele>
        <time>2015-05-17T12:14:40Z</time>
      </trkpt>
      <trkpt lat="45.71652" lon="5.75213">
        <ele>375.27340495497</ele>
        <time>2015-05-17T12:14:45Z</time>
      </trkpt>
      <trkpt lat="45.71647" lon="5.7522">
        <ele>372.79675321603</ele>
        <time>2015-05-17T12:14:50Z</time>
      </trkpt>
      <trkpt lat="45.71641" lon="5.75225">
        <ele>372.79675321603</ele>
        <time>2015-05-17T12:14:55Z</time>
      </trkpt>
      <trkpt lat="45.71636" lon="5.75228">
        <ele>370.45544814714</ele>
        <time>2015-05-17T12:15:00Z</time>
      </trkpt>
      <trkpt lat="45.71632" lon="5.7523">
        <ele>370.45544814714</ele>
        <time>2015-05-17T12:15:05Z</time>
      </trkpt>
      <trkpt lat="45.71627" lon="5.75233">
        <ele>368.04047611656</ele>
        <time>2015-05-17T12:15:10Z</time>
      </trkpt>
      <trkpt lat="45.71623" lon="5.75236">
        <ele>368.04047611656</ele>
        <time>2015-05-17T12:15:15Z</time>
      </trkpt>
      <trkpt lat="45.7162" lon="5.75238">
        <ele>368.04047611656</ele>
        <time>2015-05-17T12:15:20Z</time>
      </trkpt>
      <trkpt lat="45.71614" lon="5.75241">
        <ele>365.87704643264</ele>
        <time>2015-05-17T12:15:25Z</time>
      </trkpt>
      <trkpt lat="45.71607" lon="5.75243">
        <ele>365.87704643264</ele>
        <time>2015-05-17T12:15:30Z</time>
      </trkpt>
      <trkpt lat="45.71601" lon="5.75244">
        <ele>364.00623856647</ele>
        <time>2015-05-17T12:15:35Z</time>
      </trkpt>
      <trkpt lat="45.71596" lon="5.75247">
        <ele>364.00623856647</ele>
        <time>2015-05-17T12:15:40Z</time>
      </trkpt>
      <trkpt lat="45.71591" lon="5.75252">
        <ele>361.55726228556</ele>
        <time>2015-05-17T12:15:45Z</time>
      </trkpt>
      <trkpt lat="45.71586" lon="5.75256">
        <ele>361.55726228556</ele>
        <time>2015-05-17T12:15:50Z</time>
      </trkpt>
      <trkpt lat="45.71581" lon="5.75258">
        <ele>359.68470306568</ele>
        <time>2015-05-17T12:15:55Z</time>
      </trkpt>
      <trkpt lat="45.71576" lon="5.7526">
        <ele>359.68470306568</ele>
        <time>2015-05-17T12:16:00Z</time>
      </trkpt>
      <trkpt lat="45.71572" lon="5.75266">
        <ele>357.30933658297</ele>
        <time>2015-05-17T12:16:05Z</time>
      </trkpt>
      <trkpt lat="45.71566" lon="5.7527">
        <ele>357.30933658297</ele>
        <time>2015-05-17T12:16:10Z</time>
      </trkpt>
      <trkpt lat="45.71561" lon="5.75272">
        <ele>354.93126749116</ele>
        <time>2015-05-17T12:16:15Z</time>
      </trkpt>
      <trkpt lat="45.71556" lon="5.75276">
        <ele>354.93126749116</ele>
        <time>2015-05-17T12:16:20Z</time>
      </trkpt>
      <trkpt lat="45.71552" lon="5.7528">
        <ele>353.14345855997</ele>
        <time>2015-05-17T12:16:25Z</time>
      </trkpt>
      <trkpt lat="45.71547" lon="5.75288">
        <ele>353.14345855997</ele>
        <time>2015-05-17T12:16:30Z</time>
      </trkpt>
      <trkpt lat="45.71542" lon="5.753">
        <ele>351.55682893926</ele>
        <time>2015-05-17T12:16:35Z</time>
      </trkpt>
      <trkpt lat="45.71538" lon="5.75312">
        <ele>349.88227032804</ele>
        <time>2015-05-17T12:16:40Z</time>
      </trkpt>
      <trkpt lat="45.71536" lon="5.75323">
        <ele>349.88227032804</ele>
        <time>2015-05-17T12:16:45Z</time>
      </trkpt>
      <trkpt lat="45.71534" lon="5.75332">
        <ele>347.59266480349</ele>
        <time>2015-05-17T12:16:50Z</time>
      </trkpt>
      <trkpt lat="45.7153" lon="5.75338">
        <ele>347.59266480349</ele>
        <time>2015-05-17T12:16:55Z</time>
      </trkpt>
      <trkpt lat="45.71526" lon="5.75345">
        <ele>345.85853346472</ele>
        <time>2015-05-17T12:17:00Z</time>
      </trkpt>
      <trkpt lat="45.71524" lon="5.75348">
        <ele>345.85853346472</ele>
        <time>2015-05-17T12:17:05Z</time>
      </trkpt>
      <trkpt lat="45.71519" lon="5.75352">
        <ele>344.35048439733</ele>
        <time>2015-05-17T12:17:10Z</time>
      </trkpt>
      <trkpt lat="45.71512" lon="5.75357">
        <ele>344.35048439733</ele>
        <time>2015-05-17T12:17:15Z</time>
      </trkpt>
      <trkpt lat="45.71505" lon="5.75358">
        <ele>343.42552809232</ele>
        <time>2015-05-17T12:17:20Z</time>
      </trkpt>
      <trkpt lat="45.71497" lon="5.7536">
        <ele>343.42552809232</ele>
        <time>2015-05-17T12:17:25Z</time>
      </trkpt>
      <trkpt lat="45.71492" lon="5.75362">
        <ele>342.87954017495</ele>
        <time>2015-05-17T12:17:30Z</time>
      </trkpt>
      <trkpt lat="45.71487" lon="5.75365">
        <ele>342.87954017495</ele>
        <time>2015-05-17T12:17:35Z</time>
      </trkpt>
      <trkpt lat="45.71481" lon="5.75365">
        <ele>342.01788836866</ele>
        <time>2015-05-17T12:17:40Z</time>
      </trkpt>
      <trkpt lat="45.71477" lon="5.75369">
        <ele>342.01788836866</ele>
        <time>2015-05-17T12:17:45Z</time>
      </trkpt>
      <trkpt lat="45.71473" lon="5.75371">
        <ele>340.7886703606</ele>
        <time>2015-05-17T12:17:50Z</time>
      </trkpt>
      <trkpt lat="45.7147" lon="5.75371">
        <ele>340.7886703606</ele>
        <time>2015-05-17T12:17:55Z</time>
      </trkpt>
      <trkpt lat="45.71467" lon="5.75369">
        <ele>340.7886703606</ele>
        <time>2015-05-17T12:18:00Z</time>
      </trkpt>
      <trkpt lat="45.7146" lon="5.75368">
        <ele>338.68364334102</ele>
        <time>2015-05-17T12:18:05Z</time>
      </trkpt>
      <trkpt lat="45.71455" lon="5.75368">
        <ele>338.68364334102</ele>
        <time>2015-05-17T12:18:10Z</time>
      </trkpt>
      <trkpt lat="45.71449" lon="5.75368">
        <ele>336.0990014728</ele>
        <time>2015-05-17T12:18:15Z</time>
      </trkpt>
      <trkpt lat="45.71442" lon="5.75369">
        <ele>336.0990014728</ele>
        <time>2015-05-17T12:18:20Z</time>
      </trkpt>
      <trkpt lat="45.71436" lon="5.75368">
        <ele>333.11493744461</ele>
        <time>2015-05-17T12:18:25Z</time>
      </trkpt>
      <trkpt lat="45.71428" lon="5.7537">
        <ele>333.11493744461</ele>
        <time>2015-05-17T12:18:30Z</time>
      </trkpt>
      <trkpt lat="45.71419" lon="5.7537">
        <ele>329.89331730599</ele>
        <time>2015-05-17T12:18:35Z</time>
      </trkpt>
      <trkpt lat="45.71411" lon="5.75369">
        <ele>329.89331730599</ele>
        <time>2015-05-17T12:18:40Z</time>
      </trkpt>
      <trkpt lat="45.71404" lon="5.75366">
        <ele>326.54152089101</ele>
        <time>2015-05-17T12:18:45Z</time>
      </trkpt>
      <trkpt lat="45.71397" lon="5.75366">
        <ele>326.54152089101</ele>
        <time>2015-05-17T12:18:50Z</time>
      </trkpt>
      <trkpt lat="45.7139" lon="5.75367">
        <ele>323.54846988284</ele>
        <time>2015-05-17T12:18:55Z</time>
      </trkpt>
      <trkpt lat="45.71384" lon="5.75366">
        <ele>323.54846988284</ele>
        <time>2015-05-17T12:19:00Z</time>
      </trkpt>
      <trkpt lat="45.71377" lon="5.75366">
        <ele>320.71762137692</ele>
        <time>2015-05-17T12:19:05Z</time>
      </trkpt>
      <trkpt lat="45.71371" lon="5.75367">
        <ele>320.71762137692</ele>
        <time>2015-05-17T12:19:10Z</time>
      </trkpt>
      <trkpt lat="45.71367" lon="5.75368">
        <ele>318.65898045283</ele>
        <time>2015-05-17T12:19:15Z</time>
      </trkpt>
      <trkpt lat="45.71364" lon="5.75368">
        <ele>318.65898045283</ele>
        <time>2015-05-17T12:19:20Z</time>
      </trkpt>
      <trkpt lat="45.71357" lon="5.75363">
        <ele>315.81709155879</ele>
        <time>2015-05-17T12:19:25Z</time>
      </trkpt>
      <trkpt lat="45.71348" lon="5.75361">
        <ele>315.81709155879</ele>
        <time>2015-05-17T12:19:30Z</time>
      </trkpt>
      <trkpt lat="45.7134" lon="5.75361">
        <ele>313.10192035119</ele>
        <time>2015-05-17T12:19:35Z</time>
      </trkpt>
      <trkpt lat="45.71335" lon="5.75361">
        <ele>313.10192035119</ele>
        <time>2015-05-17T12:19:40Z</time>
      </trkpt>
      <trkpt lat="45.71333" lon="5.75361">
        <ele>313.10192035119</ele>
        <time>2015-05-17T12:19:45Z</time>
      </trkpt>
      <trkpt lat="45.71326" lon="5.75359">
        <ele>310.36181274583</ele>
        <time>2015-05-17T12:19:50Z</time>
      </trkpt>
      <trkpt lat="45.71319" lon="5.75356">
        <ele>310.36181274583</ele>
        <time>2015-05-17T12:19:55Z</time>
      </trkpt>
      <trkpt lat="45.71312" lon="5.75358">
        <ele>307.83096191917</ele>
        <time>2015-05-17T12:20:00Z</time>
      </trkpt>
      <trkpt lat="45.71305" lon="5.7536">
        <ele>307.83096191917</ele>
        <time>2015-05-17T12:20:05Z</time>
      </trkpt>
      <trkpt lat="45.71299" lon="5.75358">
        <ele>305.30779494719</ele>
        <time>2015-05-17T12:20:10Z</time>
      </trkpt>
      <trkpt lat="45.71293" lon="5.75356">
        <ele>305.30779494719</ele>
        <time>2015-05-17T12:20:15Z</time>
      </trkpt>
      <trkpt lat="45.7129" lon="5.75356">
        <ele>305.30779494719</ele>
        <time>2015-05-17T12:20:20Z</time>
      </trkpt>
      <trkpt lat="45.71283" lon="5.75355">
        <ele>302.10108144709</ele>
        <time>2015-05-17T12:20:25Z</time>
      </trkpt>
      <trkpt lat="45.71274" lon="5.75354">
        <ele>299.30156491066</ele>
        <time>2015-05-17T12:20:30Z</time>
      </trkpt>
      <trkpt lat="45.71266" lon="5.7535">
        <ele>299.30156491066</ele>
        <time>2015-05-17T12:20:35Z</time>
      </trkpt>
      <trkpt lat="45.7126" lon="5.75349">
        <ele>296.98194321318</ele>
        <time>2015-05-17T12:20:40Z</time>
      </trkpt>
      <trkpt lat="45.71254" lon="5.75347">
        <ele>296.98194321318</ele>
        <time>2015-05-17T12:20:45Z</time>
      </trkpt>
      <trkpt lat="45.71249" lon="5.75343">
        <ele>293.96881507123</ele>
        <time>2015-05-17T12:20:50Z</time>
      </trkpt>
      <trkpt lat="45.71244" lon="5.7534">
        <ele>293.96881507123</ele>
        <time>2015-05-17T12:20:55Z</time>
      </trkpt>
      <trkpt lat="45.71236" lon="5.75341">
        <ele>291.26647699341</ele>
        <time>2015-05-17T12:21:00Z</time>
      </trkpt>
      <trkpt lat="45.71227" lon="5.75341">
        <ele>291.26647699341</ele>
        <time>2015-05-17T12:21:05Z</time>
      </trkpt>
      <trkpt lat="45.7122" lon="5.75339">
        <ele>289.2713117939</ele>
        <time>2015-05-17T12:21:10Z</time>
      </trkpt>
      <trkpt lat="45.71213" lon="5.75336">
        <ele>289.2713117939</ele>
        <time>2015-05-17T12:21:15Z</time>
      </trkpt>
      <trkpt lat="45.71206" lon="5.75336">
        <ele>287.75769237851</ele>
        <time>2015-05-17T12:21:20Z</time>
      </trkpt>
      <trkpt lat="45.712" lon="5.75334">
        <ele>287.75769237851</ele>
        <time>2015-05-17T12:21:25Z</time>
      </trkpt>
      <trkpt lat="45.71196" lon="5.75334">
        <ele>286.42870151135</ele>
        <time>2015-05-17T12:21:30Z</time>
      </trkpt>
      <trkpt lat="45.71193" lon="5.75333">
        <ele>286.42870151135</ele>
        <time>2015-05-17T12:21:35Z</time>
      </trkpt>
      <trkpt lat="45.71189" lon="5.75336">
        <ele>286.42870151135</ele>
        <time>2015-05-17T12:21:40Z</time>
      </trkpt>
      <trkpt lat="45.71179" lon="5.7534">
        <ele>285.71482223554</ele>
        <time>2015-05-17T12:21:45Z</time>
      </trkpt>
      <trkpt lat="45.71173" lon="5.75344">
        <ele>285.71482223554</ele>
        <time>2015-05-17T12:21:50Z</time>
      </trkpt>
      <trkpt lat="45.71166" lon="5.75348">
        <ele>286.01316456481</ele>
        <time>2015-05-17T12:21:55Z</time>
      </trkpt>
      <trkpt lat="45.7116" lon="5.75351">
        <ele>286.01316456481</ele>
        <time>2015-05-17T12:22:00Z</time>
      </trkpt>
      <trkpt lat="45.7115" lon="5.75352">
        <ele>285.5559725892</ele>
        <time>2015-05-17T12:22:05Z</time>
      </trkpt>
      <trkpt lat="45.71139" lon="5.75352">
        <ele>285.11413136435</ele>
        <time>2015-05-17T12:22:10Z</time>
      </trkpt>
      <trkpt lat="45.71132" lon="5.75356">
        <ele>285.11413136435</ele>
        <time>2015-05-17T12:22:15Z</time>
      </trkpt>
      <trkpt lat="45.71125" lon="5.75356">
        <ele>284.652499044</ele>
        <time>2015-05-17T12:22:20Z</time>
      </trkpt>
      <trkpt lat="45.71118" lon="5.75355">
        <ele>284.652499044</ele>
        <time>2015-05-17T12:22:25Z</time>
      </trkpt>
      <trkpt lat="45.71111" lon="5.75354">
        <ele>284.49888711594</ele>
        <time>2015-05-17T12:22:30Z</time>
      </trkpt>
      <trkpt lat="45.71104" lon="5.75355">
        <ele>284.49888711594</ele>
        <time>2015-05-17T12:22:35Z</time>
      </trkpt>
      <trkpt lat="45.71099" lon="5.75357">
        <ele>284.2788914351</ele>
        <time>2015-05-17T12:22:40Z</time>
      </trkpt>
      <trkpt lat="45.71093" lon="5.75361">
        <ele>284.2788914351</ele>
        <time>2015-05-17T12:22:45Z</time>
      </trkpt>
      <trkpt lat="45.71087" lon="5.75362">
        <ele>284.23671818726</ele>
        <time>2015-05-17T12:22:50Z</time>
      </trkpt>
      <trkpt lat="45.71081" lon="5.75364">
        <ele>284.23671818726</ele>
        <time>2015-05-17T12:22:55Z</time>
      </trkpt>
      <trkpt lat="45.71076" lon="5.75367">
        <ele>283.41649990223</ele>
        <time>2015-05-17T12:23:00Z</time>
      </trkpt>
      <trkpt lat="45.71071" lon="5.7537">
        <ele>283.41649990223</ele>
        <time>2015-05-17T12:23:05Z</time>
      </trkpt>
      <trkpt lat="45.71066" lon="5.75372">
        <ele>282.43361077187</ele>
        <time>2015-05-17T12:23:10Z</time>
      </trkpt>
      <trkpt lat="45.7106" lon="5.75373">
        <ele>282.43361077187</ele>
        <time>2015-05-17T12:23:15Z</time>
      </trkpt>
      <trkpt lat="45.71053" lon="5.75375">
        <ele>281.21026794968</ele>
        <time>2015-05-17T12:23:20Z</time>
      </trkpt>
      <trkpt lat="45.71047" lon="5.75376">
        <ele>281.21026794968</ele>
        <time>2015-05-17T12:23:25Z</time>
      </trkpt>
      <trkpt lat="45.71043" lon="5.75377">
        <ele>279.63193868224</ele>
        <time>2015-05-17T12:23:30Z</time>
      </trkpt>
      <trkpt lat="45.71043" lon="5.75379">
        <ele>279.63193868224</ele>
        <time>2015-05-17T12:23:35Z</time>
      </trkpt>
      <trkpt lat="45.71044" lon="5.7538">
        <ele>279.63193868224</ele>
        <time>2015-05-17T12:23:40Z</time>
      </trkpt>
      <trkpt lat="45.71044" lon="5.75381">
        <ele>279.63193868224</ele>
        <time>2015-05-17T12:23:45Z</time>
      </trkpt>
      <trkpt lat="45.71043" lon="5.75381">
        <ele>279.63193868224</ele>
        <time>2015-05-17T12:23:50Z</time>
      </trkpt>
      <trkpt lat="45.71042" lon="5.75381">
        <ele>279.63193868224</ele>
        <time>2015-05-17T12:23:55Z</time>
      </trkpt>
      <trkpt lat="45.7104" lon="5.75381">
        <ele>279.63193868224</ele>
        <time>2015-05-17T12:24:00Z</time>
      </trkpt>
      <trkpt lat="45.7104" lon="5.75381">
        <ele>279.63193868224</ele>
        <time>2015-05-17T12:24:05Z</time>
      </trkpt>
      <trkpt lat="45.71037" lon="5.75381">
        <ele>277.14684863347</ele>
        <time>2015-05-17T12:24:10Z</time>
      </trkpt>
      <trkpt lat="45.71031" lon="5.7538">
        <ele>277.14684863347</ele>
        <time>2015-05-17T12:24:15Z</time>
      </trkpt>
      <trkpt lat="45.71025" lon="5.75381">
        <ele>274.87484628907</ele>
        <time>2015-05-17T12:24:20Z</time>
      </trkpt>
      <trkpt lat="45.71017" lon="5.7538">
        <ele>274.87484628907</ele>
        <time>2015-05-17T12:24:25Z</time>
      </trkpt>
      <trkpt lat="45.7101" lon="5.75376">
        <ele>272.93069155483</ele>
        <time>2015-05-17T12:24:30Z</time>
      </trkpt>
      <trkpt lat="45.71003" lon="5.75375">
        <ele>272.93069155483</ele>
        <time>2015-05-17T12:24:35Z</time>
      </trkpt>
      <trkpt lat="45.70995" lon="5.75372">
        <ele>271.04518253072</ele>
        <time>2015-05-17T12:24:40Z</time>
      </trkpt>
      <trkpt lat="45.70989" lon="5.7537">
        <ele>271.04518253072</ele>
        <time>2015-05-17T12:24:45Z</time>
      </trkpt>
      <trkpt lat="45.70983" lon="5.75368">
        <ele>269.11290973067</ele>
        <time>2015-05-17T12:24:50Z</time>
      </trkpt>
      <trkpt lat="45.70977" lon="5.75367">
        <ele>269.11290973067</ele>
        <time>2015-05-17T12:24:55Z</time>
      </trkpt>
      <trkpt lat="45.70979" lon="5.75368">
        <ele>269.11290973067</ele>
        <time>2015-05-17T12:25:00Z</time>
      </trkpt>
      <trkpt lat="45.70978" lon="5.75369">
        <ele>267.0364028016</ele>
        <time>2015-05-17T12:25:05Z</time>
      </trkpt>
      <trkpt lat="45.7098" lon="5.75371">
        <ele>267.0364028016</ele>
        <time>2015-05-17T12:25:10Z</time>
      </trkpt>
      <trkpt lat="45.7098" lon="5.75371">
        <ele>267.0364028016</ele>
        <time>2015-05-17T12:25:15Z</time>
      </trkpt>
      <trkpt lat="45.7098" lon="5.7537">
        <ele>267.0364028016</ele>
        <time>2015-05-17T12:25:20Z</time>
      </trkpt>
      <trkpt lat="45.70979" lon="5.7537">
        <ele>267.0364028016</ele>
        <time>2015-05-17T12:25:25Z</time>
      </trkpt>
      <trkpt lat="45.70976" lon="5.75371">
        <ele>267.0364028016</ele>
        <time>2015-05-17T12:25:30Z</time>
      </trkpt>
      <trkpt lat="45.70969" lon="5.75371">
        <ele>264.68258170908</ele>
        <time>2015-05-17T12:25:35Z</time>
      </trkpt>
      <trkpt lat="45.70964" lon="5.75373">
        <ele>264.68258170908</ele>
        <time>2015-05-17T12:25:40Z</time>
      </trkpt>
      <trkpt lat="45.70958" lon="5.75371">
        <ele>262.39012900184</ele>
        <time>2015-05-17T12:25:45Z</time>
      </trkpt>
      <trkpt lat="45.70955" lon="5.75366">
        <ele>262.39012900184</ele>
        <time>2015-05-17T12:25:50Z</time>
      </trkpt>
      <trkpt lat="45.70951" lon="5.75361">
        <ele>260.19891097805</ele>
        <time>2015-05-17T12:25:55Z</time>
      </trkpt>
      <trkpt lat="45.70945" lon="5.75355">
        <ele>260.19891097805</ele>
        <time>2015-05-17T12:26:00Z</time>
      </trkpt>
      <trkpt lat="45.70939" lon="5.75349">
        <ele>258.4770779109</ele>
        <time>2015-05-17T12:26:05Z</time>
      </trkpt>
      <trkpt lat="45.70936" lon="5.75339">
        <ele>258.4770779109</ele>
        <time>2015-05-17T12:26:10Z</time>
      </trkpt>
      <trkpt lat="45.70935" lon="5.75327">
        <ele>256.82948841938</ele>
        <time>2015-05-17T12:26:15Z</time>
      </trkpt>
      <trkpt lat="45.70932" lon="5.75316">
        <ele>256.82948841938</ele>
        <time>2015-05-17T12:26:20Z</time>
      </trkpt>
      <trkpt lat="45.70928" lon="5.75308">
        <ele>255.04837483155</ele>
        <time>2015-05-17T12:26:25Z</time>
      </trkpt>
      <trkpt lat="45.70925" lon="5.75301">
        <ele>255.04837483155</ele>
        <time>2015-05-17T12:26:30Z</time>
      </trkpt>
      <trkpt lat="45.70919" lon="5.75293">
        <ele>253.4172043852</ele>
        <time>2015-05-17T12:26:35Z</time>
      </trkpt>
      <trkpt lat="45.70913" lon="5.75288">
        <ele>253.4172043852</ele>
        <time>2015-05-17T12:26:40Z</time>
      </trkpt>
      <trkpt lat="45.70906" lon="5.75284">
        <ele>251.59296301326</ele>
        <time>2015-05-17T12:26:45Z</time>
      </trkpt>
      <trkpt lat="45.70901" lon="5.75282">
        <ele>251.59296301326</ele>
        <time>2015-05-17T12:26:50Z</time>
      </trkpt>
      <trkpt lat="45.70897" lon="5.7528">
        <ele>249.15752504269</ele>
        <time>2015-05-17T12:26:55Z</time>
      </trkpt>
      <trkpt lat="45.70891" lon="5.75278">
        <ele>249.15752504269</ele>
        <time>2015-05-17T12:27:00Z</time>
      </trkpt>
      <trkpt lat="45.70886" lon="5.75274">
        <ele>246.7484073874</ele>
        <time>2015-05-17T12:27:05Z</time>
      </trkpt>
      <trkpt lat="45.70879" lon="5.75272">
        <ele>246.7484073874</ele>
        <time>2015-05-17T12:27:10Z</time>
      </trkpt>
      <trkpt lat="45.70872" lon="5.7527">
        <ele>244.72566303305</ele>
        <time>2015-05-17T12:27:15Z</time>
      </trkpt>
      <trkpt lat="45.70866" lon="5.75267">
        <ele>244.72566303305</ele>
        <time>2015-05-17T12:27:20Z</time>
      </trkpt>
      <trkpt lat="45.70858" lon="5.75265">
        <ele>243.23448287652</ele>
        <time>2015-05-17T12:27:25Z</time>
      </trkpt>
      <trkpt lat="45.7085" lon="5.7526">
        <ele>243.23448287652</ele>
        <time>2015-05-17T12:27:30Z</time>
      </trkpt>
      <trkpt lat="45.70843" lon="5.75257">
        <ele>241.55765755617</ele>
        <time>2015-05-17T12:27:35Z</time>
      </trkpt>
      <trkpt lat="45.70836" lon="5.75254">
        <ele>241.55765755617</ele>
        <time>2015-05-17T12:27:40Z</time>
      </trkpt>
      <trkpt lat="45.7083" lon="5.7525">
        <ele>240.05438502728</ele>
        <time>2015-05-17T12:27:45Z</time>
      </trkpt>
      <trkpt lat="45.70823" lon="5.75246">
        <ele>240.05438502728</ele>
        <time>2015-05-17T12:27:50Z</time>
      </trkpt>
      <trkpt lat="45.70818" lon="5.75244">
        <ele>238.40850136469</ele>
        <time>2015-05-17T12:27:55Z</time>
      </trkpt>
      <trkpt lat="45.70812" lon="5.7524">
        <ele>238.40850136469</ele>
        <time>2015-05-17T12:28:00Z</time>
      </trkpt>
      <trkpt lat="45.70804" lon="5.75237">
        <ele>237.43713748998</ele>
        <time>2015-05-17T12:28:05Z</time>
      </trkpt>
      <trkpt lat="45.70797" lon="5.75234">
        <ele>237.43713748998</ele>
        <time>2015-05-17T12:28:10Z</time>
      </trkpt>
      <trkpt lat="45.7079" lon="5.7523">
        <ele>236.55528842701</ele>
        <time>2015-05-17T12:28:15Z</time>
      </trkpt>
      <trkpt lat="45.70784" lon="5.75225">
        <ele>236.55528842701</ele>
        <time>2015-05-17T12:28:20Z</time>
      </trkpt>
      <trkpt lat="45.70777" lon="5.75222">
        <ele>235.73949242364</ele>
        <time>2015-05-17T12:28:25Z</time>
      </trkpt>
      <trkpt lat="45.70771" lon="5.75219">
        <ele>235.73949242364</ele>
        <time>2015-05-17T12:28:30Z</time>
      </trkpt>
      <trkpt lat="45.70764" lon="5.75216">
        <ele>235.02549552815</ele>
        <time>2015-05-17T12:28:35Z</time>
      </trkpt>
      <trkpt lat="45.70758" lon="5.75213">
        <ele>235.02549552815</ele>
        <time>2015-05-17T12:28:40Z</time>
      </trkpt>
      <trkpt lat="45.70752" lon="5.75212">
        <ele>234.08588519305</ele>
        <time>2015-05-17T12:28:45Z</time>
      </trkpt>
      <trkpt lat="45.70746" lon="5.75209">
        <ele>234.08588519305</ele>
        <time>2015-05-17T12:28:50Z</time>
      </trkpt>
      <trkpt lat="45.70739" lon="5.75205">
        <ele>233.58351494525</ele>
        <time>2015-05-17T12:28:55Z</time>
      </trkpt>
      <trkpt lat="45.70731" lon="5.75201">
        <ele>233.58351494525</ele>
        <time>2015-05-17T12:29:00Z</time>
      </trkpt>
      <trkpt lat="45.70723" lon="5.75199">
        <ele>233.49727317412</ele>
        <time>2015-05-17T12:29:05Z</time>
      </trkpt>
      <trkpt lat="45.70716" lon="5.75193">
        <ele>233.49727317412</ele>
        <time>2015-05-17T12:29:10Z</time>
      </trkpt>
      <trkpt lat="45.7071" lon="5.75188">
        <ele>233.21562615432</ele>
        <time>2015-05-17T12:29:15Z</time>
      </trkpt>
      <trkpt lat="45.70704" lon="5.75184">
        <ele>233.21562615432</ele>
        <time>2015-05-17T12:29:20Z</time>
      </trkpt>
      <trkpt lat="45.707" lon="5.75181">
        <ele>232.34550106164</ele>
        <time>2015-05-17T12:29:25Z</time>
      </trkpt>
      <trkpt lat="45.70694" lon="5.75177">
        <ele>232.34550106164</ele>
        <time>2015-05-17T12:29:30Z</time>
      </trkpt>
      <trkpt lat="45.70687" lon="5.75174">
        <ele>231.67730275695</ele>
        <time>2015-05-17T12:29:35Z</time>
      </trkpt>
      <trkpt lat="45.70682" lon="5.75168">
        <ele>231.67730275695</ele>
        <time>2015-05-17T12:29:40Z</time>
      </trkpt>
      <trkpt lat="45.70678" lon="5.75161">
        <ele>230.96291829914</ele>
        <time>2015-05-17T12:29:45Z</time>
      </trkpt>
      <trkpt lat="45.70674" lon="5.75154">
        <ele>230.96291829914</ele>
        <time>2015-05-17T12:29:50Z</time>
      </trkpt>
      <trkpt lat="45.7067" lon="5.75147">
        <ele>230.93820685574</ele>
        <time>2015-05-17T12:29:55Z</time>
      </trkpt>
      <trkpt lat="45.70665" lon="5.75142">
        <ele>230.93820685574</ele>
        <time>2015-05-17T12:30:00Z</time>
      </trkpt>
      <trkpt lat="45.70662" lon="5.75134">
        <ele>231.3031574381</ele>
        <time>2015-05-17T12:30:05Z</time>
      </trkpt>
      <trkpt lat="45.70658" lon="5.75129">
        <ele>231.3031574381</ele>
        <time>2015-05-17T12:30:10Z</time>
      </trkpt>
      <trkpt lat="45.70651" lon="5.75125">
        <ele>231.64908710766</ele>
        <time>2015-05-17T12:30:15Z</time>
      </trkpt>
      <trkpt lat="45.70642" lon="5.75121">
        <ele>231.64908710766</ele>
        <time>2015-05-17T12:30:20Z</time>
      </trkpt>
      <trkpt lat="45.70634" lon="5.75117">
        <ele>232.274801099</ele>
        <time>2015-05-17T12:30:25Z</time>
      </trkpt>
      <trkpt lat="45.70627" lon="5.75113">
        <ele>232.274801099</ele>
        <time>2015-05-17T12:30:30Z</time>
      </trkpt>
      <trkpt lat="45.70619" lon="5.75111">
        <ele>232.50533534054</ele>
        <time>2015-05-17T12:30:35Z</time>
      </trkpt>
      <trkpt lat="45.70612" lon="5.75109">
        <ele>232.50533534054</ele>
        <time>2015-05-17T12:30:40Z</time>
      </trkpt>
      <trkpt lat="45.70604" lon="5.75105">
        <ele>232.7397136212</ele>
        <time>2015-05-17T12:30:45Z</time>
      </trkpt>
      <trkpt lat="45.70596" lon="5.75101">
        <ele>232.7397136212</ele>
        <time>2015-05-17T12:30:50Z</time>
      </trkpt>
      <trkpt lat="45.70589" lon="5.75099">
        <ele>232.87218435047</ele>
        <time>2015-05-17T12:30:55Z</time>
      </trkpt>
      <trkpt lat="45.70581" lon="5.75097">
        <ele>232.87218435047</ele>
        <time>2015-05-17T12:31:00Z</time>
      </trkpt>
      <trkpt lat="45.70573" lon="5.75095">
        <ele>232.94928103333</ele>
        <time>2015-05-17T12:31:05Z</time>
      </trkpt>
      <trkpt lat="45.70565" lon="5.75094">
        <ele>232.94928103333</ele>
        <time>2015-05-17T12:31:10Z</time>
      </trkpt>
      <trkpt lat="45.70558" lon="5.75093">
        <ele>233.02880862411</ele>
        <time>2015-05-17T12:31:15Z</time>
      </trkpt>
      <trkpt lat="45.70553" lon="5.75092">
        <ele>233.02880862411</ele>
        <time>2015-05-17T12:31:20Z</time>
      </trkpt>
      <trkpt lat="45.70549" lon="5.75098">
        <ele>233.10680053883</ele>
        <time>2015-05-17T12:31:25Z</time>
      </trkpt>
      <trkpt lat="45.70547" lon="5.75108">
        <ele>233.10680053883</ele>
        <time>2015-05-17T12:31:30Z</time>
      </trkpt>
      <trkpt lat="45.70546" lon="5.75119">
        <ele>233.20853613735</ele>
        <time>2015-05-17T12:31:35Z</time>
      </trkpt>
      <trkpt lat="45.70545" lon="5.75128">
        <ele>233.20853613735</ele>
        <time>2015-05-17T12:31:40Z</time>
      </trkpt>
      <trkpt lat="45.70545" lon="5.75138">
        <ele>232.76664383205</ele>
        <time>2015-05-17T12:31:45Z</time>
      </trkpt>
      <trkpt lat="45.70547" lon="5.75147">
        <ele>232.76664383205</ele>
        <time>2015-05-17T12:31:50Z</time>
      </trkpt>
      <trkpt lat="45.70547" lon="5.75155">
        <ele>231.9632277215</ele>
        <time>2015-05-17T12:31:55Z</time>
      </trkpt>
      <trkpt lat="45.70549" lon="5.75165">
        <ele>231.9632277215</ele>
        <time>2015-05-17T12:32:00Z</time>
      </trkpt>
      <trkpt lat="45.70551" lon="5.75174">
        <ele>231.19873076603</ele>
        <time>2015-05-17T12:32:05Z</time>
      </trkpt>
      <trkpt lat="45.70554" lon="5.75182">
        <ele>231.19873076603</ele>
        <time>2015-05-17T12:32:10Z</time>
      </trkpt>
      <trkpt lat="45.70558" lon="5.75189">
        <ele>230.13804432552</ele>
        <time>2015-05-17T12:32:15Z</time>
      </trkpt>
      <trkpt lat="45.70563" lon="5.75198">
        <ele>230.13804432552</ele>
        <time>2015-05-17T12:32:20Z</time>
      </trkpt>
      <trkpt lat="45.70567" lon="5.75207">
        <ele>229.37951982382</ele>
        <time>2015-05-17T12:32:25Z</time>
      </trkpt>
      <trkpt lat="45.70569" lon="5.75216">
        <ele>229.37951982382</ele>
        <time>2015-05-17T12:32:30Z</time>
      </trkpt>
      <trkpt lat="45.70572" lon="5.75224">
        <ele>228.41038830652</ele>
        <time>2015-05-17T12:32:35Z</time>
      </trkpt>
      <trkpt lat="45.70575" lon="5.75231">
        <ele>228.41038830652</ele>
        <time>2015-05-17T12:32:40Z</time>
      </trkpt>
      <trkpt lat="45.70576" lon="5.75236">
        <ele>228.41038830652</ele>
        <time>2015-05-17T12:32:45Z</time>
      </trkpt>
      <trkpt lat="45.70577" lon="5.75241">
        <ele>228.09647135348</ele>
        <time>2015-05-17T12:32:50Z</time>
      </trkpt>
      <trkpt lat="45.70577" lon="5.75244">
        <ele>228.09647135348</ele>
        <time>2015-05-17T12:32:55Z</time>
      </trkpt>
      <trkpt lat="45.70576" lon="5.75243">
        <ele>228.09647135348</ele>
        <time>2015-05-17T12:33:00Z</time>
      </trkpt>
      <trkpt lat="45.70577" lon="5.75243">
        <ele>228.09647135348</ele>
        <time>2015-05-17T12:33:05Z</time>
      </trkpt>
      <trkpt lat="45.70578" lon="5.75241">
        <ele>228.09647135348</ele>
        <time>2015-05-17T12:33:10Z</time>
      </trkpt>
      <trkpt lat="45.7058" lon="5.75241">
        <ele>228.09647135348</ele>
        <time>2015-05-17T12:33:15Z</time>
      </trkpt>
      <trkpt lat="45.7058" lon="5.75241">
        <ele>228.09647135348</ele>
        <time>2015-05-17T12:33:20Z</time>
      </trkpt>
      <trkpt lat="45.70581" lon="5.75241">
        <ele>228.09647135348</ele>
        <time>2015-05-17T12:33:25Z</time>
      </trkpt>
      <trkpt lat="45.70582" lon="5.75242">
        <ele>228.86355528367</ele>
        <time>2015-05-17T12:33:30Z</time>
      </trkpt>
      <trkpt lat="45.70582" lon="5.75242">
        <ele>228.86355528367</ele>
        <time>2015-05-17T12:33:35Z</time>
      </trkpt>
      <trkpt lat="45.70582" lon="5.75242">
        <ele>228.86355528367</ele>
        <time>2015-05-17T12:33:40Z</time>
      </trkpt>
      <trkpt lat="45.70582" lon="5.75242">
        <ele>228.86355528367</ele>
        <time>2015-05-17T12:33:45Z</time>
      </trkpt>
      <trkpt lat="45.70582" lon="5.75242">
        <ele>228.86355528367</ele>
        <time>2015-05-17T12:33:50Z</time>
      </trkpt>
      <trkpt lat="45.70582" lon="5.75241">
        <ele>228.86355528367</ele>
        <time>2015-05-17T12:33:55Z</time>
      </trkpt>
      <trkpt lat="45.70582" lon="5.7524">
        <ele>228.86355528367</ele>
        <time>2015-05-17T12:34:00Z</time>
      </trkpt>
      <trkpt lat="45.70582" lon="5.7524">
        <ele>228.86355528367</ele>
        <time>2015-05-17T12:34:05Z</time>
      </trkpt>
      <trkpt lat="45.70582" lon="5.75241">
        <ele>228.86355528367</ele>
        <time>2015-05-17T12:34:10Z</time>
      </trkpt>
      <trkpt lat="45.70583" lon="5.75242">
        <ele>228.86355528367</ele>
        <time>2015-05-17T12:34:15Z</time>
      </trkpt>
      <trkpt lat="45.70624" lon="5.75264">
        <ele>228.22098387916</ele>
        <time>2015-05-17T13:13:00Z</time>
      </trkpt>
      <trkpt lat="45.70611" lon="5.75264">
        <ele>226.97790711804</ele>
        <time>2015-05-17T13:13:05Z</time>
      </trkpt>
      <trkpt lat="45.70609" lon="5.75265">
        <ele>226.97790711804</ele>
        <time>2015-05-17T13:13:10Z</time>
      </trkpt>
      <trkpt lat="45.70609" lon="5.75265">
        <ele>226.97790711804</ele>
        <time>2015-05-17T13:13:15Z</time>
      </trkpt>
      <trkpt lat="45.70609" lon="5.75265">
        <ele>226.97790711804</ele>
        <time>2015-05-17T13:13:20Z</time>
      </trkpt>
      <trkpt lat="45.70609" lon="5.75265">
        <ele>226.97790711804</ele>
        <time>2015-05-17T13:13:25Z</time>
      </trkpt>
      <trkpt lat="45.70609" lon="5.75265">
        <ele>226.97790711804</ele>
        <time>2015-05-17T13:13:30Z</time>
      </trkpt>
      <trkpt lat="45.70609" lon="5.75265">
        <ele>226.97790711804</ele>
        <time>2015-05-17T13:13:35Z</time>
      </trkpt>
      <trkpt lat="45.70609" lon="5.75265">
        <ele>226.97790711804</ele>
        <time>2015-05-17T13:13:40Z</time>
      </trkpt>
      <trkpt lat="45.70612" lon="5.75272">
        <ele>226.97790711804</ele>
        <time>2015-05-17T13:13:45Z</time>
      </trkpt>
      <trkpt lat="45.70616" lon="5.75272">
        <ele>226.24608338022</ele>
        <time>2015-05-17T13:13:50Z</time>
      </trkpt>
      <trkpt lat="45.70615" lon="5.75273">
        <ele>226.24608338022</ele>
        <time>2015-05-17T13:13:55Z</time>
      </trkpt>
      <trkpt lat="45.70618" lon="5.75273">
        <ele>226.24608338022</ele>
        <time>2015-05-17T13:14:00Z</time>
      </trkpt>
      <trkpt lat="45.70617" lon="5.75274">
        <ele>226.24608338022</ele>
        <time>2015-05-17T13:14:05Z</time>
      </trkpt>
      <trkpt lat="45.70618" lon="5.75275">
        <ele>226.24608338022</ele>
        <time>2015-05-17T13:14:10Z</time>
      </trkpt>
      <trkpt lat="45.70618" lon="5.75275">
        <ele>226.24608338022</ele>
        <time>2015-05-17T13:14:15Z</time>
      </trkpt>
      <trkpt lat="45.70618" lon="5.75275">
        <ele>226.24608338022</ele>
        <time>2015-05-17T13:14:20Z</time>
      </trkpt>
      <trkpt lat="45.70617" lon="5.75274">
        <ele>226.24608338022</ele>
        <time>2015-05-17T13:14:25Z</time>
      </trkpt>
      <trkpt lat="45.70616" lon="5.75273">
        <ele>226.24608338022</ele>
        <time>2015-05-17T13:14:30Z</time>
      </trkpt>
      <trkpt lat="45.70616" lon="5.75273">
        <ele>226.24608338022</ele>
        <time>2015-05-17T13:14:35Z</time>
      </trkpt>
      <trkpt lat="45.70616" lon="5.75273">
        <ele>226.24608338022</ele>
        <time>2015-05-17T13:14:40Z</time>
      </trkpt>
      <trkpt lat="45.70616" lon="5.75273">
        <ele>226.24608338022</ele>
        <time>2015-05-17T13:14:45Z</time>
      </trkpt>
      <trkpt lat="45.70616" lon="5.75273">
        <ele>226.24608338022</ele>
        <time>2015-05-17T13:14:50Z</time>
      </trkpt>
      <trkpt lat="45.70615" lon="5.75274">
        <ele>226.37692757912</ele>
        <time>2015-05-17T13:14:55Z</time>
      </trkpt>
      <trkpt lat="45.70616" lon="5.75277">
        <ele>226.37692757912</ele>
        <time>2015-05-17T13:15:00Z</time>
      </trkpt>
      <trkpt lat="45.70618" lon="5.75279">
        <ele>226.37692757912</ele>
        <time>2015-05-17T13:15:05Z</time>
      </trkpt>
      <trkpt lat="45.70619" lon="5.75281">
        <ele>226.37692757912</ele>
        <time>2015-05-17T13:15:10Z</time>
      </trkpt>
      <trkpt lat="45.70619" lon="5.75283">
        <ele>226.37692757912</ele>
        <time>2015-05-17T13:15:15Z</time>
      </trkpt>
      <trkpt lat="45.70619" lon="5.75284">
        <ele>226.37692757912</ele>
        <time>2015-05-17T13:15:20Z</time>
      </trkpt>
      <trkpt lat="45.70619" lon="5.75284">
        <ele>226.37692757912</ele>
        <time>2015-05-17T13:15:25Z</time>
      </trkpt>
      <trkpt lat="45.70619" lon="5.75284">
        <ele>226.37692757912</ele>
        <time>2015-05-17T13:15:30Z</time>
      </trkpt>
      <trkpt lat="45.70619" lon="5.75284">
        <ele>226.37692757912</ele>
        <time>2015-05-17T13:15:35Z</time>
      </trkpt>
      <trkpt lat="45.70619" lon="5.75284">
        <ele>226.37692757912</ele>
        <time>2015-05-17T13:15:40Z</time>
      </trkpt>
      <trkpt lat="45.70619" lon="5.75284">
        <ele>226.37692757912</ele>
        <time>2015-05-17T13:15:45Z</time>
      </trkpt>
      <trkpt lat="45.70619" lon="5.75284">
        <ele>226.37692757912</ele>
        <time>2015-05-17T13:15:50Z</time>
      </trkpt>
      <trkpt lat="45.70619" lon="5.75284">
        <ele>226.37692757912</ele>
        <time>2015-05-17T13:15:55Z</time>
      </trkpt>
      <trkpt lat="45.70619" lon="5.75284">
        <ele>226.37692757912</ele>
        <time>2015-05-17T13:16:00Z</time>
      </trkpt>
      <trkpt lat="45.70619" lon="5.75284">
        <ele>226.37692757912</ele>
        <time>2015-05-17T13:16:05Z</time>
      </trkpt>
      <trkpt lat="45.7062" lon="5.75285">
        <ele>226.87226506058</ele>
        <time>2015-05-17T13:16:10Z</time>
      </trkpt>
      <trkpt lat="45.70619" lon="5.75286">
        <ele>226.87226506058</ele>
        <time>2015-05-17T13:16:15Z</time>
      </trkpt>
      <trkpt lat="45.70618" lon="5.75284">
        <ele>226.87226506058</ele>
        <time>2015-05-17T13:16:20Z</time>
      </trkpt>
      <trkpt lat="45.70617" lon="5.75285">
        <ele>226.87226506058</ele>
        <time>2015-05-17T13:16:25Z</time>
      </trkpt>
      <trkpt lat="45.70614" lon="5.75288">
        <ele>226.87226506058</ele>
        <time>2015-05-17T13:16:30Z</time>
      </trkpt>
      <trkpt lat="45.70612" lon="5.7529">
        <ele>226.88047113135</ele>
        <time>2015-05-17T13:16:35Z</time>
      </trkpt>
      <trkpt lat="45.70611" lon="5.75292">
        <ele>226.88047113135</ele>
        <time>2015-05-17T13:16:40Z</time>
      </trkpt>
      <trkpt lat="45.70609" lon="5.75292">
        <ele>226.88047113135</ele>
        <time>2015-05-17T13:16:45Z</time>
      </trkpt>
      <trkpt lat="45.70609" lon="5.75291">
        <ele>226.88047113135</ele>
        <time>2015-05-17T13:16:50Z</time>
      </trkpt>
      <trkpt lat="45.70609" lon="5.75291">
        <ele>226.88047113135</ele>
        <time>2015-05-17T13:16:55Z</time>
      </trkpt>
      <trkpt lat="45.70611" lon="5.75288">
        <ele>226.88047113135</ele>
        <time>2015-05-17T13:17:00Z</time>
      </trkpt>
      <trkpt lat="45.70616" lon="5.75285">
        <ele>227.05503702386</ele>
        <time>2015-05-17T13:17:05Z</time>
      </trkpt>
      <trkpt lat="45.70618" lon="5.75278">
        <ele>227.05503702386</ele>
        <time>2015-05-17T13:17:10Z</time>
      </trkpt>
      <trkpt lat="45.70613" lon="5.75274">
        <ele>227.35256170663</ele>
        <time>2015-05-17T13:17:15Z</time>
      </trkpt>
      <trkpt lat="45.70611" lon="5.75274">
        <ele>227.35256170663</ele>
        <time>2015-05-17T13:17:20Z</time>
      </trkpt>
      <trkpt lat="45.70609" lon="5.75271">
        <ele>227.35256170663</ele>
        <time>2015-05-17T13:17:25Z</time>
      </trkpt>
      <trkpt lat="45.70606" lon="5.75266">
        <ele>227.68933543782</ele>
        <time>2015-05-17T13:17:30Z</time>
      </trkpt>
      <trkpt lat="45.70607" lon="5.75267">
        <ele>227.68933543782</ele>
        <time>2015-05-17T13:17:35Z</time>
      </trkpt>
      <trkpt lat="45.70606" lon="5.75265">
        <ele>227.68933543782</ele>
        <time>2015-05-17T13:17:40Z</time>
      </trkpt>
      <trkpt lat="45.70602" lon="5.7526">
        <ele>227.68933543782</ele>
        <time>2015-05-17T13:17:45Z</time>
      </trkpt>
      <trkpt lat="45.70598" lon="5.75253">
        <ele>227.78601416171</ele>
        <time>2015-05-17T13:17:50Z</time>
      </trkpt>
      <trkpt lat="45.70593" lon="5.75244">
        <ele>227.78601416171</ele>
        <time>2015-05-17T13:17:55Z</time>
      </trkpt>
      <trkpt lat="45.70588" lon="5.75236">
        <ele>228.43654315993</ele>
        <time>2015-05-17T13:18:00Z</time>
      </trkpt>
      <trkpt lat="45.70581" lon="5.75225">
        <ele>229.17895435019</ele>
        <time>2015-05-17T13:18:05Z</time>
      </trkpt>
      <trkpt lat="45.70575" lon="5.75216">
        <ele>229.17895435019</ele>
        <time>2015-05-17T13:18:10Z</time>
      </trkpt>
      <trkpt lat="45.70572" lon="5.75206">
        <ele>230.14707990425</ele>
        <time>2015-05-17T13:18:15Z</time>
      </trkpt>
      <trkpt lat="45.70567" lon="5.752">
        <ele>230.14707990425</ele>
        <time>2015-05-17T13:18:20Z</time>
      </trkpt>
      <trkpt lat="45.70561" lon="5.75193">
        <ele>231.13292403388</ele>
        <time>2015-05-17T13:18:25Z</time>
      </trkpt>
      <trkpt lat="45.70557" lon="5.75186">
        <ele>231.13292403388</ele>
        <time>2015-05-17T13:18:30Z</time>
      </trkpt>
      <trkpt lat="45.70553" lon="5.75178">
        <ele>232.44820676418</ele>
        <time>2015-05-17T13:18:35Z</time>
      </trkpt>
      <trkpt lat="45.70548" lon="5.75171">
        <ele>232.44820676418</ele>
        <time>2015-05-17T13:18:40Z</time>
      </trkpt>
      <trkpt lat="45.70545" lon="5.75165">
        <ele>233.01187038936</ele>
        <time>2015-05-17T13:18:45Z</time>
      </trkpt>
      <trkpt lat="45.70543" lon="5.75158">
        <ele>233.01187038936</ele>
        <time>2015-05-17T13:18:50Z</time>
      </trkpt>
      <trkpt lat="45.70545" lon="5.75151">
        <ele>233.32324006366</ele>
        <time>2015-05-17T13:18:55Z</time>
      </trkpt>
      <trkpt lat="45.70545" lon="5.75143">
        <ele>233.32324006366</ele>
        <time>2015-05-17T13:19:00Z</time>
      </trkpt>
      <trkpt lat="45.70545" lon="5.75133">
        <ele>234.10517514257</ele>
        <time>2015-05-17T13:19:05Z</time>
      </trkpt>
      <trkpt lat="45.70546" lon="5.75125">
        <ele>234.10517514257</ele>
        <time>2015-05-17T13:19:10Z</time>
      </trkpt>
      <trkpt lat="45.70547" lon="5.75115">
        <ele>234.42658651018</ele>
        <time>2015-05-17T13:19:15Z</time>
      </trkpt>
      <trkpt lat="45.70541" lon="5.75109">
        <ele>234.42658651018</ele>
        <time>2015-05-17T13:19:20Z</time>
      </trkpt>
      <trkpt lat="45.70531" lon="5.75117">
        <ele>234.79523516563</ele>
        <time>2015-05-17T13:19:25Z</time>
      </trkpt>
      <trkpt lat="45.70528" lon="5.75127">
        <ele>234.79523516563</ele>
        <time>2015-05-17T13:19:30Z</time>
      </trkpt>
      <trkpt lat="45.70528" lon="5.75132">
        <ele>234.94658531424</ele>
        <time>2015-05-17T13:19:35Z</time>
      </trkpt>
      <trkpt lat="45.70528" lon="5.75144">
        <ele>234.94658531424</ele>
        <time>2015-05-17T13:19:40Z</time>
      </trkpt>
      <trkpt lat="45.70528" lon="5.75155">
        <ele>234.89564265702</ele>
        <time>2015-05-17T13:19:45Z</time>
      </trkpt>
      <trkpt lat="45.70529" lon="5.75163">
        <ele>234.89564265702</ele>
        <time>2015-05-17T13:19:50Z</time>
      </trkpt>
      <trkpt lat="45.70527" lon="5.75174">
        <ele>234.70020571549</ele>
        <time>2015-05-17T13:19:55Z</time>
      </trkpt>
      <trkpt lat="45.70525" lon="5.75184">
        <ele>234.70020571549</ele>
        <time>2015-05-17T13:20:00Z</time>
      </trkpt>
      <trkpt lat="45.70524" lon="5.75194">
        <ele>234.51519887041</ele>
        <time>2015-05-17T13:20:05Z</time>
      </trkpt>
      <trkpt lat="45.70522" lon="5.75199">
        <ele>234.51519887041</ele>
        <time>2015-05-17T13:20:10Z</time>
      </trkpt>
      <trkpt lat="45.7052" lon="5.75208">
        <ele>234.19599600009</ele>
        <time>2015-05-17T13:20:15Z</time>
      </trkpt>
      <trkpt lat="45.70515" lon="5.75215">
        <ele>234.19599600009</ele>
        <time>2015-05-17T13:20:20Z</time>
      </trkpt>
      <trkpt lat="45.70509" lon="5.75221">
        <ele>234.0125575929</ele>
        <time>2015-05-17T13:20:25Z</time>
      </trkpt>
      <trkpt lat="45.70504" lon="5.75229">
        <ele>234.0125575929</ele>
        <time>2015-05-17T13:20:30Z</time>
      </trkpt>
      <trkpt lat="45.70503" lon="5.75239">
        <ele>233.59502147987</ele>
        <time>2015-05-17T13:20:35Z</time>
      </trkpt>
      <trkpt lat="45.70503" lon="5.75249">
        <ele>233.59502147987</ele>
        <time>2015-05-17T13:20:40Z</time>
      </trkpt>
      <trkpt lat="45.70501" lon="5.75258">
        <ele>233.36520162136</ele>
        <time>2015-05-17T13:20:45Z</time>
      </trkpt>
      <trkpt lat="45.705" lon="5.75257">
        <ele>233.36520162136</ele>
        <time>2015-05-17T13:20:50Z</time>
      </trkpt>
      <trkpt lat="45.70499" lon="5.75257">
        <ele>233.36520162136</ele>
        <time>2015-05-17T13:20:55Z</time>
      </trkpt>
      <trkpt lat="45.70499" lon="5.75264">
        <ele>233.36520162136</ele>
        <time>2015-05-17T13:21:00Z</time>
      </trkpt>
      <trkpt lat="45.70499" lon="5.75274">
        <ele>233.58375350615</ele>
        <time>2015-05-17T13:21:05Z</time>
      </trkpt>
      <trkpt lat="45.70497" lon="5.75285">
        <ele>233.58375350615</ele>
        <time>2015-05-17T13:21:10Z</time>
      </trkpt>
      <trkpt lat="45.70496" lon="5.75295">
        <ele>233.77042070934</ele>
        <time>2015-05-17T13:21:15Z</time>
      </trkpt>
      <trkpt lat="45.70494" lon="5.75303">
        <ele>233.77042070934</ele>
        <time>2015-05-17T13:21:20Z</time>
      </trkpt>
      <trkpt lat="45.70491" lon="5.75311">
        <ele>233.53800479869</ele>
        <time>2015-05-17T13:21:25Z</time>
      </trkpt>
      <trkpt lat="45.70491" lon="5.75321">
        <ele>233.53800479869</ele>
        <time>2015-05-17T13:21:30Z</time>
      </trkpt>
      <trkpt lat="45.70489" lon="5.75329">
        <ele>233.23511181126</ele>
        <time>2015-05-17T13:21:35Z</time>
      </trkpt>
      <trkpt lat="45.70487" lon="5.75336">
        <ele>233.23511181126</ele>
        <time>2015-05-17T13:21:40Z</time>
      </trkpt>
      <trkpt lat="45.70484" lon="5.75345">
        <ele>232.96880692177</ele>
        <time>2015-05-17T13:21:45Z</time>
      </trkpt>
      <trkpt lat="45.70482" lon="5.75353">
        <ele>232.96880692177</ele>
        <time>2015-05-17T13:21:50Z</time>
      </trkpt>
      <trkpt lat="45.70481" lon="5.75363">
        <ele>232.50676334191</ele>
        <time>2015-05-17T13:21:55Z</time>
      </trkpt>
      <trkpt lat="45.70478" lon="5.75374">
        <ele>232.50676334191</ele>
        <time>2015-05-17T13:22:00Z</time>
      </trkpt>
      <trkpt lat="45.70477" lon="5.75386">
        <ele>232.18191809586</ele>
        <time>2015-05-17T13:22:05Z</time>
      </trkpt>
      <trkpt lat="45.70474" lon="5.75404">
        <ele>231.75476353285</ele>
        <time>2015-05-17T13:22:10Z</time>
      </trkpt>
      <trkpt lat="45.70471" lon="5.75423">
        <ele>231.43602127664</ele>
        <time>2015-05-17T13:22:15Z</time>
      </trkpt>
      <trkpt lat="45.7047" lon="5.75437">
        <ele>230.9594829868</ele>
        <time>2015-05-17T13:22:20Z</time>
      </trkpt>
      <trkpt lat="45.70467" lon="5.75446">
        <ele>230.9594829868</ele>
        <time>2015-05-17T13:22:25Z</time>
      </trkpt>
      <trkpt lat="45.70466" lon="5.75455">
        <ele>230.4968653631</ele>
        <time>2015-05-17T13:22:30Z</time>
      </trkpt>
      <trkpt lat="45.70465" lon="5.75465">
        <ele>230.4968653631</ele>
        <time>2015-05-17T13:22:35Z</time>
      </trkpt>
      <trkpt lat="45.70463" lon="5.75476">
        <ele>230.23605414695</ele>
        <time>2015-05-17T13:22:40Z</time>
      </trkpt>
      <trkpt lat="45.7046" lon="5.75486">
        <ele>230.23605414695</ele>
        <time>2015-05-17T13:22:45Z</time>
      </trkpt>
      <trkpt lat="45.7046" lon="5.75493">
        <ele>230.1055743401</ele>
        <time>2015-05-17T13:22:50Z</time>
      </trkpt>
      <trkpt lat="45.70457" lon="5.75503">
        <ele>230.1055743401</ele>
        <time>2015-05-17T13:22:55Z</time>
      </trkpt>
      <trkpt lat="45.70456" lon="5.75516">
        <ele>230.15411840472</ele>
        <time>2015-05-17T13:23:00Z</time>
      </trkpt>
      <trkpt lat="45.70454" lon="5.75527">
        <ele>230.15411840472</ele>
        <time>2015-05-17T13:23:05Z</time>
      </trkpt>
      <trkpt lat="45.70453" lon="5.75538">
        <ele>230.38305870958</ele>
        <time>2015-05-17T13:23:10Z</time>
      </trkpt>
      <trkpt lat="45.70454" lon="5.75548">
        <ele>230.38305870958</ele>
        <time>2015-05-17T13:23:15Z</time>
      </trkpt>
      <trkpt lat="45.70452" lon="5.75557">
        <ele>230.37523036096</ele>
        <time>2015-05-17T13:23:20Z</time>
      </trkpt>
      <trkpt lat="45.7045" lon="5.75568">
        <ele>230.37523036096</ele>
        <time>2015-05-17T13:23:25Z</time>
      </trkpt>
      <trkpt lat="45.70449" lon="5.75578">
        <ele>230.75354844335</ele>
        <time>2015-05-17T13:23:30Z</time>
      </trkpt>
      <trkpt lat="45.70449" lon="5.75585">
        <ele>230.75354844335</ele>
        <time>2015-05-17T13:23:35Z</time>
      </trkpt>
      <trkpt lat="45.70446" lon="5.75596">
        <ele>230.79707915415</ele>
        <time>2015-05-17T13:23:40Z</time>
      </trkpt>
      <trkpt lat="45.70442" lon="5.75607">
        <ele>230.79707915415</ele>
        <time>2015-05-17T13:23:45Z</time>
      </trkpt>
      <trkpt lat="45.70437" lon="5.75618">
        <ele>230.63139312548</ele>
        <time>2015-05-17T13:23:50Z</time>
      </trkpt>
      <trkpt lat="45.70434" lon="5.75624">
        <ele>230.63139312548</ele>
        <time>2015-05-17T13:23:55Z</time>
      </trkpt>
      <trkpt lat="45.7043" lon="5.75625">
        <ele>229.99872825641</ele>
        <time>2015-05-17T13:24:00Z</time>
      </trkpt>
      <trkpt lat="45.70421" lon="5.75624">
        <ele>229.99872825641</ele>
        <time>2015-05-17T13:24:05Z</time>
      </trkpt>
      <trkpt lat="45.70415" lon="5.7563">
        <ele>229.95856090797</ele>
        <time>2015-05-17T13:24:10Z</time>
      </trkpt>
      <trkpt lat="45.70409" lon="5.7563">
        <ele>229.95856090797</ele>
        <time>2015-05-17T13:24:15Z</time>
      </trkpt>
      <trkpt lat="45.70403" lon="5.75629">
        <ele>229.94887848399</ele>
        <time>2015-05-17T13:24:20Z</time>
      </trkpt>
      <trkpt lat="45.70395" lon="5.75629">
        <ele>229.94887848399</ele>
        <time>2015-05-17T13:24:25Z</time>
      </trkpt>
      <trkpt lat="45.7039" lon="5.75632">
        <ele>229.79472416932</ele>
        <time>2015-05-17T13:24:30Z</time>
      </trkpt>
      <trkpt lat="45.70383" lon="5.75636">
        <ele>229.79472416932</ele>
        <time>2015-05-17T13:24:35Z</time>
      </trkpt>
      <trkpt lat="45.70376" lon="5.7564">
        <ele>228.8588186406</ele>
        <time>2015-05-17T13:24:40Z</time>
      </trkpt>
      <trkpt lat="45.70369" lon="5.75641">
        <ele>228.8588186406</ele>
        <time>2015-05-17T13:24:45Z</time>
      </trkpt>
      <trkpt lat="45.70367" lon="5.75646">
        <ele>228.29661957523</ele>
        <time>2015-05-17T13:24:50Z</time>
      </trkpt>
      <trkpt lat="45.70362" lon="5.75644">
        <ele>228.29661957523</ele>
        <time>2015-05-17T13:24:55Z</time>
      </trkpt>
      <trkpt lat="45.70355" lon="5.75638">
        <ele>227.3618370904</ele>
        <time>2015-05-17T13:25:00Z</time>
      </trkpt>
      <trkpt lat="45.70344" lon="5.75634">
        <ele>227.10777049158</ele>
        <time>2015-05-17T13:25:05Z</time>
      </trkpt>
      <trkpt lat="45.70334" lon="5.75629">
        <ele>226.90877403667</ele>
        <time>2015-05-17T13:25:10Z</time>
      </trkpt>
      <trkpt lat="45.70325" lon="5.75626">
        <ele>227.3090464627</ele>
        <time>2015-05-17T13:25:15Z</time>
      </trkpt>
      <trkpt lat="45.70316" lon="5.75624">
        <ele>227.90320211679</ele>
        <time>2015-05-17T13:25:20Z</time>
      </trkpt>
      <trkpt lat="45.70307" lon="5.7562">
        <ele>228.53123506366</ele>
        <time>2015-05-17T13:25:25Z</time>
      </trkpt>
      <trkpt lat="45.703" lon="5.75617">
        <ele>228.53123506366</ele>
        <time>2015-05-17T13:25:30Z</time>
      </trkpt>
      <trkpt lat="45.70293" lon="5.75617">
        <ele>228.82861378318</ele>
        <time>2015-05-17T13:25:35Z</time>
      </trkpt>
      <trkpt lat="45.70286" lon="5.75615">
        <ele>228.82861378318</ele>
        <time>2015-05-17T13:25:40Z</time>
      </trkpt>
      <trkpt lat="45.70279" lon="5.75612">
        <ele>229.56815691731</ele>
        <time>2015-05-17T13:25:45Z</time>
      </trkpt>
      <trkpt lat="45.70271" lon="5.7561">
        <ele>229.56815691731</ele>
        <time>2015-05-17T13:25:50Z</time>
      </trkpt>
      <trkpt lat="45.70264" lon="5.75606">
        <ele>229.82179797031</ele>
        <time>2015-05-17T13:25:55Z</time>
      </trkpt>
      <trkpt lat="45.70256" lon="5.75601">
        <ele>229.82179797031</ele>
        <time>2015-05-17T13:26:00Z</time>
      </trkpt>
      <trkpt lat="45.70248" lon="5.75597">
        <ele>230.64768595871</ele>
        <time>2015-05-17T13:26:05Z</time>
      </trkpt>
      <trkpt lat="45.70241" lon="5.75597">
        <ele>230.64768595871</ele>
        <time>2015-05-17T13:26:10Z</time>
      </trkpt>
      <trkpt lat="45.70233" lon="5.75599">
        <ele>232.37613868628</ele>
        <time>2015-05-17T13:26:15Z</time>
      </trkpt>
      <trkpt lat="45.70228" lon="5.75604">
        <ele>232.37613868628</ele>
        <time>2015-05-17T13:26:20Z</time>
      </trkpt>
      <trkpt lat="45.70223" lon="5.75611">
        <ele>233.4084219764</ele>
        <time>2015-05-17T13:26:25Z</time>
      </trkpt>
      <trkpt lat="45.70217" lon="5.75617">
        <ele>233.4084219764</ele>
        <time>2015-05-17T13:26:30Z</time>
      </trkpt>
      <trkpt lat="45.7021" lon="5.75623">
        <ele>234.1386614567</ele>
        <time>2015-05-17T13:26:35Z</time>
      </trkpt>
      <trkpt lat="45.70205" lon="5.7563">
        <ele>234.1386614567</ele>
        <time>2015-05-17T13:26:40Z</time>
      </trkpt>
      <trkpt lat="45.70198" lon="5.75634">
        <ele>234.70232669157</ele>
        <time>2015-05-17T13:26:45Z</time>
      </trkpt>
      <trkpt lat="45.70191" lon="5.75639">
        <ele>234.70232669157</ele>
        <time>2015-05-17T13:26:50Z</time>
      </trkpt>
      <trkpt lat="45.70185" lon="5.75645">
        <ele>235.58571369311</ele>
        <time>2015-05-17T13:26:55Z</time>
      </trkpt>
      <trkpt lat="45.7018" lon="5.75652">
        <ele>235.58571369311</ele>
        <time>2015-05-17T13:27:00Z</time>
      </trkpt>
      <trkpt lat="45.70175" lon="5.75659">
        <ele>236.08564531473</ele>
        <time>2015-05-17T13:27:05Z</time>
      </trkpt>
      <trkpt lat="45.7017" lon="5.75667">
        <ele>236.08564531473</ele>
        <time>2015-05-17T13:27:10Z</time>
      </trkpt>
      <trkpt lat="45.70168" lon="5.75669">
        <ele>236.5749028517</ele>
        <time>2015-05-17T13:27:15Z</time>
      </trkpt>
      <trkpt lat="45.7016" lon="5.75667">
        <ele>236.5749028517</ele>
        <time>2015-05-17T13:27:20Z</time>
      </trkpt>
      <trkpt lat="45.70154" lon="5.7567">
        <ele>237.51424311741</ele>
        <time>2015-05-17T13:27:25Z</time>
      </trkpt>
      <trkpt lat="45.70146" lon="5.7567">
        <ele>237.51424311741</ele>
        <time>2015-05-17T13:27:30Z</time>
      </trkpt>
      <trkpt lat="45.7014" lon="5.75671">
        <ele>238.19087805091</ele>
        <time>2015-05-17T13:27:35Z</time>
      </trkpt>
      <trkpt lat="45.70132" lon="5.7567">
        <ele>238.19087805091</ele>
        <time>2015-05-17T13:27:40Z</time>
      </trkpt>
      <trkpt lat="45.70124" lon="5.75669">
        <ele>238.72336217642</ele>
        <time>2015-05-17T13:27:45Z</time>
      </trkpt>
      <trkpt lat="45.70116" lon="5.75667">
        <ele>238.72336217642</ele>
        <time>2015-05-17T13:27:50Z</time>
      </trkpt>
      <trkpt lat="45.70108" lon="5.75667">
        <ele>239.32286907102</ele>
        <time>2015-05-17T13:27:55Z</time>
      </trkpt>
      <trkpt lat="45.70101" lon="5.75667">
        <ele>239.32286907102</ele>
        <time>2015-05-17T13:28:00Z</time>
      </trkpt>
      <trkpt lat="45.70093" lon="5.75667">
        <ele>239.95434069078</ele>
        <time>2015-05-17T13:28:05Z</time>
      </trkpt>
      <trkpt lat="45.70085" lon="5.75667">
        <ele>239.95434069078</ele>
        <time>2015-05-17T13:28:10Z</time>
      </trkpt>
      <trkpt lat="45.70077" lon="5.75667">
        <ele>240.70054120902</ele>
        <time>2015-05-17T13:28:15Z</time>
      </trkpt>
      <trkpt lat="45.70069" lon="5.75668">
        <ele>240.70054120902</ele>
        <time>2015-05-17T13:28:20Z</time>
      </trkpt>
      <trkpt lat="45.70062" lon="5.75667">
        <ele>241.23436974228</ele>
        <time>2015-05-17T13:28:25Z</time>
      </trkpt>
      <trkpt lat="45.70054" lon="5.75668">
        <ele>241.23436974228</ele>
        <time>2015-05-17T13:28:30Z</time>
      </trkpt>
      <trkpt lat="45.70037" lon="5.7567">
        <ele>241.41191953666</ele>
        <time>2015-05-17T13:28:35Z</time>
      </trkpt>
      <trkpt lat="45.70026" lon="5.7567">
        <ele>241.69175683533</ele>
        <time>2015-05-17T13:28:40Z</time>
      </trkpt>
      <trkpt lat="45.70018" lon="5.7567">
        <ele>241.69175683533</ele>
        <time>2015-05-17T13:28:45Z</time>
      </trkpt>
      <trkpt lat="45.70012" lon="5.75671">
        <ele>242.18147524126</ele>
        <time>2015-05-17T13:28:50Z</time>
      </trkpt>
      <trkpt lat="45.70005" lon="5.75672">
        <ele>242.18147524126</ele>
        <time>2015-05-17T13:28:55Z</time>
      </trkpt>
      <trkpt lat="45.69998" lon="5.75672">
        <ele>242.74964087976</ele>
        <time>2015-05-17T13:29:00Z</time>
      </trkpt>
      <trkpt lat="45.69992" lon="5.7567">
        <ele>242.74964087976</ele>
        <time>2015-05-17T13:29:05Z</time>
      </trkpt>
      <trkpt lat="45.69985" lon="5.75668">
        <ele>243.36076289456</ele>
        <time>2015-05-17T13:29:10Z</time>
      </trkpt>
      <trkpt lat="45.69977" lon="5.75665">
        <ele>243.36076289456</ele>
        <time>2015-05-17T13:29:15Z</time>
      </trkpt>
      <trkpt lat="45.6997" lon="5.75664">
        <ele>244.15481128452</ele>
        <time>2015-05-17T13:29:20Z</time>
      </trkpt>
      <trkpt lat="45.69965" lon="5.75662">
        <ele>244.15481128452</ele>
        <time>2015-05-17T13:29:25Z</time>
      </trkpt>
      <trkpt lat="45.69961" lon="5.75659">
        <ele>244.65573436909</ele>
        <time>2015-05-17T13:29:30Z</time>
      </trkpt>
      <trkpt lat="45.69953" lon="5.75655">
        <ele>244.65573436909</ele>
        <time>2015-05-17T13:29:35Z</time>
      </trkpt>
      <trkpt lat="45.69946" lon="5.75651">
        <ele>245.18710272957</ele>
        <time>2015-05-17T13:29:40Z</time>
      </trkpt>
      <trkpt lat="45.69941" lon="5.75645">
        <ele>245.18710272957</ele>
        <time>2015-05-17T13:29:45Z</time>
      </trkpt>
      <trkpt lat="45.69935" lon="5.75638">
        <ele>245.51546042276</ele>
        <time>2015-05-17T13:29:50Z</time>
      </trkpt>
      <trkpt lat="45.69929" lon="5.75632">
        <ele>245.51546042276</ele>
        <time>2015-05-17T13:29:55Z</time>
      </trkpt>
      <trkpt lat="45.69924" lon="5.75625">
        <ele>245.7421530404</ele>
        <time>2015-05-17T13:30:00Z</time>
      </trkpt>
      <trkpt lat="45.69919" lon="5.75619">
        <ele>245.7421530404</ele>
        <time>2015-05-17T13:30:05Z</time>
      </trkpt>
      <trkpt lat="45.69913" lon="5.75613">
        <ele>246.1199245977</ele>
        <time>2015-05-17T13:30:10Z</time>
      </trkpt>
      <trkpt lat="45.69907" lon="5.75606">
        <ele>246.1199245977</ele>
        <time>2015-05-17T13:30:15Z</time>
      </trkpt>
      <trkpt lat="45.69902" lon="5.75599">
        <ele>246.52228420562</ele>
        <time>2015-05-17T13:30:20Z</time>
      </trkpt>
      <trkpt lat="45.69897" lon="5.75593">
        <ele>246.52228420562</ele>
        <time>2015-05-17T13:30:25Z</time>
      </trkpt>
      <trkpt lat="45.69892" lon="5.75585">
        <ele>246.6446496866</ele>
        <time>2015-05-17T13:30:30Z</time>
      </trkpt>
      <trkpt lat="45.69887" lon="5.75577">
        <ele>246.6446496866</ele>
        <time>2015-05-17T13:30:35Z</time>
      </trkpt>
      <trkpt lat="45.69883" lon="5.75568">
        <ele>246.66678154763</ele>
        <time>2015-05-17T13:30:40Z</time>
      </trkpt>
      <trkpt lat="45.69878" lon="5.75559">
        <ele>246.66678154763</ele>
        <time>2015-05-17T13:30:45Z</time>
      </trkpt>
      <trkpt lat="45.69874" lon="5.7555">
        <ele>246.68348435007</ele>
        <time>2015-05-17T13:30:50Z</time>
      </trkpt>
      <trkpt lat="45.69868" lon="5.75541">
        <ele>246.68348435007</ele>
        <time>2015-05-17T13:30:55Z</time>
      </trkpt>
      <trkpt lat="45.69863" lon="5.75533">
        <ele>246.68175525707</ele>
        <time>2015-05-17T13:31:00Z</time>
      </trkpt>
      <trkpt lat="45.69858" lon="5.75525">
        <ele>246.68175525707</ele>
        <time>2015-05-17T13:31:05Z</time>
      </trkpt>
      <trkpt lat="45.69851" lon="5.75519">
        <ele>246.66402444149</ele>
        <time>2015-05-17T13:31:10Z</time>
      </trkpt>
      <trkpt lat="45.69845" lon="5.75512">
        <ele>246.66402444149</ele>
        <time>2015-05-17T13:31:15Z</time>
      </trkpt>
      <trkpt lat="45.6984" lon="5.75504">
        <ele>246.56054333867</ele>
        <time>2015-05-17T13:31:20Z</time>
      </trkpt>
      <trkpt lat="45.69834" lon="5.75498">
        <ele>246.56054333867</ele>
        <time>2015-05-17T13:31:25Z</time>
      </trkpt>
      <trkpt lat="45.69828" lon="5.75492">
        <ele>246.55192284214</ele>
        <time>2015-05-17T13:31:30Z</time>
      </trkpt>
      <trkpt lat="45.69823" lon="5.75485">
        <ele>246.55192284214</ele>
        <time>2015-05-17T13:31:35Z</time>
      </trkpt>
      <trkpt lat="45.69818" lon="5.75478">
        <ele>246.54584225487</ele>
        <time>2015-05-17T13:31:40Z</time>
      </trkpt>
      <trkpt lat="45.69811" lon="5.7547">
        <ele>246.54584225487</ele>
        <time>2015-05-17T13:31:45Z</time>
      </trkpt>
      <trkpt lat="45.69804" lon="5.75463">
        <ele>246.86026586029</ele>
        <time>2015-05-17T13:31:50Z</time>
      </trkpt>
      <trkpt lat="45.69797" lon="5.75457">
        <ele>246.86026586029</ele>
        <time>2015-05-17T13:31:55Z</time>
      </trkpt>
      <trkpt lat="45.69786" lon="5.75446">
        <ele>247.42862048138</ele>
        <time>2015-05-17T13:32:00Z</time>
      </trkpt>
      <trkpt lat="45.69768" lon="5.75429">
        <ele>248.1596854123</ele>
        <time>2015-05-17T13:32:05Z</time>
      </trkpt>
      <trkpt lat="45.6976" lon="5.75421">
        <ele>248.79554859998</ele>
        <time>2015-05-17T13:32:10Z</time>
      </trkpt>
      <trkpt lat="45.69754" lon="5.75416">
        <ele>248.79554859998</ele>
        <time>2015-05-17T13:32:15Z</time>
      </trkpt>
      <trkpt lat="45.69747" lon="5.75411">
        <ele>249.27044367674</ele>
        <time>2015-05-17T13:32:20Z</time>
      </trkpt>
      <trkpt lat="45.69741" lon="5.75406">
        <ele>249.27044367674</ele>
        <time>2015-05-17T13:32:25Z</time>
      </trkpt>
      <trkpt lat="45.69735" lon="5.75402">
        <ele>249.85534381806</ele>
        <time>2015-05-17T13:32:30Z</time>
      </trkpt>
      <trkpt lat="45.6973" lon="5.75396">
        <ele>249.85534381806</ele>
        <time>2015-05-17T13:32:35Z</time>
      </trkpt>
      <trkpt lat="45.69724" lon="5.75391">
        <ele>250.4551441194</ele>
        <time>2015-05-17T13:32:40Z</time>
      </trkpt>
      <trkpt lat="45.69718" lon="5.75386">
        <ele>250.4551441194</ele>
        <time>2015-05-17T13:32:45Z</time>
      </trkpt>
      <trkpt lat="45.69714" lon="5.75383">
        <ele>250.89522146136</ele>
        <time>2015-05-17T13:32:50Z</time>
      </trkpt>
      <trkpt lat="45.69709" lon="5.75379">
        <ele>250.89522146136</ele>
        <time>2015-05-17T13:32:55Z</time>
      </trkpt>
      <trkpt lat="45.69703" lon="5.75373">
        <ele>251.31686666761</ele>
        <time>2015-05-17T13:33:00Z</time>
      </trkpt>
      <trkpt lat="45.69697" lon="5.75367">
        <ele>251.31686666761</ele>
        <time>2015-05-17T13:33:05Z</time>
      </trkpt>
      <trkpt lat="45.69691" lon="5.75362">
        <ele>251.56282573169</ele>
        <time>2015-05-17T13:33:10Z</time>
      </trkpt>
      <trkpt lat="45.69684" lon="5.75356">
        <ele>251.56282573169</ele>
        <time>2015-05-17T13:33:15Z</time>
      </trkpt>
      <trkpt lat="45.69678" lon="5.7535">
        <ele>251.44465985918</ele>
        <time>2015-05-17T13:33:20Z</time>
      </trkpt>
      <trkpt lat="45.69671" lon="5.75344">
        <ele>251.44465985918</ele>
        <time>2015-05-17T13:33:25Z</time>
      </trkpt>
      <trkpt lat="45.69655" lon="5.7533">
        <ele>251.27877409267</ele>
        <time>2015-05-17T13:33:30Z</time>
      </trkpt>
      <trkpt lat="45.69641" lon="5.75319">
        <ele>251.444930317</ele>
        <time>2015-05-17T13:33:35Z</time>
      </trkpt>
      <trkpt lat="45.69637" lon="5.75314">
        <ele>251.444930317</ele>
        <time>2015-05-17T13:33:40Z</time>
      </trkpt>
      <trkpt lat="45.69631" lon="5.75309">
        <ele>251.71761357308</ele>
        <time>2015-05-17T13:33:45Z</time>
      </trkpt>
      <trkpt lat="45.69625" lon="5.75305">
        <ele>251.71761357308</ele>
        <time>2015-05-17T13:33:50Z</time>
      </trkpt>
      <trkpt lat="45.69618" lon="5.75301">
        <ele>251.95962581339</ele>
        <time>2015-05-17T13:33:55Z</time>
      </trkpt>
      <trkpt lat="45.69612" lon="5.75297">
        <ele>251.95962581339</ele>
        <time>2015-05-17T13:34:00Z</time>
      </trkpt>
      <trkpt lat="45.69605" lon="5.75292">
        <ele>252.17362605878</ele>
        <time>2015-05-17T13:34:05Z</time>
      </trkpt>
      <trkpt lat="45.69599" lon="5.75288">
        <ele>252.17362605878</ele>
        <time>2015-05-17T13:34:10Z</time>
      </trkpt>
      <trkpt lat="45.69595" lon="5.75286">
        <ele>252.26127025107</ele>
        <time>2015-05-17T13:34:15Z</time>
      </trkpt>
      <trkpt lat="45.69589" lon="5.75281">
        <ele>252.26127025107</ele>
        <time>2015-05-17T13:34:20Z</time>
      </trkpt>
      <trkpt lat="45.69584" lon="5.75277">
        <ele>252.36236142534</ele>
        <time>2015-05-17T13:34:25Z</time>
      </trkpt>
      <trkpt lat="45.69576" lon="5.7527">
        <ele>252.23169481926</ele>
        <time>2015-05-17T13:34:30Z</time>
      </trkpt>
      <trkpt lat="45.6957" lon="5.75264">
        <ele>252.23169481926</ele>
        <time>2015-05-17T13:34:35Z</time>
      </trkpt>
      <trkpt lat="45.69563" lon="5.75259">
        <ele>251.74359234911</ele>
        <time>2015-05-17T13:34:40Z</time>
      </trkpt>
      <trkpt lat="45.69557" lon="5.75253">
        <ele>251.74359234911</ele>
        <time>2015-05-17T13:34:45Z</time>
      </trkpt>
      <trkpt lat="45.69552" lon="5.75248">
        <ele>251.45991629036</ele>
        <time>2015-05-17T13:34:50Z</time>
      </trkpt>
      <trkpt lat="45.69546" lon="5.75242">
        <ele>251.45991629036</ele>
        <time>2015-05-17T13:34:55Z</time>
      </trkpt>
      <trkpt lat="45.69539" lon="5.7524">
        <ele>250.76218155976</ele>
        <time>2015-05-17T13:35:00Z</time>
      </trkpt>
      <trkpt lat="45.69534" lon="5.75241">
        <ele>250.76218155976</ele>
        <time>2015-05-17T13:35:05Z</time>
      </trkpt>
      <trkpt lat="45.6953" lon="5.75242">
        <ele>249.71255983567</ele>
        <time>2015-05-17T13:35:10Z</time>
      </trkpt>
      <trkpt lat="45.69524" lon="5.75246">
        <ele>249.71255983567</ele>
        <time>2015-05-17T13:35:15Z</time>
      </trkpt>
      <trkpt lat="45.69515" lon="5.75252">
        <ele>248.83076464053</ele>
        <time>2015-05-17T13:35:20Z</time>
      </trkpt>
      <trkpt lat="45.69503" lon="5.75254">
        <ele>247.80520832441</ele>
        <time>2015-05-17T13:35:25Z</time>
      </trkpt>
      <trkpt lat="45.69487" lon="5.75257">
        <ele>246.89516950095</ele>
        <time>2015-05-17T13:35:30Z</time>
      </trkpt>
      <trkpt lat="45.6947" lon="5.75257">
        <ele>246.21080112793</ele>
        <time>2015-05-17T13:35:35Z</time>
      </trkpt>
      <trkpt lat="45.69462" lon="5.75257">
        <ele>246.21080112793</ele>
        <time>2015-05-17T13:35:40Z</time>
      </trkpt>
      <trkpt lat="45.69455" lon="5.75256">
        <ele>246.50197274078</ele>
        <time>2015-05-17T13:35:45Z</time>
      </trkpt>
      <trkpt lat="45.69448" lon="5.75254">
        <ele>246.50197274078</ele>
        <time>2015-05-17T13:35:50Z</time>
      </trkpt>
      <trkpt lat="45.69441" lon="5.75254">
        <ele>246.76016010611</ele>
        <time>2015-05-17T13:35:55Z</time>
      </trkpt>
      <trkpt lat="45.69438" lon="5.75257">
        <ele>246.76016010611</ele>
        <time>2015-05-17T13:36:00Z</time>
      </trkpt>
      <trkpt lat="45.69436" lon="5.75257">
        <ele>246.76016010611</ele>
        <time>2015-05-17T13:36:05Z</time>
      </trkpt>
      <trkpt lat="45.69434" lon="5.75256">
        <ele>246.76016010611</ele>
        <time>2015-05-17T13:36:10Z</time>
      </trkpt>
      <trkpt lat="45.69426" lon="5.75255">
        <ele>247.23267005003</ele>
        <time>2015-05-17T13:36:15Z</time>
      </trkpt>
      <trkpt lat="45.69416" lon="5.75254">
        <ele>247.15361873962</ele>
        <time>2015-05-17T13:36:20Z</time>
      </trkpt>
      <trkpt lat="45.69402" lon="5.75251">
        <ele>247.15511379475</ele>
        <time>2015-05-17T13:36:25Z</time>
      </trkpt>
      <trkpt lat="45.69392" lon="5.75248">
        <ele>246.82818741777</ele>
        <time>2015-05-17T13:36:30Z</time>
      </trkpt>
      <trkpt lat="45.69386" lon="5.7525">
        <ele>246.82818741777</ele>
        <time>2015-05-17T13:36:35Z</time>
      </trkpt>
      <trkpt lat="45.69382" lon="5.75249">
        <ele>246.81797908552</ele>
        <time>2015-05-17T13:36:40Z</time>
      </trkpt>
      <trkpt lat="45.69374" lon="5.75245">
        <ele>246.81797908552</ele>
        <time>2015-05-17T13:36:45Z</time>
      </trkpt>
      <trkpt lat="45.69366" lon="5.75243">
        <ele>246.7413477337</ele>
        <time>2015-05-17T13:36:50Z</time>
      </trkpt>
      <trkpt lat="45.69357" lon="5.75242">
        <ele>247.29545336765</ele>
        <time>2015-05-17T13:36:55Z</time>
      </trkpt>
      <trkpt lat="45.69347" lon="5.75242">
        <ele>248.2021239633</ele>
        <time>2015-05-17T13:37:00Z</time>
      </trkpt>
      <trkpt lat="45.69339" lon="5.75243">
        <ele>248.2021239633</ele>
        <time>2015-05-17T13:37:05Z</time>
      </trkpt>
      <trkpt lat="45.69333" lon="5.75242">
        <ele>248.75585516464</ele>
        <time>2015-05-17T13:37:10Z</time>
      </trkpt>
      <trkpt lat="45.69327" lon="5.75241">
        <ele>248.75585516464</ele>
        <time>2015-05-17T13:37:15Z</time>
      </trkpt>
      <trkpt lat="45.6932" lon="5.7524">
        <ele>249.24065439213</ele>
        <time>2015-05-17T13:37:20Z</time>
      </trkpt>
      <trkpt lat="45.69313" lon="5.7524">
        <ele>249.24065439213</ele>
        <time>2015-05-17T13:37:25Z</time>
      </trkpt>
      <trkpt lat="45.69305" lon="5.75241">
        <ele>249.54514976706</ele>
        <time>2015-05-17T13:37:30Z</time>
      </trkpt>
      <trkpt lat="45.69297" lon="5.75247">
        <ele>250.04220828828</ele>
        <time>2015-05-17T13:37:35Z</time>
      </trkpt>
      <trkpt lat="45.6929" lon="5.75253">
        <ele>250.04220828828</ele>
        <time>2015-05-17T13:37:40Z</time>
      </trkpt>
      <trkpt lat="45.69284" lon="5.75259">
        <ele>251.23527899758</ele>
        <time>2015-05-17T13:37:45Z</time>
      </trkpt>
      <trkpt lat="45.69279" lon="5.75266">
        <ele>251.23527899758</ele>
        <time>2015-05-17T13:37:50Z</time>
      </trkpt>
      <trkpt lat="45.69272" lon="5.75274">
        <ele>251.9171815856</ele>
        <time>2015-05-17T13:37:55Z</time>
      </trkpt>
      <trkpt lat="45.69265" lon="5.75283">
        <ele>252.49842816012</ele>
        <time>2015-05-17T13:38:00Z</time>
      </trkpt>
      <trkpt lat="45.69259" lon="5.75291">
        <ele>252.49842816012</ele>
        <time>2015-05-17T13:38:05Z</time>
      </trkpt>
      <trkpt lat="45.69253" lon="5.753">
        <ele>253.33084232646</ele>
        <time>2015-05-17T13:38:10Z</time>
      </trkpt>
      <trkpt lat="45.69249" lon="5.75305">
        <ele>253.33084232646</ele>
        <time>2015-05-17T13:38:15Z</time>
      </trkpt>
      <trkpt lat="45.69245" lon="5.753">
        <ele>254.45148943816</ele>
        <time>2015-05-17T13:38:20Z</time>
      </trkpt>
      <trkpt lat="45.69242" lon="5.75291">
        <ele>254.45148943816</ele>
        <time>2015-05-17T13:38:25Z</time>
      </trkpt>
      <trkpt lat="45.6924" lon="5.75282">
        <ele>255.28865511409</ele>
        <time>2015-05-17T13:38:30Z</time>
      </trkpt>
      <trkpt lat="45.69238" lon="5.75271">
        <ele>255.28865511409</ele>
        <time>2015-05-17T13:38:35Z</time>
      </trkpt>
      <trkpt lat="45.69238" lon="5.75259">
        <ele>256.14928661088</ele>
        <time>2015-05-17T13:38:40Z</time>
      </trkpt>
      <trkpt lat="45.69239" lon="5.75248">
        <ele>256.14928661088</ele>
        <time>2015-05-17T13:38:45Z</time>
      </trkpt>
      <trkpt lat="45.6924" lon="5.75237">
        <ele>256.98629045594</ele>
        <time>2015-05-17T13:38:50Z</time>
      </trkpt>
      <trkpt lat="45.69241" lon="5.75225">
        <ele>256.98629045594</ele>
        <time>2015-05-17T13:38:55Z</time>
      </trkpt>
      <trkpt lat="45.69242" lon="5.75214">
        <ele>257.46790940573</ele>
        <time>2015-05-17T13:39:00Z</time>
      </trkpt>
      <trkpt lat="45.69244" lon="5.75203">
        <ele>257.46790940573</ele>
        <time>2015-05-17T13:39:05Z</time>
      </trkpt>
      <trkpt lat="45.69245" lon="5.75191">
        <ele>258.22451236439</ele>
        <time>2015-05-17T13:39:10Z</time>
      </trkpt>
      <trkpt lat="45.69247" lon="5.75181">
        <ele>258.22451236439</ele>
        <time>2015-05-17T13:39:15Z</time>
      </trkpt>
      <trkpt lat="45.69247" lon="5.75171">
        <ele>258.78741672823</ele>
        <time>2015-05-17T13:39:20Z</time>
      </trkpt>
      <trkpt lat="45.69248" lon="5.75162">
        <ele>258.78741672823</ele>
        <time>2015-05-17T13:39:25Z</time>
      </trkpt>
      <trkpt lat="45.69248" lon="5.75153">
        <ele>258.52119462696</ele>
        <time>2015-05-17T13:39:30Z</time>
      </trkpt>
      <trkpt lat="45.69249" lon="5.75143">
        <ele>258.52119462696</ele>
        <time>2015-05-17T13:39:35Z</time>
      </trkpt>
      <trkpt lat="45.69249" lon="5.75133">
        <ele>257.96352505741</ele>
        <time>2015-05-17T13:39:40Z</time>
      </trkpt>
      <trkpt lat="45.6925" lon="5.75123">
        <ele>257.96352505741</ele>
        <time>2015-05-17T13:39:45Z</time>
      </trkpt>
      <trkpt lat="45.69251" lon="5.75113">
        <ele>257.29639371723</ele>
        <time>2015-05-17T13:39:50Z</time>
      </trkpt>
      <trkpt lat="45.69251" lon="5.75104">
        <ele>257.29639371723</ele>
        <time>2015-05-17T13:39:55Z</time>
      </trkpt>
      <trkpt lat="45.6925" lon="5.75093">
        <ele>256.65992705572</ele>
        <time>2015-05-17T13:40:00Z</time>
      </trkpt>
      <trkpt lat="45.69249" lon="5.75082">
        <ele>256.65992705572</ele>
        <time>2015-05-17T13:40:05Z</time>
      </trkpt>
      <trkpt lat="45.69248" lon="5.7507">
        <ele>256.06859928444</ele>
        <time>2015-05-17T13:40:10Z</time>
      </trkpt>
      <trkpt lat="45.69246" lon="5.75059">
        <ele>256.06859928444</ele>
        <time>2015-05-17T13:40:15Z</time>
      </trkpt>
      <trkpt lat="45.69245" lon="5.75048">
        <ele>256.12655988947</ele>
        <time>2015-05-17T13:40:20Z</time>
      </trkpt>
      <trkpt lat="45.69243" lon="5.75037">
        <ele>256.12655988947</ele>
        <time>2015-05-17T13:40:25Z</time>
      </trkpt>
      <trkpt lat="45.6924" lon="5.75026">
        <ele>256.58473843381</ele>
        <time>2015-05-17T13:40:30Z</time>
      </trkpt>
      <trkpt lat="45.69238" lon="5.75016">
        <ele>256.58473843381</ele>
        <time>2015-05-17T13:40:35Z</time>
      </trkpt>
      <trkpt lat="45.69237" lon="5.75012">
        <ele>257.51387460433</ele>
        <time>2015-05-17T13:40:40Z</time>
      </trkpt>
      <trkpt lat="45.69238" lon="5.75009">
        <ele>257.51387460433</ele>
        <time>2015-05-17T13:40:45Z</time>
      </trkpt>
      <trkpt lat="45.69236" lon="5.75005">
        <ele>257.51387460433</ele>
        <time>2015-05-17T13:40:50Z</time>
      </trkpt>
      <trkpt lat="45.69232" lon="5.74999">
        <ele>257.96941550904</ele>
        <time>2015-05-17T13:40:55Z</time>
      </trkpt>
      <trkpt lat="45.6923" lon="5.74994">
        <ele>257.96941550904</ele>
        <time>2015-05-17T13:41:00Z</time>
      </trkpt>
      <trkpt lat="45.69226" lon="5.74987">
        <ele>258.5330517512</ele>
        <time>2015-05-17T13:41:05Z</time>
      </trkpt>
      <trkpt lat="45.69221" lon="5.7498">
        <ele>258.5330517512</ele>
        <time>2015-05-17T13:41:10Z</time>
      </trkpt>
      <trkpt lat="45.69212" lon="5.74971">
        <ele>259.55610518598</ele>
        <time>2015-05-17T13:41:15Z</time>
      </trkpt>
      <trkpt lat="45.69206" lon="5.74966">
        <ele>259.55610518598</ele>
        <time>2015-05-17T13:41:20Z</time>
      </trkpt>
      <trkpt lat="45.692" lon="5.7496">
        <ele>260.69990350496</ele>
        <time>2015-05-17T13:41:25Z</time>
      </trkpt>
      <trkpt lat="45.69194" lon="5.74952">
        <ele>260.69990350496</ele>
        <time>2015-05-17T13:41:30Z</time>
      </trkpt>
      <trkpt lat="45.69188" lon="5.74947">
        <ele>260.32450742643</ele>
        <time>2015-05-17T13:41:35Z</time>
      </trkpt>
      <trkpt lat="45.69182" lon="5.74942">
        <ele>260.32450742643</ele>
        <time>2015-05-17T13:41:40Z</time>
      </trkpt>
      <trkpt lat="45.69178" lon="5.74937">
        <ele>259.99870429108</ele>
        <time>2015-05-17T13:41:45Z</time>
      </trkpt>
      <trkpt lat="45.69176" lon="5.7493">
        <ele>259.99870429108</ele>
        <time>2015-05-17T13:41:50Z</time>
      </trkpt>
      <trkpt lat="45.69173" lon="5.74918">
        <ele>259.90773791158</ele>
        <time>2015-05-17T13:41:55Z</time>
      </trkpt>
      <trkpt lat="45.69169" lon="5.74907">
        <ele>259.90773791158</ele>
        <time>2015-05-17T13:42:00Z</time>
      </trkpt>
      <trkpt lat="45.69167" lon="5.74896">
        <ele>259.6173309514</ele>
        <time>2015-05-17T13:42:05Z</time>
      </trkpt>
      <trkpt lat="45.69166" lon="5.74887">
        <ele>259.6173309514</ele>
        <time>2015-05-17T13:42:10Z</time>
      </trkpt>
      <trkpt lat="45.69165" lon="5.74877">
        <ele>259.57593094624</ele>
        <time>2015-05-17T13:42:15Z</time>
      </trkpt>
      <trkpt lat="45.69165" lon="5.74867">
        <ele>259.57593094624</ele>
        <time>2015-05-17T13:42:20Z</time>
      </trkpt>
      <trkpt lat="45.6916" lon="5.7486">
        <ele>260.02541549554</ele>
        <time>2015-05-17T13:42:25Z</time>
      </trkpt>
      <trkpt lat="45.69154" lon="5.74857">
        <ele>260.02541549554</ele>
        <time>2015-05-17T13:42:30Z</time>
      </trkpt>
      <trkpt lat="45.69147" lon="5.74854">
        <ele>260.61207546488</ele>
        <time>2015-05-17T13:42:35Z</time>
      </trkpt>
      <trkpt lat="45.69142" lon="5.7485">
        <ele>260.61207546488</ele>
        <time>2015-05-17T13:42:40Z</time>
      </trkpt>
      <trkpt lat="45.69137" lon="5.74844">
        <ele>261.38249273889</ele>
        <time>2015-05-17T13:42:45Z</time>
      </trkpt>
      <trkpt lat="45.69131" lon="5.74842">
        <ele>261.38249273889</ele>
        <time>2015-05-17T13:42:50Z</time>
      </trkpt>
      <trkpt lat="45.69127" lon="5.74835">
        <ele>262.32167334898</ele>
        <time>2015-05-17T13:42:55Z</time>
      </trkpt>
      <trkpt lat="45.69124" lon="5.74835">
        <ele>262.32167334898</ele>
        <time>2015-05-17T13:43:00Z</time>
      </trkpt>
      <trkpt lat="45.6912" lon="5.74834">
        <ele>262.32167334898</ele>
        <time>2015-05-17T13:43:05Z</time>
      </trkpt>
      <trkpt lat="45.69117" lon="5.74831">
        <ele>263.19909425745</ele>
        <time>2015-05-17T13:43:10Z</time>
      </trkpt>
      <trkpt lat="45.69116" lon="5.74831">
        <ele>263.19909425745</ele>
        <time>2015-05-17T13:43:15Z</time>
      </trkpt>
      <trkpt lat="45.69116" lon="5.74828">
        <ele>263.19909425745</ele>
        <time>2015-05-17T13:43:20Z</time>
      </trkpt>
      <trkpt lat="45.69108" lon="5.74828">
        <ele>264.69484392458</ele>
        <time>2015-05-17T13:43:25Z</time>
      </trkpt>
      <trkpt lat="45.69098" lon="5.74825">
        <ele>264.88656843085</ele>
        <time>2015-05-17T13:43:30Z</time>
      </trkpt>
      <trkpt lat="45.69089" lon="5.74819">
        <ele>264.73492046351</ele>
        <time>2015-05-17T13:43:35Z</time>
      </trkpt>
      <trkpt lat="45.6908" lon="5.74815">
        <ele>264.73492046351</ele>
        <time>2015-05-17T13:43:40Z</time>
      </trkpt>
      <trkpt lat="45.69073" lon="5.74813">
        <ele>264.51129039423</ele>
        <time>2015-05-17T13:43:45Z</time>
      </trkpt>
      <trkpt lat="45.69066" lon="5.74809">
        <ele>264.51129039423</ele>
        <time>2015-05-17T13:43:50Z</time>
      </trkpt>
      <trkpt lat="45.69056" lon="5.74803">
        <ele>262.85330571469</ele>
        <time>2015-05-17T13:43:55Z</time>
      </trkpt>
      <trkpt lat="45.69046" lon="5.748">
        <ele>261.87490650952</ele>
        <time>2015-05-17T13:44:00Z</time>
      </trkpt>
      <trkpt lat="45.69036" lon="5.74798">
        <ele>260.99647962826</ele>
        <time>2015-05-17T13:44:05Z</time>
      </trkpt>
      <trkpt lat="45.6903" lon="5.74796">
        <ele>260.99647962826</ele>
        <time>2015-05-17T13:44:10Z</time>
      </trkpt>
      <trkpt lat="45.69019" lon="5.74794">
        <ele>261.82795683117</ele>
        <time>2015-05-17T13:44:15Z</time>
      </trkpt>
      <trkpt lat="45.69005" lon="5.74788">
        <ele>262.62810413168</ele>
        <time>2015-05-17T13:44:20Z</time>
      </trkpt>
      <trkpt lat="45.68996" lon="5.74779">
        <ele>263.74358358081</ele>
        <time>2015-05-17T13:44:25Z</time>
      </trkpt>
      <trkpt lat="45.68986" lon="5.74772">
        <ele>265.3938207706</ele>
        <time>2015-05-17T13:44:30Z</time>
      </trkpt>
      <trkpt lat="45.68979" lon="5.74762">
        <ele>267.03124426252</ele>
        <time>2015-05-17T13:44:35Z</time>
      </trkpt>
      <trkpt lat="45.68974" lon="5.74751">
        <ele>267.03124426252</ele>
        <time>2015-05-17T13:44:40Z</time>
      </trkpt>
      <trkpt lat="45.68972" lon="5.74741">
        <ele>269.82024397261</ele>
        <time>2015-05-17T13:44:45Z</time>
      </trkpt>
      <trkpt lat="45.68972" lon="5.74734">
        <ele>269.82024397261</ele>
        <time>2015-05-17T13:44:50Z</time>
      </trkpt>
      <trkpt lat="45.6897" lon="5.74728">
        <ele>272.617157193</ele>
        <time>2015-05-17T13:44:55Z</time>
      </trkpt>
      <trkpt lat="45.68967" lon="5.7472">
        <ele>272.617157193</ele>
        <time>2015-05-17T13:45:00Z</time>
      </trkpt>
      <trkpt lat="45.68965" lon="5.74712">
        <ele>275.58729788548</ele>
        <time>2015-05-17T13:45:05Z</time>
      </trkpt>
      <trkpt lat="45.68962" lon="5.74702">
        <ele>275.58729788548</ele>
        <time>2015-05-17T13:45:10Z</time>
      </trkpt>
      <trkpt lat="45.68959" lon="5.74693">
        <ele>279.05634272485</ele>
        <time>2015-05-17T13:45:15Z</time>
      </trkpt>
      <trkpt lat="45.68954" lon="5.74687">
        <ele>279.05634272485</ele>
        <time>2015-05-17T13:45:20Z</time>
      </trkpt>
      <trkpt lat="45.68949" lon="5.74672">
        <ele>278.51140301524</ele>
        <time>2015-05-17T13:45:25Z</time>
      </trkpt>
      <trkpt lat="45.68942" lon="5.74668">
        <ele>278.51140301524</ele>
        <time>2015-05-17T13:45:30Z</time>
      </trkpt>
      <trkpt lat="45.68935" lon="5.74663">
        <ele>281.80132066877</ele>
        <time>2015-05-17T13:45:35Z</time>
      </trkpt>
      <trkpt lat="45.6893" lon="5.74658">
        <ele>281.80132066877</ele>
        <time>2015-05-17T13:45:40Z</time>
      </trkpt>
      <trkpt lat="45.68929" lon="5.74648">
        <ele>285.23525513677</ele>
        <time>2015-05-17T13:45:45Z</time>
      </trkpt>
      <trkpt lat="45.68922" lon="5.7464">
        <ele>287.67014925617</ele>
        <time>2015-05-17T13:45:50Z</time>
      </trkpt>
      <trkpt lat="45.68913" lon="5.74631">
        <ele>289.64946267114</ele>
        <time>2015-05-17T13:45:55Z</time>
      </trkpt>
      <trkpt lat="45.68905" lon="5.74622">
        <ele>292.16811153619</ele>
        <time>2015-05-17T13:46:00Z</time>
      </trkpt>
      <trkpt lat="45.68896" lon="5.74616">
        <ele>294.38838661662</ele>
        <time>2015-05-17T13:46:05Z</time>
      </trkpt>
      <trkpt lat="45.68888" lon="5.7461">
        <ele>296.84649972793</ele>
        <time>2015-05-17T13:46:10Z</time>
      </trkpt>
      <trkpt lat="45.68881" lon="5.74606">
        <ele>296.84649972793</ele>
        <time>2015-05-17T13:46:15Z</time>
      </trkpt>
      <trkpt lat="45.68877" lon="5.74602">
        <ele>298.8137990477</ele>
        <time>2015-05-17T13:46:20Z</time>
      </trkpt>
      <trkpt lat="45.68873" lon="5.74597">
        <ele>298.8137990477</ele>
        <time>2015-05-17T13:46:25Z</time>
      </trkpt>
      <trkpt lat="45.68874" lon="5.74597">
        <ele>298.8137990477</ele>
        <time>2015-05-17T13:46:30Z</time>
      </trkpt>
      <trkpt lat="45.68872" lon="5.74598">
        <ele>298.8137990477</ele>
        <time>2015-05-17T13:46:35Z</time>
      </trkpt>
      <trkpt lat="45.68873" lon="5.74598">
        <ele>298.8137990477</ele>
        <time>2015-05-17T13:46:40Z</time>
      </trkpt>
      <trkpt lat="45.68872" lon="5.74599">
        <ele>298.8137990477</ele>
        <time>2015-05-17T13:46:45Z</time>
      </trkpt>
      <trkpt lat="45.68872" lon="5.74599">
        <ele>298.8137990477</ele>
        <time>2015-05-17T13:46:50Z</time>
      </trkpt>
      <trkpt lat="45.68871" lon="5.746">
        <ele>298.8137990477</ele>
        <time>2015-05-17T13:46:55Z</time>
      </trkpt>
      <trkpt lat="45.68869" lon="5.74597">
        <ele>300.82721092254</ele>
        <time>2015-05-17T13:47:00Z</time>
      </trkpt>
      <trkpt lat="45.68863" lon="5.74592">
        <ele>300.82721092254</ele>
        <time>2015-05-17T13:47:05Z</time>
      </trkpt>
      <trkpt lat="45.68857" lon="5.74586">
        <ele>302.24575329974</ele>
        <time>2015-05-17T13:47:10Z</time>
      </trkpt>
      <trkpt lat="45.68852" lon="5.74579">
        <ele>302.24575329974</ele>
        <time>2015-05-17T13:47:15Z</time>
      </trkpt>
      <trkpt lat="45.68848" lon="5.7457">
        <ele>303.35641662607</ele>
        <time>2015-05-17T13:47:20Z</time>
      </trkpt>
      <trkpt lat="45.68844" lon="5.74562">
        <ele>303.35641662607</ele>
        <time>2015-05-17T13:47:25Z</time>
      </trkpt>
      <trkpt lat="45.68838" lon="5.74556">
        <ele>304.61345258261</ele>
        <time>2015-05-17T13:47:30Z</time>
      </trkpt>
      <trkpt lat="45.68831" lon="5.74551">
        <ele>304.61345258261</ele>
        <time>2015-05-17T13:47:35Z</time>
      </trkpt>
      <trkpt lat="45.68825" lon="5.74547">
        <ele>305.28457209244</ele>
        <time>2015-05-17T13:47:40Z</time>
      </trkpt>
      <trkpt lat="45.6882" lon="5.74539">
        <ele>305.28457209244</ele>
        <time>2015-05-17T13:47:45Z</time>
      </trkpt>
      <trkpt lat="45.68815" lon="5.7453">
        <ele>306.13415481258</ele>
        <time>2015-05-17T13:47:50Z</time>
      </trkpt>
      <trkpt lat="45.68811" lon="5.7452">
        <ele>306.13415481258</ele>
        <time>2015-05-17T13:47:55Z</time>
      </trkpt>
      <trkpt lat="45.6881" lon="5.74508">
        <ele>306.86126117966</ele>
        <time>2015-05-17T13:48:00Z</time>
      </trkpt>
      <trkpt lat="45.68809" lon="5.745">
        <ele>306.86126117966</ele>
        <time>2015-05-17T13:48:05Z</time>
      </trkpt>
      <trkpt lat="45.68805" lon="5.74491">
        <ele>307.3892580193</ele>
        <time>2015-05-17T13:48:10Z</time>
      </trkpt>
      <trkpt lat="45.688" lon="5.74487">
        <ele>307.3892580193</ele>
        <time>2015-05-17T13:48:15Z</time>
      </trkpt>
      <trkpt lat="45.68793" lon="5.7448">
        <ele>307.90718993123</ele>
        <time>2015-05-17T13:48:20Z</time>
      </trkpt>
      <trkpt lat="45.68786" lon="5.74474">
        <ele>307.90718993123</ele>
        <time>2015-05-17T13:48:25Z</time>
      </trkpt>
      <trkpt lat="45.68778" lon="5.74471">
        <ele>308.31651039623</ele>
        <time>2015-05-17T13:48:30Z</time>
      </trkpt>
      <trkpt lat="45.68771" lon="5.74468">
        <ele>308.31651039623</ele>
        <time>2015-05-17T13:48:35Z</time>
      </trkpt>
      <trkpt lat="45.68764" lon="5.74465">
        <ele>309.30448615498</ele>
        <time>2015-05-17T13:48:40Z</time>
      </trkpt>
      <trkpt lat="45.68758" lon="5.74463">
        <ele>309.30448615498</ele>
        <time>2015-05-17T13:48:45Z</time>
      </trkpt>
      <trkpt lat="45.68751" lon="5.74463">
        <ele>310.094044708</ele>
        <time>2015-05-17T13:48:50Z</time>
      </trkpt>
      <trkpt lat="45.68742" lon="5.74461">
        <ele>310.094044708</ele>
        <time>2015-05-17T13:48:55Z</time>
      </trkpt>
      <trkpt lat="45.68734" lon="5.74458">
        <ele>310.81606075736</ele>
        <time>2015-05-17T13:49:00Z</time>
      </trkpt>
      <trkpt lat="45.68728" lon="5.74452">
        <ele>310.81606075736</ele>
        <time>2015-05-17T13:49:05Z</time>
      </trkpt>
      <trkpt lat="45.68722" lon="5.74446">
        <ele>310.79941590798</ele>
        <time>2015-05-17T13:49:10Z</time>
      </trkpt>
      <trkpt lat="45.68714" lon="5.74439">
        <ele>310.79941590798</ele>
        <time>2015-05-17T13:49:15Z</time>
      </trkpt>
      <trkpt lat="45.68707" lon="5.7444">
        <ele>311.2401993989</ele>
        <time>2015-05-17T13:49:20Z</time>
      </trkpt>
      <trkpt lat="45.687" lon="5.74439">
        <ele>311.2401993989</ele>
        <time>2015-05-17T13:49:25Z</time>
      </trkpt>
      <trkpt lat="45.68693" lon="5.74436">
        <ele>311.97720148268</ele>
        <time>2015-05-17T13:49:30Z</time>
      </trkpt>
      <trkpt lat="45.68686" lon="5.74433">
        <ele>311.97720148268</ele>
        <time>2015-05-17T13:49:35Z</time>
      </trkpt>
      <trkpt lat="45.68679" lon="5.74431">
        <ele>312.39908606457</ele>
        <time>2015-05-17T13:49:40Z</time>
      </trkpt>
      <trkpt lat="45.68672" lon="5.74433">
        <ele>312.39908606457</ele>
        <time>2015-05-17T13:49:45Z</time>
      </trkpt>
      <trkpt lat="45.68666" lon="5.74429">
        <ele>313.00674255587</ele>
        <time>2015-05-17T13:49:50Z</time>
      </trkpt>
      <trkpt lat="45.68659" lon="5.74425">
        <ele>313.00674255587</ele>
        <time>2015-05-17T13:49:55Z</time>
      </trkpt>
      <trkpt lat="45.68652" lon="5.7442">
        <ele>313.55760369953</ele>
        <time>2015-05-17T13:50:00Z</time>
      </trkpt>
      <trkpt lat="45.68644" lon="5.74417">
        <ele>313.55760369953</ele>
        <time>2015-05-17T13:50:05Z</time>
      </trkpt>
      <trkpt lat="45.68636" lon="5.74415">
        <ele>314.201768136</ele>
        <time>2015-05-17T13:50:10Z</time>
      </trkpt>
      <trkpt lat="45.68629" lon="5.74413">
        <ele>314.201768136</ele>
        <time>2015-05-17T13:50:15Z</time>
      </trkpt>
      <trkpt lat="45.68624" lon="5.74413">
        <ele>314.97716253687</ele>
        <time>2015-05-17T13:50:20Z</time>
      </trkpt>
      <trkpt lat="45.68618" lon="5.74411">
        <ele>314.97716253687</ele>
        <time>2015-05-17T13:50:25Z</time>
      </trkpt>
      <trkpt lat="45.68612" lon="5.74411">
        <ele>316.20677219838</ele>
        <time>2015-05-17T13:50:30Z</time>
      </trkpt>
      <trkpt lat="45.68603" lon="5.74409">
        <ele>316.20677219838</ele>
        <time>2015-05-17T13:50:35Z</time>
      </trkpt>
      <trkpt lat="45.68595" lon="5.74406">
        <ele>317.7418263324</ele>
        <time>2015-05-17T13:50:40Z</time>
      </trkpt>
      <trkpt lat="45.68588" lon="5.74402">
        <ele>317.7418263324</ele>
        <time>2015-05-17T13:50:45Z</time>
      </trkpt>
      <trkpt lat="45.68577" lon="5.74399">
        <ele>318.67982515718</ele>
        <time>2015-05-17T13:50:50Z</time>
      </trkpt>
      <trkpt lat="45.68563" lon="5.74399">
        <ele>319.82909739172</ele>
        <time>2015-05-17T13:50:55Z</time>
      </trkpt>
      <trkpt lat="45.68554" lon="5.744">
        <ele>320.66981110275</ele>
        <time>2015-05-17T13:51:00Z</time>
      </trkpt>
      <trkpt lat="45.68545" lon="5.74402">
        <ele>320.66981110275</ele>
        <time>2015-05-17T13:51:05Z</time>
      </trkpt>
      <trkpt lat="45.68537" lon="5.74402">
        <ele>321.94612153358</ele>
        <time>2015-05-17T13:51:10Z</time>
      </trkpt>
      <trkpt lat="45.68529" lon="5.744">
        <ele>321.94612153358</ele>
        <time>2015-05-17T13:51:15Z</time>
      </trkpt>
      <trkpt lat="45.68524" lon="5.74404">
        <ele>323.02046379543</ele>
        <time>2015-05-17T13:51:20Z</time>
      </trkpt>
      <trkpt lat="45.68517" lon="5.74404">
        <ele>323.02046379543</ele>
        <time>2015-05-17T13:51:25Z</time>
      </trkpt>
      <trkpt lat="45.68508" lon="5.74403">
        <ele>324.38349877816</ele>
        <time>2015-05-17T13:51:30Z</time>
      </trkpt>
      <trkpt lat="45.68502" lon="5.74404">
        <ele>324.38349877816</ele>
        <time>2015-05-17T13:51:35Z</time>
      </trkpt>
      <trkpt lat="45.68495" lon="5.74404">
        <ele>325.84052499862</ele>
        <time>2015-05-17T13:51:40Z</time>
      </trkpt>
      <trkpt lat="45.68487" lon="5.74404">
        <ele>325.84052499862</ele>
        <time>2015-05-17T13:51:45Z</time>
      </trkpt>
      <trkpt lat="45.6848" lon="5.74406">
        <ele>326.8794169011</ele>
        <time>2015-05-17T13:51:50Z</time>
      </trkpt>
      <trkpt lat="45.68472" lon="5.74405">
        <ele>326.8794169011</ele>
        <time>2015-05-17T13:51:55Z</time>
      </trkpt>
      <trkpt lat="45.68465" lon="5.74406">
        <ele>327.76180275104</ele>
        <time>2015-05-17T13:52:00Z</time>
      </trkpt>
      <trkpt lat="45.68458" lon="5.74407">
        <ele>327.76180275104</ele>
        <time>2015-05-17T13:52:05Z</time>
      </trkpt>
      <trkpt lat="45.68454" lon="5.74406">
        <ele>328.55759096986</ele>
        <time>2015-05-17T13:52:10Z</time>
      </trkpt>
      <trkpt lat="45.68449" lon="5.74406">
        <ele>328.55759096986</ele>
        <time>2015-05-17T13:52:15Z</time>
      </trkpt>
      <trkpt lat="45.68442" lon="5.74406">
        <ele>327.91949811797</ele>
        <time>2015-05-17T13:52:20Z</time>
      </trkpt>
      <trkpt lat="45.68422" lon="5.744">
        <ele>327.22604088607</ele>
        <time>2015-05-17T13:52:25Z</time>
      </trkpt>
      <trkpt lat="45.68397" lon="5.74392">
        <ele>326.78905651269</ele>
        <time>2015-05-17T13:52:30Z</time>
      </trkpt>
      <trkpt lat="45.6837" lon="5.74378">
        <ele>326.70937583384</ele>
        <time>2015-05-17T13:52:35Z</time>
      </trkpt>
      <trkpt lat="45.68348" lon="5.74364">
        <ele>326.87761986884</ele>
        <time>2015-05-17T13:52:40Z</time>
      </trkpt>
      <trkpt lat="45.68325" lon="5.74348">
        <ele>327.22051926679</ele>
        <time>2015-05-17T13:52:45Z</time>
      </trkpt>
      <trkpt lat="45.68315" lon="5.74336">
        <ele>327.43906229849</ele>
        <time>2015-05-17T13:52:50Z</time>
      </trkpt>
      <trkpt lat="45.68303" lon="5.74318">
        <ele>328.20762595285</ele>
        <time>2015-05-17T13:52:55Z</time>
      </trkpt>
      <trkpt lat="45.68293" lon="5.74301">
        <ele>328.95332245183</ele>
        <time>2015-05-17T13:53:00Z</time>
      </trkpt>
      <trkpt lat="45.68275" lon="5.7428">
        <ele>328.55449522657</ele>
        <time>2015-05-17T13:53:05Z</time>
      </trkpt>
      <trkpt lat="45.68257" lon="5.74259">
        <ele>327.76200954681</ele>
        <time>2015-05-17T13:53:10Z</time>
      </trkpt>
      <trkpt lat="45.68249" lon="5.74247">
        <ele>327.1717316073</ele>
        <time>2015-05-17T13:53:15Z</time>
      </trkpt>
      <trkpt lat="45.68244" lon="5.7424">
        <ele>327.1717316073</ele>
        <time>2015-05-17T13:53:20Z</time>
      </trkpt>
      <trkpt lat="45.68238" lon="5.74235">
        <ele>327.27747141695</ele>
        <time>2015-05-17T13:53:25Z</time>
      </trkpt>
      <trkpt lat="45.68233" lon="5.74231">
        <ele>327.27747141695</ele>
        <time>2015-05-17T13:53:30Z</time>
      </trkpt>
      <trkpt lat="45.68231" lon="5.74223">
        <ele>327.81417847829</ele>
        <time>2015-05-17T13:53:35Z</time>
      </trkpt>
      <trkpt lat="45.68225" lon="5.74216">
        <ele>327.81417847829</ele>
        <time>2015-05-17T13:53:40Z</time>
      </trkpt>
      <trkpt lat="45.68217" lon="5.74203">
        <ele>327.7567830873</ele>
        <time>2015-05-17T13:53:45Z</time>
      </trkpt>
      <trkpt lat="45.68213" lon="5.74196">
        <ele>327.7567830873</ele>
        <time>2015-05-17T13:53:50Z</time>
      </trkpt>
      <trkpt lat="45.68208" lon="5.74186">
        <ele>327.7567358833</ele>
        <time>2015-05-17T13:53:55Z</time>
      </trkpt>
      <trkpt lat="45.68201" lon="5.74176">
        <ele>328.1724020184</ele>
        <time>2015-05-17T13:54:00Z</time>
      </trkpt>
      <trkpt lat="45.6819" lon="5.74169">
        <ele>329.52192191758</ele>
        <time>2015-05-17T13:54:05Z</time>
      </trkpt>
      <trkpt lat="45.6818" lon="5.74163">
        <ele>330.72627951554</ele>
        <time>2015-05-17T13:54:10Z</time>
      </trkpt>
      <trkpt lat="45.68176" lon="5.7416">
        <ele>330.72627951554</ele>
        <time>2015-05-17T13:54:15Z</time>
      </trkpt>
      <trkpt lat="45.68169" lon="5.74156">
        <ele>332.74597571852</ele>
        <time>2015-05-17T13:54:20Z</time>
      </trkpt>
      <trkpt lat="45.68162" lon="5.7415">
        <ele>332.74597571852</ele>
        <time>2015-05-17T13:54:25Z</time>
      </trkpt>
      <trkpt lat="45.68156" lon="5.74146">
        <ele>334.86897725028</ele>
        <time>2015-05-17T13:54:30Z</time>
      </trkpt>
      <trkpt lat="45.68151" lon="5.74141">
        <ele>334.86897725028</ele>
        <time>2015-05-17T13:54:35Z</time>
      </trkpt>
      <trkpt lat="45.68147" lon="5.74139">
        <ele>337.0116691403</ele>
        <time>2015-05-17T13:54:40Z</time>
      </trkpt>
      <trkpt lat="45.68143" lon="5.74134">
        <ele>337.0116691403</ele>
        <time>2015-05-17T13:54:45Z</time>
      </trkpt>
      <trkpt lat="45.6814" lon="5.7413">
        <ele>339.6441185007</ele>
        <time>2015-05-17T13:54:50Z</time>
      </trkpt>
      <trkpt lat="45.68132" lon="5.74125">
        <ele>339.6441185007</ele>
        <time>2015-05-17T13:54:55Z</time>
      </trkpt>
      <trkpt lat="45.68124" lon="5.74114">
        <ele>341.759363351</ele>
        <time>2015-05-17T13:55:00Z</time>
      </trkpt>
      <trkpt lat="45.68119" lon="5.74111">
        <ele>341.759363351</ele>
        <time>2015-05-17T13:55:05Z</time>
      </trkpt>
      <trkpt lat="45.68114" lon="5.74106">
        <ele>344.41460000023</ele>
        <time>2015-05-17T13:55:10Z</time>
      </trkpt>
      <trkpt lat="45.68105" lon="5.74099">
        <ele>347.37733269201</ele>
        <time>2015-05-17T13:55:15Z</time>
      </trkpt>
      <trkpt lat="45.68095" lon="5.74089">
        <ele>350.47454832063</ele>
        <time>2015-05-17T13:55:20Z</time>
      </trkpt>
      <trkpt lat="45.68088" lon="5.74084">
        <ele>350.47454832063</ele>
        <time>2015-05-17T13:55:25Z</time>
      </trkpt>
      <trkpt lat="45.68085" lon="5.74082">
        <ele>353.67531434907</ele>
        <time>2015-05-17T13:55:30Z</time>
      </trkpt>
      <trkpt lat="45.68083" lon="5.74081">
        <ele>353.67531434907</ele>
        <time>2015-05-17T13:55:35Z</time>
      </trkpt>
      <trkpt lat="45.68076" lon="5.74075">
        <ele>356.70575496506</ele>
        <time>2015-05-17T13:55:40Z</time>
      </trkpt>
      <trkpt lat="45.68068" lon="5.74069">
        <ele>360.06204832806</ele>
        <time>2015-05-17T13:55:45Z</time>
      </trkpt>
      <trkpt lat="45.68059" lon="5.7406">
        <ele>362.93492424436</ele>
        <time>2015-05-17T13:55:50Z</time>
      </trkpt>
      <trkpt lat="45.68054" lon="5.74054">
        <ele>362.93492424436</ele>
        <time>2015-05-17T13:55:55Z</time>
      </trkpt>
      <trkpt lat="45.68054" lon="5.74051">
        <ele>362.93492424436</ele>
        <time>2015-05-17T13:56:00Z</time>
      </trkpt>
      <trkpt lat="45.68055" lon="5.7405">
        <ele>365.31098837355</ele>
        <time>2015-05-17T13:56:05Z</time>
      </trkpt>
      <trkpt lat="45.68055" lon="5.7405">
        <ele>365.31098837355</ele>
        <time>2015-05-17T13:56:10Z</time>
      </trkpt>
      <trkpt lat="45.68055" lon="5.7405">
        <ele>365.31098837355</ele>
        <time>2015-05-17T13:56:15Z</time>
      </trkpt>
      <trkpt lat="45.68055" lon="5.7405">
        <ele>365.31098837355</ele>
        <time>2015-05-17T13:56:20Z</time>
      </trkpt>
      <trkpt lat="45.68055" lon="5.7405">
        <ele>365.31098837355</ele>
        <time>2015-05-17T13:56:25Z</time>
      </trkpt>
      <trkpt lat="45.68055" lon="5.74049">
        <ele>365.31098837355</ele>
        <time>2015-05-17T13:56:30Z</time>
      </trkpt>
      <trkpt lat="45.68055" lon="5.74048">
        <ele>365.31098837355</ele>
        <time>2015-05-17T13:56:35Z</time>
      </trkpt>
      <trkpt lat="45.68051" lon="5.74046">
        <ele>365.31098837355</ele>
        <time>2015-05-17T13:56:40Z</time>
      </trkpt>
      <trkpt lat="45.68049" lon="5.74042">
        <ele>365.31098837355</ele>
        <time>2015-05-17T13:56:45Z</time>
      </trkpt>
      <trkpt lat="45.68048" lon="5.74042">
        <ele>368.07282704834</ele>
        <time>2015-05-17T13:56:50Z</time>
      </trkpt>
      <trkpt lat="45.68047" lon="5.74042">
        <ele>368.07282704834</ele>
        <time>2015-05-17T13:56:55Z</time>
      </trkpt>
      <trkpt lat="45.68047" lon="5.74042">
        <ele>368.07282704834</ele>
        <time>2015-05-17T13:57:00Z</time>
      </trkpt>
      <trkpt lat="45.68047" lon="5.74042">
        <ele>368.07282704834</ele>
        <time>2015-05-17T13:57:05Z</time>
      </trkpt>
      <trkpt lat="45.68047" lon="5.74042">
        <ele>368.07282704834</ele>
        <time>2015-05-17T13:57:10Z</time>
      </trkpt>
      <trkpt lat="45.68047" lon="5.74042">
        <ele>368.07282704834</ele>
        <time>2015-05-17T13:57:15Z</time>
      </trkpt>
      <trkpt lat="45.68047" lon="5.74042">
        <ele>368.07282704834</ele>
        <time>2015-05-17T13:57:20Z</time>
      </trkpt>
      <trkpt lat="45.68047" lon="5.74041">
        <ele>368.07282704834</ele>
        <time>2015-05-17T13:57:25Z</time>
      </trkpt>
      <trkpt lat="45.68046" lon="5.74039">
        <ele>368.07282704834</ele>
        <time>2015-05-17T13:57:30Z</time>
      </trkpt>
      <trkpt lat="45.68047" lon="5.74037">
        <ele>368.07282704834</ele>
        <time>2015-05-17T13:57:35Z</time>
      </trkpt>
      <trkpt lat="45.68047" lon="5.74035">
        <ele>368.07282704834</ele>
        <time>2015-05-17T13:57:40Z</time>
      </trkpt>
      <trkpt lat="45.68048" lon="5.74026">
        <ele>370.10614045262</ele>
        <time>2015-05-17T13:57:45Z</time>
      </trkpt>
      <trkpt lat="45.68045" lon="5.74018">
        <ele>370.10614045262</ele>
        <time>2015-05-17T13:57:50Z</time>
      </trkpt>
      <trkpt lat="45.6804" lon="5.74013">
        <ele>370.8418052576</ele>
        <time>2015-05-17T13:57:55Z</time>
      </trkpt>
      <trkpt lat="45.68029" lon="5.74004">
        <ele>370.69298579013</ele>
        <time>2015-05-17T13:58:00Z</time>
      </trkpt>
      <trkpt lat="45.68018" lon="5.73995">
        <ele>370.41977420728</ele>
        <time>2015-05-17T13:58:05Z</time>
      </trkpt>
      <trkpt lat="45.68011" lon="5.7399">
        <ele>370.41977420728</ele>
        <time>2015-05-17T13:58:10Z</time>
      </trkpt>
      <trkpt lat="45.68" lon="5.73982">
        <ele>369.54515729273</ele>
        <time>2015-05-17T13:58:15Z</time>
      </trkpt>
      <trkpt lat="45.67967" lon="5.73968">
        <ele>369.56001547731</ele>
        <time>2015-05-17T13:58:20Z</time>
      </trkpt>
      <trkpt lat="45.67945" lon="5.73963">
        <ele>370.04188399808</ele>
        <time>2015-05-17T13:58:25Z</time>
      </trkpt>
      <trkpt lat="45.67923" lon="5.73952">
        <ele>370.19455423788</ele>
        <time>2015-05-17T13:58:30Z</time>
      </trkpt>
      <trkpt lat="45.67908" lon="5.7394">
        <ele>372.12025384375</ele>
        <time>2015-05-17T13:58:35Z</time>
      </trkpt>
      <trkpt lat="45.67894" lon="5.73924">
        <ele>374.53374742079</ele>
        <time>2015-05-17T13:58:40Z</time>
      </trkpt>
      <trkpt lat="45.67889" lon="5.73917">
        <ele>374.53374742079</ele>
        <time>2015-05-17T13:58:45Z</time>
      </trkpt>
      <trkpt lat="45.67886" lon="5.73912">
        <ele>377.06430714652</ele>
        <time>2015-05-17T13:58:50Z</time>
      </trkpt>
      <trkpt lat="45.67883" lon="5.73901">
        <ele>377.06430714652</ele>
        <time>2015-05-17T13:58:55Z</time>
      </trkpt>
      <trkpt lat="45.67878" lon="5.73878">
        <ele>379.8437116765</ele>
        <time>2015-05-17T13:59:00Z</time>
      </trkpt>
      <trkpt lat="45.67875" lon="5.73866">
        <ele>379.8437116765</ele>
        <time>2015-05-17T13:59:05Z</time>
      </trkpt>
      <trkpt lat="45.67869" lon="5.73857">
        <ele>383.1375162179</ele>
        <time>2015-05-17T13:59:10Z</time>
      </trkpt>
      <trkpt lat="45.67862" lon="5.73848">
        <ele>383.1375162179</ele>
        <time>2015-05-17T13:59:15Z</time>
      </trkpt>
      <trkpt lat="45.67855" lon="5.73841">
        <ele>387.29125909111</ele>
        <time>2015-05-17T13:59:20Z</time>
      </trkpt>
      <trkpt lat="45.67846" lon="5.73838">
        <ele>392.01748696029</ele>
        <time>2015-05-17T13:59:25Z</time>
      </trkpt>
      <trkpt lat="45.67837" lon="5.73836">
        <ele>392.01748696029</ele>
        <time>2015-05-17T13:59:30Z</time>
      </trkpt>
      <trkpt lat="45.67827" lon="5.7383">
        <ele>397.01952291976</ele>
        <time>2015-05-17T13:59:35Z</time>
      </trkpt>
      <trkpt lat="45.67823" lon="5.7382">
        <ele>397.01952291976</ele>
        <time>2015-05-17T13:59:40Z</time>
      </trkpt>
      <trkpt lat="45.67822" lon="5.73813">
        <ele>402.20916356118</ele>
        <time>2015-05-17T13:59:45Z</time>
      </trkpt>
      <trkpt lat="45.67822" lon="5.73807">
        <ele>402.20916356118</ele>
        <time>2015-05-17T13:59:50Z</time>
      </trkpt>
      <trkpt lat="45.67821" lon="5.738">
        <ele>406.32257584545</ele>
        <time>2015-05-17T13:59:55Z</time>
      </trkpt>
      <trkpt lat="45.67818" lon="5.73791">
        <ele>406.32257584545</ele>
        <time>2015-05-17T14:00:00Z</time>
      </trkpt>
      <trkpt lat="45.67814" lon="5.73787">
        <ele>410.90122411679</ele>
        <time>2015-05-17T14:00:05Z</time>
      </trkpt>
      <trkpt lat="45.67813" lon="5.73787">
        <ele>410.90122411679</ele>
        <time>2015-05-17T14:00:10Z</time>
      </trkpt>
      <trkpt lat="45.67812" lon="5.73786">
        <ele>410.90122411679</ele>
        <time>2015-05-17T14:00:15Z</time>
      </trkpt>
      <trkpt lat="45.67808" lon="5.73782">
        <ele>410.90122411679</ele>
        <time>2015-05-17T14:00:20Z</time>
      </trkpt>
      <trkpt lat="45.67805" lon="5.73781">
        <ele>414.76378334644</ele>
        <time>2015-05-17T14:00:25Z</time>
      </trkpt>
      <trkpt lat="45.67804" lon="5.73781">
        <ele>414.76378334644</ele>
        <time>2015-05-17T14:00:30Z</time>
      </trkpt>
      <trkpt lat="45.67803" lon="5.73781">
        <ele>414.76378334644</ele>
        <time>2015-05-17T14:00:35Z</time>
      </trkpt>
      <trkpt lat="45.67802" lon="5.73782">
        <ele>414.76378334644</ele>
        <time>2015-05-17T14:00:40Z</time>
      </trkpt>
      <trkpt lat="45.67804" lon="5.73781">
        <ele>414.76378334644</ele>
        <time>2015-05-17T14:00:45Z</time>
      </trkpt>
      <trkpt lat="45.67802" lon="5.73781">
        <ele>414.76378334644</ele>
        <time>2015-05-17T14:00:50Z</time>
      </trkpt>
      <trkpt lat="45.67799" lon="5.7378">
        <ele>419.10925961811</ele>
        <time>2015-05-17T14:00:55Z</time>
      </trkpt>
      <trkpt lat="45.678" lon="5.7378">
        <ele>419.10925961811</ele>
        <time>2015-05-17T14:01:00Z</time>
      </trkpt>
      <trkpt lat="45.678" lon="5.7378">
        <ele>419.10925961811</ele>
        <time>2015-05-17T14:01:05Z</time>
      </trkpt>
      <trkpt lat="45.67799" lon="5.7378">
        <ele>419.10925961811</ele>
        <time>2015-05-17T14:01:10Z</time>
      </trkpt>
      <trkpt lat="45.67797" lon="5.73778">
        <ele>419.10925961811</ele>
        <time>2015-05-17T14:01:15Z</time>
      </trkpt>
      <trkpt lat="45.67786" lon="5.73773">
        <ele>422.19400752135</ele>
        <time>2015-05-17T14:01:20Z</time>
      </trkpt>
      <trkpt lat="45.67775" lon="5.73766">
        <ele>425.50458333287</ele>
        <time>2015-05-17T14:01:25Z</time>
      </trkpt>
      <trkpt lat="45.67768" lon="5.7376">
        <ele>425.50458333287</ele>
        <time>2015-05-17T14:01:30Z</time>
      </trkpt>
      <trkpt lat="45.67763" lon="5.73752">
        <ele>429.03443103015</ele>
        <time>2015-05-17T14:01:35Z</time>
      </trkpt>
      <trkpt lat="45.67756" lon="5.73735">
        <ele>432.54647353008</ele>
        <time>2015-05-17T14:01:40Z</time>
      </trkpt>
      <trkpt lat="45.67761" lon="5.73697">
        <ele>435.43218725388</ele>
        <time>2015-05-17T14:01:45Z</time>
      </trkpt>
      <trkpt lat="45.67761" lon="5.73679">
        <ele>438.18170418273</ele>
        <time>2015-05-17T14:01:50Z</time>
      </trkpt>
      <trkpt lat="45.6776" lon="5.73667">
        <ele>438.18170418273</ele>
        <time>2015-05-17T14:01:55Z</time>
      </trkpt>
      <trkpt lat="45.67759" lon="5.73655">
        <ele>440.65885804542</ele>
        <time>2015-05-17T14:02:00Z</time>
      </trkpt>
      <trkpt lat="45.67759" lon="5.73644">
        <ele>440.65885804542</ele>
        <time>2015-05-17T14:02:05Z</time>
      </trkpt>
      <trkpt lat="45.67758" lon="5.73632">
        <ele>443.32927866435</ele>
        <time>2015-05-17T14:02:10Z</time>
      </trkpt>
      <trkpt lat="45.67752" lon="5.73623">
        <ele>443.32927866435</ele>
        <time>2015-05-17T14:02:15Z</time>
      </trkpt>
      <trkpt lat="45.67745" lon="5.73615">
        <ele>445.8169913618</ele>
        <time>2015-05-17T14:02:20Z</time>
      </trkpt>
      <trkpt lat="45.67737" lon="5.73611">
        <ele>445.8169913618</ele>
        <time>2015-05-17T14:02:25Z</time>
      </trkpt>
      <trkpt lat="45.67713" lon="5.736">
        <ele>448.32193155489</ele>
        <time>2015-05-17T14:02:30Z</time>
      </trkpt>
      <trkpt lat="45.6769" lon="5.7359">
        <ele>450.53946796552</ele>
        <time>2015-05-17T14:02:35Z</time>
      </trkpt>
      <trkpt lat="45.67667" lon="5.73582">
        <ele>452.36122338365</ele>
        <time>2015-05-17T14:02:40Z</time>
      </trkpt>
      <trkpt lat="45.67643" lon="5.73573">
        <ele>453.68801641315</ele>
        <time>2015-05-17T14:02:45Z</time>
      </trkpt>
      <trkpt lat="45.67616" lon="5.73553">
        <ele>454.87619490996</ele>
        <time>2015-05-17T14:02:50Z</time>
      </trkpt>
      <trkpt lat="45.67594" lon="5.73529">
        <ele>455.83849046817</ele>
        <time>2015-05-17T14:02:55Z</time>
      </trkpt>
      <trkpt lat="45.67581" lon="5.73507">
        <ele>456.81180086659</ele>
        <time>2015-05-17T14:03:00Z</time>
      </trkpt>
      <trkpt lat="45.67578" lon="5.73499">
        <ele>456.81180086659</ele>
        <time>2015-05-17T14:03:05Z</time>
      </trkpt>
      <trkpt lat="45.67575" lon="5.73491">
        <ele>457.28068261652</ele>
        <time>2015-05-17T14:03:10Z</time>
      </trkpt>
      <trkpt lat="45.67571" lon="5.73482">
        <ele>457.28068261652</ele>
        <time>2015-05-17T14:03:15Z</time>
      </trkpt>
      <trkpt lat="45.67567" lon="5.73476">
        <ele>457.31663372336</ele>
        <time>2015-05-17T14:03:20Z</time>
      </trkpt>
      <trkpt lat="45.67563" lon="5.73471">
        <ele>457.31663372336</ele>
        <time>2015-05-17T14:03:25Z</time>
      </trkpt>
      <trkpt lat="45.67556" lon="5.73466">
        <ele>457.01595624854</ele>
        <time>2015-05-17T14:03:30Z</time>
      </trkpt>
      <trkpt lat="45.67549" lon="5.7346">
        <ele>457.01595624854</ele>
        <time>2015-05-17T14:03:35Z</time>
      </trkpt>
      <trkpt lat="45.67541" lon="5.73455">
        <ele>456.20941971659</ele>
        <time>2015-05-17T14:03:40Z</time>
      </trkpt>
      <trkpt lat="45.67533" lon="5.7345">
        <ele>455.43335222637</ele>
        <time>2015-05-17T14:03:45Z</time>
      </trkpt>
      <trkpt lat="45.67525" lon="5.73441">
        <ele>454.70898200975</ele>
        <time>2015-05-17T14:03:50Z</time>
      </trkpt>
      <trkpt lat="45.67518" lon="5.73435">
        <ele>454.70898200975</ele>
        <time>2015-05-17T14:03:55Z</time>
      </trkpt>
      <trkpt lat="45.67513" lon="5.73428">
        <ele>453.55137091944</ele>
        <time>2015-05-17T14:04:00Z</time>
      </trkpt>
      <trkpt lat="45.67507" lon="5.7342">
        <ele>453.55137091944</ele>
        <time>2015-05-17T14:04:05Z</time>
      </trkpt>
      <trkpt lat="45.67502" lon="5.73414">
        <ele>452.60756909086</ele>
        <time>2015-05-17T14:04:10Z</time>
      </trkpt>
      <trkpt lat="45.67495" lon="5.73408">
        <ele>452.60756909086</ele>
        <time>2015-05-17T14:04:15Z</time>
      </trkpt>
      <trkpt lat="45.67489" lon="5.73402">
        <ele>451.42436695257</ele>
        <time>2015-05-17T14:04:20Z</time>
      </trkpt>
      <trkpt lat="45.67483" lon="5.73398">
        <ele>451.42436695257</ele>
        <time>2015-05-17T14:04:25Z</time>
      </trkpt>
      <trkpt lat="45.67477" lon="5.73393">
        <ele>450.05794914023</ele>
        <time>2015-05-17T14:04:30Z</time>
      </trkpt>
      <trkpt lat="45.67472" lon="5.73385">
        <ele>450.05794914023</ele>
        <time>2015-05-17T14:04:35Z</time>
      </trkpt>
      <trkpt lat="45.67468" lon="5.73373">
        <ele>448.94983162232</ele>
        <time>2015-05-17T14:04:40Z</time>
      </trkpt>
      <trkpt lat="45.67469" lon="5.73359">
        <ele>447.65794347589</ele>
        <time>2015-05-17T14:04:45Z</time>
      </trkpt>
      <trkpt lat="45.67472" lon="5.7334">
        <ele>446.79620475984</ele>
        <time>2015-05-17T14:04:50Z</time>
      </trkpt>
      <trkpt lat="45.67475" lon="5.7333">
        <ele>446.79620475984</ele>
        <time>2015-05-17T14:04:55Z</time>
      </trkpt>
      <trkpt lat="45.67479" lon="5.73324">
        <ele>446.05295160854</ele>
        <time>2015-05-17T14:05:00Z</time>
      </trkpt>
      <trkpt lat="45.67484" lon="5.73318">
        <ele>446.05295160854</ele>
        <time>2015-05-17T14:05:05Z</time>
      </trkpt>
      <trkpt lat="45.67488" lon="5.73313">
        <ele>445.80178353735</ele>
        <time>2015-05-17T14:05:10Z</time>
      </trkpt>
      <trkpt lat="45.67494" lon="5.73311">
        <ele>445.80178353735</ele>
        <time>2015-05-17T14:05:15Z</time>
      </trkpt>
      <trkpt lat="45.67502" lon="5.73304">
        <ele>445.36406889167</ele>
        <time>2015-05-17T14:05:20Z</time>
      </trkpt>
      <trkpt lat="45.67506" lon="5.73295">
        <ele>445.36406889167</ele>
        <time>2015-05-17T14:05:25Z</time>
      </trkpt>
      <trkpt lat="45.67507" lon="5.73288">
        <ele>445.14893091742</ele>
        <time>2015-05-17T14:05:30Z</time>
      </trkpt>
      <trkpt lat="45.67508" lon="5.73288">
        <ele>445.14893091742</ele>
        <time>2015-05-17T14:05:35Z</time>
      </trkpt>
      <trkpt lat="45.67509" lon="5.73288">
        <ele>445.14893091742</ele>
        <time>2015-05-17T14:05:40Z</time>
      </trkpt>
      <trkpt lat="45.67515" lon="5.73289">
        <ele>445.14893091742</ele>
        <time>2015-05-17T14:05:45Z</time>
      </trkpt>
      <trkpt lat="45.67521" lon="5.73283">
        <ele>445.13108123964</ele>
        <time>2015-05-17T14:05:50Z</time>
      </trkpt>
      <trkpt lat="45.67525" lon="5.73276">
        <ele>445.13108123964</ele>
        <time>2015-05-17T14:05:55Z</time>
      </trkpt>
      <trkpt lat="45.67529" lon="5.7327">
        <ele>445.38719246668</ele>
        <time>2015-05-17T14:06:00Z</time>
      </trkpt>
      <trkpt lat="45.67532" lon="5.7326">
        <ele>445.38719246668</ele>
        <time>2015-05-17T14:06:05Z</time>
      </trkpt>
      <trkpt lat="45.67533" lon="5.73249">
        <ele>446.07378525618</ele>
        <time>2015-05-17T14:06:10Z</time>
      </trkpt>
      <trkpt lat="45.67533" lon="5.73237">
        <ele>446.07378525618</ele>
        <time>2015-05-17T14:06:15Z</time>
      </trkpt>
      <trkpt lat="45.67528" lon="5.73228">
        <ele>446.91654033916</ele>
        <time>2015-05-17T14:06:20Z</time>
      </trkpt>
      <trkpt lat="45.6752" lon="5.73225">
        <ele>446.91654033916</ele>
        <time>2015-05-17T14:06:25Z</time>
      </trkpt>
      <trkpt lat="45.67513" lon="5.73222">
        <ele>447.83358111988</ele>
        <time>2015-05-17T14:06:30Z</time>
      </trkpt>
      <trkpt lat="45.67506" lon="5.73218">
        <ele>447.83358111988</ele>
        <time>2015-05-17T14:06:35Z</time>
      </trkpt>
      <trkpt lat="45.67498" lon="5.73216">
        <ele>448.86393204836</ele>
        <time>2015-05-17T14:06:40Z</time>
      </trkpt>
      <trkpt lat="45.67491" lon="5.73214">
        <ele>448.86393204836</ele>
        <time>2015-05-17T14:06:45Z</time>
      </trkpt>
      <trkpt lat="45.67483" lon="5.73212">
        <ele>449.97119435467</ele>
        <time>2015-05-17T14:06:50Z</time>
      </trkpt>
      <trkpt lat="45.67476" lon="5.73209">
        <ele>449.97119435467</ele>
        <time>2015-05-17T14:06:55Z</time>
      </trkpt>
      <trkpt lat="45.67469" lon="5.73206">
        <ele>451.26536723216</ele>
        <time>2015-05-17T14:07:00Z</time>
      </trkpt>
      <trkpt lat="45.67462" lon="5.73206">
        <ele>451.26536723216</ele>
        <time>2015-05-17T14:07:05Z</time>
      </trkpt>
      <trkpt lat="45.67454" lon="5.73204">
        <ele>452.31447417493</ele>
        <time>2015-05-17T14:07:10Z</time>
      </trkpt>
      <trkpt lat="45.67445" lon="5.732">
        <ele>452.31447417493</ele>
        <time>2015-05-17T14:07:15Z</time>
      </trkpt>
      <trkpt lat="45.67437" lon="5.73197">
        <ele>453.48260038279</ele>
        <time>2015-05-17T14:07:20Z</time>
      </trkpt>
      <trkpt lat="45.67428" lon="5.73193">
        <ele>453.48260038279</ele>
        <time>2015-05-17T14:07:25Z</time>
      </trkpt>
      <trkpt lat="45.67422" lon="5.73192">
        <ele>454.90486033924</ele>
        <time>2015-05-17T14:07:30Z</time>
      </trkpt>
      <trkpt lat="45.67415" lon="5.7319">
        <ele>454.90486033924</ele>
        <time>2015-05-17T14:07:35Z</time>
      </trkpt>
      <trkpt lat="45.67408" lon="5.73187">
        <ele>456.34532841115</ele>
        <time>2015-05-17T14:07:40Z</time>
      </trkpt>
      <trkpt lat="45.674" lon="5.73184">
        <ele>456.34532841115</ele>
        <time>2015-05-17T14:07:45Z</time>
      </trkpt>
      <trkpt lat="45.67393" lon="5.73179">
        <ele>457.61406871582</ele>
        <time>2015-05-17T14:07:50Z</time>
      </trkpt>
      <trkpt lat="45.67387" lon="5.73176">
        <ele>457.61406871582</ele>
        <time>2015-05-17T14:07:55Z</time>
      </trkpt>
      <trkpt lat="45.67378" lon="5.7317">
        <ele>459.08310154195</ele>
        <time>2015-05-17T14:08:00Z</time>
      </trkpt>
      <trkpt lat="45.67371" lon="5.73165">
        <ele>459.08310154195</ele>
        <time>2015-05-17T14:08:05Z</time>
      </trkpt>
      <trkpt lat="45.67365" lon="5.73159">
        <ele>460.54884536043</ele>
        <time>2015-05-17T14:08:10Z</time>
      </trkpt>
      <trkpt lat="45.6736" lon="5.73153">
        <ele>460.54884536043</ele>
        <time>2015-05-17T14:08:15Z</time>
      </trkpt>
      <trkpt lat="45.67355" lon="5.73146">
        <ele>461.69290408324</ele>
        <time>2015-05-17T14:08:20Z</time>
      </trkpt>
      <trkpt lat="45.6735" lon="5.73138">
        <ele>461.69290408324</ele>
        <time>2015-05-17T14:08:25Z</time>
      </trkpt>
      <trkpt lat="45.67345" lon="5.73129">
        <ele>462.75431526214</ele>
        <time>2015-05-17T14:08:30Z</time>
      </trkpt>
      <trkpt lat="45.67338" lon="5.73123">
        <ele>462.75431526214</ele>
        <time>2015-05-17T14:08:35Z</time>
      </trkpt>
      <trkpt lat="45.67331" lon="5.73116">
        <ele>463.92590582391</ele>
        <time>2015-05-17T14:08:40Z</time>
      </trkpt>
      <trkpt lat="45.67325" lon="5.73112">
        <ele>463.92590582391</ele>
        <time>2015-05-17T14:08:45Z</time>
      </trkpt>
      <trkpt lat="45.67318" lon="5.73109">
        <ele>464.79511912685</ele>
        <time>2015-05-17T14:08:50Z</time>
      </trkpt>
      <trkpt lat="45.67312" lon="5.7311">
        <ele>464.79511912685</ele>
        <time>2015-05-17T14:08:55Z</time>
      </trkpt>
      <trkpt lat="45.67303" lon="5.73114">
        <ele>465.75870546078</ele>
        <time>2015-05-17T14:09:00Z</time>
      </trkpt>
      <trkpt lat="45.67295" lon="5.73118">
        <ele>465.75870546078</ele>
        <time>2015-05-17T14:09:05Z</time>
      </trkpt>
      <trkpt lat="45.67288" lon="5.73123">
        <ele>466.30488394986</ele>
        <time>2015-05-17T14:09:10Z</time>
      </trkpt>
      <trkpt lat="45.67281" lon="5.73129">
        <ele>466.30488394986</ele>
        <time>2015-05-17T14:09:15Z</time>
      </trkpt>
      <trkpt lat="45.67273" lon="5.73131">
        <ele>466.86850040664</ele>
        <time>2015-05-17T14:09:20Z</time>
      </trkpt>
      <trkpt lat="45.67265" lon="5.73134">
        <ele>466.86850040664</ele>
        <time>2015-05-17T14:09:25Z</time>
      </trkpt>
      <trkpt lat="45.67257" lon="5.73135">
        <ele>467.62179325642</ele>
        <time>2015-05-17T14:09:30Z</time>
      </trkpt>
      <trkpt lat="45.67249" lon="5.73134">
        <ele>467.62179325642</ele>
        <time>2015-05-17T14:09:35Z</time>
      </trkpt>
      <trkpt lat="45.67241" lon="5.73133">
        <ele>467.98881373486</ele>
        <time>2015-05-17T14:09:40Z</time>
      </trkpt>
      <trkpt lat="45.67233" lon="5.73132">
        <ele>467.98881373486</ele>
        <time>2015-05-17T14:09:45Z</time>
      </trkpt>
      <trkpt lat="45.67225" lon="5.73132">
        <ele>468.31604879167</ele>
        <time>2015-05-17T14:09:50Z</time>
      </trkpt>
      <trkpt lat="45.67217" lon="5.73132">
        <ele>468.31604879167</ele>
        <time>2015-05-17T14:09:55Z</time>
      </trkpt>
      <trkpt lat="45.67208" lon="5.73133">
        <ele>468.78049880772</ele>
        <time>2015-05-17T14:10:00Z</time>
      </trkpt>
      <trkpt lat="45.67199" lon="5.73133">
        <ele>468.78049880772</ele>
        <time>2015-05-17T14:10:05Z</time>
      </trkpt>
      <trkpt lat="45.67191" lon="5.73131">
        <ele>468.56578572586</ele>
        <time>2015-05-17T14:10:10Z</time>
      </trkpt>
      <trkpt lat="45.67184" lon="5.73131">
        <ele>468.56578572586</ele>
        <time>2015-05-17T14:10:15Z</time>
      </trkpt>
      <trkpt lat="45.67178" lon="5.73129">
        <ele>469.13668348795</ele>
        <time>2015-05-17T14:10:20Z</time>
      </trkpt>
      <trkpt lat="45.67171" lon="5.73123">
        <ele>469.13668348795</ele>
        <time>2015-05-17T14:10:25Z</time>
      </trkpt>
      <trkpt lat="45.67165" lon="5.73116">
        <ele>469.35500046556</ele>
        <time>2015-05-17T14:10:30Z</time>
      </trkpt>
      <trkpt lat="45.67158" lon="5.7311">
        <ele>469.35500046556</ele>
        <time>2015-05-17T14:10:35Z</time>
      </trkpt>
      <trkpt lat="45.67149" lon="5.73103">
        <ele>469.59380747279</ele>
        <time>2015-05-17T14:10:40Z</time>
      </trkpt>
      <trkpt lat="45.67141" lon="5.73097">
        <ele>469.89603999104</ele>
        <time>2015-05-17T14:10:45Z</time>
      </trkpt>
      <trkpt lat="45.67137" lon="5.73096">
        <ele>469.89603999104</ele>
        <time>2015-05-17T14:10:50Z</time>
      </trkpt>
      <trkpt lat="45.67137" lon="5.73095">
        <ele>469.89603999104</ele>
        <time>2015-05-17T14:10:55Z</time>
      </trkpt>
      <trkpt lat="45.67138" lon="5.73096">
        <ele>469.89603999104</ele>
        <time>2015-05-17T14:11:00Z</time>
      </trkpt>
      <trkpt lat="45.67138" lon="5.73097">
        <ele>469.89603999104</ele>
        <time>2015-05-17T14:11:05Z</time>
      </trkpt>
      <trkpt lat="45.67138" lon="5.73097">
        <ele>469.89603999104</ele>
        <time>2015-05-17T14:11:10Z</time>
      </trkpt>
      <trkpt lat="45.67138" lon="5.73097">
        <ele>469.89603999104</ele>
        <time>2015-05-17T14:11:15Z</time>
      </trkpt>
      <trkpt lat="45.67137" lon="5.73097">
        <ele>469.89603999104</ele>
        <time>2015-05-17T14:11:20Z</time>
      </trkpt>
      <trkpt lat="45.67137" lon="5.73098">
        <ele>469.89603999104</ele>
        <time>2015-05-17T14:11:25Z</time>
      </trkpt>
      <trkpt lat="45.67137" lon="5.73099">
        <ele>470.54625222134</ele>
        <time>2015-05-17T14:11:30Z</time>
      </trkpt>
      <trkpt lat="45.67138" lon="5.73102">
        <ele>470.54625222134</ele>
        <time>2015-05-17T14:11:35Z</time>
      </trkpt>
      <trkpt lat="45.67136" lon="5.73114">
        <ele>471.00005855411</ele>
        <time>2015-05-17T14:11:40Z</time>
      </trkpt>
      <trkpt lat="45.67131" lon="5.73124">
        <ele>471.37325567372</ele>
        <time>2015-05-17T14:11:45Z</time>
      </trkpt>
      <trkpt lat="45.67126" lon="5.73133">
        <ele>471.37325567372</ele>
        <time>2015-05-17T14:11:50Z</time>
      </trkpt>
      <trkpt lat="45.67122" lon="5.73141">
        <ele>471.81655783595</ele>
        <time>2015-05-17T14:11:55Z</time>
      </trkpt>
      <trkpt lat="45.67116" lon="5.73147">
        <ele>471.81655783595</ele>
        <time>2015-05-17T14:12:00Z</time>
      </trkpt>
      <trkpt lat="45.6711" lon="5.73156">
        <ele>472.05145435202</ele>
        <time>2015-05-17T14:12:05Z</time>
      </trkpt>
      <trkpt lat="45.67104" lon="5.73165">
        <ele>472.05145435202</ele>
        <time>2015-05-17T14:12:10Z</time>
      </trkpt>
      <trkpt lat="45.67099" lon="5.73174">
        <ele>472.16631098072</ele>
        <time>2015-05-17T14:12:15Z</time>
      </trkpt>
      <trkpt lat="45.67095" lon="5.73181">
        <ele>472.16631098072</ele>
        <time>2015-05-17T14:12:20Z</time>
      </trkpt>
      <trkpt lat="45.67092" lon="5.73188">
        <ele>472.60358299994</ele>
        <time>2015-05-17T14:12:25Z</time>
      </trkpt>
      <trkpt lat="45.67087" lon="5.73195">
        <ele>472.60358299994</ele>
        <time>2015-05-17T14:12:30Z</time>
      </trkpt>
      <trkpt lat="45.67084" lon="5.73203">
        <ele>472.76350653134</ele>
        <time>2015-05-17T14:12:35Z</time>
      </trkpt>
      <trkpt lat="45.67081" lon="5.73212">
        <ele>472.76350653134</ele>
        <time>2015-05-17T14:12:40Z</time>
      </trkpt>
      <trkpt lat="45.67078" lon="5.73222">
        <ele>472.91255337401</ele>
        <time>2015-05-17T14:12:45Z</time>
      </trkpt>
      <trkpt lat="45.67075" lon="5.73231">
        <ele>472.91255337401</ele>
        <time>2015-05-17T14:12:50Z</time>
      </trkpt>
      <trkpt lat="45.67072" lon="5.7324">
        <ele>473.02380509664</ele>
        <time>2015-05-17T14:12:55Z</time>
      </trkpt>
      <trkpt lat="45.67069" lon="5.73249">
        <ele>473.02380509664</ele>
        <time>2015-05-17T14:13:00Z</time>
      </trkpt>
      <trkpt lat="45.67065" lon="5.7326">
        <ele>473.02915810461</ele>
        <time>2015-05-17T14:13:05Z</time>
      </trkpt>
      <trkpt lat="45.67061" lon="5.7327">
        <ele>473.02915810461</ele>
        <time>2015-05-17T14:13:10Z</time>
      </trkpt>
      <trkpt lat="45.67058" lon="5.7328">
        <ele>472.80812756405</ele>
        <time>2015-05-17T14:13:15Z</time>
      </trkpt>
      <trkpt lat="45.67055" lon="5.73291">
        <ele>472.80812756405</ele>
        <time>2015-05-17T14:13:20Z</time>
      </trkpt>
      <trkpt lat="45.67053" lon="5.73301">
        <ele>471.91821907508</ele>
        <time>2015-05-17T14:13:25Z</time>
      </trkpt>
      <trkpt lat="45.67052" lon="5.73312">
        <ele>471.91821907508</ele>
        <time>2015-05-17T14:13:30Z</time>
      </trkpt>
      <trkpt lat="45.67051" lon="5.73322">
        <ele>470.48448640846</ele>
        <time>2015-05-17T14:13:35Z</time>
      </trkpt>
      <trkpt lat="45.6705" lon="5.73333">
        <ele>470.48448640846</ele>
        <time>2015-05-17T14:13:40Z</time>
      </trkpt>
      <trkpt lat="45.67048" lon="5.73345">
        <ele>469.48893799316</ele>
        <time>2015-05-17T14:13:45Z</time>
      </trkpt>
      <trkpt lat="45.67046" lon="5.73359">
        <ele>468.70167771704</ele>
        <time>2015-05-17T14:13:50Z</time>
      </trkpt>
      <trkpt lat="45.67042" lon="5.73369">
        <ele>468.70167771704</ele>
        <time>2015-05-17T14:13:55Z</time>
      </trkpt>
      <trkpt lat="45.6704" lon="5.73385">
        <ele>468.38461371566</ele>
        <time>2015-05-17T14:14:00Z</time>
      </trkpt>
      <trkpt lat="45.67045" lon="5.73413">
        <ele>468.08729050794</ele>
        <time>2015-05-17T14:14:05Z</time>
      </trkpt>
      <trkpt lat="45.67052" lon="5.73432">
        <ele>467.27692381232</ele>
        <time>2015-05-17T14:14:10Z</time>
      </trkpt>
      <trkpt lat="45.67055" lon="5.73447">
        <ele>466.39795211433</ele>
        <time>2015-05-17T14:14:15Z</time>
      </trkpt>
      <trkpt lat="45.6706" lon="5.73454">
        <ele>466.39795211433</ele>
        <time>2015-05-17T14:14:20Z</time>
      </trkpt>
      <trkpt lat="45.67065" lon="5.73461">
        <ele>466.35225806396</ele>
        <time>2015-05-17T14:14:25Z</time>
      </trkpt>
      <trkpt lat="45.67069" lon="5.7347">
        <ele>466.35225806396</ele>
        <time>2015-05-17T14:14:30Z</time>
      </trkpt>
      <trkpt lat="45.67072" lon="5.7348">
        <ele>466.40224463219</ele>
        <time>2015-05-17T14:14:35Z</time>
      </trkpt>
      <trkpt lat="45.67075" lon="5.73492">
        <ele>466.42618547253</ele>
        <time>2015-05-17T14:14:40Z</time>
      </trkpt>
      <trkpt lat="45.67078" lon="5.73503">
        <ele>466.42618547253</ele>
        <time>2015-05-17T14:14:45Z</time>
      </trkpt>
      <trkpt lat="45.6708" lon="5.73512">
        <ele>466.49863857048</ele>
        <time>2015-05-17T14:14:50Z</time>
      </trkpt>
      <trkpt lat="45.67081" lon="5.73521">
        <ele>466.49863857048</ele>
        <time>2015-05-17T14:14:55Z</time>
      </trkpt>
      <trkpt lat="45.67081" lon="5.7353">
        <ele>466.71730018385</ele>
        <time>2015-05-17T14:15:00Z</time>
      </trkpt>
      <trkpt lat="45.67084" lon="5.73538">
        <ele>466.71730018385</ele>
        <time>2015-05-17T14:15:05Z</time>
      </trkpt>
      <trkpt lat="45.67083" lon="5.73537">
        <ele>466.71730018385</ele>
        <time>2015-05-17T14:15:10Z</time>
      </trkpt>
      <trkpt lat="45.67075" lon="5.73531">
        <ele>467.46043663558</ele>
        <time>2015-05-17T14:15:15Z</time>
      </trkpt>
      <trkpt lat="45.6707" lon="5.7352">
        <ele>468.47173021631</ele>
        <time>2015-05-17T14:15:20Z</time>
      </trkpt>
      <trkpt lat="45.67069" lon="5.73518">
        <ele>468.47173021631</ele>
        <time>2015-05-17T14:15:25Z</time>
      </trkpt>
      <trkpt lat="45.67065" lon="5.73513">
        <ele>468.47173021631</ele>
        <time>2015-05-17T14:15:30Z</time>
      </trkpt>
      <trkpt lat="45.67054" lon="5.73498">
        <ele>469.39760046955</ele>
        <time>2015-05-17T14:15:35Z</time>
      </trkpt>
      <trkpt lat="45.67048" lon="5.73487">
        <ele>470.6311955727</ele>
        <time>2015-05-17T14:15:40Z</time>
      </trkpt>
      <trkpt lat="45.67042" lon="5.73481">
        <ele>470.6311955727</ele>
        <time>2015-05-17T14:15:45Z</time>
      </trkpt>
      <trkpt lat="45.67037" lon="5.73473">
        <ele>471.4838778928</ele>
        <time>2015-05-17T14:15:50Z</time>
      </trkpt>
      <trkpt lat="45.67032" lon="5.73466">
        <ele>471.4838778928</ele>
        <time>2015-05-17T14:15:55Z</time>
      </trkpt>
      <trkpt lat="45.67028" lon="5.73458">
        <ele>472.32742252258</ele>
        <time>2015-05-17T14:16:00Z</time>
      </trkpt>
      <trkpt lat="45.67022" lon="5.73451">
        <ele>472.32742252258</ele>
        <time>2015-05-17T14:16:05Z</time>
      </trkpt>
      <trkpt lat="45.67013" lon="5.73443">
        <ele>473.5639527313</ele>
        <time>2015-05-17T14:16:10Z</time>
      </trkpt>
      <trkpt lat="45.67007" lon="5.73436">
        <ele>473.5639527313</ele>
        <time>2015-05-17T14:16:15Z</time>
      </trkpt>
      <trkpt lat="45.67002" lon="5.73431">
        <ele>475.00291373758</ele>
        <time>2015-05-17T14:16:20Z</time>
      </trkpt>
      <trkpt lat="45.66996" lon="5.73424">
        <ele>475.00291373758</ele>
        <time>2015-05-17T14:16:25Z</time>
      </trkpt>
      <trkpt lat="45.6699" lon="5.73415">
        <ele>476.07808689094</ele>
        <time>2015-05-17T14:16:30Z</time>
      </trkpt>
      <trkpt lat="45.66982" lon="5.7341">
        <ele>476.07808689094</ele>
        <time>2015-05-17T14:16:35Z</time>
      </trkpt>
      <trkpt lat="45.66976" lon="5.73402">
        <ele>477.30348341442</ele>
        <time>2015-05-17T14:16:40Z</time>
      </trkpt>
      <trkpt lat="45.66968" lon="5.73395">
        <ele>477.30348341442</ele>
        <time>2015-05-17T14:16:45Z</time>
      </trkpt>
      <trkpt lat="45.66964" lon="5.73388">
        <ele>478.65056854588</ele>
        <time>2015-05-17T14:16:50Z</time>
      </trkpt>
      <trkpt lat="45.66958" lon="5.73383">
        <ele>478.65056854588</ele>
        <time>2015-05-17T14:16:55Z</time>
      </trkpt>
      <trkpt lat="45.66954" lon="5.73381">
        <ele>479.99171587237</ele>
        <time>2015-05-17T14:17:00Z</time>
      </trkpt>
      <trkpt lat="45.66949" lon="5.73374">
        <ele>479.99171587237</ele>
        <time>2015-05-17T14:17:05Z</time>
      </trkpt>
      <trkpt lat="45.66942" lon="5.73364">
        <ele>481.51136341081</ele>
        <time>2015-05-17T14:17:10Z</time>
      </trkpt>
      <trkpt lat="45.66933" lon="5.73358">
        <ele>482.67380089779</ele>
        <time>2015-05-17T14:17:15Z</time>
      </trkpt>
      <trkpt lat="45.66925" lon="5.7335">
        <ele>484.15102629844</ele>
        <time>2015-05-17T14:17:20Z</time>
      </trkpt>
      <trkpt lat="45.66919" lon="5.73346">
        <ele>484.15102629844</ele>
        <time>2015-05-17T14:17:25Z</time>
      </trkpt>
      <trkpt lat="45.66913" lon="5.73346">
        <ele>485.31108117146</ele>
        <time>2015-05-17T14:17:30Z</time>
      </trkpt>
      <trkpt lat="45.66908" lon="5.73343">
        <ele>485.31108117146</ele>
        <time>2015-05-17T14:17:35Z</time>
      </trkpt>
      <trkpt lat="45.66898" lon="5.73333">
        <ele>485.72790430586</ele>
        <time>2015-05-17T14:17:40Z</time>
      </trkpt>
      <trkpt lat="45.66888" lon="5.73326">
        <ele>485.8591365037</ele>
        <time>2015-05-17T14:17:45Z</time>
      </trkpt>
      <trkpt lat="45.66881" lon="5.73322">
        <ele>485.8591365037</ele>
        <time>2015-05-17T14:17:50Z</time>
      </trkpt>
      <trkpt lat="45.66873" lon="5.73318">
        <ele>486.34583067631</ele>
        <time>2015-05-17T14:17:55Z</time>
      </trkpt>
      <trkpt lat="45.66867" lon="5.73315">
        <ele>486.34583067631</ele>
        <time>2015-05-17T14:18:00Z</time>
      </trkpt>
      <trkpt lat="45.6686" lon="5.73311">
        <ele>486.2966645799</ele>
        <time>2015-05-17T14:18:05Z</time>
      </trkpt>
      <trkpt lat="45.66856" lon="5.73306">
        <ele>486.2966645799</ele>
        <time>2015-05-17T14:18:10Z</time>
      </trkpt>
      <trkpt lat="45.66854" lon="5.73305">
        <ele>486.2966645799</ele>
        <time>2015-05-17T14:18:15Z</time>
      </trkpt>
      <trkpt lat="45.6685" lon="5.73298">
        <ele>486.67432757358</ele>
        <time>2015-05-17T14:18:20Z</time>
      </trkpt>
      <trkpt lat="45.6684" lon="5.7329">
        <ele>486.62589651975</ele>
        <time>2015-05-17T14:18:25Z</time>
      </trkpt>
      <trkpt lat="45.66831" lon="5.73287">
        <ele>486.90433216398</ele>
        <time>2015-05-17T14:18:30Z</time>
      </trkpt>
      <trkpt lat="45.66834" lon="5.73297">
        <ele>486.90433216398</ele>
        <time>2015-05-17T14:18:35Z</time>
      </trkpt>
      <trkpt lat="45.6684" lon="5.73311">
        <ele>487.06792684497</ele>
        <time>2015-05-17T14:18:40Z</time>
      </trkpt>
      <trkpt lat="45.66842" lon="5.73318">
        <ele>487.06792684497</ele>
        <time>2015-05-17T14:18:45Z</time>
      </trkpt>
      <trkpt lat="45.66843" lon="5.73326">
        <ele>487.15452143634</ele>
        <time>2015-05-17T14:18:50Z</time>
      </trkpt>
      <trkpt lat="45.66846" lon="5.73332">
        <ele>487.15452143634</ele>
        <time>2015-05-17T14:18:55Z</time>
      </trkpt>
      <trkpt lat="45.6685" lon="5.73341">
        <ele>487.73263472824</ele>
        <time>2015-05-17T14:19:00Z</time>
      </trkpt>
      <trkpt lat="45.66853" lon="5.7335">
        <ele>487.73263472824</ele>
        <time>2015-05-17T14:19:05Z</time>
      </trkpt>
      <trkpt lat="45.66856" lon="5.7336">
        <ele>488.20360378015</ele>
        <time>2015-05-17T14:19:10Z</time>
      </trkpt>
      <trkpt lat="45.66855" lon="5.73368">
        <ele>488.20360378015</ele>
        <time>2015-05-17T14:19:15Z</time>
      </trkpt>
      <trkpt lat="45.66851" lon="5.73377">
        <ele>488.94979161926</ele>
        <time>2015-05-17T14:19:20Z</time>
      </trkpt>
      <trkpt lat="45.66848" lon="5.73384">
        <ele>488.94979161926</ele>
        <time>2015-05-17T14:19:25Z</time>
      </trkpt>
      <trkpt lat="45.66841" lon="5.73392">
        <ele>490.13738187605</ele>
        <time>2015-05-17T14:19:30Z</time>
      </trkpt>
      <trkpt lat="45.66835" lon="5.734">
        <ele>490.13738187605</ele>
        <time>2015-05-17T14:19:35Z</time>
      </trkpt>
      <trkpt lat="45.6683" lon="5.73405">
        <ele>491.87590663051</ele>
        <time>2015-05-17T14:19:40Z</time>
      </trkpt>
      <trkpt lat="45.66823" lon="5.73408">
        <ele>491.87590663051</ele>
        <time>2015-05-17T14:19:45Z</time>
      </trkpt>
      <trkpt lat="45.66817" lon="5.73411">
        <ele>494.10681689579</ele>
        <time>2015-05-17T14:19:50Z</time>
      </trkpt>
      <trkpt lat="45.6681" lon="5.73414">
        <ele>494.10681689579</ele>
        <time>2015-05-17T14:19:55Z</time>
      </trkpt>
      <trkpt lat="45.66803" lon="5.73418">
        <ele>496.32777930781</ele>
        <time>2015-05-17T14:20:00Z</time>
      </trkpt>
      <trkpt lat="45.66797" lon="5.7342">
        <ele>496.32777930781</ele>
        <time>2015-05-17T14:20:05Z</time>
      </trkpt>
      <trkpt lat="45.66792" lon="5.73415">
        <ele>497.81403832843</ele>
        <time>2015-05-17T14:20:10Z</time>
      </trkpt>
      <trkpt lat="45.66786" lon="5.73414">
        <ele>497.81403832843</ele>
        <time>2015-05-17T14:20:15Z</time>
      </trkpt>
      <trkpt lat="45.6678" lon="5.73413">
        <ele>499.19319710547</ele>
        <time>2015-05-17T14:20:20Z</time>
      </trkpt>
      <trkpt lat="45.66774" lon="5.73413">
        <ele>499.19319710547</ele>
        <time>2015-05-17T14:20:25Z</time>
      </trkpt>
      <trkpt lat="45.66768" lon="5.73411">
        <ele>500.06716238707</ele>
        <time>2015-05-17T14:20:30Z</time>
      </trkpt>
      <trkpt lat="45.66761" lon="5.7341">
        <ele>500.06716238707</ele>
        <time>2015-05-17T14:20:35Z</time>
      </trkpt>
      <trkpt lat="45.66754" lon="5.73408">
        <ele>501.13498969875</ele>
        <time>2015-05-17T14:20:40Z</time>
      </trkpt>
      <trkpt lat="45.66744" lon="5.73401">
        <ele>502.09277024798</ele>
        <time>2015-05-17T14:20:45Z</time>
      </trkpt>
      <trkpt lat="45.66735" lon="5.73391">
        <ele>503.25014955845</ele>
        <time>2015-05-17T14:20:50Z</time>
      </trkpt>
      <trkpt lat="45.66725" lon="5.73378">
        <ele>504.36031932114</ele>
        <time>2015-05-17T14:20:55Z</time>
      </trkpt>
      <trkpt lat="45.66716" lon="5.73368">
        <ele>505.71359768975</ele>
        <time>2015-05-17T14:21:00Z</time>
      </trkpt>
      <trkpt lat="45.6671" lon="5.73359">
        <ele>505.71359768975</ele>
        <time>2015-05-17T14:21:05Z</time>
      </trkpt>
      <trkpt lat="45.66705" lon="5.73351">
        <ele>507.56394735789</ele>
        <time>2015-05-17T14:21:10Z</time>
      </trkpt>
      <trkpt lat="45.66697" lon="5.73341">
        <ele>509.39596869156</ele>
        <time>2015-05-17T14:21:15Z</time>
      </trkpt>
      <trkpt lat="45.6669" lon="5.73334">
        <ele>509.39596869156</ele>
        <time>2015-05-17T14:21:20Z</time>
      </trkpt>
      <trkpt lat="45.66684" lon="5.73324">
        <ele>511.55367770955</ele>
        <time>2015-05-17T14:21:25Z</time>
      </trkpt>
      <trkpt lat="45.66677" lon="5.73314">
        <ele>514.0523470973</ele>
        <time>2015-05-17T14:21:30Z</time>
      </trkpt>
      <trkpt lat="45.6667" lon="5.73308">
        <ele>514.0523470973</ele>
        <time>2015-05-17T14:21:35Z</time>
      </trkpt>
      <trkpt lat="45.66654" lon="5.73298">
        <ele>516.45850780635</ele>
        <time>2015-05-17T14:21:40Z</time>
      </trkpt>
      <trkpt lat="45.66628" lon="5.73283">
        <ele>518.3708799166</ele>
        <time>2015-05-17T14:21:45Z</time>
      </trkpt>
      <trkpt lat="45.66603" lon="5.73273">
        <ele>520.427917654</ele>
        <time>2015-05-17T14:21:50Z</time>
      </trkpt>
      <trkpt lat="45.66573" lon="5.73259">
        <ele>522.28414345798</ele>
        <time>2015-05-17T14:21:55Z</time>
      </trkpt>
      <trkpt lat="45.66547" lon="5.73248">
        <ele>524.21097712295</ele>
        <time>2015-05-17T14:22:00Z</time>
      </trkpt>
      <trkpt lat="45.66513" lon="5.7324">
        <ele>526.44539246598</ele>
        <time>2015-05-17T14:22:05Z</time>
      </trkpt>
      <trkpt lat="45.66476" lon="5.73244">
        <ele>528.12536112919</ele>
        <time>2015-05-17T14:22:10Z</time>
      </trkpt>
      <trkpt lat="45.66445" lon="5.73253">
        <ele>530.38492748341</ele>
        <time>2015-05-17T14:22:15Z</time>
      </trkpt>
      <trkpt lat="45.66415" lon="5.73255">
        <ele>533.8121548009</ele>
        <time>2015-05-17T14:22:20Z</time>
      </trkpt>
      <trkpt lat="45.66396" lon="5.73272">
        <ele>537.70938823279</ele>
        <time>2015-05-17T14:22:25Z</time>
      </trkpt>
      <trkpt lat="45.6639" lon="5.73282">
        <ele>537.70938823279</ele>
        <time>2015-05-17T14:22:30Z</time>
      </trkpt>
      <trkpt lat="45.66383" lon="5.7329">
        <ele>542.12075875053</ele>
        <time>2015-05-17T14:22:35Z</time>
      </trkpt>
      <trkpt lat="45.66379" lon="5.73295">
        <ele>542.12075875053</ele>
        <time>2015-05-17T14:22:40Z</time>
      </trkpt>
      <trkpt lat="45.66375" lon="5.73303">
        <ele>547.34524890615</ele>
        <time>2015-05-17T14:22:45Z</time>
      </trkpt>
      <trkpt lat="45.6637" lon="5.73313">
        <ele>547.34524890615</ele>
        <time>2015-05-17T14:22:50Z</time>
      </trkpt>
      <trkpt lat="45.66359" lon="5.73327">
        <ele>552.82190581162</ele>
        <time>2015-05-17T14:22:55Z</time>
      </trkpt>
      <trkpt lat="45.66326" lon="5.73322">
        <ele>557.82869312208</ele>
        <time>2015-05-17T14:23:00Z</time>
      </trkpt>
      <trkpt lat="45.66301" lon="5.73321">
        <ele>562.08722324683</ele>
        <time>2015-05-17T14:23:05Z</time>
      </trkpt>
      <trkpt lat="45.66274" lon="5.7332">
        <ele>566.3938750924</ele>
        <time>2015-05-17T14:23:10Z</time>
      </trkpt>
      <trkpt lat="45.66253" lon="5.7333">
        <ele>570.33371849825</ele>
        <time>2015-05-17T14:23:15Z</time>
      </trkpt>
      <trkpt lat="45.66246" lon="5.73356">
        <ele>573.95588962219</ele>
        <time>2015-05-17T14:23:20Z</time>
      </trkpt>
      <trkpt lat="45.66239" lon="5.73372">
        <ele>577.43673259214</ele>
        <time>2015-05-17T14:23:25Z</time>
      </trkpt>
      <trkpt lat="45.66228" lon="5.73374">
        <ele>580.86820502794</ele>
        <time>2015-05-17T14:23:30Z</time>
      </trkpt>
      <trkpt lat="45.6622" lon="5.73371">
        <ele>580.86820502794</ele>
        <time>2015-05-17T14:23:35Z</time>
      </trkpt>
      <trkpt lat="45.66209" lon="5.73367">
        <ele>584.16293926613</ele>
        <time>2015-05-17T14:23:40Z</time>
      </trkpt>
      <trkpt lat="45.66201" lon="5.73369">
        <ele>584.16293926613</ele>
        <time>2015-05-17T14:23:45Z</time>
      </trkpt>
      <trkpt lat="45.66195" lon="5.73372">
        <ele>586.6497332926</ele>
        <time>2015-05-17T14:23:50Z</time>
      </trkpt>
      <trkpt lat="45.66189" lon="5.73374">
        <ele>586.6497332926</ele>
        <time>2015-05-17T14:23:55Z</time>
      </trkpt>
      <trkpt lat="45.66184" lon="5.73376">
        <ele>588.86205957471</ele>
        <time>2015-05-17T14:24:00Z</time>
      </trkpt>
      <trkpt lat="45.66177" lon="5.73377">
        <ele>588.86205957471</ele>
        <time>2015-05-17T14:24:05Z</time>
      </trkpt>
      <trkpt lat="45.66169" lon="5.73377">
        <ele>590.7907851418</ele>
        <time>2015-05-17T14:24:10Z</time>
      </trkpt>
      <trkpt lat="45.66165" lon="5.73367">
        <ele>590.7907851418</ele>
        <time>2015-05-17T14:24:15Z</time>
      </trkpt>
      <trkpt lat="45.66164" lon="5.73354">
        <ele>592.61577725368</ele>
        <time>2015-05-17T14:24:20Z</time>
      </trkpt>
      <trkpt lat="45.66164" lon="5.73342">
        <ele>592.61577725368</ele>
        <time>2015-05-17T14:24:25Z</time>
      </trkpt>
      <trkpt lat="45.66162" lon="5.73333">
        <ele>594.30239960957</ele>
        <time>2015-05-17T14:24:30Z</time>
      </trkpt>
      <trkpt lat="45.66158" lon="5.73324">
        <ele>594.30239960957</ele>
        <time>2015-05-17T14:24:35Z</time>
      </trkpt>
      <trkpt lat="45.6615" lon="5.73317">
        <ele>595.51647226193</ele>
        <time>2015-05-17T14:24:40Z</time>
      </trkpt>
      <trkpt lat="45.66146" lon="5.73311">
        <ele>595.51647226193</ele>
        <time>2015-05-17T14:24:45Z</time>
      </trkpt>
      <trkpt lat="45.66144" lon="5.73306">
        <ele>596.32451771638</ele>
        <time>2015-05-17T14:24:50Z</time>
      </trkpt>
      <trkpt lat="45.66142" lon="5.733">
        <ele>596.32451771638</ele>
        <time>2015-05-17T14:24:55Z</time>
      </trkpt>
      <trkpt lat="45.66142" lon="5.73298">
        <ele>596.32451771638</ele>
        <time>2015-05-17T14:25:00Z</time>
      </trkpt>
      <trkpt lat="45.66141" lon="5.73297">
        <ele>596.32451771638</ele>
        <time>2015-05-17T14:25:05Z</time>
      </trkpt>
      <trkpt lat="45.66141" lon="5.73298">
        <ele>596.32451771638</ele>
        <time>2015-05-17T14:25:10Z</time>
      </trkpt>
      <trkpt lat="45.66141" lon="5.73298">
        <ele>596.32451771638</ele>
        <time>2015-05-17T14:25:15Z</time>
      </trkpt>
      <trkpt lat="45.66141" lon="5.73298">
        <ele>596.32451771638</ele>
        <time>2015-05-17T14:25:20Z</time>
      </trkpt>
      <trkpt lat="45.66141" lon="5.73298">
        <ele>596.32451771638</ele>
        <time>2015-05-17T14:25:25Z</time>
      </trkpt>
      <trkpt lat="45.66141" lon="5.73298">
        <ele>596.32451771638</ele>
        <time>2015-05-17T14:25:30Z</time>
      </trkpt>
      <trkpt lat="45.66141" lon="5.73298">
        <ele>596.32451771638</ele>
        <time>2015-05-17T14:25:35Z</time>
      </trkpt>
      <trkpt lat="45.66141" lon="5.73297">
        <ele>596.32451771638</ele>
        <time>2015-05-17T14:25:40Z</time>
      </trkpt>
      <trkpt lat="45.66139" lon="5.73293">
        <ele>597.68292097978</ele>
        <time>2015-05-17T14:25:45Z</time>
      </trkpt>
      <trkpt lat="45.66135" lon="5.73288">
        <ele>597.68292097978</ele>
        <time>2015-05-17T14:25:50Z</time>
      </trkpt>
      <trkpt lat="45.66129" lon="5.73286">
        <ele>598.58851316415</ele>
        <time>2015-05-17T14:25:55Z</time>
      </trkpt>
      <trkpt lat="45.66122" lon="5.7329">
        <ele>598.58851316415</ele>
        <time>2015-05-17T14:26:00Z</time>
      </trkpt>
      <trkpt lat="45.66112" lon="5.73301">
        <ele>600.13072813046</ele>
        <time>2015-05-17T14:26:05Z</time>
      </trkpt>
      <trkpt lat="45.66104" lon="5.73307">
        <ele>600.13072813046</ele>
        <time>2015-05-17T14:26:10Z</time>
      </trkpt>
      <trkpt lat="45.66098" lon="5.73312">
        <ele>601.44380678653</ele>
        <time>2015-05-17T14:26:15Z</time>
      </trkpt>
      <trkpt lat="45.66092" lon="5.73319">
        <ele>601.44380678653</ele>
        <time>2015-05-17T14:26:20Z</time>
      </trkpt>
      <trkpt lat="45.66084" lon="5.73326">
        <ele>602.51889454669</ele>
        <time>2015-05-17T14:26:25Z</time>
      </trkpt>
      <trkpt lat="45.66075" lon="5.73333">
        <ele>603.59348174239</ele>
        <time>2015-05-17T14:26:30Z</time>
      </trkpt>
      <trkpt lat="45.66067" lon="5.73341">
        <ele>604.32560450916</ele>
        <time>2015-05-17T14:26:35Z</time>
      </trkpt>
      <trkpt lat="45.66061" lon="5.73348">
        <ele>604.32560450916</ele>
        <time>2015-05-17T14:26:40Z</time>
      </trkpt>
      <trkpt lat="45.66056" lon="5.73353">
        <ele>604.51467775089</ele>
        <time>2015-05-17T14:26:45Z</time>
      </trkpt>
      <trkpt lat="45.66051" lon="5.73359">
        <ele>604.51467775089</ele>
        <time>2015-05-17T14:26:50Z</time>
      </trkpt>
      <trkpt lat="45.66044" lon="5.73365">
        <ele>605.18690212698</ele>
        <time>2015-05-17T14:26:55Z</time>
      </trkpt>
      <trkpt lat="45.66038" lon="5.7337">
        <ele>605.18690212698</ele>
        <time>2015-05-17T14:27:00Z</time>
      </trkpt>
      <trkpt lat="45.66029" lon="5.73374">
        <ele>605.00034848833</ele>
        <time>2015-05-17T14:27:05Z</time>
      </trkpt>
      <trkpt lat="45.66018" lon="5.73365">
        <ele>604.15514503206</ele>
        <time>2015-05-17T14:27:10Z</time>
      </trkpt>
      <trkpt lat="45.6601" lon="5.73354">
        <ele>603.15555097105</ele>
        <time>2015-05-17T14:27:15Z</time>
      </trkpt>
      <trkpt lat="45.66005" lon="5.73346">
        <ele>603.15555097105</ele>
        <time>2015-05-17T14:27:20Z</time>
      </trkpt>
      <trkpt lat="45.66001" lon="5.73338">
        <ele>602.28179162828</ele>
        <time>2015-05-17T14:27:25Z</time>
      </trkpt>
      <trkpt lat="45.65999" lon="5.7333">
        <ele>602.28179162828</ele>
        <time>2015-05-17T14:27:30Z</time>
      </trkpt>
      <trkpt lat="45.65995" lon="5.73321">
        <ele>601.49042012278</ele>
        <time>2015-05-17T14:27:35Z</time>
      </trkpt>
      <trkpt lat="45.65989" lon="5.73312">
        <ele>601.49042012278</ele>
        <time>2015-05-17T14:27:40Z</time>
      </trkpt>
      <trkpt lat="45.65981" lon="5.73305">
        <ele>601.3172755944</ele>
        <time>2015-05-17T14:27:45Z</time>
      </trkpt>
      <trkpt lat="45.65973" lon="5.73301">
        <ele>601.3172755944</ele>
        <time>2015-05-17T14:27:50Z</time>
      </trkpt>
      <trkpt lat="45.65965" lon="5.73298">
        <ele>601.1473096359</ele>
        <time>2015-05-17T14:27:55Z</time>
      </trkpt>
      <trkpt lat="45.65958" lon="5.73295">
        <ele>601.1473096359</ele>
        <time>2015-05-17T14:28:00Z</time>
      </trkpt>
      <trkpt lat="45.6595" lon="5.73293">
        <ele>601.04458793552</ele>
        <time>2015-05-17T14:28:05Z</time>
      </trkpt>
      <trkpt lat="45.65944" lon="5.73288">
        <ele>601.04458793552</ele>
        <time>2015-05-17T14:28:10Z</time>
      </trkpt>
      <trkpt lat="45.6594" lon="5.73279">
        <ele>600.82313535334</ele>
        <time>2015-05-17T14:28:15Z</time>
      </trkpt>
      <trkpt lat="45.6594" lon="5.73269">
        <ele>600.82313535334</ele>
        <time>2015-05-17T14:28:20Z</time>
      </trkpt>
      <trkpt lat="45.65942" lon="5.7326">
        <ele>600.71431821601</ele>
        <time>2015-05-17T14:28:25Z</time>
      </trkpt>
      <trkpt lat="45.65942" lon="5.7325">
        <ele>600.71431821601</ele>
        <time>2015-05-17T14:28:30Z</time>
      </trkpt>
      <trkpt lat="45.65943" lon="5.73238">
        <ele>600.78790908611</ele>
        <time>2015-05-17T14:28:35Z</time>
      </trkpt>
      <trkpt lat="45.65942" lon="5.73226">
        <ele>600.78790908611</ele>
        <time>2015-05-17T14:28:40Z</time>
      </trkpt>
      <trkpt lat="45.6594" lon="5.73215">
        <ele>601.43932468997</ele>
        <time>2015-05-17T14:28:45Z</time>
      </trkpt>
      <trkpt lat="45.65936" lon="5.73205">
        <ele>601.43932468997</ele>
        <time>2015-05-17T14:28:50Z</time>
      </trkpt>
      <trkpt lat="45.65932" lon="5.73198">
        <ele>601.90907018762</ele>
        <time>2015-05-17T14:28:55Z</time>
      </trkpt>
      <trkpt lat="45.65928" lon="5.7319">
        <ele>601.90907018762</ele>
        <time>2015-05-17T14:29:00Z</time>
      </trkpt>
      <trkpt lat="45.65922" lon="5.73185">
        <ele>602.30079849379</ele>
        <time>2015-05-17T14:29:05Z</time>
      </trkpt>
      <trkpt lat="45.65917" lon="5.73177">
        <ele>602.30079849379</ele>
        <time>2015-05-17T14:29:10Z</time>
      </trkpt>
      <trkpt lat="45.65911" lon="5.73169">
        <ele>603.31586004132</ele>
        <time>2015-05-17T14:29:15Z</time>
      </trkpt>
      <trkpt lat="45.65907" lon="5.73161">
        <ele>603.31586004132</ele>
        <time>2015-05-17T14:29:20Z</time>
      </trkpt>
      <trkpt lat="45.65902" lon="5.73154">
        <ele>604.14664271095</ele>
        <time>2015-05-17T14:29:25Z</time>
      </trkpt>
      <trkpt lat="45.65894" lon="5.73148">
        <ele>604.14664271095</ele>
        <time>2015-05-17T14:29:30Z</time>
      </trkpt>
      <trkpt lat="45.65887" lon="5.73143">
        <ele>605.60161387575</ele>
        <time>2015-05-17T14:29:35Z</time>
      </trkpt>
      <trkpt lat="45.6588" lon="5.7314">
        <ele>605.60161387575</ele>
        <time>2015-05-17T14:29:40Z</time>
      </trkpt>
      <trkpt lat="45.65873" lon="5.73137">
        <ele>606.68419704231</ele>
        <time>2015-05-17T14:29:45Z</time>
      </trkpt>
      <trkpt lat="45.65867" lon="5.73136">
        <ele>606.68419704231</ele>
        <time>2015-05-17T14:29:50Z</time>
      </trkpt>
      <trkpt lat="45.6586" lon="5.7313">
        <ele>607.72568502816</ele>
        <time>2015-05-17T14:29:55Z</time>
      </trkpt>
      <trkpt lat="45.65853" lon="5.73126">
        <ele>607.72568502816</ele>
        <time>2015-05-17T14:30:00Z</time>
      </trkpt>
      <trkpt lat="45.65847" lon="5.73123">
        <ele>608.93212920802</ele>
        <time>2015-05-17T14:30:05Z</time>
      </trkpt>
      <trkpt lat="45.65837" lon="5.73117">
        <ele>610.47943707526</ele>
        <time>2015-05-17T14:30:10Z</time>
      </trkpt>
      <trkpt lat="45.65828" lon="5.73112">
        <ele>611.93865698307</ele>
        <time>2015-05-17T14:30:15Z</time>
      </trkpt>
      <trkpt lat="45.6582" lon="5.73109">
        <ele>611.93865698307</ele>
        <time>2015-05-17T14:30:20Z</time>
      </trkpt>
      <trkpt lat="45.65812" lon="5.73103">
        <ele>613.31599009589</ele>
        <time>2015-05-17T14:30:25Z</time>
      </trkpt>
      <trkpt lat="45.65808" lon="5.73099">
        <ele>613.31599009589</ele>
        <time>2015-05-17T14:30:30Z</time>
      </trkpt>
      <trkpt lat="45.65803" lon="5.73095">
        <ele>614.04085910638</ele>
        <time>2015-05-17T14:30:35Z</time>
      </trkpt>
      <trkpt lat="45.65797" lon="5.7309">
        <ele>614.04085910638</ele>
        <time>2015-05-17T14:30:40Z</time>
      </trkpt>
      <trkpt lat="45.65789" lon="5.73086">
        <ele>614.65275284914</ele>
        <time>2015-05-17T14:30:45Z</time>
      </trkpt>
      <trkpt lat="45.6578" lon="5.73083">
        <ele>614.65275284914</ele>
        <time>2015-05-17T14:30:50Z</time>
      </trkpt>
      <trkpt lat="45.65774" lon="5.73078">
        <ele>615.76704011934</ele>
        <time>2015-05-17T14:30:55Z</time>
      </trkpt>
      <trkpt lat="45.65766" lon="5.73071">
        <ele>615.76704011934</ele>
        <time>2015-05-17T14:31:00Z</time>
      </trkpt>
      <trkpt lat="45.65761" lon="5.73063">
        <ele>616.95801806473</ele>
        <time>2015-05-17T14:31:05Z</time>
      </trkpt>
      <trkpt lat="45.65755" lon="5.73054">
        <ele>616.95801806473</ele>
        <time>2015-05-17T14:31:10Z</time>
      </trkpt>
      <trkpt lat="45.65749" lon="5.73046">
        <ele>618.23446608117</ele>
        <time>2015-05-17T14:31:15Z</time>
      </trkpt>
      <trkpt lat="45.65745" lon="5.73041">
        <ele>618.23446608117</ele>
        <time>2015-05-17T14:31:20Z</time>
      </trkpt>
      <trkpt lat="45.65739" lon="5.73035">
        <ele>619.2006871588</ele>
        <time>2015-05-17T14:31:25Z</time>
      </trkpt>
      <trkpt lat="45.65734" lon="5.73029">
        <ele>619.2006871588</ele>
        <time>2015-05-17T14:31:30Z</time>
      </trkpt>
      <trkpt lat="45.65728" lon="5.73024">
        <ele>620.0240586128</ele>
        <time>2015-05-17T14:31:35Z</time>
      </trkpt>
      <trkpt lat="45.65723" lon="5.73018">
        <ele>620.0240586128</ele>
        <time>2015-05-17T14:31:40Z</time>
      </trkpt>
      <trkpt lat="45.65718" lon="5.73011">
        <ele>621.04733773396</ele>
        <time>2015-05-17T14:31:45Z</time>
      </trkpt>
      <trkpt lat="45.65711" lon="5.73003">
        <ele>621.04733773396</ele>
        <time>2015-05-17T14:31:50Z</time>
      </trkpt>
      <trkpt lat="45.65706" lon="5.72995">
        <ele>622.14073232911</ele>
        <time>2015-05-17T14:31:55Z</time>
      </trkpt>
      <trkpt lat="45.657" lon="5.72988">
        <ele>622.14073232911</ele>
        <time>2015-05-17T14:32:00Z</time>
      </trkpt>
      <trkpt lat="45.65695" lon="5.7298">
        <ele>623.22696015789</ele>
        <time>2015-05-17T14:32:05Z</time>
      </trkpt>
      <trkpt lat="45.6569" lon="5.72972">
        <ele>623.22696015789</ele>
        <time>2015-05-17T14:32:10Z</time>
      </trkpt>
      <trkpt lat="45.65685" lon="5.72965">
        <ele>624.20555697675</ele>
        <time>2015-05-17T14:32:15Z</time>
      </trkpt>
      <trkpt lat="45.65683" lon="5.72962">
        <ele>624.20555697675</ele>
        <time>2015-05-17T14:32:20Z</time>
      </trkpt>
      <trkpt lat="45.65676" lon="5.72954">
        <ele>625.38719944368</ele>
        <time>2015-05-17T14:32:25Z</time>
      </trkpt>
      <trkpt lat="45.65671" lon="5.72946">
        <ele>625.38719944368</ele>
        <time>2015-05-17T14:32:30Z</time>
      </trkpt>
      <trkpt lat="45.65666" lon="5.72937">
        <ele>626.67002474355</ele>
        <time>2015-05-17T14:32:35Z</time>
      </trkpt>
      <trkpt lat="45.65662" lon="5.72925">
        <ele>628.13225997263</ele>
        <time>2015-05-17T14:32:40Z</time>
      </trkpt>
      <trkpt lat="45.65657" lon="5.72915">
        <ele>628.13225997263</ele>
        <time>2015-05-17T14:32:45Z</time>
      </trkpt>
      <trkpt lat="45.65653" lon="5.72905">
        <ele>629.38468950608</ele>
        <time>2015-05-17T14:32:50Z</time>
      </trkpt>
      <trkpt lat="45.6565" lon="5.72895">
        <ele>629.38468950608</ele>
        <time>2015-05-17T14:32:55Z</time>
      </trkpt>
      <trkpt lat="45.65647" lon="5.72887">
        <ele>630.39870145799</ele>
        <time>2015-05-17T14:33:00Z</time>
      </trkpt>
      <trkpt lat="45.65643" lon="5.72877">
        <ele>630.39870145799</ele>
        <time>2015-05-17T14:33:05Z</time>
      </trkpt>
      <trkpt lat="45.6564" lon="5.72867">
        <ele>631.37900489519</ele>
        <time>2015-05-17T14:33:10Z</time>
      </trkpt>
      <trkpt lat="45.65635" lon="5.72856">
        <ele>631.37900489519</ele>
        <time>2015-05-17T14:33:15Z</time>
      </trkpt>
      <trkpt lat="45.65631" lon="5.72848">
        <ele>632.14065220238</ele>
        <time>2015-05-17T14:33:20Z</time>
      </trkpt>
      <trkpt lat="45.65626" lon="5.7284">
        <ele>632.14065220238</ele>
        <time>2015-05-17T14:33:25Z</time>
      </trkpt>
      <trkpt lat="45.65621" lon="5.72831">
        <ele>633.13255117897</ele>
        <time>2015-05-17T14:33:30Z</time>
      </trkpt>
      <trkpt lat="45.65616" lon="5.72823">
        <ele>633.13255117897</ele>
        <time>2015-05-17T14:33:35Z</time>
      </trkpt>
      <trkpt lat="45.6561" lon="5.72815">
        <ele>634.30881127275</ele>
        <time>2015-05-17T14:33:40Z</time>
      </trkpt>
      <trkpt lat="45.65605" lon="5.72808">
        <ele>634.30881127275</ele>
        <time>2015-05-17T14:33:45Z</time>
      </trkpt>
      <trkpt lat="45.65599" lon="5.728">
        <ele>635.78490054916</ele>
        <time>2015-05-17T14:33:50Z</time>
      </trkpt>
      <trkpt lat="45.65594" lon="5.72795">
        <ele>635.78490054916</ele>
        <time>2015-05-17T14:33:55Z</time>
      </trkpt>
      <trkpt lat="45.65587" lon="5.72789">
        <ele>636.97521549835</ele>
        <time>2015-05-17T14:34:00Z</time>
      </trkpt>
      <trkpt lat="45.65582" lon="5.72781">
        <ele>636.97521549835</ele>
        <time>2015-05-17T14:34:05Z</time>
      </trkpt>
      <trkpt lat="45.65577" lon="5.72773">
        <ele>638.13057274186</ele>
        <time>2015-05-17T14:34:10Z</time>
      </trkpt>
      <trkpt lat="45.65572" lon="5.72764">
        <ele>638.13057274186</ele>
        <time>2015-05-17T14:34:15Z</time>
      </trkpt>
      <trkpt lat="45.65568" lon="5.72755">
        <ele>639.31052128177</ele>
        <time>2015-05-17T14:34:20Z</time>
      </trkpt>
      <trkpt lat="45.65564" lon="5.72747">
        <ele>639.31052128177</ele>
        <time>2015-05-17T14:34:25Z</time>
      </trkpt>
      <trkpt lat="45.6556" lon="5.72738">
        <ele>640.59898483337</ele>
        <time>2015-05-17T14:34:30Z</time>
      </trkpt>
      <trkpt lat="45.65555" lon="5.72729">
        <ele>640.59898483337</ele>
        <time>2015-05-17T14:34:35Z</time>
      </trkpt>
      <trkpt lat="45.6555" lon="5.72721">
        <ele>641.62667138014</ele>
        <time>2015-05-17T14:34:40Z</time>
      </trkpt>
      <trkpt lat="45.65545" lon="5.72717">
        <ele>641.62667138014</ele>
        <time>2015-05-17T14:34:45Z</time>
      </trkpt>
      <trkpt lat="45.6554" lon="5.72713">
        <ele>642.39801516358</ele>
        <time>2015-05-17T14:34:50Z</time>
      </trkpt>
      <trkpt lat="45.65536" lon="5.72709">
        <ele>642.39801516358</ele>
        <time>2015-05-17T14:34:55Z</time>
      </trkpt>
      <trkpt lat="45.65529" lon="5.72701">
        <ele>643.01872217187</ele>
        <time>2015-05-17T14:35:00Z</time>
      </trkpt>
      <trkpt lat="45.65522" lon="5.72694">
        <ele>643.01872217187</ele>
        <time>2015-05-17T14:35:05Z</time>
      </trkpt>
      <trkpt lat="45.65517" lon="5.72686">
        <ele>643.45745552893</ele>
        <time>2015-05-17T14:35:10Z</time>
      </trkpt>
      <trkpt lat="45.6551" lon="5.72681">
        <ele>643.45745552893</ele>
        <time>2015-05-17T14:35:15Z</time>
      </trkpt>
      <trkpt lat="45.65504" lon="5.72677">
        <ele>643.35423171738</ele>
        <time>2015-05-17T14:35:20Z</time>
      </trkpt>
      <trkpt lat="45.65498" lon="5.72672">
        <ele>643.35423171738</ele>
        <time>2015-05-17T14:35:25Z</time>
      </trkpt>
      <trkpt lat="45.65492" lon="5.72667">
        <ele>643.06875695167</ele>
        <time>2015-05-17T14:35:30Z</time>
      </trkpt>
      <trkpt lat="45.65485" lon="5.72658">
        <ele>642.7330543101</ele>
        <time>2015-05-17T14:35:35Z</time>
      </trkpt>
      <trkpt lat="45.65478" lon="5.72652">
        <ele>642.7330543101</ele>
        <time>2015-05-17T14:35:40Z</time>
      </trkpt>
      <trkpt lat="45.65471" lon="5.72649">
        <ele>642.09487712224</ele>
        <time>2015-05-17T14:35:45Z</time>
      </trkpt>
      <trkpt lat="45.65465" lon="5.72646">
        <ele>642.09487712224</ele>
        <time>2015-05-17T14:35:50Z</time>
      </trkpt>
      <trkpt lat="45.6546" lon="5.72639">
        <ele>641.15190197222</ele>
        <time>2015-05-17T14:35:55Z</time>
      </trkpt>
      <trkpt lat="45.65454" lon="5.72634">
        <ele>641.15190197222</ele>
        <time>2015-05-17T14:36:00Z</time>
      </trkpt>
      <trkpt lat="45.65448" lon="5.72627">
        <ele>640.45041069985</ele>
        <time>2015-05-17T14:36:05Z</time>
      </trkpt>
      <trkpt lat="45.65441" lon="5.72615">
        <ele>640.22201491324</ele>
        <time>2015-05-17T14:36:10Z</time>
      </trkpt>
      <trkpt lat="45.65434" lon="5.72608">
        <ele>640.22201491324</ele>
        <time>2015-05-17T14:36:15Z</time>
      </trkpt>
      <trkpt lat="45.65425" lon="5.72604">
        <ele>639.97378003624</ele>
        <time>2015-05-17T14:36:20Z</time>
      </trkpt>
      <trkpt lat="45.65416" lon="5.726">
        <ele>639.45072636097</ele>
        <time>2015-05-17T14:36:25Z</time>
      </trkpt>
      <trkpt lat="45.65402" lon="5.72592">
        <ele>638.56141394049</ele>
        <time>2015-05-17T14:36:30Z</time>
      </trkpt>
      <trkpt lat="45.65387" lon="5.72588">
        <ele>637.20765678813</ele>
        <time>2015-05-17T14:36:35Z</time>
      </trkpt>
      <trkpt lat="45.6537" lon="5.72574">
        <ele>636.12113139456</ele>
        <time>2015-05-17T14:36:40Z</time>
      </trkpt>
      <trkpt lat="45.65356" lon="5.72554">
        <ele>635.47453284824</ele>
        <time>2015-05-17T14:36:45Z</time>
      </trkpt>
      <trkpt lat="45.6535" lon="5.72538">
        <ele>635.22478015346</ele>
        <time>2015-05-17T14:36:50Z</time>
      </trkpt>
      <trkpt lat="45.65344" lon="5.72531">
        <ele>635.22478015346</ele>
        <time>2015-05-17T14:36:55Z</time>
      </trkpt>
      <trkpt lat="45.65338" lon="5.72526">
        <ele>635.40279582264</ele>
        <time>2015-05-17T14:37:00Z</time>
      </trkpt>
      <trkpt lat="45.65333" lon="5.72518">
        <ele>635.40279582264</ele>
        <time>2015-05-17T14:37:05Z</time>
      </trkpt>
      <trkpt lat="45.65329" lon="5.7251">
        <ele>635.53153805255</ele>
        <time>2015-05-17T14:37:10Z</time>
      </trkpt>
      <trkpt lat="45.65325" lon="5.72501">
        <ele>635.53153805255</ele>
        <time>2015-05-17T14:37:15Z</time>
      </trkpt>
      <trkpt lat="45.6532" lon="5.72492">
        <ele>635.73107885421</ele>
        <time>2015-05-17T14:37:20Z</time>
      </trkpt>
      <trkpt lat="45.65315" lon="5.72483">
        <ele>635.73107885421</ele>
        <time>2015-05-17T14:37:25Z</time>
      </trkpt>
      <trkpt lat="45.65311" lon="5.72475">
        <ele>636.06914092318</ele>
        <time>2015-05-17T14:37:30Z</time>
      </trkpt>
      <trkpt lat="45.65309" lon="5.72466">
        <ele>636.06914092318</ele>
        <time>2015-05-17T14:37:35Z</time>
      </trkpt>
      <trkpt lat="45.65308" lon="5.72459">
        <ele>636.4350582274</ele>
        <time>2015-05-17T14:37:40Z</time>
      </trkpt>
      <trkpt lat="45.65308" lon="5.7245">
        <ele>636.4350582274</ele>
        <time>2015-05-17T14:37:45Z</time>
      </trkpt>
      <trkpt lat="45.65308" lon="5.7244">
        <ele>636.87024083371</ele>
        <time>2015-05-17T14:37:50Z</time>
      </trkpt>
      <trkpt lat="45.65307" lon="5.72428">
        <ele>636.87024083371</ele>
        <time>2015-05-17T14:37:55Z</time>
      </trkpt>
      <trkpt lat="45.65305" lon="5.72417">
        <ele>637.72982730179</ele>
        <time>2015-05-17T14:38:00Z</time>
      </trkpt>
      <trkpt lat="45.65304" lon="5.72407">
        <ele>637.72982730179</ele>
        <time>2015-05-17T14:38:05Z</time>
      </trkpt>
      <trkpt lat="45.65303" lon="5.72397">
        <ele>638.43370419651</ele>
        <time>2015-05-17T14:38:10Z</time>
      </trkpt>
      <trkpt lat="45.65301" lon="5.72388">
        <ele>638.43370419651</ele>
        <time>2015-05-17T14:38:15Z</time>
      </trkpt>
      <trkpt lat="45.65299" lon="5.72378">
        <ele>639.2373560103</ele>
        <time>2015-05-17T14:38:20Z</time>
      </trkpt>
      <trkpt lat="45.65297" lon="5.7237">
        <ele>639.2373560103</ele>
        <time>2015-05-17T14:38:25Z</time>
      </trkpt>
      <trkpt lat="45.65295" lon="5.72364">
        <ele>639.88718434111</ele>
        <time>2015-05-17T14:38:30Z</time>
      </trkpt>
      <trkpt lat="45.65289" lon="5.7236">
        <ele>639.88718434111</ele>
        <time>2015-05-17T14:38:35Z</time>
      </trkpt>
      <trkpt lat="45.65283" lon="5.72355">
        <ele>640.82592483741</ele>
        <time>2015-05-17T14:38:40Z</time>
      </trkpt>
      <trkpt lat="45.6528" lon="5.7235">
        <ele>640.82592483741</ele>
        <time>2015-05-17T14:38:45Z</time>
      </trkpt>
      <trkpt lat="45.65278" lon="5.72344">
        <ele>640.82592483741</ele>
        <time>2015-05-17T14:38:50Z</time>
      </trkpt>
      <trkpt lat="45.65277" lon="5.72338">
        <ele>641.80002685059</ele>
        <time>2015-05-17T14:38:55Z</time>
      </trkpt>
      <trkpt lat="45.65276" lon="5.72328">
        <ele>641.80002685059</ele>
        <time>2015-05-17T14:39:00Z</time>
      </trkpt>
      <trkpt lat="45.65278" lon="5.72322">
        <ele>643.00676656799</ele>
        <time>2015-05-17T14:39:05Z</time>
      </trkpt>
      <trkpt lat="45.65279" lon="5.7231">
        <ele>643.00676656799</ele>
        <time>2015-05-17T14:39:10Z</time>
      </trkpt>
      <trkpt lat="45.65279" lon="5.72301">
        <ele>644.49855149458</ele>
        <time>2015-05-17T14:39:15Z</time>
      </trkpt>
      <trkpt lat="45.65278" lon="5.72286">
        <ele>646.25106996293</ele>
        <time>2015-05-17T14:39:20Z</time>
      </trkpt>
      <trkpt lat="45.65278" lon="5.72274">
        <ele>646.25106996293</ele>
        <time>2015-05-17T14:39:25Z</time>
      </trkpt>
      <trkpt lat="45.65277" lon="5.72259">
        <ele>648.05371704846</ele>
        <time>2015-05-17T14:39:30Z</time>
      </trkpt>
      <trkpt lat="45.65276" lon="5.72238">
        <ele>649.37976994451</ele>
        <time>2015-05-17T14:39:35Z</time>
      </trkpt>
      <trkpt lat="45.65278" lon="5.72225">
        <ele>650.44869762927</ele>
        <time>2015-05-17T14:39:40Z</time>
      </trkpt>
      <trkpt lat="45.65275" lon="5.72217">
        <ele>650.44869762927</ele>
        <time>2015-05-17T14:39:45Z</time>
      </trkpt>
      <trkpt lat="45.6527" lon="5.72209">
        <ele>651.34930458766</ele>
        <time>2015-05-17T14:39:50Z</time>
      </trkpt>
      <trkpt lat="45.65263" lon="5.72207">
        <ele>651.34930458766</ele>
        <time>2015-05-17T14:39:55Z</time>
      </trkpt>
      <trkpt lat="45.65259" lon="5.72207">
        <ele>652.03467427856</ele>
        <time>2015-05-17T14:40:00Z</time>
      </trkpt>
      <trkpt lat="45.65252" lon="5.72205">
        <ele>652.03467427856</ele>
        <time>2015-05-17T14:40:05Z</time>
      </trkpt>
      <trkpt lat="45.65245" lon="5.72204">
        <ele>653.2401748784</ele>
        <time>2015-05-17T14:40:10Z</time>
      </trkpt>
      <trkpt lat="45.65239" lon="5.72201">
        <ele>653.2401748784</ele>
        <time>2015-05-17T14:40:15Z</time>
      </trkpt>
      <trkpt lat="45.65232" lon="5.72199">
        <ele>654.95400013717</ele>
        <time>2015-05-17T14:40:20Z</time>
      </trkpt>
      <trkpt lat="45.65225" lon="5.72196">
        <ele>654.95400013717</ele>
        <time>2015-05-17T14:40:25Z</time>
      </trkpt>
      <trkpt lat="45.65217" lon="5.7219">
        <ele>656.97648365184</ele>
        <time>2015-05-17T14:40:30Z</time>
      </trkpt>
      <trkpt lat="45.65209" lon="5.72184">
        <ele>656.97648365184</ele>
        <time>2015-05-17T14:40:35Z</time>
      </trkpt>
      <trkpt lat="45.65203" lon="5.72177">
        <ele>659.62620053913</ele>
        <time>2015-05-17T14:40:40Z</time>
      </trkpt>
      <trkpt lat="45.65197" lon="5.72172">
        <ele>659.62620053913</ele>
        <time>2015-05-17T14:40:45Z</time>
      </trkpt>
      <trkpt lat="45.65192" lon="5.72169">
        <ele>663.38397167842</ele>
        <time>2015-05-17T14:40:50Z</time>
      </trkpt>
      <trkpt lat="45.65182" lon="5.72179">
        <ele>666.55942077892</ele>
        <time>2015-05-17T14:40:55Z</time>
      </trkpt>
      <trkpt lat="45.65154" lon="5.72185">
        <ele>669.4038726626</ele>
        <time>2015-05-17T14:41:00Z</time>
      </trkpt>
      <trkpt lat="45.65124" lon="5.72194">
        <ele>671.92064827603</ele>
        <time>2015-05-17T14:41:05Z</time>
      </trkpt>
      <trkpt lat="45.65089" lon="5.72199">
        <ele>674.67589802892</ele>
        <time>2015-05-17T14:41:10Z</time>
      </trkpt>
      <trkpt lat="45.65066" lon="5.72199">
        <ele>676.83899876672</ele>
        <time>2015-05-17T14:41:15Z</time>
      </trkpt>
      <trkpt lat="45.65051" lon="5.72202">
        <ele>678.96796407237</ele>
        <time>2015-05-17T14:41:20Z</time>
      </trkpt>
      <trkpt lat="45.65041" lon="5.72205">
        <ele>681.07566275545</ele>
        <time>2015-05-17T14:41:25Z</time>
      </trkpt>
      <trkpt lat="45.65033" lon="5.72209">
        <ele>681.07566275545</ele>
        <time>2015-05-17T14:41:30Z</time>
      </trkpt>
      <trkpt lat="45.65026" lon="5.72211">
        <ele>682.85717515636</ele>
        <time>2015-05-17T14:41:35Z</time>
      </trkpt>
      <trkpt lat="45.65019" lon="5.72211">
        <ele>682.85717515636</ele>
        <time>2015-05-17T14:41:40Z</time>
      </trkpt>
      <trkpt lat="45.6501" lon="5.72215">
        <ele>685.03981646775</ele>
        <time>2015-05-17T14:41:45Z</time>
      </trkpt>
      <trkpt lat="45.65" lon="5.72221">
        <ele>686.99948992729</ele>
        <time>2015-05-17T14:41:50Z</time>
      </trkpt>
      <trkpt lat="45.64992" lon="5.72222">
        <ele>686.99948992729</ele>
        <time>2015-05-17T14:41:55Z</time>
      </trkpt>
      <trkpt lat="45.64983" lon="5.72225">
        <ele>688.79279987037</ele>
        <time>2015-05-17T14:42:00Z</time>
      </trkpt>
      <trkpt lat="45.64974" lon="5.72226">
        <ele>688.79279987037</ele>
        <time>2015-05-17T14:42:05Z</time>
      </trkpt>
      <trkpt lat="45.64968" lon="5.72224">
        <ele>689.7522406854</ele>
        <time>2015-05-17T14:42:10Z</time>
      </trkpt>
      <trkpt lat="45.64962" lon="5.72223">
        <ele>689.7522406854</ele>
        <time>2015-05-17T14:42:15Z</time>
      </trkpt>
      <trkpt lat="45.64955" lon="5.72223">
        <ele>690.08324554091</ele>
        <time>2015-05-17T14:42:20Z</time>
      </trkpt>
      <trkpt lat="45.64949" lon="5.72223">
        <ele>690.08324554091</ele>
        <time>2015-05-17T14:42:25Z</time>
      </trkpt>
      <trkpt lat="45.64942" lon="5.7222">
        <ele>690.1365635375</ele>
        <time>2015-05-17T14:42:30Z</time>
      </trkpt>
      <trkpt lat="45.64934" lon="5.72218">
        <ele>690.1365635375</ele>
        <time>2015-05-17T14:42:35Z</time>
      </trkpt>
      <trkpt lat="45.64926" lon="5.72215">
        <ele>690.12277679639</ele>
        <time>2015-05-17T14:42:40Z</time>
      </trkpt>
      <trkpt lat="45.6492" lon="5.72213">
        <ele>690.12277679639</ele>
        <time>2015-05-17T14:42:45Z</time>
      </trkpt>
      <trkpt lat="45.64912" lon="5.72209">
        <ele>690.15081329592</ele>
        <time>2015-05-17T14:42:50Z</time>
      </trkpt>
      <trkpt lat="45.64906" lon="5.72205">
        <ele>690.15081329592</ele>
        <time>2015-05-17T14:42:55Z</time>
      </trkpt>
      <trkpt lat="45.64904" lon="5.72206">
        <ele>690.119803868</ele>
        <time>2015-05-17T14:43:00Z</time>
      </trkpt>
      <trkpt lat="45.64899" lon="5.72208">
        <ele>690.119803868</ele>
        <time>2015-05-17T14:43:05Z</time>
      </trkpt>
      <trkpt lat="45.64894" lon="5.72209">
        <ele>689.82122750405</ele>
        <time>2015-05-17T14:43:10Z</time>
      </trkpt>
      <trkpt lat="45.64887" lon="5.7221">
        <ele>689.82122750405</ele>
        <time>2015-05-17T14:43:15Z</time>
      </trkpt>
      <trkpt lat="45.64875" lon="5.72213">
        <ele>689.43736678021</ele>
        <time>2015-05-17T14:43:20Z</time>
      </trkpt>
      <trkpt lat="45.64868" lon="5.72216">
        <ele>689.43736678021</ele>
        <time>2015-05-17T14:43:25Z</time>
      </trkpt>
      <trkpt lat="45.64864" lon="5.7222">
        <ele>689.06532847906</ele>
        <time>2015-05-17T14:43:30Z</time>
      </trkpt>
      <trkpt lat="45.6486" lon="5.72224">
        <ele>689.06532847906</ele>
        <time>2015-05-17T14:43:35Z</time>
      </trkpt>
      <trkpt lat="45.64852" lon="5.72231">
        <ele>689.16975867332</ele>
        <time>2015-05-17T14:43:40Z</time>
      </trkpt>
      <trkpt lat="45.64844" lon="5.7224">
        <ele>689.77632768025</ele>
        <time>2015-05-17T14:43:45Z</time>
      </trkpt>
      <trkpt lat="45.64837" lon="5.72246">
        <ele>689.77632768025</ele>
        <time>2015-05-17T14:43:50Z</time>
      </trkpt>
      <trkpt lat="45.64831" lon="5.72249">
        <ele>688.93308112363</ele>
        <time>2015-05-17T14:43:55Z</time>
      </trkpt>
      <trkpt lat="45.64823" lon="5.72252">
        <ele>688.93308112363</ele>
        <time>2015-05-17T14:44:00Z</time>
      </trkpt>
      <trkpt lat="45.64816" lon="5.72256">
        <ele>687.42950260768</ele>
        <time>2015-05-17T14:44:05Z</time>
      </trkpt>
      <trkpt lat="45.64809" lon="5.72261">
        <ele>687.42950260768</ele>
        <time>2015-05-17T14:44:10Z</time>
      </trkpt>
      <trkpt lat="45.64802" lon="5.72263">
        <ele>685.58097709438</ele>
        <time>2015-05-17T14:44:15Z</time>
      </trkpt>
      <trkpt lat="45.64794" lon="5.72266">
        <ele>685.58097709438</ele>
        <time>2015-05-17T14:44:20Z</time>
      </trkpt>
      <trkpt lat="45.64785" lon="5.72271">
        <ele>683.92562792612</ele>
        <time>2015-05-17T14:44:25Z</time>
      </trkpt>
      <trkpt lat="45.64777" lon="5.72273">
        <ele>683.92562792612</ele>
        <time>2015-05-17T14:44:30Z</time>
      </trkpt>
      <trkpt lat="45.64769" lon="5.72272">
        <ele>682.37058148807</ele>
        <time>2015-05-17T14:44:35Z</time>
      </trkpt>
      <trkpt lat="45.64761" lon="5.72272">
        <ele>682.37058148807</ele>
        <time>2015-05-17T14:44:40Z</time>
      </trkpt>
      <trkpt lat="45.64752" lon="5.72273">
        <ele>680.97352947474</ele>
        <time>2015-05-17T14:44:45Z</time>
      </trkpt>
      <trkpt lat="45.64743" lon="5.7227">
        <ele>679.39827905832</ele>
        <time>2015-05-17T14:44:50Z</time>
      </trkpt>
      <trkpt lat="45.64732" lon="5.72271">
        <ele>678.34249561673</ele>
        <time>2015-05-17T14:44:55Z</time>
      </trkpt>
      <trkpt lat="45.64724" lon="5.7227">
        <ele>678.34249561673</ele>
        <time>2015-05-17T14:45:00Z</time>
      </trkpt>
      <trkpt lat="45.64713" lon="5.72269">
        <ele>677.7304546439</ele>
        <time>2015-05-17T14:45:05Z</time>
      </trkpt>
      <trkpt lat="45.64706" lon="5.72277">
        <ele>677.7304546439</ele>
        <time>2015-05-17T14:45:10Z</time>
      </trkpt>
      <trkpt lat="45.647" lon="5.72285">
        <ele>676.79888099868</ele>
        <time>2015-05-17T14:45:15Z</time>
      </trkpt>
      <trkpt lat="45.64694" lon="5.7229">
        <ele>676.79888099868</ele>
        <time>2015-05-17T14:45:20Z</time>
      </trkpt>
      <trkpt lat="45.64686" lon="5.72295">
        <ele>675.61952477913</ele>
        <time>2015-05-17T14:45:25Z</time>
      </trkpt>
      <trkpt lat="45.6468" lon="5.72297">
        <ele>675.61952477913</ele>
        <time>2015-05-17T14:45:30Z</time>
      </trkpt>
      <trkpt lat="45.64675" lon="5.72302">
        <ele>673.76943535436</ele>
        <time>2015-05-17T14:45:35Z</time>
      </trkpt>
      <trkpt lat="45.64668" lon="5.72306">
        <ele>673.76943535436</ele>
        <time>2015-05-17T14:45:40Z</time>
      </trkpt>
      <trkpt lat="45.6466" lon="5.72314">
        <ele>672.27074979593</ele>
        <time>2015-05-17T14:45:45Z</time>
      </trkpt>
      <trkpt lat="45.64654" lon="5.72322">
        <ele>672.27074979593</ele>
        <time>2015-05-17T14:45:50Z</time>
      </trkpt>
      <trkpt lat="45.6465" lon="5.72329">
        <ele>670.42650604132</ele>
        <time>2015-05-17T14:45:55Z</time>
      </trkpt>
      <trkpt lat="45.64646" lon="5.72335">
        <ele>670.42650604132</ele>
        <time>2015-05-17T14:46:00Z</time>
      </trkpt>
      <trkpt lat="45.64642" lon="5.72342">
        <ele>668.22583012059</ele>
        <time>2015-05-17T14:46:05Z</time>
      </trkpt>
      <trkpt lat="45.64639" lon="5.7235">
        <ele>668.22583012059</ele>
        <time>2015-05-17T14:46:10Z</time>
      </trkpt>
      <trkpt lat="45.64634" lon="5.72355">
        <ele>666.6538373941</ele>
        <time>2015-05-17T14:46:15Z</time>
      </trkpt>
      <trkpt lat="45.64629" lon="5.72358">
        <ele>666.6538373941</ele>
        <time>2015-05-17T14:46:20Z</time>
      </trkpt>
      <trkpt lat="45.64625" lon="5.72359">
        <ele>664.25790606368</ele>
        <time>2015-05-17T14:46:25Z</time>
      </trkpt>
      <trkpt lat="45.64621" lon="5.7236">
        <ele>664.25790606368</ele>
        <time>2015-05-17T14:46:30Z</time>
      </trkpt>
      <trkpt lat="45.64616" lon="5.72361">
        <ele>664.25790606368</ele>
        <time>2015-05-17T14:46:35Z</time>
      </trkpt>
      <trkpt lat="45.64614" lon="5.72366">
        <ele>661.74062062339</ele>
        <time>2015-05-17T14:46:40Z</time>
      </trkpt>
      <trkpt lat="45.64608" lon="5.72369">
        <ele>661.74062062339</ele>
        <time>2015-05-17T14:46:45Z</time>
      </trkpt>
      <trkpt lat="45.64602" lon="5.72383">
        <ele>659.82515086967</ele>
        <time>2015-05-17T14:46:50Z</time>
      </trkpt>
      <trkpt lat="45.64598" lon="5.724">
        <ele>658.77613970056</ele>
        <time>2015-05-17T14:46:55Z</time>
      </trkpt>
      <trkpt lat="45.64594" lon="5.72413">
        <ele>657.62561865559</ele>
        <time>2015-05-17T14:47:00Z</time>
      </trkpt>
      <trkpt lat="45.64592" lon="5.7242">
        <ele>657.62561865559</ele>
        <time>2015-05-17T14:47:05Z</time>
      </trkpt>
      <trkpt lat="45.64593" lon="5.72426">
        <ele>655.85149287057</ele>
        <time>2015-05-17T14:47:10Z</time>
      </trkpt>
      <trkpt lat="45.64594" lon="5.72434">
        <ele>655.85149287057</ele>
        <time>2015-05-17T14:47:15Z</time>
      </trkpt>
      <trkpt lat="45.64593" lon="5.72444">
        <ele>653.59124215469</ele>
        <time>2015-05-17T14:47:20Z</time>
      </trkpt>
      <trkpt lat="45.6459" lon="5.72451">
        <ele>653.59124215469</ele>
        <time>2015-05-17T14:47:25Z</time>
      </trkpt>
      <trkpt lat="45.64592" lon="5.72461">
        <ele>651.30486162851</ele>
        <time>2015-05-17T14:47:30Z</time>
      </trkpt>
      <trkpt lat="45.64594" lon="5.72474">
        <ele>651.30486162851</ele>
        <time>2015-05-17T14:47:35Z</time>
      </trkpt>
      <trkpt lat="45.64593" lon="5.72487">
        <ele>649.10137817926</ele>
        <time>2015-05-17T14:47:40Z</time>
      </trkpt>
      <trkpt lat="45.64586" lon="5.72492">
        <ele>649.10137817926</ele>
        <time>2015-05-17T14:47:45Z</time>
      </trkpt>
      <trkpt lat="45.64569" lon="5.72488">
        <ele>646.86520214753</ele>
        <time>2015-05-17T14:47:50Z</time>
      </trkpt>
      <trkpt lat="45.64555" lon="5.72487">
        <ele>644.95027284548</ele>
        <time>2015-05-17T14:47:55Z</time>
      </trkpt>
      <trkpt lat="45.64548" lon="5.72489">
        <ele>644.95027284548</ele>
        <time>2015-05-17T14:48:00Z</time>
      </trkpt>
      <trkpt lat="45.64541" lon="5.72486">
        <ele>643.52489697526</ele>
        <time>2015-05-17T14:48:05Z</time>
      </trkpt>
      <trkpt lat="45.64534" lon="5.72487">
        <ele>643.52489697526</ele>
        <time>2015-05-17T14:48:10Z</time>
      </trkpt>
      <trkpt lat="45.64527" lon="5.72486">
        <ele>641.93641501648</ele>
        <time>2015-05-17T14:48:15Z</time>
      </trkpt>
      <trkpt lat="45.64521" lon="5.72486">
        <ele>641.93641501648</ele>
        <time>2015-05-17T14:48:20Z</time>
      </trkpt>
      <trkpt lat="45.64514" lon="5.72486">
        <ele>640.79090108287</ele>
        <time>2015-05-17T14:48:25Z</time>
      </trkpt>
      <trkpt lat="45.64506" lon="5.72488">
        <ele>640.79090108287</ele>
        <time>2015-05-17T14:48:30Z</time>
      </trkpt>
      <trkpt lat="45.64499" lon="5.72487">
        <ele>640.66288279241</ele>
        <time>2015-05-17T14:48:35Z</time>
      </trkpt>
      <trkpt lat="45.64491" lon="5.72486">
        <ele>640.66288279241</ele>
        <time>2015-05-17T14:48:40Z</time>
      </trkpt>
      <trkpt lat="45.64485" lon="5.72484">
        <ele>640.32349036575</ele>
        <time>2015-05-17T14:48:45Z</time>
      </trkpt>
      <trkpt lat="45.64478" lon="5.72483">
        <ele>640.32349036575</ele>
        <time>2015-05-17T14:48:50Z</time>
      </trkpt>
      <trkpt lat="45.6447" lon="5.72481">
        <ele>640.49358462623</ele>
        <time>2015-05-17T14:48:55Z</time>
      </trkpt>
      <trkpt lat="45.64463" lon="5.72476">
        <ele>640.49358462623</ele>
        <time>2015-05-17T14:49:00Z</time>
      </trkpt>
      <trkpt lat="45.64457" lon="5.72473">
        <ele>640.85953526582</ele>
        <time>2015-05-17T14:49:05Z</time>
      </trkpt>
      <trkpt lat="45.6445" lon="5.72469">
        <ele>640.85953526582</ele>
        <time>2015-05-17T14:49:10Z</time>
      </trkpt>
      <trkpt lat="45.64443" lon="5.72466">
        <ele>641.53357952306</ele>
        <time>2015-05-17T14:49:15Z</time>
      </trkpt>
      <trkpt lat="45.64435" lon="5.72462">
        <ele>641.53357952306</ele>
        <time>2015-05-17T14:49:20Z</time>
      </trkpt>
      <trkpt lat="45.64428" lon="5.72459">
        <ele>642.9501881306</ele>
        <time>2015-05-17T14:49:25Z</time>
      </trkpt>
      <trkpt lat="45.6442" lon="5.72455">
        <ele>642.9501881306</ele>
        <time>2015-05-17T14:49:30Z</time>
      </trkpt>
      <trkpt lat="45.64413" lon="5.7245">
        <ele>644.45773024343</ele>
        <time>2015-05-17T14:49:35Z</time>
      </trkpt>
      <trkpt lat="45.64406" lon="5.72449">
        <ele>644.45773024343</ele>
        <time>2015-05-17T14:49:40Z</time>
      </trkpt>
      <trkpt lat="45.64399" lon="5.72447">
        <ele>646.74912237001</ele>
        <time>2015-05-17T14:49:45Z</time>
      </trkpt>
      <trkpt lat="45.64393" lon="5.72448">
        <ele>646.74912237001</ele>
        <time>2015-05-17T14:49:50Z</time>
      </trkpt>
      <trkpt lat="45.64386" lon="5.72445">
        <ele>649.06626209561</ele>
        <time>2015-05-17T14:49:55Z</time>
      </trkpt>
      <trkpt lat="45.64379" lon="5.72442">
        <ele>649.06626209561</ele>
        <time>2015-05-17T14:50:00Z</time>
      </trkpt>
      <trkpt lat="45.64372" lon="5.72438">
        <ele>651.26868445061</ele>
        <time>2015-05-17T14:50:05Z</time>
      </trkpt>
      <trkpt lat="45.64366" lon="5.72435">
        <ele>651.26868445061</ele>
        <time>2015-05-17T14:50:10Z</time>
      </trkpt>
      <trkpt lat="45.64363" lon="5.72431">
        <ele>652.92394311001</ele>
        <time>2015-05-17T14:50:15Z</time>
      </trkpt>
      <trkpt lat="45.64356" lon="5.72427">
        <ele>652.92394311001</ele>
        <time>2015-05-17T14:50:20Z</time>
      </trkpt>
      <trkpt lat="45.64348" lon="5.72424">
        <ele>654.77140791838</ele>
        <time>2015-05-17T14:50:25Z</time>
      </trkpt>
      <trkpt lat="45.64342" lon="5.72421">
        <ele>654.77140791838</ele>
        <time>2015-05-17T14:50:30Z</time>
      </trkpt>
      <trkpt lat="45.64335" lon="5.72422">
        <ele>656.40040729769</ele>
        <time>2015-05-17T14:50:35Z</time>
      </trkpt>
      <trkpt lat="45.64329" lon="5.72423">
        <ele>656.40040729769</ele>
        <time>2015-05-17T14:50:40Z</time>
      </trkpt>
      <trkpt lat="45.64322" lon="5.72424">
        <ele>657.67611258689</ele>
        <time>2015-05-17T14:50:45Z</time>
      </trkpt>
      <trkpt lat="45.64313" lon="5.72422">
        <ele>657.67611258689</ele>
        <time>2015-05-17T14:50:50Z</time>
      </trkpt>
      <trkpt lat="45.64306" lon="5.7242">
        <ele>659.02230085171</ele>
        <time>2015-05-17T14:50:55Z</time>
      </trkpt>
      <trkpt lat="45.643" lon="5.72418">
        <ele>659.02230085171</ele>
        <time>2015-05-17T14:51:00Z</time>
      </trkpt>
      <trkpt lat="45.64293" lon="5.72413">
        <ele>659.62098590102</ele>
        <time>2015-05-17T14:51:05Z</time>
      </trkpt>
      <trkpt lat="45.64285" lon="5.72406">
        <ele>659.62098590102</ele>
        <time>2015-05-17T14:51:10Z</time>
      </trkpt>
      <trkpt lat="45.64279" lon="5.72403">
        <ele>660.14317431826</ele>
        <time>2015-05-17T14:51:15Z</time>
      </trkpt>
      <trkpt lat="45.64272" lon="5.72401">
        <ele>660.14317431826</ele>
        <time>2015-05-17T14:51:20Z</time>
      </trkpt>
      <trkpt lat="45.64266" lon="5.72399">
        <ele>660.34623935033</ele>
        <time>2015-05-17T14:51:25Z</time>
      </trkpt>
      <trkpt lat="45.64259" lon="5.72397">
        <ele>660.34623935033</ele>
        <time>2015-05-17T14:51:30Z</time>
      </trkpt>
      <trkpt lat="45.64252" lon="5.72396">
        <ele>660.33784052486</ele>
        <time>2015-05-17T14:51:35Z</time>
      </trkpt>
      <trkpt lat="45.64245" lon="5.72396">
        <ele>660.33784052486</ele>
        <time>2015-05-17T14:51:40Z</time>
      </trkpt>
      <trkpt lat="45.64238" lon="5.72396">
        <ele>660.10314357861</ele>
        <time>2015-05-17T14:51:45Z</time>
      </trkpt>
      <trkpt lat="45.6423" lon="5.72395">
        <ele>660.10314357861</ele>
        <time>2015-05-17T14:51:50Z</time>
      </trkpt>
      <trkpt lat="45.64223" lon="5.72396">
        <ele>660.40734725874</ele>
        <time>2015-05-17T14:51:55Z</time>
      </trkpt>
      <trkpt lat="45.64217" lon="5.72395">
        <ele>660.40734725874</ele>
        <time>2015-05-17T14:52:00Z</time>
      </trkpt>
      <trkpt lat="45.6421" lon="5.72396">
        <ele>660.04135285731</ele>
        <time>2015-05-17T14:52:05Z</time>
      </trkpt>
      <trkpt lat="45.64203" lon="5.72397">
        <ele>660.04135285731</ele>
        <time>2015-05-17T14:52:10Z</time>
      </trkpt>
      <trkpt lat="45.64189" lon="5.724">
        <ele>659.47208301882</ele>
        <time>2015-05-17T14:52:15Z</time>
      </trkpt>
      <trkpt lat="45.64176" lon="5.72399">
        <ele>659.10400168761</ele>
        <time>2015-05-17T14:52:20Z</time>
      </trkpt>
      <trkpt lat="45.6417" lon="5.72397">
        <ele>659.10400168761</ele>
        <time>2015-05-17T14:52:25Z</time>
      </trkpt>
      <trkpt lat="45.64163" lon="5.72397">
        <ele>658.72052787364</ele>
        <time>2015-05-17T14:52:30Z</time>
      </trkpt>
      <trkpt lat="45.64155" lon="5.72396">
        <ele>658.72052787364</ele>
        <time>2015-05-17T14:52:35Z</time>
      </trkpt>
      <trkpt lat="45.64149" lon="5.72395">
        <ele>658.49580297931</ele>
        <time>2015-05-17T14:52:40Z</time>
      </trkpt>
      <trkpt lat="45.64143" lon="5.72391">
        <ele>658.49580297931</ele>
        <time>2015-05-17T14:52:45Z</time>
      </trkpt>
      <trkpt lat="45.64139" lon="5.72392">
        <ele>658.7205057553</ele>
        <time>2015-05-17T14:52:50Z</time>
      </trkpt>
      <trkpt lat="45.64138" lon="5.72392">
        <ele>658.7205057553</ele>
        <time>2015-05-17T14:52:55Z</time>
      </trkpt>
      <trkpt lat="45.64138" lon="5.72392">
        <ele>658.7205057553</ele>
        <time>2015-05-17T14:53:00Z</time>
      </trkpt>
      <trkpt lat="45.64137" lon="5.72392">
        <ele>658.7205057553</ele>
        <time>2015-05-17T14:53:05Z</time>
      </trkpt>
      <trkpt lat="45.64137" lon="5.72393">
        <ele>658.7205057553</ele>
        <time>2015-05-17T14:53:10Z</time>
      </trkpt>
      <trkpt lat="45.64139" lon="5.72398">
        <ele>658.7205057553</ele>
        <time>2015-05-17T14:53:15Z</time>
      </trkpt>
      <trkpt lat="45.64146" lon="5.72401">
        <ele>660.0806964472</ele>
        <time>2015-05-17T14:53:20Z</time>
      </trkpt>
      <trkpt lat="45.6415" lon="5.72403">
        <ele>660.0806964472</ele>
        <time>2015-05-17T14:53:25Z</time>
      </trkpt>
      <trkpt lat="45.6415" lon="5.72401">
        <ele>660.0806964472</ele>
        <time>2015-05-17T14:53:30Z</time>
      </trkpt>
      <trkpt lat="45.6415" lon="5.72399">
        <ele>660.0806964472</ele>
        <time>2015-05-17T14:53:35Z</time>
      </trkpt>
      <trkpt lat="45.64149" lon="5.72397">
        <ele>660.0806964472</ele>
        <time>2015-05-17T14:53:40Z</time>
      </trkpt>
      <trkpt lat="45.64141" lon="5.72391">
        <ele>661.14813582109</ele>
        <time>2015-05-17T14:53:45Z</time>
      </trkpt>
      <trkpt lat="45.64134" lon="5.72384">
        <ele>661.14813582109</ele>
        <time>2015-05-17T14:53:50Z</time>
      </trkpt>
      <trkpt lat="45.64127" lon="5.72382">
        <ele>662.32973387307</ele>
        <time>2015-05-17T14:53:55Z</time>
      </trkpt>
      <trkpt lat="45.64119" lon="5.72379">
        <ele>662.32973387307</ele>
        <time>2015-05-17T14:54:00Z</time>
      </trkpt>
      <trkpt lat="45.6411" lon="5.72375">
        <ele>663.32494768885</ele>
        <time>2015-05-17T14:54:05Z</time>
      </trkpt>
      <trkpt lat="45.641" lon="5.72371">
        <ele>664.0864987296</ele>
        <time>2015-05-17T14:54:10Z</time>
      </trkpt>
      <trkpt lat="45.64092" lon="5.72363">
        <ele>664.0864987296</ele>
        <time>2015-05-17T14:54:15Z</time>
      </trkpt>
      <trkpt lat="45.64086" lon="5.72357">
        <ele>663.8651797797</ele>
        <time>2015-05-17T14:54:20Z</time>
      </trkpt>
      <trkpt lat="45.6408" lon="5.72354">
        <ele>663.8651797797</ele>
        <time>2015-05-17T14:54:25Z</time>
      </trkpt>
      <trkpt lat="45.64075" lon="5.72349">
        <ele>663.16578568187</ele>
        <time>2015-05-17T14:54:30Z</time>
      </trkpt>
      <trkpt lat="45.64069" lon="5.72345">
        <ele>663.16578568187</ele>
        <time>2015-05-17T14:54:35Z</time>
      </trkpt>
      <trkpt lat="45.64064" lon="5.72344">
        <ele>662.86096306267</ele>
        <time>2015-05-17T14:54:40Z</time>
      </trkpt>
      <trkpt lat="45.64064" lon="5.72348">
        <ele>662.86096306267</ele>
        <time>2015-05-17T14:54:45Z</time>
      </trkpt>
      <trkpt lat="45.64063" lon="5.72349">
        <ele>662.86096306267</ele>
        <time>2015-05-17T14:54:50Z</time>
      </trkpt>
      <trkpt lat="45.64059" lon="5.72347">
        <ele>662.86096306267</ele>
        <time>2015-05-17T14:54:55Z</time>
      </trkpt>
      <trkpt lat="45.64056" lon="5.72346">
        <ele>662.7062104653</ele>
        <time>2015-05-17T14:55:00Z</time>
      </trkpt>
      <trkpt lat="45.64053" lon="5.72344">
        <ele>662.7062104653</ele>
        <time>2015-05-17T14:55:05Z</time>
      </trkpt>
      <trkpt lat="45.6405" lon="5.72342">
        <ele>662.7062104653</ele>
        <time>2015-05-17T14:55:10Z</time>
      </trkpt>
      <trkpt lat="45.64048" lon="5.7234">
        <ele>662.7062104653</ele>
        <time>2015-05-17T14:55:15Z</time>
      </trkpt>
      <trkpt lat="45.64044" lon="5.72334">
        <ele>662.31611025863</ele>
        <time>2015-05-17T14:55:20Z</time>
      </trkpt>
      <trkpt lat="45.64037" lon="5.72332">
        <ele>662.31611025863</ele>
        <time>2015-05-17T14:55:25Z</time>
      </trkpt>
      <trkpt lat="45.64029" lon="5.72331">
        <ele>661.79543155228</ele>
        <time>2015-05-17T14:55:30Z</time>
      </trkpt>
      <trkpt lat="45.64021" lon="5.72326">
        <ele>661.79543155228</ele>
        <time>2015-05-17T14:55:35Z</time>
      </trkpt>
      <trkpt lat="45.64015" lon="5.72322">
        <ele>661.6884097348</ele>
        <time>2015-05-17T14:55:40Z</time>
      </trkpt>
      <trkpt lat="45.64012" lon="5.7232">
        <ele>661.6884097348</ele>
        <time>2015-05-17T14:55:45Z</time>
      </trkpt>
      <trkpt lat="45.64004" lon="5.72319">
        <ele>661.51822990177</ele>
        <time>2015-05-17T14:55:50Z</time>
      </trkpt>
      <trkpt lat="45.63996" lon="5.72321">
        <ele>661.51822990177</ele>
        <time>2015-05-17T14:55:55Z</time>
      </trkpt>
      <trkpt lat="45.63986" lon="5.72321">
        <ele>661.04507544023</ele>
        <time>2015-05-17T14:56:00Z</time>
      </trkpt>
      <trkpt lat="45.63976" lon="5.72319">
        <ele>660.33585145427</ele>
        <time>2015-05-17T14:56:05Z</time>
      </trkpt>
      <trkpt lat="45.63967" lon="5.72326">
        <ele>659.36676959474</ele>
        <time>2015-05-17T14:56:10Z</time>
      </trkpt>
      <trkpt lat="45.63959" lon="5.72328">
        <ele>659.36676959474</ele>
        <time>2015-05-17T14:56:15Z</time>
      </trkpt>
      <trkpt lat="45.63955" lon="5.72324">
        <ele>658.5921030365</ele>
        <time>2015-05-17T14:56:20Z</time>
      </trkpt>
      <trkpt lat="45.63944" lon="5.72321">
        <ele>657.52431805605</ele>
        <time>2015-05-17T14:56:25Z</time>
      </trkpt>
      <trkpt lat="45.63931" lon="5.72323">
        <ele>656.51954035009</ele>
        <time>2015-05-17T14:56:30Z</time>
      </trkpt>
      <trkpt lat="45.63918" lon="5.72325">
        <ele>655.92196193154</ele>
        <time>2015-05-17T14:56:35Z</time>
      </trkpt>
      <trkpt lat="45.63904" lon="5.72328">
        <ele>656.06374655303</ele>
        <time>2015-05-17T14:56:40Z</time>
      </trkpt>
      <trkpt lat="45.63897" lon="5.72329">
        <ele>656.06374655303</ele>
        <time>2015-05-17T14:56:45Z</time>
      </trkpt>
      <trkpt lat="45.6389" lon="5.72328">
        <ele>655.92474351144</ele>
        <time>2015-05-17T14:56:50Z</time>
      </trkpt>
      <trkpt lat="45.63887" lon="5.72331">
        <ele>655.92474351144</ele>
        <time>2015-05-17T14:56:55Z</time>
      </trkpt>
      <trkpt lat="45.63881" lon="5.72333">
        <ele>655.41076594771</ele>
        <time>2015-05-17T14:57:00Z</time>
      </trkpt>
      <trkpt lat="45.63874" lon="5.72333">
        <ele>655.41076594771</ele>
        <time>2015-05-17T14:57:05Z</time>
      </trkpt>
      <trkpt lat="45.6386" lon="5.72328">
        <ele>655.14172239051</ele>
        <time>2015-05-17T14:57:10Z</time>
      </trkpt>
      <trkpt lat="45.63849" lon="5.72326">
        <ele>655.60480992768</ele>
        <time>2015-05-17T14:57:15Z</time>
      </trkpt>
      <trkpt lat="45.63839" lon="5.72325">
        <ele>656.16853051357</ele>
        <time>2015-05-17T14:57:20Z</time>
      </trkpt>
      <trkpt lat="45.63833" lon="5.72326">
        <ele>656.16853051357</ele>
        <time>2015-05-17T14:57:25Z</time>
      </trkpt>
      <trkpt lat="45.63827" lon="5.72328">
        <ele>656.75186682857</ele>
        <time>2015-05-17T14:57:30Z</time>
      </trkpt>
      <trkpt lat="45.63819" lon="5.72329">
        <ele>656.75186682857</ele>
        <time>2015-05-17T14:57:35Z</time>
      </trkpt>
      <trkpt lat="45.63812" lon="5.72329">
        <ele>657.26527590661</ele>
        <time>2015-05-17T14:57:40Z</time>
      </trkpt>
      <trkpt lat="45.63798" lon="5.7233">
        <ele>657.5106937047</ele>
        <time>2015-05-17T14:57:45Z</time>
      </trkpt>
      <trkpt lat="45.6379" lon="5.72331">
        <ele>657.5106937047</ele>
        <time>2015-05-17T14:57:50Z</time>
      </trkpt>
      <trkpt lat="45.63784" lon="5.72331">
        <ele>657.83856723785</ele>
        <time>2015-05-17T14:57:55Z</time>
      </trkpt>
      <trkpt lat="45.63778" lon="5.72331">
        <ele>657.83856723785</ele>
        <time>2015-05-17T14:58:00Z</time>
      </trkpt>
      <trkpt lat="45.63768" lon="5.7233">
        <ele>657.75193596816</ele>
        <time>2015-05-17T14:58:05Z</time>
      </trkpt>
      <trkpt lat="45.63761" lon="5.72329">
        <ele>657.75193596816</ele>
        <time>2015-05-17T14:58:10Z</time>
      </trkpt>
      <trkpt lat="45.63752" lon="5.72328">
        <ele>657.64176700899</ele>
        <time>2015-05-17T14:58:15Z</time>
      </trkpt>
      <trkpt lat="45.63739" lon="5.72328">
        <ele>657.42363130304</ele>
        <time>2015-05-17T14:58:20Z</time>
      </trkpt>
      <trkpt lat="45.63725" lon="5.72329">
        <ele>657.20695110421</ele>
        <time>2015-05-17T14:58:25Z</time>
      </trkpt>
      <trkpt lat="45.63715" lon="5.72332">
        <ele>657.55426341418</ele>
        <time>2015-05-17T14:58:30Z</time>
      </trkpt>
      <trkpt lat="45.63708" lon="5.72331">
        <ele>657.55426341418</ele>
        <time>2015-05-17T14:58:35Z</time>
      </trkpt>
      <trkpt lat="45.63701" lon="5.72332">
        <ele>657.03969831892</ele>
        <time>2015-05-17T14:58:40Z</time>
      </trkpt>
      <trkpt lat="45.63695" lon="5.72333">
        <ele>657.03969831892</ele>
        <time>2015-05-17T14:58:45Z</time>
      </trkpt>
      <trkpt lat="45.63688" lon="5.72335">
        <ele>656.24681226206</ele>
        <time>2015-05-17T14:58:50Z</time>
      </trkpt>
      <trkpt lat="45.63681" lon="5.72336">
        <ele>656.24681226206</ele>
        <time>2015-05-17T14:58:55Z</time>
      </trkpt>
      <trkpt lat="45.63674" lon="5.72339">
        <ele>655.76030328552</ele>
        <time>2015-05-17T14:59:00Z</time>
      </trkpt>
      <trkpt lat="45.63663" lon="5.72342">
        <ele>655.35726122907</ele>
        <time>2015-05-17T14:59:05Z</time>
      </trkpt>
      <trkpt lat="45.63652" lon="5.72346">
        <ele>654.71561544242</ele>
        <time>2015-05-17T14:59:10Z</time>
      </trkpt>
      <trkpt lat="45.63646" lon="5.72348">
        <ele>654.71561544242</ele>
        <time>2015-05-17T14:59:15Z</time>
      </trkpt>
      <trkpt lat="45.63639" lon="5.72349">
        <ele>653.86906297837</ele>
        <time>2015-05-17T14:59:20Z</time>
      </trkpt>
      <trkpt lat="45.63634" lon="5.72347">
        <ele>653.86906297837</ele>
        <time>2015-05-17T14:59:25Z</time>
      </trkpt>
      <trkpt lat="45.63627" lon="5.72348">
        <ele>652.87820186481</ele>
        <time>2015-05-17T14:59:30Z</time>
      </trkpt>
      <trkpt lat="45.63617" lon="5.72348">
        <ele>651.62662404167</ele>
        <time>2015-05-17T14:59:35Z</time>
      </trkpt>
      <trkpt lat="45.63604" lon="5.72349">
        <ele>650.72772832779</ele>
        <time>2015-05-17T14:59:40Z</time>
      </trkpt>
      <trkpt lat="45.63597" lon="5.7235">
        <ele>650.72772832779</ele>
        <time>2015-05-17T14:59:45Z</time>
      </trkpt>
      <trkpt lat="45.63592" lon="5.72352">
        <ele>648.84655783847</ele>
        <time>2015-05-17T14:59:50Z</time>
      </trkpt>
      <trkpt lat="45.63585" lon="5.72353">
        <ele>648.84655783847</ele>
        <time>2015-05-17T14:59:55Z</time>
      </trkpt>
      <trkpt lat="45.63577" lon="5.72353">
        <ele>646.91059677001</ele>
        <time>2015-05-17T15:00:00Z</time>
      </trkpt>
      <trkpt lat="45.63564" lon="5.72353">
        <ele>645.21726120884</ele>
        <time>2015-05-17T15:00:05Z</time>
      </trkpt>
      <trkpt lat="45.6356" lon="5.72354">
        <ele>645.21726120884</ele>
        <time>2015-05-17T15:00:10Z</time>
      </trkpt>
      <trkpt lat="45.63554" lon="5.72351">
        <ele>643.75315171947</ele>
        <time>2015-05-17T15:00:15Z</time>
      </trkpt>
      <trkpt lat="45.63548" lon="5.72345">
        <ele>643.75315171947</ele>
        <time>2015-05-17T15:00:20Z</time>
      </trkpt>
      <trkpt lat="45.63541" lon="5.72337">
        <ele>642.27455920271</ele>
        <time>2015-05-17T15:00:25Z</time>
      </trkpt>
      <trkpt lat="45.63534" lon="5.72332">
        <ele>642.27455920271</ele>
        <time>2015-05-17T15:00:30Z</time>
      </trkpt>
      <trkpt lat="45.63529" lon="5.72324">
        <ele>640.82944933426</ele>
        <time>2015-05-17T15:00:35Z</time>
      </trkpt>
      <trkpt lat="45.63526" lon="5.7232">
        <ele>640.82944933426</ele>
        <time>2015-05-17T15:00:40Z</time>
      </trkpt>
      <trkpt lat="45.63523" lon="5.72312">
        <ele>639.49090777549</ele>
        <time>2015-05-17T15:00:45Z</time>
      </trkpt>
      <trkpt lat="45.63517" lon="5.72301">
        <ele>639.2485771262</ele>
        <time>2015-05-17T15:00:50Z</time>
      </trkpt>
      <trkpt lat="45.6351" lon="5.72289">
        <ele>639.84894069722</ele>
        <time>2015-05-17T15:00:55Z</time>
      </trkpt>
      <trkpt lat="45.63504" lon="5.72279">
        <ele>640.95378439423</ele>
        <time>2015-05-17T15:01:00Z</time>
      </trkpt>
      <trkpt lat="45.63497" lon="5.72273">
        <ele>640.95378439423</ele>
        <time>2015-05-17T15:01:05Z</time>
      </trkpt>
      <trkpt lat="45.63489" lon="5.72267">
        <ele>642.52206797775</ele>
        <time>2015-05-17T15:01:10Z</time>
      </trkpt>
      <trkpt lat="45.63483" lon="5.72264">
        <ele>642.52206797775</ele>
        <time>2015-05-17T15:01:15Z</time>
      </trkpt>
      <trkpt lat="45.63476" lon="5.72268">
        <ele>643.6929801813</ele>
        <time>2015-05-17T15:01:20Z</time>
      </trkpt>
      <trkpt lat="45.63468" lon="5.72266">
        <ele>643.6929801813</ele>
        <time>2015-05-17T15:01:25Z</time>
      </trkpt>
      <trkpt lat="45.6346" lon="5.72267">
        <ele>645.01025784024</ele>
        <time>2015-05-17T15:01:30Z</time>
      </trkpt>
      <trkpt lat="45.63453" lon="5.72266">
        <ele>645.01025784024</ele>
        <time>2015-05-17T15:01:35Z</time>
      </trkpt>
      <trkpt lat="45.63447" lon="5.72264">
        <ele>646.31435474353</ele>
        <time>2015-05-17T15:01:40Z</time>
      </trkpt>
      <trkpt lat="45.63442" lon="5.72258">
        <ele>646.31435474353</ele>
        <time>2015-05-17T15:01:45Z</time>
      </trkpt>
      <trkpt lat="45.63438" lon="5.7225">
        <ele>647.57276777768</ele>
        <time>2015-05-17T15:01:50Z</time>
      </trkpt>
      <trkpt lat="45.63434" lon="5.72244">
        <ele>647.57276777768</ele>
        <time>2015-05-17T15:01:55Z</time>
      </trkpt>
      <trkpt lat="45.6343" lon="5.72237">
        <ele>648.9716876583</ele>
        <time>2015-05-17T15:02:00Z</time>
      </trkpt>
      <trkpt lat="45.63425" lon="5.72231">
        <ele>648.9716876583</ele>
        <time>2015-05-17T15:02:05Z</time>
      </trkpt>
      <trkpt lat="45.6342" lon="5.72228">
        <ele>650.87060351838</ele>
        <time>2015-05-17T15:02:10Z</time>
      </trkpt>
      <trkpt lat="45.63419" lon="5.72226">
        <ele>650.87060351838</ele>
        <time>2015-05-17T15:02:15Z</time>
      </trkpt>
      <trkpt lat="45.63419" lon="5.72225">
        <ele>650.87060351838</ele>
        <time>2015-05-17T15:02:20Z</time>
      </trkpt>
      <trkpt lat="45.63421" lon="5.72224">
        <ele>650.87060351838</ele>
        <time>2015-05-17T15:02:25Z</time>
      </trkpt>
      <trkpt lat="45.63421" lon="5.72223">
        <ele>650.87060351838</ele>
        <time>2015-05-17T15:02:30Z</time>
      </trkpt>
      <trkpt lat="45.63418" lon="5.72216">
        <ele>652.56363270969</ele>
        <time>2015-05-17T15:02:35Z</time>
      </trkpt>
      <trkpt lat="45.63413" lon="5.72212">
        <ele>652.56363270969</ele>
        <time>2015-05-17T15:02:40Z</time>
      </trkpt>
      <trkpt lat="45.63409" lon="5.72221">
        <ele>655.2420010456</ele>
        <time>2015-05-17T15:02:45Z</time>
      </trkpt>
      <trkpt lat="45.63409" lon="5.72226">
        <ele>655.2420010456</ele>
        <time>2015-05-17T15:02:50Z</time>
      </trkpt>
      <trkpt lat="45.63407" lon="5.72231">
        <ele>655.2420010456</ele>
        <time>2015-05-17T15:02:55Z</time>
      </trkpt>
      <trkpt lat="45.63402" lon="5.72235">
        <ele>657.88829934168</ele>
        <time>2015-05-17T15:03:00Z</time>
      </trkpt>
      <trkpt lat="45.63396" lon="5.72239">
        <ele>657.88829934168</ele>
        <time>2015-05-17T15:03:05Z</time>
      </trkpt>
      <trkpt lat="45.63389" lon="5.72245">
        <ele>659.99236594718</ele>
        <time>2015-05-17T15:03:10Z</time>
      </trkpt>
      <trkpt lat="45.63385" lon="5.72249">
        <ele>659.99236594718</ele>
        <time>2015-05-17T15:03:15Z</time>
      </trkpt>
      <trkpt lat="45.6338" lon="5.72254">
        <ele>661.8036927726</ele>
        <time>2015-05-17T15:03:20Z</time>
      </trkpt>
      <trkpt lat="45.63376" lon="5.72256">
        <ele>661.8036927726</ele>
        <time>2015-05-17T15:03:25Z</time>
      </trkpt>
      <trkpt lat="45.63369" lon="5.72255">
        <ele>663.30938933197</ele>
        <time>2015-05-17T15:03:30Z</time>
      </trkpt>
      <trkpt lat="45.63361" lon="5.7226">
        <ele>664.52731310902</ele>
        <time>2015-05-17T15:03:35Z</time>
      </trkpt>
      <trkpt lat="45.63349" lon="5.7227">
        <ele>665.82081061015</ele>
        <time>2015-05-17T15:03:40Z</time>
      </trkpt>
      <trkpt lat="45.63338" lon="5.72278">
        <ele>667.02206563101</ele>
        <time>2015-05-17T15:03:45Z</time>
      </trkpt>
      <trkpt lat="45.63331" lon="5.72281">
        <ele>667.02206563101</ele>
        <time>2015-05-17T15:03:50Z</time>
      </trkpt>
      <trkpt lat="45.63325" lon="5.7228">
        <ele>667.75981175406</ele>
        <time>2015-05-17T15:03:55Z</time>
      </trkpt>
      <trkpt lat="45.63321" lon="5.72281">
        <ele>667.75981175406</ele>
        <time>2015-05-17T15:04:00Z</time>
      </trkpt>
      <trkpt lat="45.63318" lon="5.72283">
        <ele>667.75981175406</ele>
        <time>2015-05-17T15:04:05Z</time>
      </trkpt>
      <trkpt lat="45.63316" lon="5.72283">
        <ele>669.11818657791</ele>
        <time>2015-05-17T15:04:10Z</time>
      </trkpt>
      <trkpt lat="45.63312" lon="5.72285">
        <ele>669.11818657791</ele>
        <time>2015-05-17T15:04:15Z</time>
      </trkpt>
      <trkpt lat="45.63301" lon="5.72286">
        <ele>669.99605233673</ele>
        <time>2015-05-17T15:04:20Z</time>
      </trkpt>
      <trkpt lat="45.63292" lon="5.72287">
        <ele>670.57075709042</ele>
        <time>2015-05-17T15:04:25Z</time>
      </trkpt>
      <trkpt lat="45.63284" lon="5.7229">
        <ele>670.57075709042</ele>
        <time>2015-05-17T15:04:30Z</time>
      </trkpt>
      <trkpt lat="45.63271" lon="5.72298">
        <ele>671.4255170259</ele>
        <time>2015-05-17T15:04:35Z</time>
      </trkpt>
      <trkpt lat="45.63249" lon="5.72299">
        <ele>672.36507277484</ele>
        <time>2015-05-17T15:04:40Z</time>
      </trkpt>
      <trkpt lat="45.63243" lon="5.72298">
        <ele>672.36507277484</ele>
        <time>2015-05-17T15:04:45Z</time>
      </trkpt>
      <trkpt lat="45.63239" lon="5.72297">
        <ele>673.32367535466</ele>
        <time>2015-05-17T15:04:50Z</time>
      </trkpt>
      <trkpt lat="45.6322" lon="5.72295">
        <ele>673.5919627219</ele>
        <time>2015-05-17T15:04:55Z</time>
      </trkpt>
      <trkpt lat="45.63208" lon="5.72295">
        <ele>673.89819144537</ele>
        <time>2015-05-17T15:05:00Z</time>
      </trkpt>
      <trkpt lat="45.6318" lon="5.72287">
        <ele>674.36949144719</ele>
        <time>2015-05-17T15:05:05Z</time>
      </trkpt>
      <trkpt lat="45.63172" lon="5.72284">
        <ele>674.36949144719</ele>
        <time>2015-05-17T15:05:10Z</time>
      </trkpt>
      <trkpt lat="45.63165" lon="5.72283">
        <ele>674.92152778929</ele>
        <time>2015-05-17T15:05:15Z</time>
      </trkpt>
      <trkpt lat="45.63162" lon="5.72282">
        <ele>674.92152778929</ele>
        <time>2015-05-17T15:05:20Z</time>
      </trkpt>
      <trkpt lat="45.63153" lon="5.72286">
        <ele>675.73542056665</ele>
        <time>2015-05-17T15:05:25Z</time>
      </trkpt>
      <trkpt lat="45.63142" lon="5.72288">
        <ele>676.2433636854</ele>
        <time>2015-05-17T15:05:30Z</time>
      </trkpt>
      <trkpt lat="45.63135" lon="5.7229">
        <ele>676.2433636854</ele>
        <time>2015-05-17T15:05:35Z</time>
      </trkpt>
      <trkpt lat="45.63128" lon="5.72296">
        <ele>676.69839537419</ele>
        <time>2015-05-17T15:05:40Z</time>
      </trkpt>
      <trkpt lat="45.63122" lon="5.72296">
        <ele>676.69839537419</ele>
        <time>2015-05-17T15:05:45Z</time>
      </trkpt>
      <trkpt lat="45.63119" lon="5.72296">
        <ele>676.69839537419</ele>
        <time>2015-05-17T15:05:50Z</time>
      </trkpt>
      <trkpt lat="45.63114" lon="5.72298">
        <ele>676.70109420612</ele>
        <time>2015-05-17T15:05:55Z</time>
      </trkpt>
      <trkpt lat="45.63106" lon="5.72302">
        <ele>676.70109420612</ele>
        <time>2015-05-17T15:06:00Z</time>
      </trkpt>
      <trkpt lat="45.63093" lon="5.72303">
        <ele>676.0124101942</ele>
        <time>2015-05-17T15:06:05Z</time>
      </trkpt>
      <trkpt lat="45.63085" lon="5.72305">
        <ele>676.0124101942</ele>
        <time>2015-05-17T15:06:10Z</time>
      </trkpt>
      <trkpt lat="45.63079" lon="5.72306">
        <ele>674.72988824144</ele>
        <time>2015-05-17T15:06:15Z</time>
      </trkpt>
      <trkpt lat="45.63076" lon="5.72306">
        <ele>674.72988824144</ele>
        <time>2015-05-17T15:06:20Z</time>
      </trkpt>
      <trkpt lat="45.63072" lon="5.7231">
        <ele>674.72988824144</ele>
        <time>2015-05-17T15:06:25Z</time>
      </trkpt>
      <trkpt lat="45.63066" lon="5.72313">
        <ele>674.71818003162</ele>
        <time>2015-05-17T15:06:30Z</time>
      </trkpt>
      <trkpt lat="45.6306" lon="5.72316">
        <ele>674.71818003162</ele>
        <time>2015-05-17T15:06:35Z</time>
      </trkpt>
      <trkpt lat="45.63055" lon="5.72318">
        <ele>674.93448919636</ele>
        <time>2015-05-17T15:06:40Z</time>
      </trkpt>
      <trkpt lat="45.63045" lon="5.72328">
        <ele>675.9395802562</ele>
        <time>2015-05-17T15:06:45Z</time>
      </trkpt>
      <trkpt lat="45.63028" lon="5.72333">
        <ele>676.36296846756</ele>
        <time>2015-05-17T15:06:50Z</time>
      </trkpt>
      <trkpt lat="45.63014" lon="5.72337">
        <ele>676.03173037263</ele>
        <time>2015-05-17T15:06:55Z</time>
      </trkpt>
      <trkpt lat="45.62988" lon="5.72339">
        <ele>675.5371459445</ele>
        <time>2015-05-17T15:07:00Z</time>
      </trkpt>
      <trkpt lat="45.62969" lon="5.72339">
        <ele>675.68691951248</ele>
        <time>2015-05-17T15:07:05Z</time>
      </trkpt>
      <trkpt lat="45.62958" lon="5.72339">
        <ele>676.08913174266</ele>
        <time>2015-05-17T15:07:10Z</time>
      </trkpt>
      <trkpt lat="45.6295" lon="5.72337">
        <ele>676.08913174266</ele>
        <time>2015-05-17T15:07:15Z</time>
      </trkpt>
      <trkpt lat="45.62938" lon="5.72339">
        <ele>677.30224912018</ele>
        <time>2015-05-17T15:07:20Z</time>
      </trkpt>
      <trkpt lat="45.62919" lon="5.72342">
        <ele>677.46359460782</ele>
        <time>2015-05-17T15:07:25Z</time>
      </trkpt>
      <trkpt lat="45.62911" lon="5.72351">
        <ele>677.64601934901</ele>
        <time>2015-05-17T15:07:30Z</time>
      </trkpt>
      <trkpt lat="45.62901" lon="5.72355">
        <ele>678.00764931027</ele>
        <time>2015-05-17T15:07:35Z</time>
      </trkpt>
      <trkpt lat="45.62892" lon="5.72358">
        <ele>678.34861400122</ele>
        <time>2015-05-17T15:07:40Z</time>
      </trkpt>
      <trkpt lat="45.62883" lon="5.72357">
        <ele>678.93051543553</ele>
        <time>2015-05-17T15:07:45Z</time>
      </trkpt>
      <trkpt lat="45.62876" lon="5.72364">
        <ele>678.93051543553</ele>
        <time>2015-05-17T15:07:50Z</time>
      </trkpt>
      <trkpt lat="45.6287" lon="5.72374">
        <ele>679.82211673179</ele>
        <time>2015-05-17T15:07:55Z</time>
      </trkpt>
      <trkpt lat="45.62864" lon="5.72383">
        <ele>679.82211673179</ele>
        <time>2015-05-17T15:08:00Z</time>
      </trkpt>
      <trkpt lat="45.62858" lon="5.7239">
        <ele>680.52421570421</ele>
        <time>2015-05-17T15:08:05Z</time>
      </trkpt>
      <trkpt lat="45.62853" lon="5.72398">
        <ele>680.52421570421</ele>
        <time>2015-05-17T15:08:10Z</time>
      </trkpt>
      <trkpt lat="45.62846" lon="5.72403">
        <ele>681.25212536423</ele>
        <time>2015-05-17T15:08:15Z</time>
      </trkpt>
      <trkpt lat="45.62838" lon="5.7241">
        <ele>682.13320639373</ele>
        <time>2015-05-17T15:08:20Z</time>
      </trkpt>
      <trkpt lat="45.62831" lon="5.72416">
        <ele>682.13320639373</ele>
        <time>2015-05-17T15:08:25Z</time>
      </trkpt>
      <trkpt lat="45.62822" lon="5.72423">
        <ele>683.28502940293</ele>
        <time>2015-05-17T15:08:30Z</time>
      </trkpt>
      <trkpt lat="45.62815" lon="5.72423">
        <ele>683.28502940293</ele>
        <time>2015-05-17T15:08:35Z</time>
      </trkpt>
      <trkpt lat="45.62808" lon="5.72428">
        <ele>683.6484657509</ele>
        <time>2015-05-17T15:08:40Z</time>
      </trkpt>
      <trkpt lat="45.62802" lon="5.72441">
        <ele>684.52135773257</ele>
        <time>2015-05-17T15:08:45Z</time>
      </trkpt>
      <trkpt lat="45.62788" lon="5.72452">
        <ele>685.02958030877</ele>
        <time>2015-05-17T15:08:50Z</time>
      </trkpt>
      <trkpt lat="45.62774" lon="5.72458">
        <ele>685.32979070607</ele>
        <time>2015-05-17T15:08:55Z</time>
      </trkpt>
      <trkpt lat="45.62767" lon="5.72468">
        <ele>685.74065631095</ele>
        <time>2015-05-17T15:09:00Z</time>
      </trkpt>
      <trkpt lat="45.62761" lon="5.72469">
        <ele>685.74065631095</ele>
        <time>2015-05-17T15:09:05Z</time>
      </trkpt>
      <trkpt lat="45.62754" lon="5.7247">
        <ele>685.79333550138</ele>
        <time>2015-05-17T15:09:10Z</time>
      </trkpt>
      <trkpt lat="45.62746" lon="5.72478">
        <ele>686.56759801051</ele>
        <time>2015-05-17T15:09:15Z</time>
      </trkpt>
      <trkpt lat="45.62739" lon="5.72484">
        <ele>686.56759801051</ele>
        <time>2015-05-17T15:09:20Z</time>
      </trkpt>
      <trkpt lat="45.62732" lon="5.72484">
        <ele>686.68403214911</ele>
        <time>2015-05-17T15:09:25Z</time>
      </trkpt>
      <trkpt lat="45.62726" lon="5.72486">
        <ele>686.68403214911</ele>
        <time>2015-05-17T15:09:30Z</time>
      </trkpt>
      <trkpt lat="45.6272" lon="5.7249">
        <ele>686.73984187307</ele>
        <time>2015-05-17T15:09:35Z</time>
      </trkpt>
      <trkpt lat="45.62713" lon="5.72493">
        <ele>686.73984187307</ele>
        <time>2015-05-17T15:09:40Z</time>
      </trkpt>
      <trkpt lat="45.6271" lon="5.72494">
        <ele>686.78413382505</ele>
        <time>2015-05-17T15:09:45Z</time>
      </trkpt>
      <trkpt lat="45.62704" lon="5.72496">
        <ele>686.78413382505</ele>
        <time>2015-05-17T15:09:50Z</time>
      </trkpt>
      <trkpt lat="45.62698" lon="5.725">
        <ele>686.31480561753</ele>
        <time>2015-05-17T15:09:55Z</time>
      </trkpt>
      <trkpt lat="45.62692" lon="5.72502">
        <ele>686.31480561753</ele>
        <time>2015-05-17T15:10:00Z</time>
      </trkpt>
      <trkpt lat="45.62685" lon="5.7251">
        <ele>685.66067445777</ele>
        <time>2015-05-17T15:10:05Z</time>
      </trkpt>
      <trkpt lat="45.6268" lon="5.72517">
        <ele>685.66067445777</ele>
        <time>2015-05-17T15:10:10Z</time>
      </trkpt>
      <trkpt lat="45.62675" lon="5.72527">
        <ele>685.64569953033</ele>
        <time>2015-05-17T15:10:15Z</time>
      </trkpt>
      <trkpt lat="45.62669" lon="5.72536">
        <ele>685.64569953033</ele>
        <time>2015-05-17T15:10:20Z</time>
      </trkpt>
      <trkpt lat="45.62663" lon="5.72543">
        <ele>685.24451316099</ele>
        <time>2015-05-17T15:10:25Z</time>
      </trkpt>
      <trkpt lat="45.62657" lon="5.7255">
        <ele>685.24451316099</ele>
        <time>2015-05-17T15:10:30Z</time>
      </trkpt>
      <trkpt lat="45.62655" lon="5.72557">
        <ele>684.94923243228</ele>
        <time>2015-05-17T15:10:35Z</time>
      </trkpt>
      <trkpt lat="45.6265" lon="5.72561">
        <ele>684.94923243228</ele>
        <time>2015-05-17T15:10:40Z</time>
      </trkpt>
      <trkpt lat="45.62641" lon="5.72561">
        <ele>683.74555341755</ele>
        <time>2015-05-17T15:10:45Z</time>
      </trkpt>
      <trkpt lat="45.62635" lon="5.72562">
        <ele>683.74555341755</ele>
        <time>2015-05-17T15:10:50Z</time>
      </trkpt>
      <trkpt lat="45.62629" lon="5.72563">
        <ele>681.74819499204</ele>
        <time>2015-05-17T15:10:55Z</time>
      </trkpt>
      <trkpt lat="45.62622" lon="5.72566">
        <ele>681.74819499204</ele>
        <time>2015-05-17T15:11:00Z</time>
      </trkpt>
      <trkpt lat="45.62619" lon="5.72571">
        <ele>680.20409681533</ele>
        <time>2015-05-17T15:11:05Z</time>
      </trkpt>
      <trkpt lat="45.62615" lon="5.72582">
        <ele>680.20409681533</ele>
        <time>2015-05-17T15:11:10Z</time>
      </trkpt>
      <trkpt lat="45.62611" lon="5.72584">
        <ele>678.92702608704</ele>
        <time>2015-05-17T15:11:15Z</time>
      </trkpt>
      <trkpt lat="45.6261" lon="5.72585">
        <ele>678.92702608704</ele>
        <time>2015-05-17T15:11:20Z</time>
      </trkpt>
      <trkpt lat="45.62609" lon="5.72586">
        <ele>678.92702608704</ele>
        <time>2015-05-17T15:11:25Z</time>
      </trkpt>
      <trkpt lat="45.62609" lon="5.72586">
        <ele>678.92702608704</ele>
        <time>2015-05-17T15:11:30Z</time>
      </trkpt>
      <trkpt lat="45.62609" lon="5.72586">
        <ele>678.92702608704</ele>
        <time>2015-05-17T15:11:35Z</time>
      </trkpt>
      <trkpt lat="45.62609" lon="5.72586">
        <ele>678.92702608704</ele>
        <time>2015-05-17T15:11:40Z</time>
      </trkpt>
      <trkpt lat="45.62609" lon="5.72586">
        <ele>678.92702608704</ele>
        <time>2015-05-17T15:11:45Z</time>
      </trkpt>
      <trkpt lat="45.62609" lon="5.72586">
        <ele>678.92702608704</ele>
        <time>2015-05-17T15:11:50Z</time>
      </trkpt>
      <trkpt lat="45.62609" lon="5.72586">
        <ele>678.92702608704</ele>
        <time>2015-05-17T15:11:55Z</time>
      </trkpt>
      <trkpt lat="45.62609" lon="5.72586">
        <ele>678.92702608704</ele>
        <time>2015-05-17T15:12:00Z</time>
      </trkpt>
      <trkpt lat="45.62609" lon="5.72586">
        <ele>678.92702608704</ele>
        <time>2015-05-17T15:12:05Z</time>
      </trkpt>
      <trkpt lat="45.62609" lon="5.72586">
        <ele>678.92702608704</ele>
        <time>2015-05-17T15:12:10Z</time>
      </trkpt>
      <trkpt lat="45.62609" lon="5.72586">
        <ele>678.92702608704</ele>
        <time>2015-05-17T15:12:15Z</time>
      </trkpt>
      <trkpt lat="45.62603" lon="5.7259">
        <ele>678.92702608704</ele>
        <time>2015-05-17T15:12:20Z</time>
      </trkpt>
      <trkpt lat="45.62599" lon="5.72595">
        <ele>678.11829232186</ele>
        <time>2015-05-17T15:12:25Z</time>
      </trkpt>
      <trkpt lat="45.62598" lon="5.72597">
        <ele>678.11829232186</ele>
        <time>2015-05-17T15:12:30Z</time>
      </trkpt>
      <trkpt lat="45.62593" lon="5.72598">
        <ele>678.11829232186</ele>
        <time>2015-05-17T15:12:35Z</time>
      </trkpt>
      <trkpt lat="45.62593" lon="5.72599">
        <ele>678.11829232186</ele>
        <time>2015-05-17T15:12:40Z</time>
      </trkpt>
      <trkpt lat="45.62589" lon="5.72604">
        <ele>677.17040478908</ele>
        <time>2015-05-17T15:12:45Z</time>
      </trkpt>
      <trkpt lat="45.62579" lon="5.72611">
        <ele>676.52957491552</ele>
        <time>2015-05-17T15:12:50Z</time>
      </trkpt>
      <trkpt lat="45.62572" lon="5.72615">
        <ele>676.52957491552</ele>
        <time>2015-05-17T15:12:55Z</time>
      </trkpt>
      <trkpt lat="45.62567" lon="5.72617">
        <ele>675.49862211408</ele>
        <time>2015-05-17T15:13:00Z</time>
      </trkpt>
      <trkpt lat="45.62559" lon="5.72619">
        <ele>675.49862211408</ele>
        <time>2015-05-17T15:13:05Z</time>
      </trkpt>
      <trkpt lat="45.62553" lon="5.72619">
        <ele>673.63432978217</ele>
        <time>2015-05-17T15:13:10Z</time>
      </trkpt>
      <trkpt lat="45.62557" lon="5.72622">
        <ele>673.63432978217</ele>
        <time>2015-05-17T15:13:15Z</time>
      </trkpt>
      <trkpt lat="45.62564" lon="5.72627">
        <ele>672.31525120655</ele>
        <time>2015-05-17T15:13:20Z</time>
      </trkpt>
      <trkpt lat="45.62564" lon="5.72627">
        <ele>672.31525120655</ele>
        <time>2015-05-17T15:13:25Z</time>
      </trkpt>
      <trkpt lat="45.62564" lon="5.72627">
        <ele>672.31525120655</ele>
        <time>2015-05-17T15:13:30Z</time>
      </trkpt>
      <trkpt lat="45.62569" lon="5.72625">
        <ele>672.31525120655</ele>
        <time>2015-05-17T15:13:35Z</time>
      </trkpt>
      <trkpt lat="45.62576" lon="5.72623">
        <ele>671.00123207687</ele>
        <time>2015-05-17T15:13:40Z</time>
      </trkpt>
      <trkpt lat="45.62584" lon="5.72624">
        <ele>671.00123207687</ele>
        <time>2015-05-17T15:13:45Z</time>
      </trkpt>
      <trkpt lat="45.62592" lon="5.72626">
        <ele>670.20044738139</ele>
        <time>2015-05-17T15:13:50Z</time>
      </trkpt>
      <trkpt lat="45.62596" lon="5.72628">
        <ele>670.20044738139</ele>
        <time>2015-05-17T15:13:55Z</time>
      </trkpt>
      <trkpt lat="45.62602" lon="5.72627">
        <ele>669.30135102851</ele>
        <time>2015-05-17T15:14:00Z</time>
      </trkpt>
      <trkpt lat="45.62611" lon="5.72626">
        <ele>669.30135102851</ele>
        <time>2015-05-17T15:14:05Z</time>
      </trkpt>
      <trkpt lat="45.62618" lon="5.72625">
        <ele>668.54450104166</ele>
        <time>2015-05-17T15:14:10Z</time>
      </trkpt>
      <trkpt lat="45.62624" lon="5.72625">
        <ele>668.54450104166</ele>
        <time>2015-05-17T15:14:15Z</time>
      </trkpt>
      <trkpt lat="45.6263" lon="5.72624">
        <ele>667.6622896626</ele>
        <time>2015-05-17T15:14:20Z</time>
      </trkpt>
      <trkpt lat="45.62633" lon="5.72623">
        <ele>667.6622896626</ele>
        <time>2015-05-17T15:14:25Z</time>
      </trkpt>
      <trkpt lat="45.62636" lon="5.72622">
        <ele>667.6622896626</ele>
        <time>2015-05-17T15:14:30Z</time>
      </trkpt>
      <trkpt lat="45.62638" lon="5.72623">
        <ele>667.6622896626</ele>
        <time>2015-05-17T15:14:35Z</time>
      </trkpt>
      <trkpt lat="45.62643" lon="5.72622">
        <ele>666.79610322171</ele>
        <time>2015-05-17T15:14:40Z</time>
      </trkpt>
      <trkpt lat="45.62649" lon="5.72622">
        <ele>666.79610322171</ele>
        <time>2015-05-17T15:14:45Z</time>
      </trkpt>
      <trkpt lat="45.62651" lon="5.72622">
        <ele>666.79610322171</ele>
        <time>2015-05-17T15:14:50Z</time>
      </trkpt>
      <trkpt lat="45.62652" lon="5.72623">
        <ele>666.79610322171</ele>
        <time>2015-05-17T15:14:55Z</time>
      </trkpt>
      <trkpt lat="45.62652" lon="5.72623">
        <ele>666.79610322171</ele>
        <time>2015-05-17T15:15:00Z</time>
      </trkpt>
      <trkpt lat="45.62652" lon="5.72623">
        <ele>666.79610322171</ele>
        <time>2015-05-17T15:15:05Z</time>
      </trkpt>
      <trkpt lat="45.62652" lon="5.72623">
        <ele>666.79610322171</ele>
        <time>2015-05-17T15:15:10Z</time>
      </trkpt>
      <trkpt lat="45.62652" lon="5.72623">
        <ele>666.79610322171</ele>
        <time>2015-05-17T15:15:15Z</time>
      </trkpt>
      <trkpt lat="45.62652" lon="5.72623">
        <ele>666.79610322171</ele>
        <time>2015-05-17T15:15:20Z</time>
      </trkpt>
      <trkpt lat="45.62653" lon="5.72625">
        <ele>666.5235281694</ele>
        <time>2015-05-17T15:15:25Z</time>
      </trkpt>
      <trkpt lat="45.62653" lon="5.72625">
        <ele>666.5235281694</ele>
        <time>2015-05-17T15:15:30Z</time>
      </trkpt>
      <trkpt lat="45.62653" lon="5.72625">
        <ele>666.5235281694</ele>
        <time>2015-05-17T15:15:35Z</time>
      </trkpt>
      <trkpt lat="45.62653" lon="5.72625">
        <ele>666.5235281694</ele>
        <time>2015-05-17T15:15:40Z</time>
      </trkpt>
      <trkpt lat="45.62653" lon="5.72625">
        <ele>666.5235281694</ele>
        <time>2015-05-17T15:15:45Z</time>
      </trkpt>
      <trkpt lat="45.62653" lon="5.72625">
        <ele>666.5235281694</ele>
        <time>2015-05-17T15:15:50Z</time>
      </trkpt>
      <trkpt lat="45.62653" lon="5.72625">
        <ele>666.5235281694</ele>
        <time>2015-05-17T15:15:55Z</time>
      </trkpt>
      <trkpt lat="45.62653" lon="5.72625">
        <ele>666.5235281694</ele>
        <time>2015-05-17T15:16:00Z</time>
      </trkpt>
      <trkpt lat="45.62653" lon="5.72625">
        <ele>666.5235281694</ele>
        <time>2015-05-17T15:16:05Z</time>
      </trkpt>
      <trkpt lat="45.62653" lon="5.72625">
        <ele>666.5235281694</ele>
        <time>2015-05-17T15:16:10Z</time>
      </trkpt>
      <trkpt lat="45.62653" lon="5.72625">
        <ele>666.5235281694</ele>
        <time>2015-05-17T15:16:15Z</time>
      </trkpt>
      <trkpt lat="45.62653" lon="5.72625">
        <ele>666.5235281694</ele>
        <time>2015-05-17T15:16:20Z</time>
      </trkpt>
      <trkpt lat="45.62653" lon="5.72625">
        <ele>666.5235281694</ele>
        <time>2015-05-17T15:16:25Z</time>
      </trkpt>
      <trkpt lat="45.62653" lon="5.72625">
        <ele>666.5235281694</ele>
        <time>2015-05-17T15:16:30Z</time>
      </trkpt>
      <trkpt lat="45.62653" lon="5.72625">
        <ele>666.5235281694</ele>
        <time>2015-05-17T15:16:35Z</time>
      </trkpt>
      <trkpt lat="45.62654" lon="5.72625">
        <ele>666.5235281694</ele>
        <time>2015-05-17T15:16:40Z</time>
      </trkpt>
      <trkpt lat="45.62657" lon="5.72623">
        <ele>666.5235281694</ele>
        <time>2015-05-17T15:16:45Z</time>
      </trkpt>
      <trkpt lat="45.62658" lon="5.72623">
        <ele>666.5235281694</ele>
        <time>2015-05-17T15:16:50Z</time>
      </trkpt>
      <trkpt lat="45.62658" lon="5.72624">
        <ele>666.5235281694</ele>
        <time>2015-05-17T15:16:55Z</time>
      </trkpt>
      <trkpt lat="45.62657" lon="5.72625">
        <ele>666.5235281694</ele>
        <time>2015-05-17T15:17:00Z</time>
      </trkpt>
      <trkpt lat="45.62657" lon="5.72624">
        <ele>666.5235281694</ele>
        <time>2015-05-17T15:17:05Z</time>
      </trkpt>
      <trkpt lat="45.62658" lon="5.72624">
        <ele>666.5235281694</ele>
        <time>2015-05-17T15:17:10Z</time>
      </trkpt>
      <trkpt lat="45.62657" lon="5.72624">
        <ele>666.5235281694</ele>
        <time>2015-05-17T15:17:15Z</time>
      </trkpt>
      <trkpt lat="45.62657" lon="5.72624">
        <ele>666.5235281694</ele>
        <time>2015-05-17T15:17:20Z</time>
      </trkpt>
      <trkpt lat="45.62657" lon="5.72624">
        <ele>666.5235281694</ele>
        <time>2015-05-17T15:17:25Z</time>
      </trkpt>
      <trkpt lat="45.62657" lon="5.72628">
        <ele>666.54210246907</ele>
        <time>2015-05-17T15:17:30Z</time>
      </trkpt>
      <trkpt lat="45.62654" lon="5.72631">
        <ele>666.54210246907</ele>
        <time>2015-05-17T15:17:35Z</time>
      </trkpt>
      <trkpt lat="45.62656" lon="5.72631">
        <ele>666.54210246907</ele>
        <time>2015-05-17T15:17:40Z</time>
      </trkpt>
      <trkpt lat="45.62654" lon="5.72634">
        <ele>666.54210246907</ele>
        <time>2015-05-17T15:17:45Z</time>
      </trkpt>
      <trkpt lat="45.62648" lon="5.72637">
        <ele>665.90774977428</ele>
        <time>2015-05-17T15:17:50Z</time>
      </trkpt>
      <trkpt lat="45.62644" lon="5.7264">
        <ele>665.90774977428</ele>
        <time>2015-05-17T15:17:55Z</time>
      </trkpt>
      <trkpt lat="45.62639" lon="5.72647">
        <ele>664.91477698721</ele>
        <time>2015-05-17T15:18:00Z</time>
      </trkpt>
      <trkpt lat="45.62637" lon="5.72652">
        <ele>664.91477698721</ele>
        <time>2015-05-17T15:18:05Z</time>
      </trkpt>
      <trkpt lat="45.62637" lon="5.72653">
        <ele>664.91477698721</ele>
        <time>2015-05-17T15:18:10Z</time>
      </trkpt>
      <trkpt lat="45.62636" lon="5.72653">
        <ele>664.91477698721</ele>
        <time>2015-05-17T15:18:15Z</time>
      </trkpt>
      <trkpt lat="45.62637" lon="5.72653">
        <ele>664.91477698721</ele>
        <time>2015-05-17T15:18:20Z</time>
      </trkpt>
      <trkpt lat="45.62637" lon="5.72654">
        <ele>664.91477698721</ele>
        <time>2015-05-17T15:18:25Z</time>
      </trkpt>
      <trkpt lat="45.62637" lon="5.72654">
        <ele>664.91477698721</ele>
        <time>2015-05-17T15:18:30Z</time>
      </trkpt>
      <trkpt lat="45.62636" lon="5.72653">
        <ele>664.91477698721</ele>
        <time>2015-05-17T15:18:35Z</time>
      </trkpt>
      <trkpt lat="45.62633" lon="5.72649">
        <ele>663.56296967307</ele>
        <time>2015-05-17T15:18:40Z</time>
      </trkpt>
      <trkpt lat="45.62632" lon="5.72644">
        <ele>663.56296967307</ele>
        <time>2015-05-17T15:18:45Z</time>
      </trkpt>
      <trkpt lat="45.62631" lon="5.72649">
        <ele>663.56296967307</ele>
        <time>2015-05-17T15:18:50Z</time>
      </trkpt>
      <trkpt lat="45.62632" lon="5.72655">
        <ele>663.56296967307</ele>
        <time>2015-05-17T15:18:50Z</time>
      </trkpt>
    </trkseg>
  </trk>
</gpx>